<?xml version="1.0" encoding="UTF-8" standalone="no" ?>
<gpx xmlns="http://www.topografix.com/GPX/1/1" xmlns:xsi="http://www.w3.org/2001/XMLSchema-instance" xsi:schemaLocation="http://www.topografix.com/GPX/1/1 http://www.topografix.com/GPX/1/1/gpx.xsd" version="1.1" creator="VisuGPX - https://www.visugpx.com">
  <metadata>
    <name>22.05.2011. Sortie Equi\'Tey (plus seule)</name>
    <desc><![CDATA[20 kms avec Equi\'Tey, le rendez-vous est à \"Cheval nature\" à Queue noire.
Je décide de partir du pré pour voir si 44 kms, c\'est faisable sans trop de difficulté.]]></desc>
  </metadata>
  <trk>
    <name><![CDATA[Untitled]]></name>
    <trkseg>
      <trkpt lat="48.70755" lon="1.75813">
        <ele>173</ele>
        <time>2011-05-22T05:50:56.000Z</time>
      </trkpt>
      <trkpt lat="48.70746" lon="1.75799">
        <ele>173.19999694824</ele>
        <time>2011-05-22T05:51:06.000Z</time>
      </trkpt>
      <trkpt lat="48.70739" lon="1.75788">
        <ele>173.39999389648</ele>
        <time>2011-05-22T05:51:14.000Z</time>
      </trkpt>
      <trkpt lat="48.70732" lon="1.75776">
        <ele>173.60000610352</ele>
        <time>2011-05-22T05:51:22.000Z</time>
      </trkpt>
      <trkpt lat="48.70725" lon="1.75765">
        <ele>173.60000610352</ele>
        <time>2011-05-22T05:51:30.000Z</time>
      </trkpt>
      <trkpt lat="48.70722" lon="1.75761">
        <ele>173.80000305176</ele>
        <time>2011-05-22T05:51:33.000Z</time>
      </trkpt>
      <trkpt lat="48.70719" lon="1.75754">
        <ele>173.80000305176</ele>
        <time>2011-05-22T05:51:37.000Z</time>
      </trkpt>
      <trkpt lat="48.70715" lon="1.75747">
        <ele>173.80000305176</ele>
        <time>2011-05-22T05:51:42.000Z</time>
      </trkpt>
      <trkpt lat="48.70705" lon="1.75736">
        <ele>174</ele>
        <time>2011-05-22T05:51:51.000Z</time>
      </trkpt>
      <trkpt lat="48.70701" lon="1.75731">
        <ele>174</ele>
        <time>2011-05-22T05:51:55.000Z</time>
      </trkpt>
      <trkpt lat="48.70696" lon="1.75725">
        <ele>174</ele>
        <time>2011-05-22T05:52:00.000Z</time>
      </trkpt>
      <trkpt lat="48.70692" lon="1.75718">
        <ele>174</ele>
        <time>2011-05-22T05:52:05.000Z</time>
      </trkpt>
      <trkpt lat="48.70691" lon="1.75715">
        <ele>174</ele>
        <time>2011-05-22T05:52:07.000Z</time>
      </trkpt>
      <trkpt lat="48.7069" lon="1.75712">
        <ele>174.19999694824</ele>
        <time>2011-05-22T05:52:09.000Z</time>
      </trkpt>
      <trkpt lat="48.70683" lon="1.75704">
        <ele>174.19999694824</ele>
        <time>2011-05-22T05:52:16.000Z</time>
      </trkpt>
      <trkpt lat="48.70677" lon="1.75697">
        <ele>174.39999389648</ele>
        <time>2011-05-22T05:52:21.000Z</time>
      </trkpt>
      <trkpt lat="48.70669" lon="1.7569">
        <ele>174.60000610352</ele>
        <time>2011-05-22T05:52:27.000Z</time>
      </trkpt>
      <trkpt lat="48.70662" lon="1.75683">
        <ele>175.19999694824</ele>
        <time>2011-05-22T05:52:33.000Z</time>
      </trkpt>
      <trkpt lat="48.70657" lon="1.75681">
        <ele>175.80000305176</ele>
        <time>2011-05-22T05:52:38.000Z</time>
      </trkpt>
      <trkpt lat="48.70652" lon="1.75676">
        <ele>176.39999389648</ele>
        <time>2011-05-22T05:52:42.000Z</time>
      </trkpt>
      <trkpt lat="48.70646" lon="1.75668">
        <ele>177.39999389648</ele>
        <time>2011-05-22T05:52:49.000Z</time>
      </trkpt>
      <trkpt lat="48.70641" lon="1.7566">
        <ele>178</ele>
        <time>2011-05-22T05:52:56.000Z</time>
      </trkpt>
      <trkpt lat="48.70634" lon="1.75653">
        <ele>178.80000305176</ele>
        <time>2011-05-22T05:53:03.000Z</time>
      </trkpt>
      <trkpt lat="48.70625" lon="1.75646">
        <ele>179.60000610352</ele>
        <time>2011-05-22T05:53:11.000Z</time>
      </trkpt>
      <trkpt lat="48.70624" lon="1.75641">
        <ele>179.60000610352</ele>
        <time>2011-05-22T05:53:17.000Z</time>
      </trkpt>
      <trkpt lat="48.70625" lon="1.7564">
        <ele>179.60000610352</ele>
        <time>2011-05-22T05:53:19.000Z</time>
      </trkpt>
      <trkpt lat="48.70609" lon="1.75622">
        <ele>181</ele>
        <time>2011-05-22T05:53:59.000Z</time>
      </trkpt>
      <trkpt lat="48.70605" lon="1.75619">
        <ele>181.39999389648</ele>
        <time>2011-05-22T05:54:03.000Z</time>
      </trkpt>
      <trkpt lat="48.70603" lon="1.75613">
        <ele>181.60000610352</ele>
        <time>2011-05-22T05:54:07.000Z</time>
      </trkpt>
      <trkpt lat="48.706" lon="1.75605">
        <ele>181.80000305176</ele>
        <time>2011-05-22T05:54:14.000Z</time>
      </trkpt>
      <trkpt lat="48.70595" lon="1.75596">
        <ele>182</ele>
        <time>2011-05-22T05:54:21.000Z</time>
      </trkpt>
      <trkpt lat="48.70588" lon="1.75589">
        <ele>182.60000610352</ele>
        <time>2011-05-22T05:54:26.000Z</time>
      </trkpt>
      <trkpt lat="48.7058" lon="1.75583">
        <ele>183</ele>
        <time>2011-05-22T05:54:32.000Z</time>
      </trkpt>
      <trkpt lat="48.70577" lon="1.7558">
        <ele>182.80000305176</ele>
        <time>2011-05-22T05:54:34.000Z</time>
      </trkpt>
      <trkpt lat="48.70576" lon="1.75578">
        <ele>182.39999389648</ele>
        <time>2011-05-22T05:54:36.000Z</time>
      </trkpt>
      <trkpt lat="48.7057" lon="1.75571">
        <ele>182</ele>
        <time>2011-05-22T05:54:41.000Z</time>
      </trkpt>
      <trkpt lat="48.70567" lon="1.75569">
        <ele>181.80000305176</ele>
        <time>2011-05-22T05:54:45.000Z</time>
      </trkpt>
      <trkpt lat="48.70561" lon="1.75567">
        <ele>182</ele>
        <time>2011-05-22T05:54:51.000Z</time>
      </trkpt>
      <trkpt lat="48.70553" lon="1.75564">
        <ele>182</ele>
        <time>2011-05-22T05:54:57.000Z</time>
      </trkpt>
      <trkpt lat="48.70546" lon="1.75561">
        <ele>182</ele>
        <time>2011-05-22T05:55:02.000Z</time>
      </trkpt>
      <trkpt lat="48.70542" lon="1.75557">
        <ele>181.80000305176</ele>
        <time>2011-05-22T05:55:06.000Z</time>
      </trkpt>
      <trkpt lat="48.70535" lon="1.75543">
        <ele>181</ele>
        <time>2011-05-22T05:55:14.000Z</time>
      </trkpt>
      <trkpt lat="48.70534" lon="1.75538">
        <ele>180.80000305176</ele>
        <time>2011-05-22T05:55:16.000Z</time>
      </trkpt>
      <trkpt lat="48.70526" lon="1.7553">
        <ele>180.80000305176</ele>
        <time>2011-05-22T05:55:23.000Z</time>
      </trkpt>
      <trkpt lat="48.70525" lon="1.75523">
        <ele>180.39999389648</ele>
        <time>2011-05-22T05:55:28.000Z</time>
      </trkpt>
      <trkpt lat="48.70518" lon="1.75516">
        <ele>180.39999389648</ele>
        <time>2011-05-22T05:55:34.000Z</time>
      </trkpt>
      <trkpt lat="48.70514" lon="1.75511">
        <ele>180.39999389648</ele>
        <time>2011-05-22T05:55:38.000Z</time>
      </trkpt>
      <trkpt lat="48.70506" lon="1.75501">
        <ele>180.39999389648</ele>
        <time>2011-05-22T05:55:46.000Z</time>
      </trkpt>
      <trkpt lat="48.70503" lon="1.755">
        <ele>180.60000610352</ele>
        <time>2011-05-22T05:55:48.000Z</time>
      </trkpt>
      <trkpt lat="48.70495" lon="1.75493">
        <ele>180.60000610352</ele>
        <time>2011-05-22T05:55:54.000Z</time>
      </trkpt>
      <trkpt lat="48.70492" lon="1.7549">
        <ele>180.60000610352</ele>
        <time>2011-05-22T05:55:57.000Z</time>
      </trkpt>
      <trkpt lat="48.70487" lon="1.75489">
        <ele>180.80000305176</ele>
        <time>2011-05-22T05:56:01.000Z</time>
      </trkpt>
      <trkpt lat="48.70484" lon="1.75488">
        <ele>180.80000305176</ele>
        <time>2011-05-22T05:56:03.000Z</time>
      </trkpt>
      <trkpt lat="48.7048" lon="1.75479">
        <ele>180.60000610352</ele>
        <time>2011-05-22T05:56:09.000Z</time>
      </trkpt>
      <trkpt lat="48.70477" lon="1.75475">
        <ele>180.39999389648</ele>
        <time>2011-05-22T05:56:12.000Z</time>
      </trkpt>
      <trkpt lat="48.70472" lon="1.75469">
        <ele>180.39999389648</ele>
        <time>2011-05-22T05:56:17.000Z</time>
      </trkpt>
      <trkpt lat="48.70469" lon="1.75467">
        <ele>180.39999389648</ele>
        <time>2011-05-22T05:56:19.000Z</time>
      </trkpt>
      <trkpt lat="48.70462" lon="1.75461">
        <ele>180.60000610352</ele>
        <time>2011-05-22T05:56:25.000Z</time>
      </trkpt>
      <trkpt lat="48.70456" lon="1.75454">
        <ele>180.60000610352</ele>
        <time>2011-05-22T05:56:31.000Z</time>
      </trkpt>
      <trkpt lat="48.70452" lon="1.75449">
        <ele>180.60000610352</ele>
        <time>2011-05-22T05:56:36.000Z</time>
      </trkpt>
      <trkpt lat="48.70442" lon="1.75443">
        <ele>181</ele>
        <time>2011-05-22T05:56:43.000Z</time>
      </trkpt>
      <trkpt lat="48.70439" lon="1.75441">
        <ele>181</ele>
        <time>2011-05-22T05:56:46.000Z</time>
      </trkpt>
      <trkpt lat="48.70432" lon="1.75435">
        <ele>181.39999389648</ele>
        <time>2011-05-22T05:56:53.000Z</time>
      </trkpt>
      <trkpt lat="48.70426" lon="1.75432">
        <ele>181.60000610352</ele>
        <time>2011-05-22T05:56:59.000Z</time>
      </trkpt>
      <trkpt lat="48.70418" lon="1.75429">
        <ele>182.19999694824</ele>
        <time>2011-05-22T05:57:06.000Z</time>
      </trkpt>
      <trkpt lat="48.70415" lon="1.75428">
        <ele>182.19999694824</ele>
        <time>2011-05-22T05:57:08.000Z</time>
      </trkpt>
      <trkpt lat="48.70411" lon="1.75424">
        <ele>182</ele>
        <time>2011-05-22T05:57:12.000Z</time>
      </trkpt>
      <trkpt lat="48.70409" lon="1.7542">
        <ele>181.80000305176</ele>
        <time>2011-05-22T05:57:14.000Z</time>
      </trkpt>
      <trkpt lat="48.70407" lon="1.75418">
        <ele>181.80000305176</ele>
        <time>2011-05-22T05:57:16.000Z</time>
      </trkpt>
      <trkpt lat="48.70399" lon="1.75413">
        <ele>181.60000610352</ele>
        <time>2011-05-22T05:57:22.000Z</time>
      </trkpt>
      <trkpt lat="48.70398" lon="1.75402">
        <ele>181.19999694824</ele>
        <time>2011-05-22T05:57:28.000Z</time>
      </trkpt>
      <trkpt lat="48.70396" lon="1.75397">
        <ele>181</ele>
        <time>2011-05-22T05:57:34.000Z</time>
      </trkpt>
      <trkpt lat="48.70393" lon="1.75398">
        <ele>181</ele>
        <time>2011-05-22T05:57:38.000Z</time>
      </trkpt>
      <trkpt lat="48.7039" lon="1.75398">
        <ele>181</ele>
        <time>2011-05-22T05:57:42.000Z</time>
      </trkpt>
      <trkpt lat="48.70392" lon="1.75383">
        <ele>180.39999389648</ele>
        <time>2011-05-22T05:58:15.000Z</time>
      </trkpt>
      <trkpt lat="48.70396" lon="1.75371">
        <ele>180</ele>
        <time>2011-05-22T05:58:20.000Z</time>
      </trkpt>
      <trkpt lat="48.70397" lon="1.75367">
        <ele>179.80000305176</ele>
        <time>2011-05-22T05:58:22.000Z</time>
      </trkpt>
      <trkpt lat="48.70403" lon="1.75354">
        <ele>179.19999694824</ele>
        <time>2011-05-22T05:58:28.000Z</time>
      </trkpt>
      <trkpt lat="48.70407" lon="1.75341">
        <ele>178.60000610352</ele>
        <time>2011-05-22T05:58:35.000Z</time>
      </trkpt>
      <trkpt lat="48.70411" lon="1.7533">
        <ele>178.19999694824</ele>
        <time>2011-05-22T05:58:41.000Z</time>
      </trkpt>
      <trkpt lat="48.70413" lon="1.75322">
        <ele>178.19999694824</ele>
        <time>2011-05-22T05:58:45.000Z</time>
      </trkpt>
      <trkpt lat="48.70416" lon="1.75312">
        <ele>178.19999694824</ele>
        <time>2011-05-22T05:58:51.000Z</time>
      </trkpt>
      <trkpt lat="48.70419" lon="1.75297">
        <ele>178.19999694824</ele>
        <time>2011-05-22T05:58:59.000Z</time>
      </trkpt>
      <trkpt lat="48.70421" lon="1.75293">
        <ele>178</ele>
        <time>2011-05-22T05:59:01.000Z</time>
      </trkpt>
      <trkpt lat="48.70423" lon="1.75286">
        <ele>178</ele>
        <time>2011-05-22T05:59:05.000Z</time>
      </trkpt>
      <trkpt lat="48.70427" lon="1.75269">
        <ele>177.80000305176</ele>
        <time>2011-05-22T05:59:14.000Z</time>
      </trkpt>
      <trkpt lat="48.70428" lon="1.75268">
        <ele>177.80000305176</ele>
        <time>2011-05-22T05:59:15.000Z</time>
      </trkpt>
      <trkpt lat="48.70432" lon="1.75258">
        <ele>177.60000610352</ele>
        <time>2011-05-22T05:59:21.000Z</time>
      </trkpt>
      <trkpt lat="48.70434" lon="1.75252">
        <ele>177.39999389648</ele>
        <time>2011-05-22T05:59:25.000Z</time>
      </trkpt>
      <trkpt lat="48.70437" lon="1.75239">
        <ele>177.60000610352</ele>
        <time>2011-05-22T05:59:32.000Z</time>
      </trkpt>
      <trkpt lat="48.70439" lon="1.75229">
        <ele>177.80000305176</ele>
        <time>2011-05-22T05:59:37.000Z</time>
      </trkpt>
      <trkpt lat="48.70444" lon="1.75212">
        <ele>178</ele>
        <time>2011-05-22T05:59:46.000Z</time>
      </trkpt>
      <trkpt lat="48.70447" lon="1.75202">
        <ele>178</ele>
        <time>2011-05-22T05:59:51.000Z</time>
      </trkpt>
      <trkpt lat="48.70449" lon="1.75191">
        <ele>178.19999694824</ele>
        <time>2011-05-22T05:59:57.000Z</time>
      </trkpt>
      <trkpt lat="48.70455" lon="1.75174">
        <ele>178.19999694824</ele>
        <time>2011-05-22T06:00:06.000Z</time>
      </trkpt>
      <trkpt lat="48.7046" lon="1.75158">
        <ele>178</ele>
        <time>2011-05-22T06:00:15.000Z</time>
      </trkpt>
      <trkpt lat="48.70465" lon="1.75144">
        <ele>177.80000305176</ele>
        <time>2011-05-22T06:00:24.000Z</time>
      </trkpt>
      <trkpt lat="48.70466" lon="1.75139">
        <ele>177.80000305176</ele>
        <time>2011-05-22T06:00:27.000Z</time>
      </trkpt>
      <trkpt lat="48.70469" lon="1.75132">
        <ele>177.80000305176</ele>
        <time>2011-05-22T06:00:33.000Z</time>
      </trkpt>
      <trkpt lat="48.70473" lon="1.75127">
        <ele>177.80000305176</ele>
        <time>2011-05-22T06:00:36.000Z</time>
      </trkpt>
      <trkpt lat="48.70476" lon="1.75117">
        <ele>178</ele>
        <time>2011-05-22T06:00:41.000Z</time>
      </trkpt>
      <trkpt lat="48.70481" lon="1.75102">
        <ele>178.39999389648</ele>
        <time>2011-05-22T06:00:49.000Z</time>
      </trkpt>
      <trkpt lat="48.70482" lon="1.75094">
        <ele>178.80000305176</ele>
        <time>2011-05-22T06:00:53.000Z</time>
      </trkpt>
      <trkpt lat="48.70483" lon="1.75088">
        <ele>179</ele>
        <time>2011-05-22T06:00:56.000Z</time>
      </trkpt>
      <trkpt lat="48.70483" lon="1.75081">
        <ele>179.39999389648</ele>
        <time>2011-05-22T06:01:00.000Z</time>
      </trkpt>
      <trkpt lat="48.70484" lon="1.75065">
        <ele>180</ele>
        <time>2011-05-22T06:01:08.000Z</time>
      </trkpt>
      <trkpt lat="48.70484" lon="1.75062">
        <ele>180</ele>
        <time>2011-05-22T06:01:10.000Z</time>
      </trkpt>
      <trkpt lat="48.70487" lon="1.75048">
        <ele>180.60000610352</ele>
        <time>2011-05-22T06:01:17.000Z</time>
      </trkpt>
      <trkpt lat="48.70488" lon="1.75036">
        <ele>181</ele>
        <time>2011-05-22T06:01:23.000Z</time>
      </trkpt>
      <trkpt lat="48.7049" lon="1.75024">
        <ele>181.60000610352</ele>
        <time>2011-05-22T06:01:29.000Z</time>
      </trkpt>
      <trkpt lat="48.7049" lon="1.7501">
        <ele>182.19999694824</ele>
        <time>2011-05-22T06:01:36.000Z</time>
      </trkpt>
      <trkpt lat="48.70491" lon="1.74991">
        <ele>182.80000305176</ele>
        <time>2011-05-22T06:01:45.000Z</time>
      </trkpt>
      <trkpt lat="48.70491" lon="1.74974">
        <ele>183</ele>
        <time>2011-05-22T06:01:53.000Z</time>
      </trkpt>
      <trkpt lat="48.70489" lon="1.74958">
        <ele>183.19999694824</ele>
        <time>2011-05-22T06:02:01.000Z</time>
      </trkpt>
      <trkpt lat="48.7049" lon="1.74943">
        <ele>183.60000610352</ele>
        <time>2011-05-22T06:02:09.000Z</time>
      </trkpt>
      <trkpt lat="48.70489" lon="1.74929">
        <ele>183.80000305176</ele>
        <time>2011-05-22T06:02:16.000Z</time>
      </trkpt>
      <trkpt lat="48.70488" lon="1.74921">
        <ele>183.80000305176</ele>
        <time>2011-05-22T06:02:20.000Z</time>
      </trkpt>
      <trkpt lat="48.70489" lon="1.74912">
        <ele>184</ele>
        <time>2011-05-22T06:02:24.000Z</time>
      </trkpt>
      <trkpt lat="48.70489" lon="1.74898">
        <ele>183.80000305176</ele>
        <time>2011-05-22T06:02:33.000Z</time>
      </trkpt>
      <trkpt lat="48.70491" lon="1.74883">
        <ele>183.80000305176</ele>
        <time>2011-05-22T06:02:41.000Z</time>
      </trkpt>
      <trkpt lat="48.70491" lon="1.74868">
        <ele>183.60000610352</ele>
        <time>2011-05-22T06:02:48.000Z</time>
      </trkpt>
      <trkpt lat="48.7049" lon="1.74853">
        <ele>183.39999389648</ele>
        <time>2011-05-22T06:02:55.000Z</time>
      </trkpt>
      <trkpt lat="48.70491" lon="1.74834">
        <ele>183.19999694824</ele>
        <time>2011-05-22T06:03:04.000Z</time>
      </trkpt>
      <trkpt lat="48.70491" lon="1.74816">
        <ele>183</ele>
        <time>2011-05-22T06:03:13.000Z</time>
      </trkpt>
      <trkpt lat="48.70492" lon="1.74802">
        <ele>182.80000305176</ele>
        <time>2011-05-22T06:03:21.000Z</time>
      </trkpt>
      <trkpt lat="48.70492" lon="1.74789">
        <ele>182.60000610352</ele>
        <time>2011-05-22T06:03:28.000Z</time>
      </trkpt>
      <trkpt lat="48.70492" lon="1.74786">
        <ele>182.60000610352</ele>
        <time>2011-05-22T06:03:30.000Z</time>
      </trkpt>
      <trkpt lat="48.7049" lon="1.74779">
        <ele>182.39999389648</ele>
        <time>2011-05-22T06:03:34.000Z</time>
      </trkpt>
      <trkpt lat="48.70489" lon="1.74775">
        <ele>182.19999694824</ele>
        <time>2011-05-22T06:03:36.000Z</time>
      </trkpt>
      <trkpt lat="48.70488" lon="1.74767">
        <ele>182</ele>
        <time>2011-05-22T06:03:40.000Z</time>
      </trkpt>
      <trkpt lat="48.70488" lon="1.74758">
        <ele>182</ele>
        <time>2011-05-22T06:03:45.000Z</time>
      </trkpt>
      <trkpt lat="48.70487" lon="1.74746">
        <ele>181.80000305176</ele>
        <time>2011-05-22T06:03:51.000Z</time>
      </trkpt>
      <trkpt lat="48.70487" lon="1.74742">
        <ele>181.60000610352</ele>
        <time>2011-05-22T06:03:53.000Z</time>
      </trkpt>
      <trkpt lat="48.70488" lon="1.74736">
        <ele>181.60000610352</ele>
        <time>2011-05-22T06:03:56.000Z</time>
      </trkpt>
      <trkpt lat="48.70488" lon="1.74723">
        <ele>181.39999389648</ele>
        <time>2011-05-22T06:04:02.000Z</time>
      </trkpt>
      <trkpt lat="48.70489" lon="1.74709">
        <ele>181.19999694824</ele>
        <time>2011-05-22T06:04:10.000Z</time>
      </trkpt>
      <trkpt lat="48.70489" lon="1.74697">
        <ele>181</ele>
        <time>2011-05-22T06:04:16.000Z</time>
      </trkpt>
      <trkpt lat="48.70488" lon="1.74681">
        <ele>180.60000610352</ele>
        <time>2011-05-22T06:04:24.000Z</time>
      </trkpt>
      <trkpt lat="48.7049" lon="1.74666">
        <ele>180.39999389648</ele>
        <time>2011-05-22T06:04:31.000Z</time>
      </trkpt>
      <trkpt lat="48.7049" lon="1.74664">
        <ele>180.39999389648</ele>
        <time>2011-05-22T06:04:32.000Z</time>
      </trkpt>
      <trkpt lat="48.70488" lon="1.74652">
        <ele>180.60000610352</ele>
        <time>2011-05-22T06:04:37.000Z</time>
      </trkpt>
      <trkpt lat="48.70491" lon="1.74644">
        <ele>180.80000305176</ele>
        <time>2011-05-22T06:04:44.000Z</time>
      </trkpt>
      <trkpt lat="48.70492" lon="1.74639">
        <ele>180.80000305176</ele>
        <time>2011-05-22T06:04:47.000Z</time>
      </trkpt>
      <trkpt lat="48.70493" lon="1.74628">
        <ele>181</ele>
        <time>2011-05-22T06:04:54.000Z</time>
      </trkpt>
      <trkpt lat="48.70493" lon="1.74613">
        <ele>181.19999694824</ele>
        <time>2011-05-22T06:05:02.000Z</time>
      </trkpt>
      <trkpt lat="48.70492" lon="1.74607">
        <ele>181.19999694824</ele>
        <time>2011-05-22T06:05:05.000Z</time>
      </trkpt>
      <trkpt lat="48.70493" lon="1.74592">
        <ele>181.39999389648</ele>
        <time>2011-05-22T06:05:13.000Z</time>
      </trkpt>
      <trkpt lat="48.70494" lon="1.74579">
        <ele>181.60000610352</ele>
        <time>2011-05-22T06:05:20.000Z</time>
      </trkpt>
      <trkpt lat="48.70493" lon="1.74577">
        <ele>181.60000610352</ele>
        <time>2011-05-22T06:05:24.000Z</time>
      </trkpt>
      <trkpt lat="48.70497" lon="1.74562">
        <ele>181.80000305176</ele>
        <time>2011-05-22T06:06:02.000Z</time>
      </trkpt>
      <trkpt lat="48.70497" lon="1.74558">
        <ele>181.80000305176</ele>
        <time>2011-05-22T06:06:03.000Z</time>
      </trkpt>
      <trkpt lat="48.70496" lon="1.74549">
        <ele>181.60000610352</ele>
        <time>2011-05-22T06:06:09.000Z</time>
      </trkpt>
      <trkpt lat="48.70496" lon="1.74537">
        <ele>181.80000305176</ele>
        <time>2011-05-22T06:06:15.000Z</time>
      </trkpt>
      <trkpt lat="48.70498" lon="1.74526">
        <ele>181.80000305176</ele>
        <time>2011-05-22T06:06:20.000Z</time>
      </trkpt>
      <trkpt lat="48.70499" lon="1.74502">
        <ele>181.80000305176</ele>
        <time>2011-05-22T06:06:26.000Z</time>
      </trkpt>
      <trkpt lat="48.70502" lon="1.7448">
        <ele>181.80000305176</ele>
        <time>2011-05-22T06:06:31.000Z</time>
      </trkpt>
      <trkpt lat="48.70504" lon="1.74462">
        <ele>181.60000610352</ele>
        <time>2011-05-22T06:06:35.000Z</time>
      </trkpt>
      <trkpt lat="48.70505" lon="1.74442">
        <ele>181.39999389648</ele>
        <time>2011-05-22T06:06:39.000Z</time>
      </trkpt>
      <trkpt lat="48.70504" lon="1.74424">
        <ele>181.19999694824</ele>
        <time>2011-05-22T06:06:43.000Z</time>
      </trkpt>
      <trkpt lat="48.70505" lon="1.744">
        <ele>180.60000610352</ele>
        <time>2011-05-22T06:06:48.000Z</time>
      </trkpt>
      <trkpt lat="48.70504" lon="1.74394">
        <ele>180.39999389648</ele>
        <time>2011-05-22T06:06:50.000Z</time>
      </trkpt>
      <trkpt lat="48.70503" lon="1.7439">
        <ele>180.39999389648</ele>
        <time>2011-05-22T06:06:56.000Z</time>
      </trkpt>
      <trkpt lat="48.70502" lon="1.74381">
        <ele>180.19999694824</ele>
        <time>2011-05-22T06:07:04.000Z</time>
      </trkpt>
      <trkpt lat="48.70501" lon="1.74368">
        <ele>179.80000305176</ele>
        <time>2011-05-22T06:07:07.000Z</time>
      </trkpt>
      <trkpt lat="48.70502" lon="1.74353">
        <ele>179.39999389648</ele>
        <time>2011-05-22T06:07:11.000Z</time>
      </trkpt>
      <trkpt lat="48.70502" lon="1.74349">
        <ele>179.39999389648</ele>
        <time>2011-05-22T06:07:12.000Z</time>
      </trkpt>
      <trkpt lat="48.70501" lon="1.74317">
        <ele>178.80000305176</ele>
        <time>2011-05-22T06:07:20.000Z</time>
      </trkpt>
      <trkpt lat="48.70502" lon="1.74296">
        <ele>178.39999389648</ele>
        <time>2011-05-22T06:07:25.000Z</time>
      </trkpt>
      <trkpt lat="48.70502" lon="1.74274">
        <ele>178.19999694824</ele>
        <time>2011-05-22T06:07:30.000Z</time>
      </trkpt>
      <trkpt lat="48.70503" lon="1.74253">
        <ele>177.80000305176</ele>
        <time>2011-05-22T06:07:35.000Z</time>
      </trkpt>
      <trkpt lat="48.70504" lon="1.74238">
        <ele>177.80000305176</ele>
        <time>2011-05-22T06:07:39.000Z</time>
      </trkpt>
      <trkpt lat="48.70503" lon="1.74212">
        <ele>177.80000305176</ele>
        <time>2011-05-22T06:07:45.000Z</time>
      </trkpt>
      <trkpt lat="48.70505" lon="1.74195">
        <ele>177.60000610352</ele>
        <time>2011-05-22T06:07:49.000Z</time>
      </trkpt>
      <trkpt lat="48.70507" lon="1.74174">
        <ele>177.39999389648</ele>
        <time>2011-05-22T06:07:54.000Z</time>
      </trkpt>
      <trkpt lat="48.70508" lon="1.74148">
        <ele>177.39999389648</ele>
        <time>2011-05-22T06:08:00.000Z</time>
      </trkpt>
      <trkpt lat="48.70507" lon="1.74122">
        <ele>177.39999389648</ele>
        <time>2011-05-22T06:08:06.000Z</time>
      </trkpt>
      <trkpt lat="48.70506" lon="1.741">
        <ele>177.39999389648</ele>
        <time>2011-05-22T06:08:11.000Z</time>
      </trkpt>
      <trkpt lat="48.70506" lon="1.74078">
        <ele>177.39999389648</ele>
        <time>2011-05-22T06:08:16.000Z</time>
      </trkpt>
      <trkpt lat="48.70507" lon="1.74056">
        <ele>177</ele>
        <time>2011-05-22T06:08:21.000Z</time>
      </trkpt>
      <trkpt lat="48.70505" lon="1.74017">
        <ele>176.60000610352</ele>
        <time>2011-05-22T06:08:29.000Z</time>
      </trkpt>
      <trkpt lat="48.70503" lon="1.73997">
        <ele>176.80000305176</ele>
        <time>2011-05-22T06:08:34.000Z</time>
      </trkpt>
      <trkpt lat="48.70504" lon="1.73973">
        <ele>176.60000610352</ele>
        <time>2011-05-22T06:08:40.000Z</time>
      </trkpt>
      <trkpt lat="48.70503" lon="1.73966">
        <ele>176.60000610352</ele>
        <time>2011-05-22T06:08:42.000Z</time>
      </trkpt>
      <trkpt lat="48.70502" lon="1.73936">
        <ele>176.80000305176</ele>
        <time>2011-05-22T06:08:49.000Z</time>
      </trkpt>
      <trkpt lat="48.705" lon="1.7392">
        <ele>176.80000305176</ele>
        <time>2011-05-22T06:08:53.000Z</time>
      </trkpt>
      <trkpt lat="48.70501" lon="1.73902">
        <ele>177</ele>
        <time>2011-05-22T06:08:57.000Z</time>
      </trkpt>
      <trkpt lat="48.70502" lon="1.73879">
        <ele>177.19999694824</ele>
        <time>2011-05-22T06:09:02.000Z</time>
      </trkpt>
      <trkpt lat="48.70503" lon="1.73847">
        <ele>177.39999389648</ele>
        <time>2011-05-22T06:09:09.000Z</time>
      </trkpt>
      <trkpt lat="48.70503" lon="1.73813">
        <ele>178</ele>
        <time>2011-05-22T06:09:16.000Z</time>
      </trkpt>
      <trkpt lat="48.70504" lon="1.73793">
        <ele>178.60000610352</ele>
        <time>2011-05-22T06:09:21.000Z</time>
      </trkpt>
      <trkpt lat="48.70505" lon="1.73769">
        <ele>179.19999694824</ele>
        <time>2011-05-22T06:09:26.000Z</time>
      </trkpt>
      <trkpt lat="48.70503" lon="1.73746">
        <ele>179.80000305176</ele>
        <time>2011-05-22T06:09:31.000Z</time>
      </trkpt>
      <trkpt lat="48.70503" lon="1.73728">
        <ele>180</ele>
        <time>2011-05-22T06:09:35.000Z</time>
      </trkpt>
      <trkpt lat="48.70503" lon="1.73707">
        <ele>180.19999694824</ele>
        <time>2011-05-22T06:09:40.000Z</time>
      </trkpt>
      <trkpt lat="48.70504" lon="1.73703">
        <ele>180.19999694824</ele>
        <time>2011-05-22T06:09:41.000Z</time>
      </trkpt>
      <trkpt lat="48.70507" lon="1.73692">
        <ele>180.19999694824</ele>
        <time>2011-05-22T06:09:44.000Z</time>
      </trkpt>
      <trkpt lat="48.70509" lon="1.73664">
        <ele>180.39999389648</ele>
        <time>2011-05-22T06:09:51.000Z</time>
      </trkpt>
      <trkpt lat="48.7051" lon="1.73638">
        <ele>180.80000305176</ele>
        <time>2011-05-22T06:09:57.000Z</time>
      </trkpt>
      <trkpt lat="48.7051" lon="1.73613">
        <ele>181.19999694824</ele>
        <time>2011-05-22T06:10:02.000Z</time>
      </trkpt>
      <trkpt lat="48.70508" lon="1.73592">
        <ele>181.39999389648</ele>
        <time>2011-05-22T06:10:07.000Z</time>
      </trkpt>
      <trkpt lat="48.70505" lon="1.73571">
        <ele>181.80000305176</ele>
        <time>2011-05-22T06:10:12.000Z</time>
      </trkpt>
      <trkpt lat="48.70504" lon="1.73566">
        <ele>181.80000305176</ele>
        <time>2011-05-22T06:10:13.000Z</time>
      </trkpt>
      <trkpt lat="48.70507" lon="1.73547">
        <ele>181.60000610352</ele>
        <time>2011-05-22T06:10:19.000Z</time>
      </trkpt>
      <trkpt lat="48.70507" lon="1.73523">
        <ele>181.80000305176</ele>
        <time>2011-05-22T06:10:25.000Z</time>
      </trkpt>
      <trkpt lat="48.70506" lon="1.73514">
        <ele>181.80000305176</ele>
        <time>2011-05-22T06:10:27.000Z</time>
      </trkpt>
      <trkpt lat="48.70507" lon="1.73492">
        <ele>181.80000305176</ele>
        <time>2011-05-22T06:10:32.000Z</time>
      </trkpt>
      <trkpt lat="48.70507" lon="1.73467">
        <ele>181.80000305176</ele>
        <time>2011-05-22T06:10:38.000Z</time>
      </trkpt>
      <trkpt lat="48.70507" lon="1.73443">
        <ele>181.80000305176</ele>
        <time>2011-05-22T06:10:43.000Z</time>
      </trkpt>
      <trkpt lat="48.70506" lon="1.73425">
        <ele>181.80000305176</ele>
        <time>2011-05-22T06:10:48.000Z</time>
      </trkpt>
      <trkpt lat="48.70507" lon="1.73404">
        <ele>181.60000610352</ele>
        <time>2011-05-22T06:10:53.000Z</time>
      </trkpt>
      <trkpt lat="48.70507" lon="1.7338">
        <ele>181.39999389648</ele>
        <time>2011-05-22T06:10:58.000Z</time>
      </trkpt>
      <trkpt lat="48.70505" lon="1.73358">
        <ele>181</ele>
        <time>2011-05-22T06:11:03.000Z</time>
      </trkpt>
      <trkpt lat="48.70504" lon="1.73331">
        <ele>180.80000305176</ele>
        <time>2011-05-22T06:11:09.000Z</time>
      </trkpt>
      <trkpt lat="48.70503" lon="1.73306">
        <ele>181.39999389648</ele>
        <time>2011-05-22T06:11:15.000Z</time>
      </trkpt>
      <trkpt lat="48.70504" lon="1.73281">
        <ele>182</ele>
        <time>2011-05-22T06:11:21.000Z</time>
      </trkpt>
      <trkpt lat="48.70504" lon="1.73267">
        <ele>182.19999694824</ele>
        <time>2011-05-22T06:11:24.000Z</time>
      </trkpt>
      <trkpt lat="48.70505" lon="1.73237">
        <ele>182.80000305176</ele>
        <time>2011-05-22T06:11:31.000Z</time>
      </trkpt>
      <trkpt lat="48.70504" lon="1.73214">
        <ele>183.39999389648</ele>
        <time>2011-05-22T06:11:36.000Z</time>
      </trkpt>
      <trkpt lat="48.70502" lon="1.73182">
        <ele>184.39999389648</ele>
        <time>2011-05-22T06:11:43.000Z</time>
      </trkpt>
      <trkpt lat="48.70503" lon="1.73155">
        <ele>184.60000610352</ele>
        <time>2011-05-22T06:11:49.000Z</time>
      </trkpt>
      <trkpt lat="48.70502" lon="1.73136">
        <ele>184.39999389648</ele>
        <time>2011-05-22T06:11:53.000Z</time>
      </trkpt>
      <trkpt lat="48.70502" lon="1.73106">
        <ele>184</ele>
        <time>2011-05-22T06:12:00.000Z</time>
      </trkpt>
      <trkpt lat="48.70504" lon="1.73079">
        <ele>183.60000610352</ele>
        <time>2011-05-22T06:12:07.000Z</time>
      </trkpt>
      <trkpt lat="48.70503" lon="1.73048">
        <ele>183</ele>
        <time>2011-05-22T06:12:14.000Z</time>
      </trkpt>
      <trkpt lat="48.70505" lon="1.73025">
        <ele>182.39999389648</ele>
        <time>2011-05-22T06:12:20.000Z</time>
      </trkpt>
      <trkpt lat="48.70506" lon="1.73005">
        <ele>182</ele>
        <time>2011-05-22T06:12:25.000Z</time>
      </trkpt>
      <trkpt lat="48.70507" lon="1.72978">
        <ele>181.39999389648</ele>
        <time>2011-05-22T06:12:31.000Z</time>
      </trkpt>
      <trkpt lat="48.70506" lon="1.72964">
        <ele>181.19999694824</ele>
        <time>2011-05-22T06:12:36.000Z</time>
      </trkpt>
      <trkpt lat="48.70504" lon="1.72954">
        <ele>180.80000305176</ele>
        <time>2011-05-22T06:12:44.000Z</time>
      </trkpt>
      <trkpt lat="48.70501" lon="1.72935">
        <ele>180.39999389648</ele>
        <time>2011-05-22T06:12:49.000Z</time>
      </trkpt>
      <trkpt lat="48.70502" lon="1.72909">
        <ele>180</ele>
        <time>2011-05-22T06:12:55.000Z</time>
      </trkpt>
      <trkpt lat="48.70502" lon="1.72886">
        <ele>180</ele>
        <time>2011-05-22T06:13:00.000Z</time>
      </trkpt>
      <trkpt lat="48.70502" lon="1.7285">
        <ele>180</ele>
        <time>2011-05-22T06:13:08.000Z</time>
      </trkpt>
      <trkpt lat="48.70502" lon="1.72813">
        <ele>179.39999389648</ele>
        <time>2011-05-22T06:13:16.000Z</time>
      </trkpt>
      <trkpt lat="48.70505" lon="1.72787">
        <ele>179</ele>
        <time>2011-05-22T06:13:22.000Z</time>
      </trkpt>
      <trkpt lat="48.70502" lon="1.72767">
        <ele>178.39999389648</ele>
        <time>2011-05-22T06:13:27.000Z</time>
      </trkpt>
      <trkpt lat="48.70502" lon="1.72724">
        <ele>178.39999389648</ele>
        <time>2011-05-22T06:13:36.000Z</time>
      </trkpt>
      <trkpt lat="48.70502" lon="1.72692">
        <ele>178.80000305176</ele>
        <time>2011-05-22T06:13:43.000Z</time>
      </trkpt>
      <trkpt lat="48.70503" lon="1.72668">
        <ele>179</ele>
        <time>2011-05-22T06:13:49.000Z</time>
      </trkpt>
      <trkpt lat="48.70505" lon="1.72632">
        <ele>179.60000610352</ele>
        <time>2011-05-22T06:13:58.000Z</time>
      </trkpt>
      <trkpt lat="48.70505" lon="1.72606">
        <ele>179.80000305176</ele>
        <time>2011-05-22T06:14:04.000Z</time>
      </trkpt>
      <trkpt lat="48.70504" lon="1.72575">
        <ele>180.39999389648</ele>
        <time>2011-05-22T06:14:11.000Z</time>
      </trkpt>
      <trkpt lat="48.70504" lon="1.72548">
        <ele>181.39999389648</ele>
        <time>2011-05-22T06:14:17.000Z</time>
      </trkpt>
      <trkpt lat="48.70504" lon="1.72507">
        <ele>182.80000305176</ele>
        <time>2011-05-22T06:14:26.000Z</time>
      </trkpt>
      <trkpt lat="48.70503" lon="1.72473">
        <ele>184</ele>
        <time>2011-05-22T06:14:34.000Z</time>
      </trkpt>
      <trkpt lat="48.70502" lon="1.72447">
        <ele>184.80000305176</ele>
        <time>2011-05-22T06:14:40.000Z</time>
      </trkpt>
      <trkpt lat="48.70503" lon="1.72427">
        <ele>185.60000610352</ele>
        <time>2011-05-22T06:14:45.000Z</time>
      </trkpt>
      <trkpt lat="48.70503" lon="1.72406">
        <ele>185.80000305176</ele>
        <time>2011-05-22T06:14:50.000Z</time>
      </trkpt>
      <trkpt lat="48.70499" lon="1.72383">
        <ele>185.39999389648</ele>
        <time>2011-05-22T06:14:56.000Z</time>
      </trkpt>
      <trkpt lat="48.705" lon="1.72358">
        <ele>185.19999694824</ele>
        <time>2011-05-22T06:15:02.000Z</time>
      </trkpt>
      <trkpt lat="48.705" lon="1.72333">
        <ele>184.80000305176</ele>
        <time>2011-05-22T06:15:08.000Z</time>
      </trkpt>
      <trkpt lat="48.705" lon="1.72306">
        <ele>185.19999694824</ele>
        <time>2011-05-22T06:15:14.000Z</time>
      </trkpt>
      <trkpt lat="48.70501" lon="1.7228">
        <ele>185.60000610352</ele>
        <time>2011-05-22T06:15:20.000Z</time>
      </trkpt>
      <trkpt lat="48.70501" lon="1.72255">
        <ele>185.80000305176</ele>
        <time>2011-05-22T06:15:26.000Z</time>
      </trkpt>
      <trkpt lat="48.70501" lon="1.72229">
        <ele>186.19999694824</ele>
        <time>2011-05-22T06:15:32.000Z</time>
      </trkpt>
      <trkpt lat="48.705" lon="1.722">
        <ele>186.60000610352</ele>
        <time>2011-05-22T06:15:39.000Z</time>
      </trkpt>
      <trkpt lat="48.70499" lon="1.72184">
        <ele>186.60000610352</ele>
        <time>2011-05-22T06:15:43.000Z</time>
      </trkpt>
      <trkpt lat="48.70499" lon="1.72166">
        <ele>186.80000305176</ele>
        <time>2011-05-22T06:15:48.000Z</time>
      </trkpt>
      <trkpt lat="48.70499" lon="1.72146">
        <ele>187.19999694824</ele>
        <time>2011-05-22T06:15:53.000Z</time>
      </trkpt>
      <trkpt lat="48.70499" lon="1.72124">
        <ele>187.39999389648</ele>
        <time>2011-05-22T06:15:58.000Z</time>
      </trkpt>
      <trkpt lat="48.705" lon="1.72099">
        <ele>187.80000305176</ele>
        <time>2011-05-22T06:16:04.000Z</time>
      </trkpt>
      <trkpt lat="48.70499" lon="1.72079">
        <ele>188</ele>
        <time>2011-05-22T06:16:09.000Z</time>
      </trkpt>
      <trkpt lat="48.70499" lon="1.72049">
        <ele>188.19999694824</ele>
        <time>2011-05-22T06:16:16.000Z</time>
      </trkpt>
      <trkpt lat="48.70499" lon="1.72019">
        <ele>188.60000610352</ele>
        <time>2011-05-22T06:16:23.000Z</time>
      </trkpt>
      <trkpt lat="48.70501" lon="1.71996">
        <ele>189</ele>
        <time>2011-05-22T06:16:29.000Z</time>
      </trkpt>
      <trkpt lat="48.70501" lon="1.71973">
        <ele>189</ele>
        <time>2011-05-22T06:16:34.000Z</time>
      </trkpt>
      <trkpt lat="48.705" lon="1.71939">
        <ele>188.80000305176</ele>
        <time>2011-05-22T06:16:42.000Z</time>
      </trkpt>
      <trkpt lat="48.70501" lon="1.71917">
        <ele>188.80000305176</ele>
        <time>2011-05-22T06:16:47.000Z</time>
      </trkpt>
      <trkpt lat="48.70501" lon="1.71914">
        <ele>188.80000305176</ele>
        <time>2011-05-22T06:16:48.000Z</time>
      </trkpt>
      <trkpt lat="48.70498" lon="1.71889">
        <ele>188.19999694824</ele>
        <time>2011-05-22T06:16:55.000Z</time>
      </trkpt>
      <trkpt lat="48.70498" lon="1.71863">
        <ele>187.60000610352</ele>
        <time>2011-05-22T06:17:02.000Z</time>
      </trkpt>
      <trkpt lat="48.70496" lon="1.71826">
        <ele>186.80000305176</ele>
        <time>2011-05-22T06:17:10.000Z</time>
      </trkpt>
      <trkpt lat="48.70496" lon="1.71799">
        <ele>186</ele>
        <time>2011-05-22T06:17:17.000Z</time>
      </trkpt>
      <trkpt lat="48.70496" lon="1.71769">
        <ele>185.39999389648</ele>
        <time>2011-05-22T06:17:24.000Z</time>
      </trkpt>
      <trkpt lat="48.70497" lon="1.7174">
        <ele>185</ele>
        <time>2011-05-22T06:17:31.000Z</time>
      </trkpt>
      <trkpt lat="48.70495" lon="1.71714">
        <ele>185.39999389648</ele>
        <time>2011-05-22T06:17:38.000Z</time>
      </trkpt>
      <trkpt lat="48.70496" lon="1.7169">
        <ele>185.60000610352</ele>
        <time>2011-05-22T06:17:44.000Z</time>
      </trkpt>
      <trkpt lat="48.70497" lon="1.71664">
        <ele>186</ele>
        <time>2011-05-22T06:17:50.000Z</time>
      </trkpt>
      <trkpt lat="48.70496" lon="1.71631">
        <ele>186.19999694824</ele>
        <time>2011-05-22T06:17:58.000Z</time>
      </trkpt>
      <trkpt lat="48.70496" lon="1.71601">
        <ele>186.60000610352</ele>
        <time>2011-05-22T06:18:05.000Z</time>
      </trkpt>
      <trkpt lat="48.70494" lon="1.71574">
        <ele>186.80000305176</ele>
        <time>2011-05-22T06:18:11.000Z</time>
      </trkpt>
      <trkpt lat="48.70494" lon="1.71546">
        <ele>186.80000305176</ele>
        <time>2011-05-22T06:18:17.000Z</time>
      </trkpt>
      <trkpt lat="48.70493" lon="1.71541">
        <ele>186.80000305176</ele>
        <time>2011-05-22T06:18:18.000Z</time>
      </trkpt>
      <trkpt lat="48.70494" lon="1.71512">
        <ele>186.80000305176</ele>
        <time>2011-05-22T06:18:24.000Z</time>
      </trkpt>
      <trkpt lat="48.70494" lon="1.71493">
        <ele>187</ele>
        <time>2011-05-22T06:18:29.000Z</time>
      </trkpt>
      <trkpt lat="48.70493" lon="1.71475">
        <ele>187.39999389648</ele>
        <time>2011-05-22T06:18:33.000Z</time>
      </trkpt>
      <trkpt lat="48.70494" lon="1.71471">
        <ele>187.39999389648</ele>
        <time>2011-05-22T06:18:34.000Z</time>
      </trkpt>
      <trkpt lat="48.70493" lon="1.71444">
        <ele>188</ele>
        <time>2011-05-22T06:18:40.000Z</time>
      </trkpt>
      <trkpt lat="48.70494" lon="1.71405">
        <ele>188.39999389648</ele>
        <time>2011-05-22T06:18:48.000Z</time>
      </trkpt>
      <trkpt lat="48.70494" lon="1.71377">
        <ele>188.19999694824</ele>
        <time>2011-05-22T06:18:54.000Z</time>
      </trkpt>
      <trkpt lat="48.70494" lon="1.71351">
        <ele>188</ele>
        <time>2011-05-22T06:19:00.000Z</time>
      </trkpt>
      <trkpt lat="48.70494" lon="1.71325">
        <ele>187.60000610352</ele>
        <time>2011-05-22T06:19:06.000Z</time>
      </trkpt>
      <trkpt lat="48.70497" lon="1.71307">
        <ele>187.19999694824</ele>
        <time>2011-05-22T06:19:11.000Z</time>
      </trkpt>
      <trkpt lat="48.70498" lon="1.71286">
        <ele>186.80000305176</ele>
        <time>2011-05-22T06:19:16.000Z</time>
      </trkpt>
      <trkpt lat="48.70497" lon="1.71262">
        <ele>186.19999694824</ele>
        <time>2011-05-22T06:19:22.000Z</time>
      </trkpt>
      <trkpt lat="48.70495" lon="1.71234">
        <ele>185.80000305176</ele>
        <time>2011-05-22T06:19:29.000Z</time>
      </trkpt>
      <trkpt lat="48.70494" lon="1.71224">
        <ele>185.60000610352</ele>
        <time>2011-05-22T06:19:33.000Z</time>
      </trkpt>
      <trkpt lat="48.70495" lon="1.71209">
        <ele>185.39999389648</ele>
        <time>2011-05-22T06:19:41.000Z</time>
      </trkpt>
      <trkpt lat="48.70494" lon="1.71192">
        <ele>185.19999694824</ele>
        <time>2011-05-22T06:19:50.000Z</time>
      </trkpt>
      <trkpt lat="48.70493" lon="1.71186">
        <ele>185.19999694824</ele>
        <time>2011-05-22T06:19:53.000Z</time>
      </trkpt>
      <trkpt lat="48.70489" lon="1.71175">
        <ele>185.19999694824</ele>
        <time>2011-05-22T06:19:59.000Z</time>
      </trkpt>
      <trkpt lat="48.70488" lon="1.71168">
        <ele>185</ele>
        <time>2011-05-22T06:20:03.000Z</time>
      </trkpt>
      <trkpt lat="48.70491" lon="1.71161">
        <ele>185</ele>
        <time>2011-05-22T06:20:10.000Z</time>
      </trkpt>
      <trkpt lat="48.70487" lon="1.71155">
        <ele>185</ele>
        <time>2011-05-22T06:20:21.000Z</time>
      </trkpt>
      <trkpt lat="48.7048" lon="1.71147">
        <ele>185</ele>
        <time>2011-05-22T06:20:27.000Z</time>
      </trkpt>
      <trkpt lat="48.70475" lon="1.71138">
        <ele>185</ele>
        <time>2011-05-22T06:20:33.000Z</time>
      </trkpt>
      <trkpt lat="48.70469" lon="1.71131">
        <ele>185.19999694824</ele>
        <time>2011-05-22T06:20:40.000Z</time>
      </trkpt>
      <trkpt lat="48.70466" lon="1.71127">
        <ele>185.19999694824</ele>
        <time>2011-05-22T06:20:43.000Z</time>
      </trkpt>
      <trkpt lat="48.70459" lon="1.71118">
        <ele>185.19999694824</ele>
        <time>2011-05-22T06:20:51.000Z</time>
      </trkpt>
      <trkpt lat="48.70456" lon="1.71114">
        <ele>185</ele>
        <time>2011-05-22T06:20:54.000Z</time>
      </trkpt>
      <trkpt lat="48.70454" lon="1.71111">
        <ele>185</ele>
        <time>2011-05-22T06:20:56.000Z</time>
      </trkpt>
      <trkpt lat="48.70452" lon="1.71099">
        <ele>185</ele>
        <time>2011-05-22T06:21:02.000Z</time>
      </trkpt>
      <trkpt lat="48.70451" lon="1.71096">
        <ele>185</ele>
        <time>2011-05-22T06:21:03.000Z</time>
      </trkpt>
      <trkpt lat="48.70444" lon="1.71074">
        <ele>185</ele>
        <time>2011-05-22T06:21:10.000Z</time>
      </trkpt>
      <trkpt lat="48.70437" lon="1.71053">
        <ele>185.39999389648</ele>
        <time>2011-05-22T06:21:16.000Z</time>
      </trkpt>
      <trkpt lat="48.70432" lon="1.71039">
        <ele>185.60000610352</ele>
        <time>2011-05-22T06:21:20.000Z</time>
      </trkpt>
      <trkpt lat="48.70427" lon="1.71015">
        <ele>186.19999694824</ele>
        <time>2011-05-22T06:21:26.000Z</time>
      </trkpt>
      <trkpt lat="48.70419" lon="1.70997">
        <ele>186.80000305176</ele>
        <time>2011-05-22T06:21:31.000Z</time>
      </trkpt>
      <trkpt lat="48.70411" lon="1.70976">
        <ele>186.80000305176</ele>
        <time>2011-05-22T06:21:37.000Z</time>
      </trkpt>
      <trkpt lat="48.70398" lon="1.70947">
        <ele>186.80000305176</ele>
        <time>2011-05-22T06:21:45.000Z</time>
      </trkpt>
      <trkpt lat="48.70389" lon="1.70921">
        <ele>186.80000305176</ele>
        <time>2011-05-22T06:21:52.000Z</time>
      </trkpt>
      <trkpt lat="48.70381" lon="1.709">
        <ele>186.80000305176</ele>
        <time>2011-05-22T06:21:58.000Z</time>
      </trkpt>
      <trkpt lat="48.70377" lon="1.70884">
        <ele>186.80000305176</ele>
        <time>2011-05-22T06:22:02.000Z</time>
      </trkpt>
      <trkpt lat="48.70369" lon="1.70862">
        <ele>186.60000610352</ele>
        <time>2011-05-22T06:22:08.000Z</time>
      </trkpt>
      <trkpt lat="48.70365" lon="1.7085">
        <ele>186.39999389648</ele>
        <time>2011-05-22T06:22:11.000Z</time>
      </trkpt>
      <trkpt lat="48.70357" lon="1.70826">
        <ele>186</ele>
        <time>2011-05-22T06:22:17.000Z</time>
      </trkpt>
      <trkpt lat="48.7035" lon="1.70808">
        <ele>185.60000610352</ele>
        <time>2011-05-22T06:22:22.000Z</time>
      </trkpt>
      <trkpt lat="48.70344" lon="1.70789">
        <ele>185</ele>
        <time>2011-05-22T06:22:27.000Z</time>
      </trkpt>
      <trkpt lat="48.70335" lon="1.70759">
        <ele>184.19999694824</ele>
        <time>2011-05-22T06:22:35.000Z</time>
      </trkpt>
      <trkpt lat="48.70329" lon="1.70741">
        <ele>184</ele>
        <time>2011-05-22T06:22:40.000Z</time>
      </trkpt>
      <trkpt lat="48.70321" lon="1.70713">
        <ele>184.39999389648</ele>
        <time>2011-05-22T06:22:48.000Z</time>
      </trkpt>
      <trkpt lat="48.70312" lon="1.70689">
        <ele>184.39999389648</ele>
        <time>2011-05-22T06:22:55.000Z</time>
      </trkpt>
      <trkpt lat="48.70308" lon="1.70678">
        <ele>184.19999694824</ele>
        <time>2011-05-22T06:23:01.000Z</time>
      </trkpt>
      <trkpt lat="48.70306" lon="1.70668">
        <ele>184.19999694824</ele>
        <time>2011-05-22T06:23:05.000Z</time>
      </trkpt>
      <trkpt lat="48.70306" lon="1.70666">
        <ele>184.19999694824</ele>
        <time>2011-05-22T06:23:06.000Z</time>
      </trkpt>
      <trkpt lat="48.70299" lon="1.70652">
        <ele>183.80000305176</ele>
        <time>2011-05-22T06:23:14.000Z</time>
      </trkpt>
      <trkpt lat="48.70295" lon="1.70644">
        <ele>183.60000610352</ele>
        <time>2011-05-22T06:23:18.000Z</time>
      </trkpt>
      <trkpt lat="48.70291" lon="1.70634">
        <ele>183.39999389648</ele>
        <time>2011-05-22T06:23:24.000Z</time>
      </trkpt>
      <trkpt lat="48.70289" lon="1.70624">
        <ele>183.19999694824</ele>
        <time>2011-05-22T06:23:29.000Z</time>
      </trkpt>
      <trkpt lat="48.70283" lon="1.70606">
        <ele>182.80000305176</ele>
        <time>2011-05-22T06:23:38.000Z</time>
      </trkpt>
      <trkpt lat="48.70277" lon="1.70601">
        <ele>182.60000610352</ele>
        <time>2011-05-22T06:23:42.000Z</time>
      </trkpt>
      <trkpt lat="48.7027" lon="1.7058">
        <ele>182.19999694824</ele>
        <time>2011-05-22T06:23:52.000Z</time>
      </trkpt>
      <trkpt lat="48.70265" lon="1.70564">
        <ele>182</ele>
        <time>2011-05-22T06:24:00.000Z</time>
      </trkpt>
      <trkpt lat="48.70259" lon="1.70548">
        <ele>181.80000305176</ele>
        <time>2011-05-22T06:24:08.000Z</time>
      </trkpt>
      <trkpt lat="48.70255" lon="1.70534">
        <ele>181.80000305176</ele>
        <time>2011-05-22T06:24:15.000Z</time>
      </trkpt>
      <trkpt lat="48.70248" lon="1.70518">
        <ele>181.60000610352</ele>
        <time>2011-05-22T06:24:24.000Z</time>
      </trkpt>
      <trkpt lat="48.70244" lon="1.70506">
        <ele>181.60000610352</ele>
        <time>2011-05-22T06:24:30.000Z</time>
      </trkpt>
      <trkpt lat="48.7024" lon="1.70491">
        <ele>181.60000610352</ele>
        <time>2011-05-22T06:24:38.000Z</time>
      </trkpt>
      <trkpt lat="48.70235" lon="1.70474">
        <ele>181.80000305176</ele>
        <time>2011-05-22T06:24:47.000Z</time>
      </trkpt>
      <trkpt lat="48.7023" lon="1.7046">
        <ele>181.80000305176</ele>
        <time>2011-05-22T06:24:54.000Z</time>
      </trkpt>
      <trkpt lat="48.70227" lon="1.70453">
        <ele>181.80000305176</ele>
        <time>2011-05-22T06:24:59.000Z</time>
      </trkpt>
      <trkpt lat="48.70222" lon="1.70441">
        <ele>181.80000305176</ele>
        <time>2011-05-22T06:25:06.000Z</time>
      </trkpt>
      <trkpt lat="48.70219" lon="1.70428">
        <ele>181.80000305176</ele>
        <time>2011-05-22T06:25:12.000Z</time>
      </trkpt>
      <trkpt lat="48.70214" lon="1.70417">
        <ele>181.80000305176</ele>
        <time>2011-05-22T06:25:18.000Z</time>
      </trkpt>
      <trkpt lat="48.70208" lon="1.70396">
        <ele>181.19999694824</ele>
        <time>2011-05-22T06:25:29.000Z</time>
      </trkpt>
      <trkpt lat="48.70203" lon="1.70385">
        <ele>180.80000305176</ele>
        <time>2011-05-22T06:25:35.000Z</time>
      </trkpt>
      <trkpt lat="48.702" lon="1.70372">
        <ele>180.39999389648</ele>
        <time>2011-05-22T06:25:42.000Z</time>
      </trkpt>
      <trkpt lat="48.70198" lon="1.70368">
        <ele>180.19999694824</ele>
        <time>2011-05-22T06:25:44.000Z</time>
      </trkpt>
      <trkpt lat="48.70193" lon="1.70355">
        <ele>179.80000305176</ele>
        <time>2011-05-22T06:25:52.000Z</time>
      </trkpt>
      <trkpt lat="48.70188" lon="1.70341">
        <ele>179.19999694824</ele>
        <time>2011-05-22T06:26:00.000Z</time>
      </trkpt>
      <trkpt lat="48.70185" lon="1.70329">
        <ele>179</ele>
        <time>2011-05-22T06:26:07.000Z</time>
      </trkpt>
      <trkpt lat="48.7018" lon="1.70318">
        <ele>178.60000610352</ele>
        <time>2011-05-22T06:26:13.000Z</time>
      </trkpt>
      <trkpt lat="48.70176" lon="1.70308">
        <ele>178.19999694824</ele>
        <time>2011-05-22T06:26:18.000Z</time>
      </trkpt>
      <trkpt lat="48.70173" lon="1.70298">
        <ele>178</ele>
        <time>2011-05-22T06:26:24.000Z</time>
      </trkpt>
      <trkpt lat="48.70169" lon="1.7029">
        <ele>177.60000610352</ele>
        <time>2011-05-22T06:26:29.000Z</time>
      </trkpt>
      <trkpt lat="48.70164" lon="1.70272">
        <ele>177.19999694824</ele>
        <time>2011-05-22T06:26:38.000Z</time>
      </trkpt>
      <trkpt lat="48.7016" lon="1.70256">
        <ele>176.80000305176</ele>
        <time>2011-05-22T06:26:47.000Z</time>
      </trkpt>
      <trkpt lat="48.70155" lon="1.70243">
        <ele>177</ele>
        <time>2011-05-22T06:26:54.000Z</time>
      </trkpt>
      <trkpt lat="48.70148" lon="1.70222">
        <ele>177.39999389648</ele>
        <time>2011-05-22T06:27:05.000Z</time>
      </trkpt>
      <trkpt lat="48.70142" lon="1.70206">
        <ele>177.60000610352</ele>
        <time>2011-05-22T06:27:14.000Z</time>
      </trkpt>
      <trkpt lat="48.70138" lon="1.7019">
        <ele>178</ele>
        <time>2011-05-22T06:27:23.000Z</time>
      </trkpt>
      <trkpt lat="48.70133" lon="1.70177">
        <ele>178.19999694824</ele>
        <time>2011-05-22T06:27:30.000Z</time>
      </trkpt>
      <trkpt lat="48.70128" lon="1.70165">
        <ele>178.39999389648</ele>
        <time>2011-05-22T06:27:38.000Z</time>
      </trkpt>
      <trkpt lat="48.7012" lon="1.70148">
        <ele>179.19999694824</ele>
        <time>2011-05-22T06:27:48.000Z</time>
      </trkpt>
      <trkpt lat="48.70112" lon="1.70133">
        <ele>179.60000610352</ele>
        <time>2011-05-22T06:27:58.000Z</time>
      </trkpt>
      <trkpt lat="48.70102" lon="1.70119">
        <ele>180</ele>
        <time>2011-05-22T06:28:08.000Z</time>
      </trkpt>
      <trkpt lat="48.70095" lon="1.70107">
        <ele>180.19999694824</ele>
        <time>2011-05-22T06:28:16.000Z</time>
      </trkpt>
      <trkpt lat="48.70084" lon="1.7009">
        <ele>180.60000610352</ele>
        <time>2011-05-22T06:28:27.000Z</time>
      </trkpt>
      <trkpt lat="48.70076" lon="1.70079">
        <ele>180.60000610352</ele>
        <time>2011-05-22T06:28:35.000Z</time>
      </trkpt>
      <trkpt lat="48.70066" lon="1.70063">
        <ele>180.19999694824</ele>
        <time>2011-05-22T06:28:45.000Z</time>
      </trkpt>
      <trkpt lat="48.70058" lon="1.70049">
        <ele>179.80000305176</ele>
        <time>2011-05-22T06:28:55.000Z</time>
      </trkpt>
      <trkpt lat="48.70046" lon="1.70033">
        <ele>179.19999694824</ele>
        <time>2011-05-22T06:29:07.000Z</time>
      </trkpt>
      <trkpt lat="48.70037" lon="1.70023">
        <ele>178.80000305176</ele>
        <time>2011-05-22T06:29:15.000Z</time>
      </trkpt>
      <trkpt lat="48.70028" lon="1.70011">
        <ele>178.39999389648</ele>
        <time>2011-05-22T06:29:23.000Z</time>
      </trkpt>
      <trkpt lat="48.70021" lon="1.69998">
        <ele>177.80000305176</ele>
        <time>2011-05-22T06:29:31.000Z</time>
      </trkpt>
      <trkpt lat="48.7002" lon="1.69997">
        <ele>177.80000305176</ele>
        <time>2011-05-22T06:29:32.000Z</time>
      </trkpt>
      <trkpt lat="48.70017" lon="1.69991">
        <ele>177.39999389648</ele>
        <time>2011-05-22T06:29:36.000Z</time>
      </trkpt>
      <trkpt lat="48.70008" lon="1.69977">
        <ele>176.80000305176</ele>
        <time>2011-05-22T06:29:46.000Z</time>
      </trkpt>
      <trkpt lat="48.70003" lon="1.69969">
        <ele>176.19999694824</ele>
        <time>2011-05-22T06:29:52.000Z</time>
      </trkpt>
      <trkpt lat="48.69995" lon="1.69955">
        <ele>175.80000305176</ele>
        <time>2011-05-22T06:30:01.000Z</time>
      </trkpt>
      <trkpt lat="48.69986" lon="1.69941">
        <ele>175.60000610352</ele>
        <time>2011-05-22T06:30:10.000Z</time>
      </trkpt>
      <trkpt lat="48.69977" lon="1.69929">
        <ele>175.39999389648</ele>
        <time>2011-05-22T06:30:18.000Z</time>
      </trkpt>
      <trkpt lat="48.69969" lon="1.69917">
        <ele>175.19999694824</ele>
        <time>2011-05-22T06:30:26.000Z</time>
      </trkpt>
      <trkpt lat="48.69964" lon="1.69909">
        <ele>175.19999694824</ele>
        <time>2011-05-22T06:30:31.000Z</time>
      </trkpt>
      <trkpt lat="48.69958" lon="1.69898">
        <ele>174.80000305176</ele>
        <time>2011-05-22T06:30:37.000Z</time>
      </trkpt>
      <trkpt lat="48.69957" lon="1.6989">
        <ele>174.60000610352</ele>
        <time>2011-05-22T06:30:41.000Z</time>
      </trkpt>
      <trkpt lat="48.69951" lon="1.69879">
        <ele>174.39999389648</ele>
        <time>2011-05-22T06:30:48.000Z</time>
      </trkpt>
      <trkpt lat="48.69945" lon="1.69865">
        <ele>174</ele>
        <time>2011-05-22T06:30:56.000Z</time>
      </trkpt>
      <trkpt lat="48.6994" lon="1.69855">
        <ele>173.60000610352</ele>
        <time>2011-05-22T06:31:03.000Z</time>
      </trkpt>
      <trkpt lat="48.69936" lon="1.69843">
        <ele>173.19999694824</ele>
        <time>2011-05-22T06:31:09.000Z</time>
      </trkpt>
      <trkpt lat="48.69934" lon="1.69832">
        <ele>172.80000305176</ele>
        <time>2011-05-22T06:31:15.000Z</time>
      </trkpt>
      <trkpt lat="48.69933" lon="1.69826">
        <ele>172.60000610352</ele>
        <time>2011-05-22T06:31:18.000Z</time>
      </trkpt>
      <trkpt lat="48.6993" lon="1.69821">
        <ele>172.19999694824</ele>
        <time>2011-05-22T06:31:21.000Z</time>
      </trkpt>
      <trkpt lat="48.69926" lon="1.69809">
        <ele>171.60000610352</ele>
        <time>2011-05-22T06:31:27.000Z</time>
      </trkpt>
      <trkpt lat="48.69924" lon="1.69799">
        <ele>171</ele>
        <time>2011-05-22T06:31:33.000Z</time>
      </trkpt>
      <trkpt lat="48.69922" lon="1.69796">
        <ele>170.80000305176</ele>
        <time>2011-05-22T06:31:35.000Z</time>
      </trkpt>
      <trkpt lat="48.69916" lon="1.69783">
        <ele>169.80000305176</ele>
        <time>2011-05-22T06:31:43.000Z</time>
      </trkpt>
      <trkpt lat="48.69915" lon="1.69773">
        <ele>169.19999694824</ele>
        <time>2011-05-22T06:31:48.000Z</time>
      </trkpt>
      <trkpt lat="48.69913" lon="1.69766">
        <ele>168.80000305176</ele>
        <time>2011-05-22T06:31:52.000Z</time>
      </trkpt>
      <trkpt lat="48.69912" lon="1.6976">
        <ele>168.39999389648</ele>
        <time>2011-05-22T06:31:54.000Z</time>
      </trkpt>
      <trkpt lat="48.69906" lon="1.69747">
        <ele>167.39999389648</ele>
        <time>2011-05-22T06:32:01.000Z</time>
      </trkpt>
      <trkpt lat="48.69902" lon="1.69736">
        <ele>166.80000305176</ele>
        <time>2011-05-22T06:32:06.000Z</time>
      </trkpt>
      <trkpt lat="48.69897" lon="1.69721">
        <ele>165.80000305176</ele>
        <time>2011-05-22T06:32:13.000Z</time>
      </trkpt>
      <trkpt lat="48.69894" lon="1.69711">
        <ele>165.19999694824</ele>
        <time>2011-05-22T06:32:19.000Z</time>
      </trkpt>
      <trkpt lat="48.69891" lon="1.69702">
        <ele>164.60000610352</ele>
        <time>2011-05-22T06:32:24.000Z</time>
      </trkpt>
      <trkpt lat="48.69888" lon="1.69694">
        <ele>164.19999694824</ele>
        <time>2011-05-22T06:32:29.000Z</time>
      </trkpt>
      <trkpt lat="48.69884" lon="1.69682">
        <ele>163.39999389648</ele>
        <time>2011-05-22T06:32:35.000Z</time>
      </trkpt>
      <trkpt lat="48.69883" lon="1.69676">
        <ele>163.19999694824</ele>
        <time>2011-05-22T06:32:38.000Z</time>
      </trkpt>
      <trkpt lat="48.69878" lon="1.69662">
        <ele>162.60000610352</ele>
        <time>2011-05-22T06:32:45.000Z</time>
      </trkpt>
      <trkpt lat="48.69873" lon="1.69646">
        <ele>162.39999389648</ele>
        <time>2011-05-22T06:32:52.000Z</time>
      </trkpt>
      <trkpt lat="48.69871" lon="1.69635">
        <ele>162.39999389648</ele>
        <time>2011-05-22T06:32:57.000Z</time>
      </trkpt>
      <trkpt lat="48.69867" lon="1.69629">
        <ele>162.39999389648</ele>
        <time>2011-05-22T06:33:01.000Z</time>
      </trkpt>
      <trkpt lat="48.69862" lon="1.69613">
        <ele>162.39999389648</ele>
        <time>2011-05-22T06:33:09.000Z</time>
      </trkpt>
      <trkpt lat="48.69857" lon="1.69602">
        <ele>162.39999389648</ele>
        <time>2011-05-22T06:33:16.000Z</time>
      </trkpt>
      <trkpt lat="48.69857" lon="1.69601">
        <ele>162.39999389648</ele>
        <time>2011-05-22T06:33:17.000Z</time>
      </trkpt>
      <trkpt lat="48.69849" lon="1.69588">
        <ele>162.19999694824</ele>
        <time>2011-05-22T06:33:26.000Z</time>
      </trkpt>
      <trkpt lat="48.69844" lon="1.69572">
        <ele>162.39999389648</ele>
        <time>2011-05-22T06:33:35.000Z</time>
      </trkpt>
      <trkpt lat="48.69839" lon="1.69558">
        <ele>162.60000610352</ele>
        <time>2011-05-22T06:33:42.000Z</time>
      </trkpt>
      <trkpt lat="48.69837" lon="1.69544">
        <ele>163</ele>
        <time>2011-05-22T06:33:49.000Z</time>
      </trkpt>
      <trkpt lat="48.69833" lon="1.69529">
        <ele>163.19999694824</ele>
        <time>2011-05-22T06:33:57.000Z</time>
      </trkpt>
      <trkpt lat="48.69828" lon="1.69519">
        <ele>162.80000305176</ele>
        <time>2011-05-22T06:34:04.000Z</time>
      </trkpt>
      <trkpt lat="48.69824" lon="1.69507">
        <ele>162.60000610352</ele>
        <time>2011-05-22T06:34:11.000Z</time>
      </trkpt>
      <trkpt lat="48.69819" lon="1.69493">
        <ele>162</ele>
        <time>2011-05-22T06:34:19.000Z</time>
      </trkpt>
      <trkpt lat="48.69818" lon="1.69485">
        <ele>161.80000305176</ele>
        <time>2011-05-22T06:34:22.000Z</time>
      </trkpt>
      <trkpt lat="48.69815" lon="1.69472">
        <ele>161.39999389648</ele>
        <time>2011-05-22T06:34:28.000Z</time>
      </trkpt>
      <trkpt lat="48.69817" lon="1.69464">
        <ele>161.39999389648</ele>
        <time>2011-05-22T06:34:33.000Z</time>
      </trkpt>
      <trkpt lat="48.69819" lon="1.69461">
        <ele>161.60000610352</ele>
        <time>2011-05-22T06:34:35.000Z</time>
      </trkpt>
      <trkpt lat="48.69821" lon="1.69461">
        <ele>161.80000305176</ele>
        <time>2011-05-22T06:34:37.000Z</time>
      </trkpt>
      <trkpt lat="48.6982" lon="1.69452">
        <ele>161.39999389648</ele>
        <time>2011-05-22T06:34:43.000Z</time>
      </trkpt>
      <trkpt lat="48.69819" lon="1.6945">
        <ele>161.19999694824</ele>
        <time>2011-05-22T06:34:44.000Z</time>
      </trkpt>
      <trkpt lat="48.69815" lon="1.69427">
        <ele>160.60000610352</ele>
        <time>2011-05-22T06:34:51.000Z</time>
      </trkpt>
      <trkpt lat="48.69812" lon="1.69413">
        <ele>160</ele>
        <time>2011-05-22T06:34:57.000Z</time>
      </trkpt>
      <trkpt lat="48.6981" lon="1.69407">
        <ele>159.60000610352</ele>
        <time>2011-05-22T06:34:59.000Z</time>
      </trkpt>
      <trkpt lat="48.69807" lon="1.69391">
        <ele>159</ele>
        <time>2011-05-22T06:35:04.000Z</time>
      </trkpt>
      <trkpt lat="48.69806" lon="1.69387">
        <ele>158.80000305176</ele>
        <time>2011-05-22T06:35:05.000Z</time>
      </trkpt>
      <trkpt lat="48.69801" lon="1.69364">
        <ele>158</ele>
        <time>2011-05-22T06:35:11.000Z</time>
      </trkpt>
      <trkpt lat="48.69798" lon="1.69349">
        <ele>157.60000610352</ele>
        <time>2011-05-22T06:35:15.000Z</time>
      </trkpt>
      <trkpt lat="48.69793" lon="1.69325">
        <ele>157</ele>
        <time>2011-05-22T06:35:22.000Z</time>
      </trkpt>
      <trkpt lat="48.69791" lon="1.69311">
        <ele>156.80000305176</ele>
        <time>2011-05-22T06:35:26.000Z</time>
      </trkpt>
      <trkpt lat="48.69787" lon="1.6929">
        <ele>156.80000305176</ele>
        <time>2011-05-22T06:35:32.000Z</time>
      </trkpt>
      <trkpt lat="48.69783" lon="1.69263">
        <ele>156.60000610352</ele>
        <time>2011-05-22T06:35:38.000Z</time>
      </trkpt>
      <trkpt lat="48.69779" lon="1.69238">
        <ele>156.39999389648</ele>
        <time>2011-05-22T06:35:44.000Z</time>
      </trkpt>
      <trkpt lat="48.69773" lon="1.69207">
        <ele>156</ele>
        <time>2011-05-22T06:35:51.000Z</time>
      </trkpt>
      <trkpt lat="48.69769" lon="1.69181">
        <ele>155.80000305176</ele>
        <time>2011-05-22T06:35:57.000Z</time>
      </trkpt>
      <trkpt lat="48.69765" lon="1.69155">
        <ele>155.60000610352</ele>
        <time>2011-05-22T06:36:03.000Z</time>
      </trkpt>
      <trkpt lat="48.69761" lon="1.69131">
        <ele>155.19999694824</ele>
        <time>2011-05-22T06:36:08.000Z</time>
      </trkpt>
      <trkpt lat="48.69759" lon="1.691">
        <ele>154.80000305176</ele>
        <time>2011-05-22T06:36:15.000Z</time>
      </trkpt>
      <trkpt lat="48.69758" lon="1.69073">
        <ele>154.19999694824</ele>
        <time>2011-05-22T06:36:21.000Z</time>
      </trkpt>
      <trkpt lat="48.69758" lon="1.69054">
        <ele>153.60000610352</ele>
        <time>2011-05-22T06:36:26.000Z</time>
      </trkpt>
      <trkpt lat="48.69755" lon="1.69025">
        <ele>152.60000610352</ele>
        <time>2011-05-22T06:36:32.000Z</time>
      </trkpt>
      <trkpt lat="48.69754" lon="1.68999">
        <ele>151.80000305176</ele>
        <time>2011-05-22T06:36:37.000Z</time>
      </trkpt>
      <trkpt lat="48.69753" lon="1.68969">
        <ele>151.39999389648</ele>
        <time>2011-05-22T06:36:43.000Z</time>
      </trkpt>
      <trkpt lat="48.69753" lon="1.68947">
        <ele>151.19999694824</ele>
        <time>2011-05-22T06:36:48.000Z</time>
      </trkpt>
      <trkpt lat="48.69752" lon="1.68919">
        <ele>150.80000305176</ele>
        <time>2011-05-22T06:36:54.000Z</time>
      </trkpt>
      <trkpt lat="48.69749" lon="1.68884">
        <ele>150.60000610352</ele>
        <time>2011-05-22T06:37:01.000Z</time>
      </trkpt>
      <trkpt lat="48.69747" lon="1.68859">
        <ele>150.39999389648</ele>
        <time>2011-05-22T06:37:06.000Z</time>
      </trkpt>
      <trkpt lat="48.69746" lon="1.6883">
        <ele>150</ele>
        <time>2011-05-22T06:37:12.000Z</time>
      </trkpt>
      <trkpt lat="48.69745" lon="1.68796">
        <ele>150.19999694824</ele>
        <time>2011-05-22T06:37:19.000Z</time>
      </trkpt>
      <trkpt lat="48.69744" lon="1.68758">
        <ele>150.19999694824</ele>
        <time>2011-05-22T06:37:27.000Z</time>
      </trkpt>
      <trkpt lat="48.69744" lon="1.68723">
        <ele>149.39999389648</ele>
        <time>2011-05-22T06:37:35.000Z</time>
      </trkpt>
      <trkpt lat="48.69744" lon="1.68686">
        <ele>148.60000610352</ele>
        <time>2011-05-22T06:37:43.000Z</time>
      </trkpt>
      <trkpt lat="48.69744" lon="1.6865">
        <ele>148.39999389648</ele>
        <time>2011-05-22T06:37:51.000Z</time>
      </trkpt>
      <trkpt lat="48.69745" lon="1.6862">
        <ele>149.19999694824</ele>
        <time>2011-05-22T06:37:58.000Z</time>
      </trkpt>
      <trkpt lat="48.69744" lon="1.68588">
        <ele>150</ele>
        <time>2011-05-22T06:38:05.000Z</time>
      </trkpt>
      <trkpt lat="48.69746" lon="1.68559">
        <ele>150</ele>
        <time>2011-05-22T06:38:12.000Z</time>
      </trkpt>
      <trkpt lat="48.69744" lon="1.68534">
        <ele>150</ele>
        <time>2011-05-22T06:38:18.000Z</time>
      </trkpt>
      <trkpt lat="48.69747" lon="1.68519">
        <ele>150</ele>
        <time>2011-05-22T06:38:22.000Z</time>
      </trkpt>
      <trkpt lat="48.69749" lon="1.68486">
        <ele>149.80000305176</ele>
        <time>2011-05-22T06:38:29.000Z</time>
      </trkpt>
      <trkpt lat="48.69752" lon="1.68453">
        <ele>149.39999389648</ele>
        <time>2011-05-22T06:38:35.000Z</time>
      </trkpt>
      <trkpt lat="48.69755" lon="1.68424">
        <ele>149.39999389648</ele>
        <time>2011-05-22T06:38:41.000Z</time>
      </trkpt>
      <trkpt lat="48.69756" lon="1.68391">
        <ele>148.80000305176</ele>
        <time>2011-05-22T06:38:48.000Z</time>
      </trkpt>
      <trkpt lat="48.69754" lon="1.68369">
        <ele>148</ele>
        <time>2011-05-22T06:38:53.000Z</time>
      </trkpt>
      <trkpt lat="48.69755" lon="1.68341">
        <ele>147.39999389648</ele>
        <time>2011-05-22T06:38:59.000Z</time>
      </trkpt>
      <trkpt lat="48.69755" lon="1.68313">
        <ele>147.39999389648</ele>
        <time>2011-05-22T06:39:04.000Z</time>
      </trkpt>
      <trkpt lat="48.69754" lon="1.68274">
        <ele>147.80000305176</ele>
        <time>2011-05-22T06:39:09.000Z</time>
      </trkpt>
      <trkpt lat="48.69756" lon="1.68259">
        <ele>148</ele>
        <time>2011-05-22T06:39:11.000Z</time>
      </trkpt>
      <trkpt lat="48.69757" lon="1.6823">
        <ele>147.80000305176</ele>
        <time>2011-05-22T06:39:15.000Z</time>
      </trkpt>
      <trkpt lat="48.69758" lon="1.6819">
        <ele>146.80000305176</ele>
        <time>2011-05-22T06:39:20.000Z</time>
      </trkpt>
      <trkpt lat="48.69762" lon="1.68163">
        <ele>146.60000610352</ele>
        <time>2011-05-22T06:39:23.000Z</time>
      </trkpt>
      <trkpt lat="48.69763" lon="1.68125">
        <ele>146.80000305176</ele>
        <time>2011-05-22T06:39:27.000Z</time>
      </trkpt>
      <trkpt lat="48.69765" lon="1.68092">
        <ele>146.80000305176</ele>
        <time>2011-05-22T06:39:31.000Z</time>
      </trkpt>
      <trkpt lat="48.69759" lon="1.68035">
        <ele>147.60000610352</ele>
        <time>2011-05-22T06:39:38.000Z</time>
      </trkpt>
      <trkpt lat="48.69759" lon="1.68017">
        <ele>147.80000305176</ele>
        <time>2011-05-22T06:39:40.000Z</time>
      </trkpt>
      <trkpt lat="48.69755" lon="1.67978">
        <ele>148</ele>
        <time>2011-05-22T06:39:45.000Z</time>
      </trkpt>
      <trkpt lat="48.69748" lon="1.67939">
        <ele>147.80000305176</ele>
        <time>2011-05-22T06:39:51.000Z</time>
      </trkpt>
      <trkpt lat="48.69741" lon="1.67904">
        <ele>147.60000610352</ele>
        <time>2011-05-22T06:39:58.000Z</time>
      </trkpt>
      <trkpt lat="48.69734" lon="1.67871">
        <ele>147.39999389648</ele>
        <time>2011-05-22T06:40:05.000Z</time>
      </trkpt>
      <trkpt lat="48.69728" lon="1.6784">
        <ele>147.19999694824</ele>
        <time>2011-05-22T06:40:12.000Z</time>
      </trkpt>
      <trkpt lat="48.69724" lon="1.67806">
        <ele>147.19999694824</ele>
        <time>2011-05-22T06:40:20.000Z</time>
      </trkpt>
      <trkpt lat="48.69719" lon="1.67776">
        <ele>147.19999694824</ele>
        <time>2011-05-22T06:40:27.000Z</time>
      </trkpt>
      <trkpt lat="48.69713" lon="1.67743">
        <ele>147</ele>
        <time>2011-05-22T06:40:35.000Z</time>
      </trkpt>
      <trkpt lat="48.69708" lon="1.67715">
        <ele>146.60000610352</ele>
        <time>2011-05-22T06:40:42.000Z</time>
      </trkpt>
      <trkpt lat="48.69704" lon="1.67683">
        <ele>146.19999694824</ele>
        <time>2011-05-22T06:40:49.000Z</time>
      </trkpt>
      <trkpt lat="48.69698" lon="1.67648">
        <ele>146</ele>
        <time>2011-05-22T06:40:57.000Z</time>
      </trkpt>
      <trkpt lat="48.69692" lon="1.67607">
        <ele>146</ele>
        <time>2011-05-22T06:41:06.000Z</time>
      </trkpt>
      <trkpt lat="48.69683" lon="1.67569">
        <ele>145.60000610352</ele>
        <time>2011-05-22T06:41:14.000Z</time>
      </trkpt>
      <trkpt lat="48.69671" lon="1.67526">
        <ele>145</ele>
        <time>2011-05-22T06:41:24.000Z</time>
      </trkpt>
      <trkpt lat="48.69663" lon="1.67503">
        <ele>144.80000305176</ele>
        <time>2011-05-22T06:41:30.000Z</time>
      </trkpt>
      <trkpt lat="48.69656" lon="1.67487">
        <ele>145.19999694824</ele>
        <time>2011-05-22T06:41:35.000Z</time>
      </trkpt>
      <trkpt lat="48.69648" lon="1.6747">
        <ele>145.80000305176</ele>
        <time>2011-05-22T06:41:41.000Z</time>
      </trkpt>
      <trkpt lat="48.69644" lon="1.67461">
        <ele>146</ele>
        <time>2011-05-22T06:41:44.000Z</time>
      </trkpt>
      <trkpt lat="48.69634" lon="1.6745">
        <ele>146.39999389648</ele>
        <time>2011-05-22T06:41:51.000Z</time>
      </trkpt>
      <trkpt lat="48.69629" lon="1.67441">
        <ele>146.60000610352</ele>
        <time>2011-05-22T06:41:57.000Z</time>
      </trkpt>
      <trkpt lat="48.69624" lon="1.67431">
        <ele>146.80000305176</ele>
        <time>2011-05-22T06:42:03.000Z</time>
      </trkpt>
      <trkpt lat="48.69618" lon="1.67421">
        <ele>147.19999694824</ele>
        <time>2011-05-22T06:42:10.000Z</time>
      </trkpt>
      <trkpt lat="48.69614" lon="1.67409">
        <ele>147.39999389648</ele>
        <time>2011-05-22T06:42:18.000Z</time>
      </trkpt>
      <trkpt lat="48.69608" lon="1.67393">
        <ele>147.60000610352</ele>
        <time>2011-05-22T06:42:28.000Z</time>
      </trkpt>
      <trkpt lat="48.69602" lon="1.67383">
        <ele>147.80000305176</ele>
        <time>2011-05-22T06:42:36.000Z</time>
      </trkpt>
      <trkpt lat="48.69597" lon="1.67374">
        <ele>147.80000305176</ele>
        <time>2011-05-22T06:42:42.000Z</time>
      </trkpt>
      <trkpt lat="48.69593" lon="1.67367">
        <ele>147.80000305176</ele>
        <time>2011-05-22T06:42:47.000Z</time>
      </trkpt>
      <trkpt lat="48.69589" lon="1.67359">
        <ele>147.80000305176</ele>
        <time>2011-05-22T06:42:53.000Z</time>
      </trkpt>
      <trkpt lat="48.69586" lon="1.67352">
        <ele>147.80000305176</ele>
        <time>2011-05-22T06:42:58.000Z</time>
      </trkpt>
      <trkpt lat="48.6958" lon="1.67341">
        <ele>147.80000305176</ele>
        <time>2011-05-22T06:43:07.000Z</time>
      </trkpt>
      <trkpt lat="48.69576" lon="1.67332">
        <ele>147.80000305176</ele>
        <time>2011-05-22T06:43:12.000Z</time>
      </trkpt>
      <trkpt lat="48.69572" lon="1.67325">
        <ele>147.80000305176</ele>
        <time>2011-05-22T06:43:16.000Z</time>
      </trkpt>
      <trkpt lat="48.6957" lon="1.67318">
        <ele>147.80000305176</ele>
        <time>2011-05-22T06:43:20.000Z</time>
      </trkpt>
      <trkpt lat="48.69563" lon="1.67305">
        <ele>147.60000610352</ele>
        <time>2011-05-22T06:43:29.000Z</time>
      </trkpt>
      <trkpt lat="48.69557" lon="1.67293">
        <ele>147.60000610352</ele>
        <time>2011-05-22T06:43:38.000Z</time>
      </trkpt>
      <trkpt lat="48.69551" lon="1.67281">
        <ele>147.60000610352</ele>
        <time>2011-05-22T06:43:46.000Z</time>
      </trkpt>
      <trkpt lat="48.69544" lon="1.6727">
        <ele>147.39999389648</ele>
        <time>2011-05-22T06:43:54.000Z</time>
      </trkpt>
      <trkpt lat="48.69537" lon="1.6726">
        <ele>147.39999389648</ele>
        <time>2011-05-22T06:44:01.000Z</time>
      </trkpt>
      <trkpt lat="48.69533" lon="1.67249">
        <ele>147.19999694824</ele>
        <time>2011-05-22T06:44:08.000Z</time>
      </trkpt>
      <trkpt lat="48.69526" lon="1.67235">
        <ele>147.19999694824</ele>
        <time>2011-05-22T06:44:18.000Z</time>
      </trkpt>
      <trkpt lat="48.69522" lon="1.67224">
        <ele>147.19999694824</ele>
        <time>2011-05-22T06:44:25.000Z</time>
      </trkpt>
      <trkpt lat="48.69517" lon="1.67214">
        <ele>147.19999694824</ele>
        <time>2011-05-22T06:44:32.000Z</time>
      </trkpt>
      <trkpt lat="48.69512" lon="1.67201">
        <ele>147</ele>
        <time>2011-05-22T06:44:41.000Z</time>
      </trkpt>
      <trkpt lat="48.69508" lon="1.67186">
        <ele>147</ele>
        <time>2011-05-22T06:44:50.000Z</time>
      </trkpt>
      <trkpt lat="48.69503" lon="1.67172">
        <ele>147</ele>
        <time>2011-05-22T06:44:59.000Z</time>
      </trkpt>
      <trkpt lat="48.695" lon="1.67153">
        <ele>146.39999389648</ele>
        <time>2011-05-22T06:45:09.000Z</time>
      </trkpt>
      <trkpt lat="48.69497" lon="1.67135">
        <ele>145.80000305176</ele>
        <time>2011-05-22T06:45:18.000Z</time>
      </trkpt>
      <trkpt lat="48.69494" lon="1.67114">
        <ele>145</ele>
        <time>2011-05-22T06:45:29.000Z</time>
      </trkpt>
      <trkpt lat="48.69491" lon="1.67093">
        <ele>144.19999694824</ele>
        <time>2011-05-22T06:45:39.000Z</time>
      </trkpt>
      <trkpt lat="48.69487" lon="1.67075">
        <ele>143.80000305176</ele>
        <time>2011-05-22T06:45:48.000Z</time>
      </trkpt>
      <trkpt lat="48.69485" lon="1.67056">
        <ele>143.39999389648</ele>
        <time>2011-05-22T06:45:57.000Z</time>
      </trkpt>
      <trkpt lat="48.69485" lon="1.67052">
        <ele>143.39999389648</ele>
        <time>2011-05-22T06:45:59.000Z</time>
      </trkpt>
      <trkpt lat="48.69485" lon="1.67052">
        <ele>143.39999389648</ele>
        <time>2011-05-22T06:46:02.000Z</time>
      </trkpt>
      <trkpt lat="48.69484" lon="1.67043">
        <ele>143.19999694824</ele>
        <time>2011-05-22T06:46:10.000Z</time>
      </trkpt>
      <trkpt lat="48.69481" lon="1.67027">
        <ele>143</ele>
        <time>2011-05-22T06:46:17.000Z</time>
      </trkpt>
      <trkpt lat="48.69478" lon="1.67014">
        <ele>142.60000610352</ele>
        <time>2011-05-22T06:46:24.000Z</time>
      </trkpt>
      <trkpt lat="48.69477" lon="1.67003">
        <ele>142.39999389648</ele>
        <time>2011-05-22T06:46:30.000Z</time>
      </trkpt>
      <trkpt lat="48.69476" lon="1.66989">
        <ele>142.39999389648</ele>
        <time>2011-05-22T06:46:37.000Z</time>
      </trkpt>
      <trkpt lat="48.69474" lon="1.66974">
        <ele>142.19999694824</ele>
        <time>2011-05-22T06:46:45.000Z</time>
      </trkpt>
      <trkpt lat="48.69471" lon="1.66962">
        <ele>142.19999694824</ele>
        <time>2011-05-22T06:46:51.000Z</time>
      </trkpt>
      <trkpt lat="48.69469" lon="1.66949">
        <ele>142.19999694824</ele>
        <time>2011-05-22T06:46:58.000Z</time>
      </trkpt>
      <trkpt lat="48.69466" lon="1.66936">
        <ele>142</ele>
        <time>2011-05-22T06:47:05.000Z</time>
      </trkpt>
      <trkpt lat="48.69463" lon="1.66922">
        <ele>142</ele>
        <time>2011-05-22T06:47:13.000Z</time>
      </trkpt>
      <trkpt lat="48.69461" lon="1.66907">
        <ele>142</ele>
        <time>2011-05-22T06:47:21.000Z</time>
      </trkpt>
      <trkpt lat="48.69461" lon="1.6689">
        <ele>142.19999694824</ele>
        <time>2011-05-22T06:47:29.000Z</time>
      </trkpt>
      <trkpt lat="48.69462" lon="1.66886">
        <ele>142.19999694824</ele>
        <time>2011-05-22T06:47:31.000Z</time>
      </trkpt>
      <trkpt lat="48.69458" lon="1.66874">
        <ele>142.19999694824</ele>
        <time>2011-05-22T06:47:38.000Z</time>
      </trkpt>
      <trkpt lat="48.69458" lon="1.66872">
        <ele>142.19999694824</ele>
        <time>2011-05-22T06:47:39.000Z</time>
      </trkpt>
      <trkpt lat="48.69451" lon="1.66859">
        <ele>142.19999694824</ele>
        <time>2011-05-22T06:47:47.000Z</time>
      </trkpt>
      <trkpt lat="48.69448" lon="1.66841">
        <ele>142.19999694824</ele>
        <time>2011-05-22T06:47:56.000Z</time>
      </trkpt>
      <trkpt lat="48.69447" lon="1.66833">
        <ele>142.19999694824</ele>
        <time>2011-05-22T06:48:00.000Z</time>
      </trkpt>
      <trkpt lat="48.69444" lon="1.66819">
        <ele>142.39999389648</ele>
        <time>2011-05-22T06:48:08.000Z</time>
      </trkpt>
      <trkpt lat="48.69442" lon="1.66804">
        <ele>142.39999389648</ele>
        <time>2011-05-22T06:48:17.000Z</time>
      </trkpt>
      <trkpt lat="48.69439" lon="1.66788">
        <ele>142.39999389648</ele>
        <time>2011-05-22T06:48:26.000Z</time>
      </trkpt>
      <trkpt lat="48.69436" lon="1.66774">
        <ele>142.39999389648</ele>
        <time>2011-05-22T06:48:33.000Z</time>
      </trkpt>
      <trkpt lat="48.69434" lon="1.66767">
        <ele>142.39999389648</ele>
        <time>2011-05-22T06:48:37.000Z</time>
      </trkpt>
      <trkpt lat="48.6943" lon="1.66752">
        <ele>142.39999389648</ele>
        <time>2011-05-22T06:48:45.000Z</time>
      </trkpt>
      <trkpt lat="48.69425" lon="1.66736">
        <ele>142</ele>
        <time>2011-05-22T06:48:53.000Z</time>
      </trkpt>
      <trkpt lat="48.6942" lon="1.66716">
        <ele>141.60000610352</ele>
        <time>2011-05-22T06:49:03.000Z</time>
      </trkpt>
      <trkpt lat="48.69418" lon="1.66702">
        <ele>141.39999389648</ele>
        <time>2011-05-22T06:49:10.000Z</time>
      </trkpt>
      <trkpt lat="48.69418" lon="1.66688">
        <ele>141.19999694824</ele>
        <time>2011-05-22T06:49:17.000Z</time>
      </trkpt>
      <trkpt lat="48.69415" lon="1.66671">
        <ele>141</ele>
        <time>2011-05-22T06:49:26.000Z</time>
      </trkpt>
      <trkpt lat="48.69414" lon="1.66657">
        <ele>141</ele>
        <time>2011-05-22T06:49:33.000Z</time>
      </trkpt>
      <trkpt lat="48.69415" lon="1.66641">
        <ele>141.19999694824</ele>
        <time>2011-05-22T06:49:41.000Z</time>
      </trkpt>
      <trkpt lat="48.69419" lon="1.66622">
        <ele>141.60000610352</ele>
        <time>2011-05-22T06:49:50.000Z</time>
      </trkpt>
      <trkpt lat="48.69421" lon="1.66618">
        <ele>141.60000610352</ele>
        <time>2011-05-22T06:49:53.000Z</time>
      </trkpt>
      <trkpt lat="48.69424" lon="1.66608">
        <ele>142</ele>
        <time>2011-05-22T06:49:59.000Z</time>
      </trkpt>
      <trkpt lat="48.69425" lon="1.6659">
        <ele>142.19999694824</ele>
        <time>2011-05-22T06:50:08.000Z</time>
      </trkpt>
      <trkpt lat="48.69426" lon="1.66579">
        <ele>142.39999389648</ele>
        <time>2011-05-22T06:50:13.000Z</time>
      </trkpt>
      <trkpt lat="48.69428" lon="1.66565">
        <ele>142.39999389648</ele>
        <time>2011-05-22T06:50:21.000Z</time>
      </trkpt>
      <trkpt lat="48.6943" lon="1.66548">
        <ele>142.60000610352</ele>
        <time>2011-05-22T06:50:30.000Z</time>
      </trkpt>
      <trkpt lat="48.69432" lon="1.66531">
        <ele>142.60000610352</ele>
        <time>2011-05-22T06:50:39.000Z</time>
      </trkpt>
      <trkpt lat="48.69435" lon="1.66514">
        <ele>142.80000305176</ele>
        <time>2011-05-22T06:50:48.000Z</time>
      </trkpt>
      <trkpt lat="48.69438" lon="1.66499">
        <ele>143</ele>
        <time>2011-05-22T06:50:57.000Z</time>
      </trkpt>
      <trkpt lat="48.69441" lon="1.66487">
        <ele>143.19999694824</ele>
        <time>2011-05-22T06:51:03.000Z</time>
      </trkpt>
      <trkpt lat="48.69444" lon="1.66473">
        <ele>143.60000610352</ele>
        <time>2011-05-22T06:51:10.000Z</time>
      </trkpt>
      <trkpt lat="48.69449" lon="1.66454">
        <ele>144</ele>
        <time>2011-05-22T06:51:20.000Z</time>
      </trkpt>
      <trkpt lat="48.69452" lon="1.66441">
        <ele>144.19999694824</ele>
        <time>2011-05-22T06:51:27.000Z</time>
      </trkpt>
      <trkpt lat="48.69454" lon="1.66427">
        <ele>144.19999694824</ele>
        <time>2011-05-22T06:51:34.000Z</time>
      </trkpt>
      <trkpt lat="48.69458" lon="1.66412">
        <ele>144.39999389648</ele>
        <time>2011-05-22T06:51:41.000Z</time>
      </trkpt>
      <trkpt lat="48.69463" lon="1.66398">
        <ele>144.19999694824</ele>
        <time>2011-05-22T06:51:48.000Z</time>
      </trkpt>
      <trkpt lat="48.69467" lon="1.66387">
        <ele>144.19999694824</ele>
        <time>2011-05-22T06:51:55.000Z</time>
      </trkpt>
      <trkpt lat="48.69471" lon="1.66377">
        <ele>144</ele>
        <time>2011-05-22T06:52:01.000Z</time>
      </trkpt>
      <trkpt lat="48.69475" lon="1.66367">
        <ele>144</ele>
        <time>2011-05-22T06:52:07.000Z</time>
      </trkpt>
      <trkpt lat="48.69479" lon="1.66358">
        <ele>144</ele>
        <time>2011-05-22T06:52:13.000Z</time>
      </trkpt>
      <trkpt lat="48.69487" lon="1.66342">
        <ele>143.80000305176</ele>
        <time>2011-05-22T06:52:22.000Z</time>
      </trkpt>
      <trkpt lat="48.69488" lon="1.6634">
        <ele>143.80000305176</ele>
        <time>2011-05-22T06:52:23.000Z</time>
      </trkpt>
      <trkpt lat="48.69491" lon="1.66333">
        <ele>143.80000305176</ele>
        <time>2011-05-22T06:52:27.000Z</time>
      </trkpt>
      <trkpt lat="48.69497" lon="1.66319">
        <ele>143.80000305176</ele>
        <time>2011-05-22T06:52:35.000Z</time>
      </trkpt>
      <trkpt lat="48.69503" lon="1.66305">
        <ele>144</ele>
        <time>2011-05-22T06:52:43.000Z</time>
      </trkpt>
      <trkpt lat="48.69506" lon="1.66294">
        <ele>144.19999694824</ele>
        <time>2011-05-22T06:52:49.000Z</time>
      </trkpt>
      <trkpt lat="48.69509" lon="1.66281">
        <ele>144.39999389648</ele>
        <time>2011-05-22T06:52:56.000Z</time>
      </trkpt>
      <trkpt lat="48.69509" lon="1.66268">
        <ele>144.39999389648</ele>
        <time>2011-05-22T06:53:03.000Z</time>
      </trkpt>
      <trkpt lat="48.6951" lon="1.66249">
        <ele>144.60000610352</ele>
        <time>2011-05-22T06:53:13.000Z</time>
      </trkpt>
      <trkpt lat="48.69509" lon="1.66236">
        <ele>144.80000305176</ele>
        <time>2011-05-22T06:53:20.000Z</time>
      </trkpt>
      <trkpt lat="48.6951" lon="1.66234">
        <ele>144.80000305176</ele>
        <time>2011-05-22T06:53:21.000Z</time>
      </trkpt>
      <trkpt lat="48.69511" lon="1.6622">
        <ele>145.19999694824</ele>
        <time>2011-05-22T06:53:28.000Z</time>
      </trkpt>
      <trkpt lat="48.69516" lon="1.662">
        <ele>146</ele>
        <time>2011-05-22T06:53:39.000Z</time>
      </trkpt>
      <trkpt lat="48.69522" lon="1.66179">
        <ele>147</ele>
        <time>2011-05-22T06:53:50.000Z</time>
      </trkpt>
      <trkpt lat="48.69526" lon="1.66167">
        <ele>147.39999389648</ele>
        <time>2011-05-22T06:53:57.000Z</time>
      </trkpt>
      <trkpt lat="48.69532" lon="1.6615">
        <ele>147.80000305176</ele>
        <time>2011-05-22T06:54:07.000Z</time>
      </trkpt>
      <trkpt lat="48.69537" lon="1.66128">
        <ele>148.19999694824</ele>
        <time>2011-05-22T06:54:18.000Z</time>
      </trkpt>
      <trkpt lat="48.69541" lon="1.66113">
        <ele>148.39999389648</ele>
        <time>2011-05-22T06:54:26.000Z</time>
      </trkpt>
      <trkpt lat="48.69545" lon="1.66098">
        <ele>148.60000610352</ele>
        <time>2011-05-22T06:54:35.000Z</time>
      </trkpt>
      <trkpt lat="48.69549" lon="1.66081">
        <ele>148.80000305176</ele>
        <time>2011-05-22T06:54:44.000Z</time>
      </trkpt>
      <trkpt lat="48.69553" lon="1.66064">
        <ele>149</ele>
        <time>2011-05-22T06:54:53.000Z</time>
      </trkpt>
      <trkpt lat="48.69555" lon="1.66048">
        <ele>149</ele>
        <time>2011-05-22T06:55:01.000Z</time>
      </trkpt>
      <trkpt lat="48.69557" lon="1.66027">
        <ele>148.80000305176</ele>
        <time>2011-05-22T06:55:11.000Z</time>
      </trkpt>
      <trkpt lat="48.69557" lon="1.66025">
        <ele>148.80000305176</ele>
        <time>2011-05-22T06:55:12.000Z</time>
      </trkpt>
      <trkpt lat="48.69554" lon="1.66007">
        <ele>148.60000610352</ele>
        <time>2011-05-22T06:55:21.000Z</time>
      </trkpt>
      <trkpt lat="48.69552" lon="1.65997">
        <ele>148.39999389648</ele>
        <time>2011-05-22T06:55:27.000Z</time>
      </trkpt>
      <trkpt lat="48.69552" lon="1.65976">
        <ele>148.80000305176</ele>
        <time>2011-05-22T06:55:37.000Z</time>
      </trkpt>
      <trkpt lat="48.69551" lon="1.65961">
        <ele>149</ele>
        <time>2011-05-22T06:55:45.000Z</time>
      </trkpt>
      <trkpt lat="48.6955" lon="1.65947">
        <ele>149.19999694824</ele>
        <time>2011-05-22T06:55:53.000Z</time>
      </trkpt>
      <trkpt lat="48.69549" lon="1.65934">
        <ele>149.39999389648</ele>
        <time>2011-05-22T06:55:59.000Z</time>
      </trkpt>
      <trkpt lat="48.69547" lon="1.65918">
        <ele>149.60000610352</ele>
        <time>2011-05-22T06:56:07.000Z</time>
      </trkpt>
      <trkpt lat="48.69546" lon="1.65906">
        <ele>149.39999389648</ele>
        <time>2011-05-22T06:56:13.000Z</time>
      </trkpt>
      <trkpt lat="48.69546" lon="1.65893">
        <ele>149.19999694824</ele>
        <time>2011-05-22T06:56:20.000Z</time>
      </trkpt>
      <trkpt lat="48.69546" lon="1.65878">
        <ele>149</ele>
        <time>2011-05-22T06:56:27.000Z</time>
      </trkpt>
      <trkpt lat="48.69547" lon="1.65856">
        <ele>148.80000305176</ele>
        <time>2011-05-22T06:56:37.000Z</time>
      </trkpt>
      <trkpt lat="48.69547" lon="1.65846">
        <ele>148.60000610352</ele>
        <time>2011-05-22T06:56:42.000Z</time>
      </trkpt>
      <trkpt lat="48.69548" lon="1.65832">
        <ele>148.39999389648</ele>
        <time>2011-05-22T06:56:48.000Z</time>
      </trkpt>
      <trkpt lat="48.69551" lon="1.65822">
        <ele>148.39999389648</ele>
        <time>2011-05-22T06:56:53.000Z</time>
      </trkpt>
      <trkpt lat="48.69554" lon="1.6581">
        <ele>148.19999694824</ele>
        <time>2011-05-22T06:57:00.000Z</time>
      </trkpt>
      <trkpt lat="48.69558" lon="1.65796">
        <ele>148</ele>
        <time>2011-05-22T06:57:07.000Z</time>
      </trkpt>
      <trkpt lat="48.69561" lon="1.65782">
        <ele>147.80000305176</ele>
        <time>2011-05-22T06:57:14.000Z</time>
      </trkpt>
      <trkpt lat="48.69563" lon="1.65767">
        <ele>147.39999389648</ele>
        <time>2011-05-22T06:57:22.000Z</time>
      </trkpt>
      <trkpt lat="48.69564" lon="1.6575">
        <ele>147.19999694824</ele>
        <time>2011-05-22T06:57:31.000Z</time>
      </trkpt>
      <trkpt lat="48.69564" lon="1.65746">
        <ele>147.19999694824</ele>
        <time>2011-05-22T06:57:33.000Z</time>
      </trkpt>
      <trkpt lat="48.69562" lon="1.65734">
        <ele>147.19999694824</ele>
        <time>2011-05-22T06:57:39.000Z</time>
      </trkpt>
      <trkpt lat="48.6956" lon="1.65721">
        <ele>147.19999694824</ele>
        <time>2011-05-22T06:57:46.000Z</time>
      </trkpt>
      <trkpt lat="48.69558" lon="1.65714">
        <ele>147.19999694824</ele>
        <time>2011-05-22T06:57:51.000Z</time>
      </trkpt>
      <trkpt lat="48.69556" lon="1.65703">
        <ele>147.19999694824</ele>
        <time>2011-05-22T06:57:58.000Z</time>
      </trkpt>
      <trkpt lat="48.69552" lon="1.65695">
        <ele>147.19999694824</ele>
        <time>2011-05-22T06:58:04.000Z</time>
      </trkpt>
      <trkpt lat="48.69549" lon="1.65679">
        <ele>147.39999389648</ele>
        <time>2011-05-22T06:58:12.000Z</time>
      </trkpt>
      <trkpt lat="48.69547" lon="1.65668">
        <ele>147.39999389648</ele>
        <time>2011-05-22T06:58:18.000Z</time>
      </trkpt>
      <trkpt lat="48.69546" lon="1.65665">
        <ele>147.39999389648</ele>
        <time>2011-05-22T06:58:20.000Z</time>
      </trkpt>
      <trkpt lat="48.69544" lon="1.65654">
        <ele>147.80000305176</ele>
        <time>2011-05-22T06:58:26.000Z</time>
      </trkpt>
      <trkpt lat="48.69544" lon="1.65644">
        <ele>148</ele>
        <time>2011-05-22T06:58:31.000Z</time>
      </trkpt>
      <trkpt lat="48.69542" lon="1.65627">
        <ele>148.60000610352</ele>
        <time>2011-05-22T06:58:39.000Z</time>
      </trkpt>
      <trkpt lat="48.69543" lon="1.65625">
        <ele>148.60000610352</ele>
        <time>2011-05-22T06:58:40.000Z</time>
      </trkpt>
      <trkpt lat="48.69544" lon="1.65611">
        <ele>149</ele>
        <time>2011-05-22T06:58:46.000Z</time>
      </trkpt>
      <trkpt lat="48.69544" lon="1.65588">
        <ele>149.80000305176</ele>
        <time>2011-05-22T06:58:56.000Z</time>
      </trkpt>
      <trkpt lat="48.69544" lon="1.65582">
        <ele>150</ele>
        <time>2011-05-22T06:58:59.000Z</time>
      </trkpt>
      <trkpt lat="48.69545" lon="1.65567">
        <ele>150.39999389648</ele>
        <time>2011-05-22T06:59:07.000Z</time>
      </trkpt>
      <trkpt lat="48.69546" lon="1.65549">
        <ele>151</ele>
        <time>2011-05-22T06:59:15.000Z</time>
      </trkpt>
      <trkpt lat="48.69546" lon="1.65544">
        <ele>151.19999694824</ele>
        <time>2011-05-22T06:59:17.000Z</time>
      </trkpt>
      <trkpt lat="48.69547" lon="1.65529">
        <ele>151.60000610352</ele>
        <time>2011-05-22T06:59:23.000Z</time>
      </trkpt>
      <trkpt lat="48.69547" lon="1.65527">
        <ele>151.60000610352</ele>
        <time>2011-05-22T06:59:24.000Z</time>
      </trkpt>
      <trkpt lat="48.69549" lon="1.65509">
        <ele>152.19999694824</ele>
        <time>2011-05-22T06:59:33.000Z</time>
      </trkpt>
      <trkpt lat="48.6955" lon="1.655">
        <ele>152.39999389648</ele>
        <time>2011-05-22T06:59:37.000Z</time>
      </trkpt>
      <trkpt lat="48.69551" lon="1.65485">
        <ele>153.39999389648</ele>
        <time>2011-05-22T06:59:45.000Z</time>
      </trkpt>
      <trkpt lat="48.69552" lon="1.65466">
        <ele>154.39999389648</ele>
        <time>2011-05-22T06:59:54.000Z</time>
      </trkpt>
      <trkpt lat="48.69553" lon="1.65452">
        <ele>155</ele>
        <time>2011-05-22T07:00:01.000Z</time>
      </trkpt>
      <trkpt lat="48.69554" lon="1.65437">
        <ele>155.80000305176</ele>
        <time>2011-05-22T07:00:08.000Z</time>
      </trkpt>
      <trkpt lat="48.69553" lon="1.65426">
        <ele>156.39999389648</ele>
        <time>2011-05-22T07:00:14.000Z</time>
      </trkpt>
      <trkpt lat="48.69554" lon="1.65414">
        <ele>157</ele>
        <time>2011-05-22T07:00:20.000Z</time>
      </trkpt>
      <trkpt lat="48.69551" lon="1.65402">
        <ele>157.60000610352</ele>
        <time>2011-05-22T07:00:27.000Z</time>
      </trkpt>
      <trkpt lat="48.69549" lon="1.65388">
        <ele>158.19999694824</ele>
        <time>2011-05-22T07:00:35.000Z</time>
      </trkpt>
      <trkpt lat="48.69548" lon="1.65377">
        <ele>158.80000305176</ele>
        <time>2011-05-22T07:00:41.000Z</time>
      </trkpt>
      <trkpt lat="48.69548" lon="1.65362">
        <ele>159.39999389648</ele>
        <time>2011-05-22T07:00:49.000Z</time>
      </trkpt>
      <trkpt lat="48.69547" lon="1.65349">
        <ele>160</ele>
        <time>2011-05-22T07:00:55.000Z</time>
      </trkpt>
      <trkpt lat="48.69545" lon="1.65337">
        <ele>160.60000610352</ele>
        <time>2011-05-22T07:01:01.000Z</time>
      </trkpt>
      <trkpt lat="48.69545" lon="1.65322">
        <ele>161</ele>
        <time>2011-05-22T07:01:08.000Z</time>
      </trkpt>
      <trkpt lat="48.69544" lon="1.65308">
        <ele>161.19999694824</ele>
        <time>2011-05-22T07:01:15.000Z</time>
      </trkpt>
      <trkpt lat="48.69543" lon="1.65295">
        <ele>161.60000610352</ele>
        <time>2011-05-22T07:01:21.000Z</time>
      </trkpt>
      <trkpt lat="48.69542" lon="1.65279">
        <ele>161.80000305176</ele>
        <time>2011-05-22T07:01:28.000Z</time>
      </trkpt>
      <trkpt lat="48.69542" lon="1.65264">
        <ele>162.19999694824</ele>
        <time>2011-05-22T07:01:35.000Z</time>
      </trkpt>
      <trkpt lat="48.69542" lon="1.65252">
        <ele>162.39999389648</ele>
        <time>2011-05-22T07:01:41.000Z</time>
      </trkpt>
      <trkpt lat="48.69541" lon="1.65238">
        <ele>162.39999389648</ele>
        <time>2011-05-22T07:01:48.000Z</time>
      </trkpt>
      <trkpt lat="48.6954" lon="1.65224">
        <ele>162.60000610352</ele>
        <time>2011-05-22T07:01:55.000Z</time>
      </trkpt>
      <trkpt lat="48.69539" lon="1.65209">
        <ele>162.60000610352</ele>
        <time>2011-05-22T07:02:02.000Z</time>
      </trkpt>
      <trkpt lat="48.69538" lon="1.65203">
        <ele>162.60000610352</ele>
        <time>2011-05-22T07:02:05.000Z</time>
      </trkpt>
      <trkpt lat="48.69537" lon="1.65189">
        <ele>162.80000305176</ele>
        <time>2011-05-22T07:02:12.000Z</time>
      </trkpt>
      <trkpt lat="48.69536" lon="1.6518">
        <ele>162.80000305176</ele>
        <time>2011-05-22T07:02:16.000Z</time>
      </trkpt>
      <trkpt lat="48.69533" lon="1.6516">
        <ele>163.39999389648</ele>
        <time>2011-05-22T07:02:26.000Z</time>
      </trkpt>
      <trkpt lat="48.69532" lon="1.65144">
        <ele>163.80000305176</ele>
        <time>2011-05-22T07:02:34.000Z</time>
      </trkpt>
      <trkpt lat="48.69534" lon="1.65128">
        <ele>164.19999694824</ele>
        <time>2011-05-22T07:02:42.000Z</time>
      </trkpt>
      <trkpt lat="48.69534" lon="1.65124">
        <ele>164.19999694824</ele>
        <time>2011-05-22T07:02:44.000Z</time>
      </trkpt>
      <trkpt lat="48.69538" lon="1.65102">
        <ele>164.60000610352</ele>
        <time>2011-05-22T07:02:55.000Z</time>
      </trkpt>
      <trkpt lat="48.69542" lon="1.65086">
        <ele>164.80000305176</ele>
        <time>2011-05-22T07:03:04.000Z</time>
      </trkpt>
      <trkpt lat="48.69547" lon="1.65069">
        <ele>165.19999694824</ele>
        <time>2011-05-22T07:03:13.000Z</time>
      </trkpt>
      <trkpt lat="48.6955" lon="1.65056">
        <ele>165.60000610352</ele>
        <time>2011-05-22T07:03:20.000Z</time>
      </trkpt>
      <trkpt lat="48.69555" lon="1.65039">
        <ele>166.19999694824</ele>
        <time>2011-05-22T07:03:29.000Z</time>
      </trkpt>
      <trkpt lat="48.69558" lon="1.65027">
        <ele>166.60000610352</ele>
        <time>2011-05-22T07:03:35.000Z</time>
      </trkpt>
      <trkpt lat="48.69562" lon="1.65012">
        <ele>167.19999694824</ele>
        <time>2011-05-22T07:03:43.000Z</time>
      </trkpt>
      <trkpt lat="48.69564" lon="1.65003">
        <ele>167.39999389648</ele>
        <time>2011-05-22T07:03:48.000Z</time>
      </trkpt>
      <trkpt lat="48.69569" lon="1.64985">
        <ele>168.19999694824</ele>
        <time>2011-05-22T07:03:57.000Z</time>
      </trkpt>
      <trkpt lat="48.69571" lon="1.64971">
        <ele>168.80000305176</ele>
        <time>2011-05-22T07:04:04.000Z</time>
      </trkpt>
      <trkpt lat="48.69574" lon="1.64959">
        <ele>169.39999389648</ele>
        <time>2011-05-22T07:04:10.000Z</time>
      </trkpt>
      <trkpt lat="48.69576" lon="1.64943">
        <ele>170.39999389648</ele>
        <time>2011-05-22T07:04:18.000Z</time>
      </trkpt>
      <trkpt lat="48.69578" lon="1.64933">
        <ele>171</ele>
        <time>2011-05-22T07:04:23.000Z</time>
      </trkpt>
      <trkpt lat="48.69581" lon="1.64918">
        <ele>171.80000305176</ele>
        <time>2011-05-22T07:04:31.000Z</time>
      </trkpt>
      <trkpt lat="48.69583" lon="1.64908">
        <ele>172.19999694824</ele>
        <time>2011-05-22T07:04:36.000Z</time>
      </trkpt>
      <trkpt lat="48.69587" lon="1.64889">
        <ele>172.60000610352</ele>
        <time>2011-05-22T07:04:45.000Z</time>
      </trkpt>
      <trkpt lat="48.69591" lon="1.64869">
        <ele>173.19999694824</ele>
        <time>2011-05-22T07:04:55.000Z</time>
      </trkpt>
      <trkpt lat="48.69594" lon="1.64856">
        <ele>173.39999389648</ele>
        <time>2011-05-22T07:05:02.000Z</time>
      </trkpt>
      <trkpt lat="48.69595" lon="1.64852">
        <ele>173.60000610352</ele>
        <time>2011-05-22T07:05:05.000Z</time>
      </trkpt>
      <trkpt lat="48.69596" lon="1.64844">
        <ele>173.80000305176</ele>
        <time>2011-05-22T07:05:10.000Z</time>
      </trkpt>
      <trkpt lat="48.69602" lon="1.6483">
        <ele>173.80000305176</ele>
        <time>2011-05-22T07:05:19.000Z</time>
      </trkpt>
      <trkpt lat="48.69606" lon="1.64816">
        <ele>173.80000305176</ele>
        <time>2011-05-22T07:05:25.000Z</time>
      </trkpt>
      <trkpt lat="48.69611" lon="1.64797">
        <ele>173.80000305176</ele>
        <time>2011-05-22T07:05:32.000Z</time>
      </trkpt>
      <trkpt lat="48.6962" lon="1.64774">
        <ele>173.80000305176</ele>
        <time>2011-05-22T07:05:39.000Z</time>
      </trkpt>
      <trkpt lat="48.69628" lon="1.64752">
        <ele>173.80000305176</ele>
        <time>2011-05-22T07:05:45.000Z</time>
      </trkpt>
      <trkpt lat="48.69632" lon="1.64736">
        <ele>173.60000610352</ele>
        <time>2011-05-22T07:05:49.000Z</time>
      </trkpt>
      <trkpt lat="48.69633" lon="1.64733">
        <ele>173.60000610352</ele>
        <time>2011-05-22T07:05:53.000Z</time>
      </trkpt>
      <trkpt lat="48.69633" lon="1.6473">
        <ele>173.60000610352</ele>
        <time>2011-05-22T07:05:58.000Z</time>
      </trkpt>
      <trkpt lat="48.69638" lon="1.6471">
        <ele>173.80000305176</ele>
        <time>2011-05-22T07:06:02.000Z</time>
      </trkpt>
      <trkpt lat="48.69645" lon="1.64688">
        <ele>173.80000305176</ele>
        <time>2011-05-22T07:06:07.000Z</time>
      </trkpt>
      <trkpt lat="48.6965" lon="1.64667">
        <ele>174</ele>
        <time>2011-05-22T07:06:12.000Z</time>
      </trkpt>
      <trkpt lat="48.69655" lon="1.64648">
        <ele>174.19999694824</ele>
        <time>2011-05-22T07:06:17.000Z</time>
      </trkpt>
      <trkpt lat="48.69663" lon="1.64623">
        <ele>174.39999389648</ele>
        <time>2011-05-22T07:06:23.000Z</time>
      </trkpt>
      <trkpt lat="48.69672" lon="1.64598">
        <ele>174.60000610352</ele>
        <time>2011-05-22T07:06:29.000Z</time>
      </trkpt>
      <trkpt lat="48.69677" lon="1.64584">
        <ele>174.39999389648</ele>
        <time>2011-05-22T07:06:33.000Z</time>
      </trkpt>
      <trkpt lat="48.69684" lon="1.64565">
        <ele>173.80000305176</ele>
        <time>2011-05-22T07:06:38.000Z</time>
      </trkpt>
      <trkpt lat="48.69692" lon="1.6454">
        <ele>173.19999694824</ele>
        <time>2011-05-22T07:06:44.000Z</time>
      </trkpt>
      <trkpt lat="48.69707" lon="1.64508">
        <ele>172.39999389648</ele>
        <time>2011-05-22T07:06:52.000Z</time>
      </trkpt>
      <trkpt lat="48.69722" lon="1.64488">
        <ele>172.19999694824</ele>
        <time>2011-05-22T07:07:00.000Z</time>
      </trkpt>
      <trkpt lat="48.69738" lon="1.64468">
        <ele>172.19999694824</ele>
        <time>2011-05-22T07:07:08.000Z</time>
      </trkpt>
      <trkpt lat="48.69747" lon="1.64456">
        <ele>172.39999389648</ele>
        <time>2011-05-22T07:07:13.000Z</time>
      </trkpt>
      <trkpt lat="48.6976" lon="1.64445">
        <ele>172.60000610352</ele>
        <time>2011-05-22T07:07:18.000Z</time>
      </trkpt>
      <trkpt lat="48.69775" lon="1.64434">
        <ele>173</ele>
        <time>2011-05-22T07:07:24.000Z</time>
      </trkpt>
      <trkpt lat="48.69788" lon="1.6443">
        <ele>173.19999694824</ele>
        <time>2011-05-22T07:07:29.000Z</time>
      </trkpt>
      <trkpt lat="48.69809" lon="1.64424">
        <ele>173.39999389648</ele>
        <time>2011-05-22T07:07:36.000Z</time>
      </trkpt>
      <trkpt lat="48.6983" lon="1.64428">
        <ele>173.60000610352</ele>
        <time>2011-05-22T07:07:43.000Z</time>
      </trkpt>
      <trkpt lat="48.69836" lon="1.64429">
        <ele>173.60000610352</ele>
        <time>2011-05-22T07:07:45.000Z</time>
      </trkpt>
      <trkpt lat="48.69844" lon="1.64435">
        <ele>173.60000610352</ele>
        <time>2011-05-22T07:07:50.000Z</time>
      </trkpt>
      <trkpt lat="48.69845" lon="1.64435">
        <ele>173.60000610352</ele>
        <time>2011-05-22T07:07:51.000Z</time>
      </trkpt>
      <trkpt lat="48.69847" lon="1.64434">
        <ele>173.60000610352</ele>
        <time>2011-05-22T07:07:53.000Z</time>
      </trkpt>
      <trkpt lat="48.6985" lon="1.64426">
        <ele>173.80000305176</ele>
        <time>2011-05-22T07:07:59.000Z</time>
      </trkpt>
      <trkpt lat="48.69842" lon="1.64414">
        <ele>173.80000305176</ele>
        <time>2011-05-22T07:08:08.000Z</time>
      </trkpt>
      <trkpt lat="48.69832" lon="1.64407">
        <ele>173.80000305176</ele>
        <time>2011-05-22T07:08:16.000Z</time>
      </trkpt>
      <trkpt lat="48.69823" lon="1.64401">
        <ele>173.80000305176</ele>
        <time>2011-05-22T07:08:23.000Z</time>
      </trkpt>
      <trkpt lat="48.69815" lon="1.64395">
        <ele>173.80000305176</ele>
        <time>2011-05-22T07:08:30.000Z</time>
      </trkpt>
      <trkpt lat="48.69809" lon="1.64392">
        <ele>173.60000610352</ele>
        <time>2011-05-22T07:08:34.000Z</time>
      </trkpt>
      <trkpt lat="48.69799" lon="1.64381">
        <ele>173.60000610352</ele>
        <time>2011-05-22T07:08:44.000Z</time>
      </trkpt>
      <trkpt lat="48.69792" lon="1.64372">
        <ele>173.60000610352</ele>
        <time>2011-05-22T07:08:51.000Z</time>
      </trkpt>
      <trkpt lat="48.69788" lon="1.64367">
        <ele>173.60000610352</ele>
        <time>2011-05-22T07:08:54.000Z</time>
      </trkpt>
      <trkpt lat="48.69782" lon="1.64355">
        <ele>173.80000305176</ele>
        <time>2011-05-22T07:09:01.000Z</time>
      </trkpt>
      <trkpt lat="48.69777" lon="1.64347">
        <ele>173.80000305176</ele>
        <time>2011-05-22T07:09:06.000Z</time>
      </trkpt>
      <trkpt lat="48.69768" lon="1.64336">
        <ele>173.80000305176</ele>
        <time>2011-05-22T07:09:13.000Z</time>
      </trkpt>
      <trkpt lat="48.69762" lon="1.64327">
        <ele>173.60000610352</ele>
        <time>2011-05-22T07:09:19.000Z</time>
      </trkpt>
      <trkpt lat="48.69756" lon="1.64319">
        <ele>173</ele>
        <time>2011-05-22T07:09:25.000Z</time>
      </trkpt>
      <trkpt lat="48.6975" lon="1.6431">
        <ele>172.39999389648</ele>
        <time>2011-05-22T07:09:31.000Z</time>
      </trkpt>
      <trkpt lat="48.69738" lon="1.64297">
        <ele>170.80000305176</ele>
        <time>2011-05-22T07:09:40.000Z</time>
      </trkpt>
      <trkpt lat="48.69731" lon="1.64289">
        <ele>169.80000305176</ele>
        <time>2011-05-22T07:09:46.000Z</time>
      </trkpt>
      <trkpt lat="48.69723" lon="1.64281">
        <ele>168.80000305176</ele>
        <time>2011-05-22T07:09:52.000Z</time>
      </trkpt>
      <trkpt lat="48.69716" lon="1.64272">
        <ele>167.60000610352</ele>
        <time>2011-05-22T07:09:58.000Z</time>
      </trkpt>
      <trkpt lat="48.6971" lon="1.64261">
        <ele>166.60000610352</ele>
        <time>2011-05-22T07:10:05.000Z</time>
      </trkpt>
      <trkpt lat="48.69703" lon="1.64248">
        <ele>165.39999389648</ele>
        <time>2011-05-22T07:10:13.000Z</time>
      </trkpt>
      <trkpt lat="48.69696" lon="1.64237">
        <ele>164.39999389648</ele>
        <time>2011-05-22T07:10:20.000Z</time>
      </trkpt>
      <trkpt lat="48.69691" lon="1.64229">
        <ele>163.60000610352</ele>
        <time>2011-05-22T07:10:26.000Z</time>
      </trkpt>
      <trkpt lat="48.69681" lon="1.64227">
        <ele>163</ele>
        <time>2011-05-22T07:10:34.000Z</time>
      </trkpt>
      <trkpt lat="48.69678" lon="1.64228">
        <ele>162.80000305176</ele>
        <time>2011-05-22T07:10:36.000Z</time>
      </trkpt>
      <trkpt lat="48.69674" lon="1.64224">
        <ele>162.39999389648</ele>
        <time>2011-05-22T07:10:40.000Z</time>
      </trkpt>
      <trkpt lat="48.69669" lon="1.64218">
        <ele>162</ele>
        <time>2011-05-22T07:10:47.000Z</time>
      </trkpt>
      <trkpt lat="48.69666" lon="1.64208">
        <ele>161.39999389648</ele>
        <time>2011-05-22T07:11:07.000Z</time>
      </trkpt>
      <trkpt lat="48.69663" lon="1.64202">
        <ele>161</ele>
        <time>2011-05-22T07:11:09.000Z</time>
      </trkpt>
      <trkpt lat="48.69659" lon="1.64182">
        <ele>160</ele>
        <time>2011-05-22T07:11:19.000Z</time>
      </trkpt>
      <trkpt lat="48.69656" lon="1.6417">
        <ele>159.39999389648</ele>
        <time>2011-05-22T07:11:26.000Z</time>
      </trkpt>
      <trkpt lat="48.69657" lon="1.64155">
        <ele>159</ele>
        <time>2011-05-22T07:11:34.000Z</time>
      </trkpt>
      <trkpt lat="48.69656" lon="1.6415">
        <ele>158.80000305176</ele>
        <time>2011-05-22T07:11:39.000Z</time>
      </trkpt>
      <trkpt lat="48.69652" lon="1.64143">
        <ele>158.39999389648</ele>
        <time>2011-05-22T07:11:53.000Z</time>
      </trkpt>
      <trkpt lat="48.69647" lon="1.64126">
        <ele>157.60000610352</ele>
        <time>2011-05-22T07:12:02.000Z</time>
      </trkpt>
      <trkpt lat="48.69643" lon="1.64118">
        <ele>157.19999694824</ele>
        <time>2011-05-22T07:12:09.000Z</time>
      </trkpt>
      <trkpt lat="48.69635" lon="1.64104">
        <ele>156.60000610352</ele>
        <time>2011-05-22T07:12:24.000Z</time>
      </trkpt>
      <trkpt lat="48.69632" lon="1.641">
        <ele>156.39999389648</ele>
        <time>2011-05-22T07:12:27.000Z</time>
      </trkpt>
      <trkpt lat="48.69625" lon="1.64087">
        <ele>156</ele>
        <time>2011-05-22T07:12:33.000Z</time>
      </trkpt>
      <trkpt lat="48.69624" lon="1.64083">
        <ele>155.80000305176</ele>
        <time>2011-05-22T07:12:34.000Z</time>
      </trkpt>
      <trkpt lat="48.69605" lon="1.64046">
        <ele>154.39999389648</ele>
        <time>2011-05-22T07:12:45.000Z</time>
      </trkpt>
      <trkpt lat="48.69588" lon="1.64014">
        <ele>153.19999694824</ele>
        <time>2011-05-22T07:12:54.000Z</time>
      </trkpt>
      <trkpt lat="48.6957" lon="1.63977">
        <ele>152.80000305176</ele>
        <time>2011-05-22T07:13:04.000Z</time>
      </trkpt>
      <trkpt lat="48.69556" lon="1.63946">
        <ele>152.60000610352</ele>
        <time>2011-05-22T07:13:12.000Z</time>
      </trkpt>
      <trkpt lat="48.69548" lon="1.63921">
        <ele>152.39999389648</ele>
        <time>2011-05-22T07:13:18.000Z</time>
      </trkpt>
      <trkpt lat="48.69548" lon="1.63917">
        <ele>152.39999389648</ele>
        <time>2011-05-22T07:13:19.000Z</time>
      </trkpt>
      <trkpt lat="48.6954" lon="1.639">
        <ele>152.39999389648</ele>
        <time>2011-05-22T07:13:24.000Z</time>
      </trkpt>
      <trkpt lat="48.69525" lon="1.63861">
        <ele>152.80000305176</ele>
        <time>2011-05-22T07:13:34.000Z</time>
      </trkpt>
      <trkpt lat="48.69516" lon="1.63841">
        <ele>153.19999694824</ele>
        <time>2011-05-22T07:13:40.000Z</time>
      </trkpt>
      <trkpt lat="48.69506" lon="1.63821">
        <ele>153.39999389648</ele>
        <time>2011-05-22T07:13:46.000Z</time>
      </trkpt>
      <trkpt lat="48.6949" lon="1.63786">
        <ele>152.80000305176</ele>
        <time>2011-05-22T07:13:55.000Z</time>
      </trkpt>
      <trkpt lat="48.6948" lon="1.63761">
        <ele>152.60000610352</ele>
        <time>2011-05-22T07:14:01.000Z</time>
      </trkpt>
      <trkpt lat="48.69469" lon="1.63739">
        <ele>152.60000610352</ele>
        <time>2011-05-22T07:14:07.000Z</time>
      </trkpt>
      <trkpt lat="48.69461" lon="1.63728">
        <ele>152.60000610352</ele>
        <time>2011-05-22T07:14:12.000Z</time>
      </trkpt>
      <trkpt lat="48.6946" lon="1.63727">
        <ele>152.60000610352</ele>
        <time>2011-05-22T07:14:15.000Z</time>
      </trkpt>
      <trkpt lat="48.69453" lon="1.63734">
        <ele>152.80000305176</ele>
        <time>2011-05-22T07:14:25.000Z</time>
      </trkpt>
      <trkpt lat="48.69445" lon="1.63732">
        <ele>153</ele>
        <time>2011-05-22T07:14:30.000Z</time>
      </trkpt>
      <trkpt lat="48.69443" lon="1.63733">
        <ele>153</ele>
        <time>2011-05-22T07:14:34.000Z</time>
      </trkpt>
      <trkpt lat="48.69449" lon="1.63731">
        <ele>153</ele>
        <time>2011-05-22T07:14:40.000Z</time>
      </trkpt>
      <trkpt lat="48.69454" lon="1.6373">
        <ele>152.80000305176</ele>
        <time>2011-05-22T07:14:43.000Z</time>
      </trkpt>
      <trkpt lat="48.69458" lon="1.63728">
        <ele>152.60000610352</ele>
        <time>2011-05-22T07:14:48.000Z</time>
      </trkpt>
      <trkpt lat="48.69456" lon="1.63718">
        <ele>152.60000610352</ele>
        <time>2011-05-22T07:15:05.000Z</time>
      </trkpt>
      <trkpt lat="48.6945" lon="1.63706">
        <ele>152.60000610352</ele>
        <time>2011-05-22T07:15:11.000Z</time>
      </trkpt>
      <trkpt lat="48.69444" lon="1.63696">
        <ele>152.60000610352</ele>
        <time>2011-05-22T07:15:18.000Z</time>
      </trkpt>
      <trkpt lat="48.69437" lon="1.63685">
        <ele>152.60000610352</ele>
        <time>2011-05-22T07:15:25.000Z</time>
      </trkpt>
      <trkpt lat="48.69428" lon="1.63675">
        <ele>152.80000305176</ele>
        <time>2011-05-22T07:15:33.000Z</time>
      </trkpt>
      <trkpt lat="48.69422" lon="1.63665">
        <ele>152.80000305176</ele>
        <time>2011-05-22T07:15:40.000Z</time>
      </trkpt>
      <trkpt lat="48.69422" lon="1.63665">
        <ele>152.80000305176</ele>
        <time>2011-05-22T07:15:41.000Z</time>
      </trkpt>
      <trkpt lat="48.69422" lon="1.63663">
        <ele>152.60000610352</ele>
        <time>2011-05-22T07:15:45.000Z</time>
      </trkpt>
      <trkpt lat="48.69419" lon="1.63649">
        <ele>152.19999694824</ele>
        <time>2011-05-22T07:15:48.000Z</time>
      </trkpt>
      <trkpt lat="48.69407" lon="1.63614">
        <ele>151</ele>
        <time>2011-05-22T07:15:56.000Z</time>
      </trkpt>
      <trkpt lat="48.69403" lon="1.63595">
        <ele>150.39999389648</ele>
        <time>2011-05-22T07:16:01.000Z</time>
      </trkpt>
      <trkpt lat="48.69403" lon="1.63594">
        <ele>150.39999389648</ele>
        <time>2011-05-22T07:16:04.000Z</time>
      </trkpt>
      <trkpt lat="48.69402" lon="1.63591">
        <ele>150.19999694824</ele>
        <time>2011-05-22T07:16:09.000Z</time>
      </trkpt>
      <trkpt lat="48.69395" lon="1.63574">
        <ele>149.39999389648</ele>
        <time>2011-05-22T07:16:12.000Z</time>
      </trkpt>
      <trkpt lat="48.69381" lon="1.63552">
        <ele>148.60000610352</ele>
        <time>2011-05-22T07:16:18.000Z</time>
      </trkpt>
      <trkpt lat="48.69358" lon="1.63528">
        <ele>148.19999694824</ele>
        <time>2011-05-22T07:16:26.000Z</time>
      </trkpt>
      <trkpt lat="48.69337" lon="1.6351">
        <ele>148</ele>
        <time>2011-05-22T07:16:33.000Z</time>
      </trkpt>
      <trkpt lat="48.69315" lon="1.6349">
        <ele>147.80000305176</ele>
        <time>2011-05-22T07:16:40.000Z</time>
      </trkpt>
      <trkpt lat="48.69296" lon="1.63472">
        <ele>147.60000610352</ele>
        <time>2011-05-22T07:16:45.000Z</time>
      </trkpt>
      <trkpt lat="48.69283" lon="1.63454">
        <ele>147.60000610352</ele>
        <time>2011-05-22T07:16:49.000Z</time>
      </trkpt>
      <trkpt lat="48.69258" lon="1.63417">
        <ele>147.60000610352</ele>
        <time>2011-05-22T07:16:56.000Z</time>
      </trkpt>
      <trkpt lat="48.69247" lon="1.63396">
        <ele>148.19999694824</ele>
        <time>2011-05-22T07:16:59.000Z</time>
      </trkpt>
      <trkpt lat="48.69211" lon="1.63342">
        <ele>150.19999694824</ele>
        <time>2011-05-22T07:17:07.000Z</time>
      </trkpt>
      <trkpt lat="48.69178" lon="1.63305">
        <ele>151.80000305176</ele>
        <time>2011-05-22T07:17:14.000Z</time>
      </trkpt>
      <trkpt lat="48.69144" lon="1.63271">
        <ele>154</ele>
        <time>2011-05-22T07:17:22.000Z</time>
      </trkpt>
      <trkpt lat="48.69127" lon="1.63255">
        <ele>155.19999694824</ele>
        <time>2011-05-22T07:17:28.000Z</time>
      </trkpt>
      <trkpt lat="48.69114" lon="1.63238">
        <ele>156.19999694824</ele>
        <time>2011-05-22T07:17:34.000Z</time>
      </trkpt>
      <trkpt lat="48.69102" lon="1.63227">
        <ele>157.19999694824</ele>
        <time>2011-05-22T07:17:39.000Z</time>
      </trkpt>
      <trkpt lat="48.69098" lon="1.63218">
        <ele>157.60000610352</ele>
        <time>2011-05-22T07:17:43.000Z</time>
      </trkpt>
      <trkpt lat="48.69083" lon="1.63207">
        <ele>159</ele>
        <time>2011-05-22T07:17:49.000Z</time>
      </trkpt>
      <trkpt lat="48.69069" lon="1.6319">
        <ele>160.19999694824</ele>
        <time>2011-05-22T07:17:55.000Z</time>
      </trkpt>
      <trkpt lat="48.69056" lon="1.63161">
        <ele>161.19999694824</ele>
        <time>2011-05-22T07:18:03.000Z</time>
      </trkpt>
      <trkpt lat="48.69049" lon="1.63148">
        <ele>161.80000305176</ele>
        <time>2011-05-22T07:18:08.000Z</time>
      </trkpt>
      <trkpt lat="48.69047" lon="1.6314">
        <ele>162</ele>
        <time>2011-05-22T07:18:12.000Z</time>
      </trkpt>
      <trkpt lat="48.69043" lon="1.6313">
        <ele>162.19999694824</ele>
        <time>2011-05-22T07:18:18.000Z</time>
      </trkpt>
      <trkpt lat="48.69039" lon="1.63121">
        <ele>162.60000610352</ele>
        <time>2011-05-22T07:18:23.000Z</time>
      </trkpt>
      <trkpt lat="48.69032" lon="1.63103">
        <ele>163.19999694824</ele>
        <time>2011-05-22T07:18:34.000Z</time>
      </trkpt>
      <trkpt lat="48.69023" lon="1.63081">
        <ele>164.19999694824</ele>
        <time>2011-05-22T07:18:48.000Z</time>
      </trkpt>
      <trkpt lat="48.69016" lon="1.63064">
        <ele>165.19999694824</ele>
        <time>2011-05-22T07:18:59.000Z</time>
      </trkpt>
      <trkpt lat="48.69009" lon="1.63051">
        <ele>166</ele>
        <time>2011-05-22T07:19:08.000Z</time>
      </trkpt>
      <trkpt lat="48.69001" lon="1.63035">
        <ele>167</ele>
        <time>2011-05-22T07:19:19.000Z</time>
      </trkpt>
      <trkpt lat="48.68993" lon="1.63022">
        <ele>167.60000610352</ele>
        <time>2011-05-22T07:19:28.000Z</time>
      </trkpt>
      <trkpt lat="48.68985" lon="1.63011">
        <ele>168</ele>
        <time>2011-05-22T07:19:36.000Z</time>
      </trkpt>
      <trkpt lat="48.68977" lon="1.62999">
        <ele>168.39999389648</ele>
        <time>2011-05-22T07:19:45.000Z</time>
      </trkpt>
      <trkpt lat="48.68969" lon="1.62988">
        <ele>169</ele>
        <time>2011-05-22T07:19:55.000Z</time>
      </trkpt>
      <trkpt lat="48.68959" lon="1.62976">
        <ele>169.60000610352</ele>
        <time>2011-05-22T07:20:05.000Z</time>
      </trkpt>
      <trkpt lat="48.68957" lon="1.62971">
        <ele>169.80000305176</ele>
        <time>2011-05-22T07:20:08.000Z</time>
      </trkpt>
      <trkpt lat="48.68963" lon="1.62965">
        <ele>169.80000305176</ele>
        <time>2011-05-22T07:20:14.000Z</time>
      </trkpt>
      <trkpt lat="48.68964" lon="1.62965">
        <ele>169.80000305176</ele>
        <time>2011-05-22T07:20:15.000Z</time>
      </trkpt>
      <trkpt lat="48.68976" lon="1.62963">
        <ele>169.39999389648</ele>
        <time>2011-05-22T07:20:24.000Z</time>
      </trkpt>
      <trkpt lat="48.68985" lon="1.62963">
        <ele>169.19999694824</ele>
        <time>2011-05-22T07:20:30.000Z</time>
      </trkpt>
      <trkpt lat="48.68993" lon="1.62964">
        <ele>169</ele>
        <time>2011-05-22T07:20:36.000Z</time>
      </trkpt>
      <trkpt lat="48.69005" lon="1.62965">
        <ele>168.19999694824</ele>
        <time>2011-05-22T07:20:43.000Z</time>
      </trkpt>
      <trkpt lat="48.69017" lon="1.62964">
        <ele>167.19999694824</ele>
        <time>2011-05-22T07:20:50.000Z</time>
      </trkpt>
      <trkpt lat="48.69032" lon="1.62964">
        <ele>165.80000305176</ele>
        <time>2011-05-22T07:20:59.000Z</time>
      </trkpt>
      <trkpt lat="48.69043" lon="1.62964">
        <ele>164.60000610352</ele>
        <time>2011-05-22T07:21:06.000Z</time>
      </trkpt>
      <trkpt lat="48.69059" lon="1.62962">
        <ele>163.19999694824</ele>
        <time>2011-05-22T07:21:15.000Z</time>
      </trkpt>
      <trkpt lat="48.69071" lon="1.62959">
        <ele>162.19999694824</ele>
        <time>2011-05-22T07:21:22.000Z</time>
      </trkpt>
      <trkpt lat="48.69085" lon="1.62951">
        <ele>161</ele>
        <time>2011-05-22T07:21:31.000Z</time>
      </trkpt>
      <trkpt lat="48.6909" lon="1.62948">
        <ele>161</ele>
        <time>2011-05-22T07:21:36.000Z</time>
      </trkpt>
      <trkpt lat="48.6909" lon="1.62948">
        <ele>161</ele>
        <time>2011-05-22T07:21:37.000Z</time>
      </trkpt>
      <trkpt lat="48.69089" lon="1.6294">
        <ele>161.19999694824</ele>
        <time>2011-05-22T07:21:43.000Z</time>
      </trkpt>
      <trkpt lat="48.69089" lon="1.62922">
        <ele>161.60000610352</ele>
        <time>2011-05-22T07:21:50.000Z</time>
      </trkpt>
      <trkpt lat="48.69085" lon="1.62907">
        <ele>161.19999694824</ele>
        <time>2011-05-22T07:21:58.000Z</time>
      </trkpt>
      <trkpt lat="48.69084" lon="1.62892">
        <ele>160</ele>
        <time>2011-05-22T07:22:05.000Z</time>
      </trkpt>
      <trkpt lat="48.69084" lon="1.62888">
        <ele>159.80000305176</ele>
        <time>2011-05-22T07:22:07.000Z</time>
      </trkpt>
      <trkpt lat="48.69084" lon="1.62865">
        <ele>158.19999694824</ele>
        <time>2011-05-22T07:22:16.000Z</time>
      </trkpt>
      <trkpt lat="48.69084" lon="1.62863">
        <ele>158</ele>
        <time>2011-05-22T07:22:17.000Z</time>
      </trkpt>
      <trkpt lat="48.69083" lon="1.62851">
        <ele>157.19999694824</ele>
        <time>2011-05-22T07:22:22.000Z</time>
      </trkpt>
      <trkpt lat="48.69084" lon="1.62844">
        <ele>156.60000610352</ele>
        <time>2011-05-22T07:22:25.000Z</time>
      </trkpt>
      <trkpt lat="48.69084" lon="1.62844">
        <ele>156.60000610352</ele>
        <time>2011-05-22T07:22:28.000Z</time>
      </trkpt>
      <trkpt lat="48.69085" lon="1.62835">
        <ele>156</ele>
        <time>2011-05-22T07:22:37.000Z</time>
      </trkpt>
      <trkpt lat="48.69092" lon="1.62824">
        <ele>155.39999389648</ele>
        <time>2011-05-22T07:22:43.000Z</time>
      </trkpt>
      <trkpt lat="48.69097" lon="1.62814">
        <ele>155</ele>
        <time>2011-05-22T07:22:48.000Z</time>
      </trkpt>
      <trkpt lat="48.69106" lon="1.62806">
        <ele>154.60000610352</ele>
        <time>2011-05-22T07:22:54.000Z</time>
      </trkpt>
      <trkpt lat="48.69116" lon="1.62799">
        <ele>154.19999694824</ele>
        <time>2011-05-22T07:23:01.000Z</time>
      </trkpt>
      <trkpt lat="48.69126" lon="1.62796">
        <ele>154.19999694824</ele>
        <time>2011-05-22T07:23:07.000Z</time>
      </trkpt>
      <trkpt lat="48.69131" lon="1.62795">
        <ele>154</ele>
        <time>2011-05-22T07:23:10.000Z</time>
      </trkpt>
      <trkpt lat="48.6914" lon="1.62787">
        <ele>153.60000610352</ele>
        <time>2011-05-22T07:23:17.000Z</time>
      </trkpt>
      <trkpt lat="48.69144" lon="1.62784">
        <ele>153.60000610352</ele>
        <time>2011-05-22T07:23:20.000Z</time>
      </trkpt>
      <trkpt lat="48.69157" lon="1.62775">
        <ele>153.19999694824</ele>
        <time>2011-05-22T07:23:29.000Z</time>
      </trkpt>
      <trkpt lat="48.69167" lon="1.6277">
        <ele>152.80000305176</ele>
        <time>2011-05-22T07:23:36.000Z</time>
      </trkpt>
      <trkpt lat="48.69176" lon="1.62765">
        <ele>152.39999389648</ele>
        <time>2011-05-22T07:23:42.000Z</time>
      </trkpt>
      <trkpt lat="48.69186" lon="1.6276">
        <ele>152.19999694824</ele>
        <time>2011-05-22T07:23:49.000Z</time>
      </trkpt>
      <trkpt lat="48.69194" lon="1.62758">
        <ele>152</ele>
        <time>2011-05-22T07:23:55.000Z</time>
      </trkpt>
      <trkpt lat="48.69202" lon="1.62755">
        <ele>151.80000305176</ele>
        <time>2011-05-22T07:24:00.000Z</time>
      </trkpt>
      <trkpt lat="48.69211" lon="1.62745">
        <ele>151.19999694824</ele>
        <time>2011-05-22T07:24:06.000Z</time>
      </trkpt>
      <trkpt lat="48.69218" lon="1.62734">
        <ele>150.39999389648</ele>
        <time>2011-05-22T07:24:13.000Z</time>
      </trkpt>
      <trkpt lat="48.69218" lon="1.62734">
        <ele>150.39999389648</ele>
        <time>2011-05-22T07:24:15.000Z</time>
      </trkpt>
      <trkpt lat="48.69223" lon="1.62733">
        <ele>150.39999389648</ele>
        <time>2011-05-22T07:24:36.000Z</time>
      </trkpt>
      <trkpt lat="48.69227" lon="1.62722">
        <ele>149.60000610352</ele>
        <time>2011-05-22T07:24:40.000Z</time>
      </trkpt>
      <trkpt lat="48.69227" lon="1.62707">
        <ele>148.80000305176</ele>
        <time>2011-05-22T07:24:46.000Z</time>
      </trkpt>
      <trkpt lat="48.69226" lon="1.62704">
        <ele>148.80000305176</ele>
        <time>2011-05-22T07:24:47.000Z</time>
      </trkpt>
      <trkpt lat="48.69219" lon="1.62691">
        <ele>148.19999694824</ele>
        <time>2011-05-22T07:24:54.000Z</time>
      </trkpt>
      <trkpt lat="48.69213" lon="1.6268">
        <ele>147.80000305176</ele>
        <time>2011-05-22T07:25:00.000Z</time>
      </trkpt>
      <trkpt lat="48.69209" lon="1.62667">
        <ele>147.39999389648</ele>
        <time>2011-05-22T07:25:06.000Z</time>
      </trkpt>
      <trkpt lat="48.69205" lon="1.62651">
        <ele>147</ele>
        <time>2011-05-22T07:25:13.000Z</time>
      </trkpt>
      <trkpt lat="48.69206" lon="1.62646">
        <ele>146.80000305176</ele>
        <time>2011-05-22T07:25:15.000Z</time>
      </trkpt>
      <trkpt lat="48.69211" lon="1.62641">
        <ele>146.60000610352</ele>
        <time>2011-05-22T07:25:19.000Z</time>
      </trkpt>
      <trkpt lat="48.69218" lon="1.62632">
        <ele>146.19999694824</ele>
        <time>2011-05-22T07:25:26.000Z</time>
      </trkpt>
      <trkpt lat="48.69217" lon="1.62615">
        <ele>145.80000305176</ele>
        <time>2011-05-22T07:25:33.000Z</time>
      </trkpt>
      <trkpt lat="48.69215" lon="1.626">
        <ele>145.39999389648</ele>
        <time>2011-05-22T07:25:39.000Z</time>
      </trkpt>
      <trkpt lat="48.69215" lon="1.62596">
        <ele>145.39999389648</ele>
        <time>2011-05-22T07:25:44.000Z</time>
      </trkpt>
      <trkpt lat="48.69212" lon="1.62575">
        <ele>145</ele>
        <time>2011-05-22T07:26:45.000Z</time>
      </trkpt>
      <trkpt lat="48.6921" lon="1.62565">
        <ele>145</ele>
        <time>2011-05-22T07:26:48.000Z</time>
      </trkpt>
      <trkpt lat="48.6921" lon="1.62557">
        <ele>145</ele>
        <time>2011-05-22T07:26:53.000Z</time>
      </trkpt>
      <trkpt lat="48.69208" lon="1.62549">
        <ele>145.19999694824</ele>
        <time>2011-05-22T07:27:00.000Z</time>
      </trkpt>
      <trkpt lat="48.69208" lon="1.62549">
        <ele>145.19999694824</ele>
        <time>2011-05-22T07:27:01.000Z</time>
      </trkpt>
      <trkpt lat="48.69197" lon="1.62535">
        <ele>145</ele>
        <time>2011-05-22T07:33:06.000Z</time>
      </trkpt>
      <trkpt lat="48.69201" lon="1.62536">
        <ele>145</ele>
        <time>2011-05-22T07:33:10.000Z</time>
      </trkpt>
      <trkpt lat="48.68838" lon="1.61741">
        <ele>167</ele>
        <time>2011-05-22T08:27:11.000Z</time>
      </trkpt>
      <trkpt lat="48.68839" lon="1.61729">
        <ele>167</ele>
        <time>2011-05-22T08:27:15.000Z</time>
      </trkpt>
      <trkpt lat="48.6884" lon="1.61715">
        <ele>167</ele>
        <time>2011-05-22T08:27:21.000Z</time>
      </trkpt>
      <trkpt lat="48.68841" lon="1.61706">
        <ele>167</ele>
        <time>2011-05-22T08:27:24.000Z</time>
      </trkpt>
      <trkpt lat="48.68842" lon="1.61693">
        <ele>167</ele>
        <time>2011-05-22T08:27:30.000Z</time>
      </trkpt>
      <trkpt lat="48.68845" lon="1.61671">
        <ele>167</ele>
        <time>2011-05-22T08:27:39.000Z</time>
      </trkpt>
      <trkpt lat="48.68847" lon="1.61652">
        <ele>166.80000305176</ele>
        <time>2011-05-22T08:27:47.000Z</time>
      </trkpt>
      <trkpt lat="48.68849" lon="1.61636">
        <ele>166.80000305176</ele>
        <time>2011-05-22T08:27:54.000Z</time>
      </trkpt>
      <trkpt lat="48.68851" lon="1.61618">
        <ele>166.80000305176</ele>
        <time>2011-05-22T08:28:02.000Z</time>
      </trkpt>
      <trkpt lat="48.68853" lon="1.61602">
        <ele>166.80000305176</ele>
        <time>2011-05-22T08:28:08.000Z</time>
      </trkpt>
      <trkpt lat="48.68856" lon="1.61588">
        <ele>166.60000610352</ele>
        <time>2011-05-22T08:28:14.000Z</time>
      </trkpt>
      <trkpt lat="48.68857" lon="1.61575">
        <ele>166.80000305176</ele>
        <time>2011-05-22T08:28:19.000Z</time>
      </trkpt>
      <trkpt lat="48.68858" lon="1.61562">
        <ele>166.80000305176</ele>
        <time>2011-05-22T08:28:25.000Z</time>
      </trkpt>
      <trkpt lat="48.68859" lon="1.61557">
        <ele>167</ele>
        <time>2011-05-22T08:28:27.000Z</time>
      </trkpt>
      <trkpt lat="48.68862" lon="1.6154">
        <ele>167</ele>
        <time>2011-05-22T08:28:34.000Z</time>
      </trkpt>
      <trkpt lat="48.68864" lon="1.61521">
        <ele>167.19999694824</ele>
        <time>2011-05-22T08:28:42.000Z</time>
      </trkpt>
      <trkpt lat="48.68866" lon="1.61499">
        <ele>167.39999389648</ele>
        <time>2011-05-22T08:28:51.000Z</time>
      </trkpt>
      <trkpt lat="48.68867" lon="1.61482">
        <ele>167</ele>
        <time>2011-05-22T08:28:58.000Z</time>
      </trkpt>
      <trkpt lat="48.68867" lon="1.61469">
        <ele>166.80000305176</ele>
        <time>2011-05-22T08:29:04.000Z</time>
      </trkpt>
      <trkpt lat="48.68869" lon="1.61449">
        <ele>166.39999389648</ele>
        <time>2011-05-22T08:29:12.000Z</time>
      </trkpt>
      <trkpt lat="48.6887" lon="1.61438">
        <ele>166.19999694824</ele>
        <time>2011-05-22T08:29:16.000Z</time>
      </trkpt>
      <trkpt lat="48.6887" lon="1.6142">
        <ele>166</ele>
        <time>2011-05-22T08:29:23.000Z</time>
      </trkpt>
      <trkpt lat="48.68872" lon="1.61401">
        <ele>165.60000610352</ele>
        <time>2011-05-22T08:29:30.000Z</time>
      </trkpt>
      <trkpt lat="48.68874" lon="1.61382">
        <ele>165.39999389648</ele>
        <time>2011-05-22T08:29:38.000Z</time>
      </trkpt>
      <trkpt lat="48.68876" lon="1.61363">
        <ele>165</ele>
        <time>2011-05-22T08:29:46.000Z</time>
      </trkpt>
      <trkpt lat="48.6888" lon="1.61345">
        <ele>164.60000610352</ele>
        <time>2011-05-22T08:29:54.000Z</time>
      </trkpt>
      <trkpt lat="48.68884" lon="1.61328">
        <ele>164.39999389648</ele>
        <time>2011-05-22T08:30:01.000Z</time>
      </trkpt>
      <trkpt lat="48.68889" lon="1.61314">
        <ele>164.60000610352</ele>
        <time>2011-05-22T08:30:08.000Z</time>
      </trkpt>
      <trkpt lat="48.6889" lon="1.6131">
        <ele>164.60000610352</ele>
        <time>2011-05-22T08:30:10.000Z</time>
      </trkpt>
      <trkpt lat="48.68892" lon="1.61298">
        <ele>164.80000305176</ele>
        <time>2011-05-22T08:30:16.000Z</time>
      </trkpt>
      <trkpt lat="48.68895" lon="1.6129">
        <ele>165</ele>
        <time>2011-05-22T08:30:20.000Z</time>
      </trkpt>
      <trkpt lat="48.689" lon="1.61278">
        <ele>165.19999694824</ele>
        <time>2011-05-22T08:30:27.000Z</time>
      </trkpt>
      <trkpt lat="48.68905" lon="1.61262">
        <ele>165.60000610352</ele>
        <time>2011-05-22T08:30:35.000Z</time>
      </trkpt>
      <trkpt lat="48.68909" lon="1.61251">
        <ele>165.80000305176</ele>
        <time>2011-05-22T08:30:41.000Z</time>
      </trkpt>
      <trkpt lat="48.68911" lon="1.61238">
        <ele>166</ele>
        <time>2011-05-22T08:30:47.000Z</time>
      </trkpt>
      <trkpt lat="48.68918" lon="1.61224">
        <ele>166.19999694824</ele>
        <time>2011-05-22T08:30:55.000Z</time>
      </trkpt>
      <trkpt lat="48.68923" lon="1.61211">
        <ele>166.60000610352</ele>
        <time>2011-05-22T08:31:01.000Z</time>
      </trkpt>
      <trkpt lat="48.68927" lon="1.61198">
        <ele>166.80000305176</ele>
        <time>2011-05-22T08:31:07.000Z</time>
      </trkpt>
      <trkpt lat="48.68928" lon="1.61193">
        <ele>166.80000305176</ele>
        <time>2011-05-22T08:31:10.000Z</time>
      </trkpt>
      <trkpt lat="48.68929" lon="1.61179">
        <ele>167.19999694824</ele>
        <time>2011-05-22T08:31:15.000Z</time>
      </trkpt>
      <trkpt lat="48.68931" lon="1.61162">
        <ele>167.39999389648</ele>
        <time>2011-05-22T08:31:21.000Z</time>
      </trkpt>
      <trkpt lat="48.68933" lon="1.61151">
        <ele>167.19999694824</ele>
        <time>2011-05-22T08:31:27.000Z</time>
      </trkpt>
      <trkpt lat="48.68933" lon="1.61142">
        <ele>167</ele>
        <time>2011-05-22T08:31:31.000Z</time>
      </trkpt>
      <trkpt lat="48.68934" lon="1.6114">
        <ele>167</ele>
        <time>2011-05-22T08:31:32.000Z</time>
      </trkpt>
      <trkpt lat="48.68936" lon="1.61115">
        <ele>166.60000610352</ele>
        <time>2011-05-22T08:31:41.000Z</time>
      </trkpt>
      <trkpt lat="48.68937" lon="1.61098">
        <ele>166.39999389648</ele>
        <time>2011-05-22T08:31:47.000Z</time>
      </trkpt>
      <trkpt lat="48.68938" lon="1.61081">
        <ele>166.19999694824</ele>
        <time>2011-05-22T08:31:54.000Z</time>
      </trkpt>
      <trkpt lat="48.68938" lon="1.61064">
        <ele>165.80000305176</ele>
        <time>2011-05-22T08:32:01.000Z</time>
      </trkpt>
      <trkpt lat="48.68938" lon="1.61047">
        <ele>165.39999389648</ele>
        <time>2011-05-22T08:32:08.000Z</time>
      </trkpt>
      <trkpt lat="48.68937" lon="1.61033">
        <ele>165</ele>
        <time>2011-05-22T08:32:13.000Z</time>
      </trkpt>
      <trkpt lat="48.68937" lon="1.61021">
        <ele>164.80000305176</ele>
        <time>2011-05-22T08:32:18.000Z</time>
      </trkpt>
      <trkpt lat="48.68937" lon="1.61">
        <ele>164.39999389648</ele>
        <time>2011-05-22T08:32:26.000Z</time>
      </trkpt>
      <trkpt lat="48.68936" lon="1.60987">
        <ele>164</ele>
        <time>2011-05-22T08:32:31.000Z</time>
      </trkpt>
      <trkpt lat="48.68936" lon="1.60973">
        <ele>163.60000610352</ele>
        <time>2011-05-22T08:32:36.000Z</time>
      </trkpt>
      <trkpt lat="48.68936" lon="1.60953">
        <ele>163</ele>
        <time>2011-05-22T08:32:44.000Z</time>
      </trkpt>
      <trkpt lat="48.68936" lon="1.60938">
        <ele>162.60000610352</ele>
        <time>2011-05-22T08:32:50.000Z</time>
      </trkpt>
      <trkpt lat="48.68936" lon="1.60936">
        <ele>162.60000610352</ele>
        <time>2011-05-22T08:32:51.000Z</time>
      </trkpt>
      <trkpt lat="48.68936" lon="1.60921">
        <ele>162</ele>
        <time>2011-05-22T08:32:58.000Z</time>
      </trkpt>
      <trkpt lat="48.68936" lon="1.60912">
        <ele>162.19999694824</ele>
        <time>2011-05-22T08:33:02.000Z</time>
      </trkpt>
      <trkpt lat="48.68937" lon="1.60893">
        <ele>162.80000305176</ele>
        <time>2011-05-22T08:33:10.000Z</time>
      </trkpt>
      <trkpt lat="48.68938" lon="1.60889">
        <ele>163.19999694824</ele>
        <time>2011-05-22T08:33:12.000Z</time>
      </trkpt>
      <trkpt lat="48.68938" lon="1.60879">
        <ele>163.39999389648</ele>
        <time>2011-05-22T08:33:17.000Z</time>
      </trkpt>
      <trkpt lat="48.68937" lon="1.60867">
        <ele>163.80000305176</ele>
        <time>2011-05-22T08:33:22.000Z</time>
      </trkpt>
      <trkpt lat="48.68936" lon="1.60862">
        <ele>163.80000305176</ele>
        <time>2011-05-22T08:33:25.000Z</time>
      </trkpt>
      <trkpt lat="48.68936" lon="1.60847">
        <ele>164.39999389648</ele>
        <time>2011-05-22T08:33:31.000Z</time>
      </trkpt>
      <trkpt lat="48.68936" lon="1.60835">
        <ele>164.80000305176</ele>
        <time>2011-05-22T08:33:35.000Z</time>
      </trkpt>
      <trkpt lat="48.68937" lon="1.60822">
        <ele>165</ele>
        <time>2011-05-22T08:33:40.000Z</time>
      </trkpt>
      <trkpt lat="48.68936" lon="1.6081">
        <ele>165.19999694824</ele>
        <time>2011-05-22T08:33:44.000Z</time>
      </trkpt>
      <trkpt lat="48.68938" lon="1.60795">
        <ele>165.60000610352</ele>
        <time>2011-05-22T08:33:49.000Z</time>
      </trkpt>
      <trkpt lat="48.68939" lon="1.60781">
        <ele>166</ele>
        <time>2011-05-22T08:33:54.000Z</time>
      </trkpt>
      <trkpt lat="48.68938" lon="1.60755">
        <ele>166.39999389648</ele>
        <time>2011-05-22T08:34:00.000Z</time>
      </trkpt>
      <trkpt lat="48.68937" lon="1.60727">
        <ele>166.80000305176</ele>
        <time>2011-05-22T08:34:05.000Z</time>
      </trkpt>
      <trkpt lat="48.68935" lon="1.607">
        <ele>167.60000610352</ele>
        <time>2011-05-22T08:34:10.000Z</time>
      </trkpt>
      <trkpt lat="48.68934" lon="1.60674">
        <ele>168.19999694824</ele>
        <time>2011-05-22T08:34:15.000Z</time>
      </trkpt>
      <trkpt lat="48.68931" lon="1.60645">
        <ele>168.80000305176</ele>
        <time>2011-05-22T08:34:20.000Z</time>
      </trkpt>
      <trkpt lat="48.68929" lon="1.60616">
        <ele>169.60000610352</ele>
        <time>2011-05-22T08:34:25.000Z</time>
      </trkpt>
      <trkpt lat="48.68928" lon="1.60588">
        <ele>170.39999389648</ele>
        <time>2011-05-22T08:34:30.000Z</time>
      </trkpt>
      <trkpt lat="48.68927" lon="1.60559">
        <ele>170</ele>
        <time>2011-05-22T08:34:35.000Z</time>
      </trkpt>
      <trkpt lat="48.68927" lon="1.60553">
        <ele>170</ele>
        <time>2011-05-22T08:34:36.000Z</time>
      </trkpt>
      <trkpt lat="48.68934" lon="1.60524">
        <ele>170</ele>
        <time>2011-05-22T08:34:41.000Z</time>
      </trkpt>
      <trkpt lat="48.68942" lon="1.605">
        <ele>170.19999694824</ele>
        <time>2011-05-22T08:34:45.000Z</time>
      </trkpt>
      <trkpt lat="48.68953" lon="1.60467">
        <ele>169.39999389648</ele>
        <time>2011-05-22T08:34:51.000Z</time>
      </trkpt>
      <trkpt lat="48.6897" lon="1.60424">
        <ele>168.80000305176</ele>
        <time>2011-05-22T08:34:59.000Z</time>
      </trkpt>
      <trkpt lat="48.68974" lon="1.60413">
        <ele>168.39999389648</ele>
        <time>2011-05-22T08:35:01.000Z</time>
      </trkpt>
      <trkpt lat="48.68988" lon="1.60383">
        <ele>167.80000305176</ele>
        <time>2011-05-22T08:35:08.000Z</time>
      </trkpt>
      <trkpt lat="48.68998" lon="1.60362">
        <ele>167.19999694824</ele>
        <time>2011-05-22T08:35:13.000Z</time>
      </trkpt>
      <trkpt lat="48.69014" lon="1.60328">
        <ele>166.39999389648</ele>
        <time>2011-05-22T08:35:20.000Z</time>
      </trkpt>
      <trkpt lat="48.69029" lon="1.60305">
        <ele>166.80000305176</ele>
        <time>2011-05-22T08:35:26.000Z</time>
      </trkpt>
      <trkpt lat="48.69041" lon="1.60296">
        <ele>167.19999694824</ele>
        <time>2011-05-22T08:35:30.000Z</time>
      </trkpt>
      <trkpt lat="48.69051" lon="1.60286">
        <ele>167.60000610352</ele>
        <time>2011-05-22T08:35:35.000Z</time>
      </trkpt>
      <trkpt lat="48.69061" lon="1.60274">
        <ele>168</ele>
        <time>2011-05-22T08:35:41.000Z</time>
      </trkpt>
      <trkpt lat="48.69071" lon="1.60258">
        <ele>168.19999694824</ele>
        <time>2011-05-22T08:35:48.000Z</time>
      </trkpt>
      <trkpt lat="48.69076" lon="1.60247">
        <ele>168.39999389648</ele>
        <time>2011-05-22T08:35:53.000Z</time>
      </trkpt>
      <trkpt lat="48.69076" lon="1.60238">
        <ele>167.80000305176</ele>
        <time>2011-05-22T08:35:56.000Z</time>
      </trkpt>
      <trkpt lat="48.69084" lon="1.60223">
        <ele>167.60000610352</ele>
        <time>2011-05-22T08:36:03.000Z</time>
      </trkpt>
      <trkpt lat="48.69089" lon="1.60212">
        <ele>167.19999694824</ele>
        <time>2011-05-22T08:36:09.000Z</time>
      </trkpt>
      <trkpt lat="48.69094" lon="1.60197">
        <ele>166.80000305176</ele>
        <time>2011-05-22T08:36:16.000Z</time>
      </trkpt>
      <trkpt lat="48.69099" lon="1.60181">
        <ele>166.19999694824</ele>
        <time>2011-05-22T08:36:23.000Z</time>
      </trkpt>
      <trkpt lat="48.69107" lon="1.60164">
        <ele>166</ele>
        <time>2011-05-22T08:36:32.000Z</time>
      </trkpt>
      <trkpt lat="48.69112" lon="1.60151">
        <ele>166.19999694824</ele>
        <time>2011-05-22T08:36:38.000Z</time>
      </trkpt>
      <trkpt lat="48.69121" lon="1.60128">
        <ele>166.39999389648</ele>
        <time>2011-05-22T08:36:48.000Z</time>
      </trkpt>
      <trkpt lat="48.69129" lon="1.6011">
        <ele>166.80000305176</ele>
        <time>2011-05-22T08:36:57.000Z</time>
      </trkpt>
      <trkpt lat="48.69137" lon="1.60089">
        <ele>167.39999389648</ele>
        <time>2011-05-22T08:37:07.000Z</time>
      </trkpt>
      <trkpt lat="48.69141" lon="1.60077">
        <ele>167.60000610352</ele>
        <time>2011-05-22T08:37:13.000Z</time>
      </trkpt>
      <trkpt lat="48.69148" lon="1.60055">
        <ele>167.80000305176</ele>
        <time>2011-05-22T08:37:23.000Z</time>
      </trkpt>
      <trkpt lat="48.69152" lon="1.60046">
        <ele>168.19999694824</ele>
        <time>2011-05-22T08:37:28.000Z</time>
      </trkpt>
      <trkpt lat="48.69156" lon="1.6003">
        <ele>168.19999694824</ele>
        <time>2011-05-22T08:37:35.000Z</time>
      </trkpt>
      <trkpt lat="48.69161" lon="1.60015">
        <ele>168.60000610352</ele>
        <time>2011-05-22T08:37:42.000Z</time>
      </trkpt>
      <trkpt lat="48.69167" lon="1.59999">
        <ele>169</ele>
        <time>2011-05-22T08:37:49.000Z</time>
      </trkpt>
      <trkpt lat="48.69168" lon="1.59994">
        <ele>168.80000305176</ele>
        <time>2011-05-22T08:37:54.000Z</time>
      </trkpt>
      <trkpt lat="48.6917" lon="1.59987">
        <ele>168.60000610352</ele>
        <time>2011-05-22T08:37:59.000Z</time>
      </trkpt>
      <trkpt lat="48.69178" lon="1.59966">
        <ele>168.80000305176</ele>
        <time>2011-05-22T08:38:07.000Z</time>
      </trkpt>
      <trkpt lat="48.69186" lon="1.59951">
        <ele>168.80000305176</ele>
        <time>2011-05-22T08:38:15.000Z</time>
      </trkpt>
      <trkpt lat="48.69188" lon="1.59943">
        <ele>168.80000305176</ele>
        <time>2011-05-22T08:38:19.000Z</time>
      </trkpt>
      <trkpt lat="48.69193" lon="1.5993">
        <ele>168.80000305176</ele>
        <time>2011-05-22T08:38:25.000Z</time>
      </trkpt>
      <trkpt lat="48.69201" lon="1.59913">
        <ele>169</ele>
        <time>2011-05-22T08:38:33.000Z</time>
      </trkpt>
      <trkpt lat="48.69208" lon="1.59895">
        <ele>168.80000305176</ele>
        <time>2011-05-22T08:38:40.000Z</time>
      </trkpt>
      <trkpt lat="48.69217" lon="1.59874">
        <ele>168.80000305176</ele>
        <time>2011-05-22T08:38:47.000Z</time>
      </trkpt>
      <trkpt lat="48.69226" lon="1.59853">
        <ele>168.80000305176</ele>
        <time>2011-05-22T08:38:53.000Z</time>
      </trkpt>
      <trkpt lat="48.69234" lon="1.59834">
        <ele>169</ele>
        <time>2011-05-22T08:38:59.000Z</time>
      </trkpt>
      <trkpt lat="48.6924" lon="1.59821">
        <ele>169.60000610352</ele>
        <time>2011-05-22T08:39:05.000Z</time>
      </trkpt>
      <trkpt lat="48.69246" lon="1.59807">
        <ele>170.19999694824</ele>
        <time>2011-05-22T08:39:12.000Z</time>
      </trkpt>
      <trkpt lat="48.69251" lon="1.59794">
        <ele>170.39999389648</ele>
        <time>2011-05-22T08:39:18.000Z</time>
      </trkpt>
      <trkpt lat="48.69252" lon="1.5979">
        <ele>170.39999389648</ele>
        <time>2011-05-22T08:39:20.000Z</time>
      </trkpt>
      <trkpt lat="48.6926" lon="1.59769">
        <ele>170.39999389648</ele>
        <time>2011-05-22T08:39:29.000Z</time>
      </trkpt>
      <trkpt lat="48.69267" lon="1.5976">
        <ele>170.39999389648</ele>
        <time>2011-05-22T08:39:35.000Z</time>
      </trkpt>
      <trkpt lat="48.69278" lon="1.59754">
        <ele>170.60000610352</ele>
        <time>2011-05-22T08:39:43.000Z</time>
      </trkpt>
      <trkpt lat="48.69285" lon="1.59744">
        <ele>170.60000610352</ele>
        <time>2011-05-22T08:39:49.000Z</time>
      </trkpt>
      <trkpt lat="48.69291" lon="1.59736">
        <ele>170.60000610352</ele>
        <time>2011-05-22T08:39:54.000Z</time>
      </trkpt>
      <trkpt lat="48.69298" lon="1.59727">
        <ele>170.39999389648</ele>
        <time>2011-05-22T08:40:00.000Z</time>
      </trkpt>
      <trkpt lat="48.69306" lon="1.59716">
        <ele>170.39999389648</ele>
        <time>2011-05-22T08:40:07.000Z</time>
      </trkpt>
      <trkpt lat="48.69308" lon="1.59713">
        <ele>170.39999389648</ele>
        <time>2011-05-22T08:40:09.000Z</time>
      </trkpt>
      <trkpt lat="48.69314" lon="1.59705">
        <ele>170.39999389648</ele>
        <time>2011-05-22T08:40:15.000Z</time>
      </trkpt>
      <trkpt lat="48.6933" lon="1.59688">
        <ele>170.39999389648</ele>
        <time>2011-05-22T08:40:26.000Z</time>
      </trkpt>
      <trkpt lat="48.69342" lon="1.59679">
        <ele>170.39999389648</ele>
        <time>2011-05-22T08:40:33.000Z</time>
      </trkpt>
      <trkpt lat="48.69353" lon="1.59667">
        <ele>170.39999389648</ele>
        <time>2011-05-22T08:40:41.000Z</time>
      </trkpt>
      <trkpt lat="48.69355" lon="1.59665">
        <ele>170.39999389648</ele>
        <time>2011-05-22T08:40:42.000Z</time>
      </trkpt>
      <trkpt lat="48.69359" lon="1.59659">
        <ele>170.39999389648</ele>
        <time>2011-05-22T08:40:46.000Z</time>
      </trkpt>
      <trkpt lat="48.69367" lon="1.59649">
        <ele>170.60000610352</ele>
        <time>2011-05-22T08:40:52.000Z</time>
      </trkpt>
      <trkpt lat="48.69375" lon="1.59637">
        <ele>170.80000305176</ele>
        <time>2011-05-22T08:40:59.000Z</time>
      </trkpt>
      <trkpt lat="48.69377" lon="1.59636">
        <ele>170.80000305176</ele>
        <time>2011-05-22T08:41:00.000Z</time>
      </trkpt>
      <trkpt lat="48.69384" lon="1.59627">
        <ele>171</ele>
        <time>2011-05-22T08:41:06.000Z</time>
      </trkpt>
      <trkpt lat="48.69388" lon="1.5962">
        <ele>171</ele>
        <time>2011-05-22T08:41:10.000Z</time>
      </trkpt>
      <trkpt lat="48.69397" lon="1.59609">
        <ele>171.19999694824</ele>
        <time>2011-05-22T08:41:17.000Z</time>
      </trkpt>
      <trkpt lat="48.69405" lon="1.59599">
        <ele>171.39999389648</ele>
        <time>2011-05-22T08:41:23.000Z</time>
      </trkpt>
      <trkpt lat="48.69411" lon="1.59587">
        <ele>171.60000610352</ele>
        <time>2011-05-22T08:41:29.000Z</time>
      </trkpt>
      <trkpt lat="48.6942" lon="1.59574">
        <ele>171.60000610352</ele>
        <time>2011-05-22T08:41:36.000Z</time>
      </trkpt>
      <trkpt lat="48.69428" lon="1.59566">
        <ele>171.39999389648</ele>
        <time>2011-05-22T08:41:42.000Z</time>
      </trkpt>
      <trkpt lat="48.69432" lon="1.59561">
        <ele>171.39999389648</ele>
        <time>2011-05-22T08:41:45.000Z</time>
      </trkpt>
      <trkpt lat="48.69441" lon="1.59548">
        <ele>171</ele>
        <time>2011-05-22T08:41:52.000Z</time>
      </trkpt>
      <trkpt lat="48.69449" lon="1.59535">
        <ele>170.80000305176</ele>
        <time>2011-05-22T08:41:58.000Z</time>
      </trkpt>
      <trkpt lat="48.69456" lon="1.59522">
        <ele>170.39999389648</ele>
        <time>2011-05-22T08:42:05.000Z</time>
      </trkpt>
      <trkpt lat="48.69464" lon="1.59506">
        <ele>170</ele>
        <time>2011-05-22T08:42:12.000Z</time>
      </trkpt>
      <trkpt lat="48.69471" lon="1.59497">
        <ele>169.80000305176</ele>
        <time>2011-05-22T08:42:18.000Z</time>
      </trkpt>
      <trkpt lat="48.6948" lon="1.5948">
        <ele>169.80000305176</ele>
        <time>2011-05-22T08:42:26.000Z</time>
      </trkpt>
      <trkpt lat="48.69489" lon="1.59465">
        <ele>169.80000305176</ele>
        <time>2011-05-22T08:42:33.000Z</time>
      </trkpt>
      <trkpt lat="48.69496" lon="1.59454">
        <ele>169.80000305176</ele>
        <time>2011-05-22T08:42:38.000Z</time>
      </trkpt>
      <trkpt lat="48.69505" lon="1.59439">
        <ele>169.80000305176</ele>
        <time>2011-05-22T08:42:46.000Z</time>
      </trkpt>
      <trkpt lat="48.69511" lon="1.59428">
        <ele>169.60000610352</ele>
        <time>2011-05-22T08:42:52.000Z</time>
      </trkpt>
      <trkpt lat="48.6952" lon="1.59413">
        <ele>169.19999694824</ele>
        <time>2011-05-22T08:43:01.000Z</time>
      </trkpt>
      <trkpt lat="48.69528" lon="1.594">
        <ele>168.80000305176</ele>
        <time>2011-05-22T08:43:08.000Z</time>
      </trkpt>
      <trkpt lat="48.6953" lon="1.59398">
        <ele>168.60000610352</ele>
        <time>2011-05-22T08:43:09.000Z</time>
      </trkpt>
      <trkpt lat="48.69535" lon="1.59386">
        <ele>168.39999389648</ele>
        <time>2011-05-22T08:43:15.000Z</time>
      </trkpt>
      <trkpt lat="48.69536" lon="1.59385">
        <ele>168.39999389648</ele>
        <time>2011-05-22T08:43:16.000Z</time>
      </trkpt>
      <trkpt lat="48.69541" lon="1.59378">
        <ele>168.19999694824</ele>
        <time>2011-05-22T08:43:21.000Z</time>
      </trkpt>
      <trkpt lat="48.6955" lon="1.59363">
        <ele>168</ele>
        <time>2011-05-22T08:43:29.000Z</time>
      </trkpt>
      <trkpt lat="48.69557" lon="1.59352">
        <ele>168</ele>
        <time>2011-05-22T08:43:35.000Z</time>
      </trkpt>
      <trkpt lat="48.69562" lon="1.59345">
        <ele>168.19999694824</ele>
        <time>2011-05-22T08:43:39.000Z</time>
      </trkpt>
      <trkpt lat="48.69571" lon="1.59328">
        <ele>168.60000610352</ele>
        <time>2011-05-22T08:43:47.000Z</time>
      </trkpt>
      <trkpt lat="48.69578" lon="1.59317">
        <ele>168.80000305176</ele>
        <time>2011-05-22T08:43:52.000Z</time>
      </trkpt>
      <trkpt lat="48.69587" lon="1.59303">
        <ele>169.19999694824</ele>
        <time>2011-05-22T08:44:00.000Z</time>
      </trkpt>
      <trkpt lat="48.69593" lon="1.59291">
        <ele>169.19999694824</ele>
        <time>2011-05-22T08:44:06.000Z</time>
      </trkpt>
      <trkpt lat="48.69602" lon="1.5928">
        <ele>169.19999694824</ele>
        <time>2011-05-22T08:44:12.000Z</time>
      </trkpt>
      <trkpt lat="48.69607" lon="1.59274">
        <ele>169.19999694824</ele>
        <time>2011-05-22T08:44:15.000Z</time>
      </trkpt>
      <trkpt lat="48.69612" lon="1.59266">
        <ele>169.39999389648</ele>
        <time>2011-05-22T08:44:20.000Z</time>
      </trkpt>
      <trkpt lat="48.69613" lon="1.59264">
        <ele>169.39999389648</ele>
        <time>2011-05-22T08:44:21.000Z</time>
      </trkpt>
      <trkpt lat="48.69626" lon="1.59249">
        <ele>169.39999389648</ele>
        <time>2011-05-22T08:44:31.000Z</time>
      </trkpt>
      <trkpt lat="48.69639" lon="1.59233">
        <ele>169.80000305176</ele>
        <time>2011-05-22T08:44:41.000Z</time>
      </trkpt>
      <trkpt lat="48.69648" lon="1.59219">
        <ele>170.19999694824</ele>
        <time>2011-05-22T08:44:50.000Z</time>
      </trkpt>
      <trkpt lat="48.69656" lon="1.59212">
        <ele>170.39999389648</ele>
        <time>2011-05-22T08:44:57.000Z</time>
      </trkpt>
      <trkpt lat="48.69671" lon="1.59216">
        <ele>170</ele>
        <time>2011-05-22T08:45:06.000Z</time>
      </trkpt>
      <trkpt lat="48.6968" lon="1.59224">
        <ele>169.39999389648</ele>
        <time>2011-05-22T08:45:12.000Z</time>
      </trkpt>
      <trkpt lat="48.69689" lon="1.59229">
        <ele>169</ele>
        <time>2011-05-22T08:45:18.000Z</time>
      </trkpt>
      <trkpt lat="48.69696" lon="1.59233">
        <ele>168.60000610352</ele>
        <time>2011-05-22T08:45:22.000Z</time>
      </trkpt>
      <trkpt lat="48.69704" lon="1.59241">
        <ele>168.19999694824</ele>
        <time>2011-05-22T08:45:28.000Z</time>
      </trkpt>
      <trkpt lat="48.69719" lon="1.59251">
        <ele>167.60000610352</ele>
        <time>2011-05-22T08:45:37.000Z</time>
      </trkpt>
      <trkpt lat="48.69726" lon="1.59256">
        <ele>167.19999694824</ele>
        <time>2011-05-22T08:45:41.000Z</time>
      </trkpt>
      <trkpt lat="48.69736" lon="1.59263">
        <ele>166.60000610352</ele>
        <time>2011-05-22T08:45:48.000Z</time>
      </trkpt>
      <trkpt lat="48.69747" lon="1.5927">
        <ele>166</ele>
        <time>2011-05-22T08:45:56.000Z</time>
      </trkpt>
      <trkpt lat="48.69758" lon="1.59279">
        <ele>164.60000610352</ele>
        <time>2011-05-22T08:46:04.000Z</time>
      </trkpt>
      <trkpt lat="48.69764" lon="1.59284">
        <ele>163.80000305176</ele>
        <time>2011-05-22T08:46:11.000Z</time>
      </trkpt>
      <trkpt lat="48.6977" lon="1.59289">
        <ele>163</ele>
        <time>2011-05-22T08:46:21.000Z</time>
      </trkpt>
      <trkpt lat="48.6978" lon="1.59293">
        <ele>161.80000305176</ele>
        <time>2011-05-22T08:46:27.000Z</time>
      </trkpt>
      <trkpt lat="48.69784" lon="1.59297">
        <ele>161.19999694824</ele>
        <time>2011-05-22T08:46:30.000Z</time>
      </trkpt>
      <trkpt lat="48.69796" lon="1.59303">
        <ele>159.80000305176</ele>
        <time>2011-05-22T08:46:39.000Z</time>
      </trkpt>
      <trkpt lat="48.69804" lon="1.59308">
        <ele>158.60000610352</ele>
        <time>2011-05-22T08:46:45.000Z</time>
      </trkpt>
      <trkpt lat="48.69815" lon="1.59317">
        <ele>157.39999389648</ele>
        <time>2011-05-22T08:46:53.000Z</time>
      </trkpt>
      <trkpt lat="48.69823" lon="1.59323">
        <ele>156.19999694824</ele>
        <time>2011-05-22T08:46:59.000Z</time>
      </trkpt>
      <trkpt lat="48.69837" lon="1.59333">
        <ele>154.80000305176</ele>
        <time>2011-05-22T08:47:08.000Z</time>
      </trkpt>
      <trkpt lat="48.69848" lon="1.59341">
        <ele>153.80000305176</ele>
        <time>2011-05-22T08:47:17.000Z</time>
      </trkpt>
      <trkpt lat="48.69853" lon="1.59334">
        <ele>153.80000305176</ele>
        <time>2011-05-22T08:47:23.000Z</time>
      </trkpt>
      <trkpt lat="48.69854" lon="1.59316">
        <ele>154.19999694824</ele>
        <time>2011-05-22T08:47:32.000Z</time>
      </trkpt>
      <trkpt lat="48.69853" lon="1.59298">
        <ele>154.80000305176</ele>
        <time>2011-05-22T08:47:40.000Z</time>
      </trkpt>
      <trkpt lat="48.69851" lon="1.59273">
        <ele>155.60000610352</ele>
        <time>2011-05-22T08:47:50.000Z</time>
      </trkpt>
      <trkpt lat="48.6985" lon="1.59247">
        <ele>156.60000610352</ele>
        <time>2011-05-22T08:48:01.000Z</time>
      </trkpt>
      <trkpt lat="48.69851" lon="1.59231">
        <ele>156.60000610352</ele>
        <time>2011-05-22T08:48:08.000Z</time>
      </trkpt>
      <trkpt lat="48.69851" lon="1.59221">
        <ele>156.80000305176</ele>
        <time>2011-05-22T08:48:14.000Z</time>
      </trkpt>
      <trkpt lat="48.69851" lon="1.59221">
        <ele>156.80000305176</ele>
        <time>2011-05-22T08:48:15.000Z</time>
      </trkpt>
      <trkpt lat="48.69851" lon="1.59216">
        <ele>156.80000305176</ele>
        <time>2011-05-22T08:48:28.000Z</time>
      </trkpt>
      <trkpt lat="48.69852" lon="1.59201">
        <ele>157</ele>
        <time>2011-05-22T08:48:33.000Z</time>
      </trkpt>
      <trkpt lat="48.69853" lon="1.59179">
        <ele>157</ele>
        <time>2011-05-22T08:48:41.000Z</time>
      </trkpt>
      <trkpt lat="48.69857" lon="1.59147">
        <ele>157.39999389648</ele>
        <time>2011-05-22T08:48:53.000Z</time>
      </trkpt>
      <trkpt lat="48.69861" lon="1.59125">
        <ele>157.60000610352</ele>
        <time>2011-05-22T08:49:03.000Z</time>
      </trkpt>
      <trkpt lat="48.69863" lon="1.59119">
        <ele>157.60000610352</ele>
        <time>2011-05-22T08:49:10.000Z</time>
      </trkpt>
      <trkpt lat="48.69866" lon="1.59109">
        <ele>157.60000610352</ele>
        <time>2011-05-22T08:49:22.000Z</time>
      </trkpt>
      <trkpt lat="48.69871" lon="1.59098">
        <ele>157.39999389648</ele>
        <time>2011-05-22T08:49:28.000Z</time>
      </trkpt>
      <trkpt lat="48.6988" lon="1.59085">
        <ele>157</ele>
        <time>2011-05-22T08:49:36.000Z</time>
      </trkpt>
      <trkpt lat="48.69884" lon="1.59077">
        <ele>157.19999694824</ele>
        <time>2011-05-22T08:49:42.000Z</time>
      </trkpt>
      <trkpt lat="48.69894" lon="1.59064">
        <ele>157.60000610352</ele>
        <time>2011-05-22T08:49:51.000Z</time>
      </trkpt>
      <trkpt lat="48.69902" lon="1.59054">
        <ele>158.19999694824</ele>
        <time>2011-05-22T08:49:58.000Z</time>
      </trkpt>
      <trkpt lat="48.69906" lon="1.59045">
        <ele>158.80000305176</ele>
        <time>2011-05-22T08:50:03.000Z</time>
      </trkpt>
      <trkpt lat="48.69912" lon="1.59033">
        <ele>159.60000610352</ele>
        <time>2011-05-22T08:50:09.000Z</time>
      </trkpt>
      <trkpt lat="48.69915" lon="1.59024">
        <ele>160.39999389648</ele>
        <time>2011-05-22T08:50:14.000Z</time>
      </trkpt>
      <trkpt lat="48.69919" lon="1.59007">
        <ele>162</ele>
        <time>2011-05-22T08:50:22.000Z</time>
      </trkpt>
      <trkpt lat="48.6992" lon="1.58993">
        <ele>162.80000305176</ele>
        <time>2011-05-22T08:50:29.000Z</time>
      </trkpt>
      <trkpt lat="48.69919" lon="1.58979">
        <ele>163.19999694824</ele>
        <time>2011-05-22T08:50:36.000Z</time>
      </trkpt>
      <trkpt lat="48.6992" lon="1.58975">
        <ele>163.39999389648</ele>
        <time>2011-05-22T08:50:38.000Z</time>
      </trkpt>
      <trkpt lat="48.69917" lon="1.58962">
        <ele>163.80000305176</ele>
        <time>2011-05-22T08:50:46.000Z</time>
      </trkpt>
      <trkpt lat="48.69915" lon="1.58949">
        <ele>164.19999694824</ele>
        <time>2011-05-22T08:50:52.000Z</time>
      </trkpt>
      <trkpt lat="48.69911" lon="1.58932">
        <ele>164.80000305176</ele>
        <time>2011-05-22T08:50:59.000Z</time>
      </trkpt>
      <trkpt lat="48.69908" lon="1.5891">
        <ele>165.19999694824</ele>
        <time>2011-05-22T08:51:07.000Z</time>
      </trkpt>
      <trkpt lat="48.69904" lon="1.58888">
        <ele>165</ele>
        <time>2011-05-22T08:51:16.000Z</time>
      </trkpt>
      <trkpt lat="48.69901" lon="1.5887">
        <ele>164.80000305176</ele>
        <time>2011-05-22T08:51:23.000Z</time>
      </trkpt>
      <trkpt lat="48.69898" lon="1.5885">
        <ele>164.60000610352</ele>
        <time>2011-05-22T08:51:32.000Z</time>
      </trkpt>
      <trkpt lat="48.69893" lon="1.58827">
        <ele>164.19999694824</ele>
        <time>2011-05-22T08:51:42.000Z</time>
      </trkpt>
      <trkpt lat="48.69891" lon="1.5882">
        <ele>163.80000305176</ele>
        <time>2011-05-22T08:51:45.000Z</time>
      </trkpt>
      <trkpt lat="48.69888" lon="1.58809">
        <ele>163.19999694824</ele>
        <time>2011-05-22T08:51:51.000Z</time>
      </trkpt>
      <trkpt lat="48.69887" lon="1.58804">
        <ele>163</ele>
        <time>2011-05-22T08:51:54.000Z</time>
      </trkpt>
      <trkpt lat="48.69882" lon="1.5879">
        <ele>162.19999694824</ele>
        <time>2011-05-22T08:52:01.000Z</time>
      </trkpt>
      <trkpt lat="48.69882" lon="1.58786">
        <ele>162</ele>
        <time>2011-05-22T08:52:03.000Z</time>
      </trkpt>
      <trkpt lat="48.69879" lon="1.58773">
        <ele>161.19999694824</ele>
        <time>2011-05-22T08:52:10.000Z</time>
      </trkpt>
      <trkpt lat="48.69877" lon="1.58767">
        <ele>160.80000305176</ele>
        <time>2011-05-22T08:52:14.000Z</time>
      </trkpt>
      <trkpt lat="48.69875" lon="1.58758">
        <ele>160.39999389648</ele>
        <time>2011-05-22T08:52:18.000Z</time>
      </trkpt>
      <trkpt lat="48.69873" lon="1.58742">
        <ele>159.60000610352</ele>
        <time>2011-05-22T08:52:25.000Z</time>
      </trkpt>
      <trkpt lat="48.69874" lon="1.58731">
        <ele>159.19999694824</ele>
        <time>2011-05-22T08:52:30.000Z</time>
      </trkpt>
      <trkpt lat="48.69875" lon="1.58723">
        <ele>159</ele>
        <time>2011-05-22T08:52:34.000Z</time>
      </trkpt>
      <trkpt lat="48.6988" lon="1.58717">
        <ele>158.80000305176</ele>
        <time>2011-05-22T08:52:41.000Z</time>
      </trkpt>
      <trkpt lat="48.69882" lon="1.58709">
        <ele>158.39999389648</ele>
        <time>2011-05-22T08:52:45.000Z</time>
      </trkpt>
      <trkpt lat="48.69887" lon="1.58693">
        <ele>157.80000305176</ele>
        <time>2011-05-22T08:52:53.000Z</time>
      </trkpt>
      <trkpt lat="48.69892" lon="1.58678">
        <ele>157.19999694824</ele>
        <time>2011-05-22T08:53:00.000Z</time>
      </trkpt>
      <trkpt lat="48.69895" lon="1.58663">
        <ele>156.80000305176</ele>
        <time>2011-05-22T08:53:06.000Z</time>
      </trkpt>
      <trkpt lat="48.69897" lon="1.58659">
        <ele>156.80000305176</ele>
        <time>2011-05-22T08:53:08.000Z</time>
      </trkpt>
      <trkpt lat="48.69898" lon="1.58645">
        <ele>156.60000610352</ele>
        <time>2011-05-22T08:53:13.000Z</time>
      </trkpt>
      <trkpt lat="48.69898" lon="1.58639">
        <ele>156.60000610352</ele>
        <time>2011-05-22T08:53:15.000Z</time>
      </trkpt>
      <trkpt lat="48.69904" lon="1.58623">
        <ele>156.39999389648</ele>
        <time>2011-05-22T08:53:23.000Z</time>
      </trkpt>
      <trkpt lat="48.69908" lon="1.58611">
        <ele>156.19999694824</ele>
        <time>2011-05-22T08:53:29.000Z</time>
      </trkpt>
      <trkpt lat="48.69913" lon="1.58595">
        <ele>156</ele>
        <time>2011-05-22T08:53:37.000Z</time>
      </trkpt>
      <trkpt lat="48.69916" lon="1.5858">
        <ele>155.80000305176</ele>
        <time>2011-05-22T08:53:43.000Z</time>
      </trkpt>
      <trkpt lat="48.69921" lon="1.58567">
        <ele>155</ele>
        <time>2011-05-22T08:53:49.000Z</time>
      </trkpt>
      <trkpt lat="48.69925" lon="1.58555">
        <ele>154.39999389648</ele>
        <time>2011-05-22T08:53:54.000Z</time>
      </trkpt>
      <trkpt lat="48.6993" lon="1.58539">
        <ele>153.39999389648</ele>
        <time>2011-05-22T08:54:02.000Z</time>
      </trkpt>
      <trkpt lat="48.6993" lon="1.58537">
        <ele>153.39999389648</ele>
        <time>2011-05-22T08:54:03.000Z</time>
      </trkpt>
      <trkpt lat="48.69931" lon="1.58534">
        <ele>153.19999694824</ele>
        <time>2011-05-22T08:54:05.000Z</time>
      </trkpt>
      <trkpt lat="48.69933" lon="1.58522">
        <ele>152.80000305176</ele>
        <time>2011-05-22T08:54:11.000Z</time>
      </trkpt>
      <trkpt lat="48.69939" lon="1.58505">
        <ele>152</ele>
        <time>2011-05-22T08:54:19.000Z</time>
      </trkpt>
      <trkpt lat="48.6994" lon="1.58501">
        <ele>151.80000305176</ele>
        <time>2011-05-22T08:54:21.000Z</time>
      </trkpt>
      <trkpt lat="48.69946" lon="1.5849">
        <ele>151.19999694824</ele>
        <time>2011-05-22T08:54:25.000Z</time>
      </trkpt>
      <trkpt lat="48.69952" lon="1.5847">
        <ele>150.60000610352</ele>
        <time>2011-05-22T08:54:33.000Z</time>
      </trkpt>
      <trkpt lat="48.69961" lon="1.58445">
        <ele>149.80000305176</ele>
        <time>2011-05-22T08:54:44.000Z</time>
      </trkpt>
      <trkpt lat="48.69968" lon="1.58419">
        <ele>149.39999389648</ele>
        <time>2011-05-22T08:54:55.000Z</time>
      </trkpt>
      <trkpt lat="48.69973" lon="1.58402">
        <ele>148.80000305176</ele>
        <time>2011-05-22T08:55:03.000Z</time>
      </trkpt>
      <trkpt lat="48.69977" lon="1.58391">
        <ele>148.39999389648</ele>
        <time>2011-05-22T08:55:08.000Z</time>
      </trkpt>
      <trkpt lat="48.69982" lon="1.58373">
        <ele>147.80000305176</ele>
        <time>2011-05-22T08:55:16.000Z</time>
      </trkpt>
      <trkpt lat="48.69989" lon="1.58352">
        <ele>147.19999694824</ele>
        <time>2011-05-22T08:55:26.000Z</time>
      </trkpt>
      <trkpt lat="48.69997" lon="1.58328">
        <ele>146.80000305176</ele>
        <time>2011-05-22T08:55:37.000Z</time>
      </trkpt>
      <trkpt lat="48.70004" lon="1.58303">
        <ele>147</ele>
        <time>2011-05-22T08:55:48.000Z</time>
      </trkpt>
      <trkpt lat="48.70012" lon="1.58279">
        <ele>147</ele>
        <time>2011-05-22T08:55:59.000Z</time>
      </trkpt>
      <trkpt lat="48.70021" lon="1.58258">
        <ele>147.19999694824</ele>
        <time>2011-05-22T08:56:09.000Z</time>
      </trkpt>
      <trkpt lat="48.70031" lon="1.58237">
        <ele>147.19999694824</ele>
        <time>2011-05-22T08:56:19.000Z</time>
      </trkpt>
      <trkpt lat="48.70041" lon="1.58215">
        <ele>147</ele>
        <time>2011-05-22T08:56:30.000Z</time>
      </trkpt>
      <trkpt lat="48.70053" lon="1.58195">
        <ele>146.80000305176</ele>
        <time>2011-05-22T08:56:41.000Z</time>
      </trkpt>
      <trkpt lat="48.70061" lon="1.5818">
        <ele>146.80000305176</ele>
        <time>2011-05-22T08:56:49.000Z</time>
      </trkpt>
      <trkpt lat="48.7007" lon="1.58167">
        <ele>146.80000305176</ele>
        <time>2011-05-22T08:56:58.000Z</time>
      </trkpt>
      <trkpt lat="48.70079" lon="1.58151">
        <ele>146.60000610352</ele>
        <time>2011-05-22T08:57:07.000Z</time>
      </trkpt>
      <trkpt lat="48.7009" lon="1.58134">
        <ele>146.60000610352</ele>
        <time>2011-05-22T08:57:17.000Z</time>
      </trkpt>
      <trkpt lat="48.70097" lon="1.58121">
        <ele>146.39999389648</ele>
        <time>2011-05-22T08:57:24.000Z</time>
      </trkpt>
      <trkpt lat="48.70106" lon="1.58107">
        <ele>146.19999694824</ele>
        <time>2011-05-22T08:57:32.000Z</time>
      </trkpt>
      <trkpt lat="48.70113" lon="1.58095">
        <ele>146</ele>
        <time>2011-05-22T08:57:39.000Z</time>
      </trkpt>
      <trkpt lat="48.70129" lon="1.58068">
        <ele>145.80000305176</ele>
        <time>2011-05-22T08:57:53.000Z</time>
      </trkpt>
      <trkpt lat="48.70139" lon="1.5805">
        <ele>145.60000610352</ele>
        <time>2011-05-22T08:58:02.000Z</time>
      </trkpt>
      <trkpt lat="48.70149" lon="1.58035">
        <ele>145.60000610352</ele>
        <time>2011-05-22T08:58:10.000Z</time>
      </trkpt>
      <trkpt lat="48.70162" lon="1.58009">
        <ele>145.80000305176</ele>
        <time>2011-05-22T08:58:23.000Z</time>
      </trkpt>
      <trkpt lat="48.70172" lon="1.5799">
        <ele>146</ele>
        <time>2011-05-22T08:58:33.000Z</time>
      </trkpt>
      <trkpt lat="48.70179" lon="1.57977">
        <ele>146.19999694824</ele>
        <time>2011-05-22T08:58:40.000Z</time>
      </trkpt>
      <trkpt lat="48.70187" lon="1.57959">
        <ele>146.39999389648</ele>
        <time>2011-05-22T08:58:49.000Z</time>
      </trkpt>
      <trkpt lat="48.70191" lon="1.5795">
        <ele>146.39999389648</ele>
        <time>2011-05-22T08:58:53.000Z</time>
      </trkpt>
      <trkpt lat="48.70197" lon="1.57937">
        <ele>146.60000610352</ele>
        <time>2011-05-22T08:58:59.000Z</time>
      </trkpt>
      <trkpt lat="48.70206" lon="1.57912">
        <ele>146.80000305176</ele>
        <time>2011-05-22T08:59:10.000Z</time>
      </trkpt>
      <trkpt lat="48.70215" lon="1.57888">
        <ele>146.60000610352</ele>
        <time>2011-05-22T08:59:21.000Z</time>
      </trkpt>
      <trkpt lat="48.70224" lon="1.57857">
        <ele>146.39999389648</ele>
        <time>2011-05-22T08:59:34.000Z</time>
      </trkpt>
      <trkpt lat="48.70229" lon="1.5784">
        <ele>146.19999694824</ele>
        <time>2011-05-22T08:59:43.000Z</time>
      </trkpt>
      <trkpt lat="48.70229" lon="1.57839">
        <ele>146.19999694824</ele>
        <time>2011-05-22T08:59:45.000Z</time>
      </trkpt>
      <trkpt lat="48.7023" lon="1.57822">
        <ele>146</ele>
        <time>2011-05-22T09:01:11.000Z</time>
      </trkpt>
      <trkpt lat="48.70233" lon="1.57809">
        <ele>145.80000305176</ele>
        <time>2011-05-22T09:01:16.000Z</time>
      </trkpt>
      <trkpt lat="48.70235" lon="1.57801">
        <ele>145.60000610352</ele>
        <time>2011-05-22T09:01:20.000Z</time>
      </trkpt>
      <trkpt lat="48.70236" lon="1.57799">
        <ele>145.60000610352</ele>
        <time>2011-05-22T09:01:21.000Z</time>
      </trkpt>
      <trkpt lat="48.7024" lon="1.57779">
        <ele>145.19999694824</ele>
        <time>2011-05-22T09:01:30.000Z</time>
      </trkpt>
      <trkpt lat="48.70244" lon="1.57759">
        <ele>145</ele>
        <time>2011-05-22T09:01:39.000Z</time>
      </trkpt>
      <trkpt lat="48.70245" lon="1.57754">
        <ele>144.80000305176</ele>
        <time>2011-05-22T09:01:41.000Z</time>
      </trkpt>
      <trkpt lat="48.70247" lon="1.57738">
        <ele>144.39999389648</ele>
        <time>2011-05-22T09:01:48.000Z</time>
      </trkpt>
      <trkpt lat="48.70249" lon="1.57726">
        <ele>144</ele>
        <time>2011-05-22T09:01:53.000Z</time>
      </trkpt>
      <trkpt lat="48.7025" lon="1.57715">
        <ele>143.60000610352</ele>
        <time>2011-05-22T09:01:58.000Z</time>
      </trkpt>
      <trkpt lat="48.70253" lon="1.57698">
        <ele>143</ele>
        <time>2011-05-22T09:02:06.000Z</time>
      </trkpt>
      <trkpt lat="48.70256" lon="1.57683">
        <ele>142.60000610352</ele>
        <time>2011-05-22T09:02:13.000Z</time>
      </trkpt>
      <trkpt lat="48.70256" lon="1.57679">
        <ele>142.39999389648</ele>
        <time>2011-05-22T09:02:15.000Z</time>
      </trkpt>
      <trkpt lat="48.70257" lon="1.5767">
        <ele>142</ele>
        <time>2011-05-22T09:02:19.000Z</time>
      </trkpt>
      <trkpt lat="48.70258" lon="1.57668">
        <ele>142</ele>
        <time>2011-05-22T09:02:20.000Z</time>
      </trkpt>
      <trkpt lat="48.70259" lon="1.57649">
        <ele>142</ele>
        <time>2011-05-22T09:02:30.000Z</time>
      </trkpt>
      <trkpt lat="48.70263" lon="1.57636">
        <ele>142.19999694824</ele>
        <time>2011-05-22T09:02:36.000Z</time>
      </trkpt>
      <trkpt lat="48.70271" lon="1.57624">
        <ele>142.19999694824</ele>
        <time>2011-05-22T09:02:43.000Z</time>
      </trkpt>
      <trkpt lat="48.70281" lon="1.57608">
        <ele>142.60000610352</ele>
        <time>2011-05-22T09:02:52.000Z</time>
      </trkpt>
      <trkpt lat="48.7029" lon="1.57601">
        <ele>142.80000305176</ele>
        <time>2011-05-22T09:02:59.000Z</time>
      </trkpt>
      <trkpt lat="48.70302" lon="1.57602">
        <ele>143</ele>
        <time>2011-05-22T09:03:07.000Z</time>
      </trkpt>
      <trkpt lat="48.70314" lon="1.57604">
        <ele>143.19999694824</ele>
        <time>2011-05-22T09:03:15.000Z</time>
      </trkpt>
      <trkpt lat="48.70326" lon="1.57605">
        <ele>143.39999389648</ele>
        <time>2011-05-22T09:03:23.000Z</time>
      </trkpt>
      <trkpt lat="48.70335" lon="1.57607">
        <ele>143.60000610352</ele>
        <time>2011-05-22T09:03:29.000Z</time>
      </trkpt>
      <trkpt lat="48.70343" lon="1.57607">
        <ele>143.39999389648</ele>
        <time>2011-05-22T09:03:34.000Z</time>
      </trkpt>
      <trkpt lat="48.70361" lon="1.5761">
        <ele>143</ele>
        <time>2011-05-22T09:03:39.000Z</time>
      </trkpt>
      <trkpt lat="48.70394" lon="1.57614">
        <ele>142.39999389648</ele>
        <time>2011-05-22T09:03:47.000Z</time>
      </trkpt>
      <trkpt lat="48.70425" lon="1.57618">
        <ele>141.80000305176</ele>
        <time>2011-05-22T09:03:55.000Z</time>
      </trkpt>
      <trkpt lat="48.70442" lon="1.57621">
        <ele>141.19999694824</ele>
        <time>2011-05-22T09:03:59.000Z</time>
      </trkpt>
      <trkpt lat="48.70451" lon="1.57622">
        <ele>141</ele>
        <time>2011-05-22T09:04:01.000Z</time>
      </trkpt>
      <trkpt lat="48.7047" lon="1.57621">
        <ele>140.60000610352</ele>
        <time>2011-05-22T09:04:05.000Z</time>
      </trkpt>
      <trkpt lat="48.70508" lon="1.57626">
        <ele>139.80000305176</ele>
        <time>2011-05-22T09:04:13.000Z</time>
      </trkpt>
      <trkpt lat="48.70547" lon="1.5763">
        <ele>139.60000610352</ele>
        <time>2011-05-22T09:04:21.000Z</time>
      </trkpt>
      <trkpt lat="48.70584" lon="1.57634">
        <ele>139.60000610352</ele>
        <time>2011-05-22T09:04:28.000Z</time>
      </trkpt>
      <trkpt lat="48.70627" lon="1.5764">
        <ele>140.19999694824</ele>
        <time>2011-05-22T09:04:37.000Z</time>
      </trkpt>
      <trkpt lat="48.70641" lon="1.57643">
        <ele>140.39999389648</ele>
        <time>2011-05-22T09:04:40.000Z</time>
      </trkpt>
      <trkpt lat="48.70681" lon="1.57649">
        <ele>140.80000305176</ele>
        <time>2011-05-22T09:04:48.000Z</time>
      </trkpt>
      <trkpt lat="48.70691" lon="1.57651">
        <ele>141</ele>
        <time>2011-05-22T09:04:50.000Z</time>
      </trkpt>
      <trkpt lat="48.70735" lon="1.57655">
        <ele>141.60000610352</ele>
        <time>2011-05-22T09:04:58.000Z</time>
      </trkpt>
      <trkpt lat="48.7074" lon="1.57656">
        <ele>141.60000610352</ele>
        <time>2011-05-22T09:04:59.000Z</time>
      </trkpt>
      <trkpt lat="48.70759" lon="1.5766">
        <ele>142</ele>
        <time>2011-05-22T09:05:03.000Z</time>
      </trkpt>
      <trkpt lat="48.70775" lon="1.57673">
        <ele>142.19999694824</ele>
        <time>2011-05-22T09:05:08.000Z</time>
      </trkpt>
      <trkpt lat="48.7079" lon="1.57698">
        <ele>142.80000305176</ele>
        <time>2011-05-22T09:05:16.000Z</time>
      </trkpt>
      <trkpt lat="48.70796" lon="1.5771">
        <ele>143</ele>
        <time>2011-05-22T09:05:21.000Z</time>
      </trkpt>
      <trkpt lat="48.70802" lon="1.57723">
        <ele>143.19999694824</ele>
        <time>2011-05-22T09:05:27.000Z</time>
      </trkpt>
      <trkpt lat="48.70809" lon="1.57735">
        <ele>143.39999389648</ele>
        <time>2011-05-22T09:05:33.000Z</time>
      </trkpt>
      <trkpt lat="48.70814" lon="1.57743">
        <ele>143.60000610352</ele>
        <time>2011-05-22T09:05:38.000Z</time>
      </trkpt>
      <trkpt lat="48.70824" lon="1.57762">
        <ele>144</ele>
        <time>2011-05-22T09:05:48.000Z</time>
      </trkpt>
      <trkpt lat="48.70834" lon="1.57783">
        <ele>144.19999694824</ele>
        <time>2011-05-22T09:05:59.000Z</time>
      </trkpt>
      <trkpt lat="48.70843" lon="1.57805">
        <ele>144.60000610352</ele>
        <time>2011-05-22T09:06:10.000Z</time>
      </trkpt>
      <trkpt lat="48.70852" lon="1.57825">
        <ele>145</ele>
        <time>2011-05-22T09:06:19.000Z</time>
      </trkpt>
      <trkpt lat="48.70861" lon="1.57844">
        <ele>145.19999694824</ele>
        <time>2011-05-22T09:06:28.000Z</time>
      </trkpt>
      <trkpt lat="48.70868" lon="1.57859">
        <ele>145.19999694824</ele>
        <time>2011-05-22T09:06:35.000Z</time>
      </trkpt>
      <trkpt lat="48.70874" lon="1.57871">
        <ele>145.19999694824</ele>
        <time>2011-05-22T09:06:41.000Z</time>
      </trkpt>
      <trkpt lat="48.70875" lon="1.57875">
        <ele>145.19999694824</ele>
        <time>2011-05-22T09:06:43.000Z</time>
      </trkpt>
      <trkpt lat="48.70881" lon="1.57887">
        <ele>145.19999694824</ele>
        <time>2011-05-22T09:06:49.000Z</time>
      </trkpt>
      <trkpt lat="48.70889" lon="1.57899">
        <ele>145</ele>
        <time>2011-05-22T09:06:56.000Z</time>
      </trkpt>
      <trkpt lat="48.70894" lon="1.57911">
        <ele>145</ele>
        <time>2011-05-22T09:07:02.000Z</time>
      </trkpt>
      <trkpt lat="48.70903" lon="1.57929">
        <ele>145</ele>
        <time>2011-05-22T09:07:11.000Z</time>
      </trkpt>
      <trkpt lat="48.7091" lon="1.57936">
        <ele>145</ele>
        <time>2011-05-22T09:07:17.000Z</time>
      </trkpt>
      <trkpt lat="48.70919" lon="1.57954">
        <ele>144.80000305176</ele>
        <time>2011-05-22T09:07:27.000Z</time>
      </trkpt>
      <trkpt lat="48.70928" lon="1.5797">
        <ele>144.80000305176</ele>
        <time>2011-05-22T09:07:36.000Z</time>
      </trkpt>
      <trkpt lat="48.70939" lon="1.57986">
        <ele>144.60000610352</ele>
        <time>2011-05-22T09:07:46.000Z</time>
      </trkpt>
      <trkpt lat="48.70949" lon="1.57995">
        <ele>144.60000610352</ele>
        <time>2011-05-22T09:07:54.000Z</time>
      </trkpt>
      <trkpt lat="48.70956" lon="1.58001">
        <ele>144.39999389648</ele>
        <time>2011-05-22T09:07:59.000Z</time>
      </trkpt>
      <trkpt lat="48.70963" lon="1.58006">
        <ele>144.39999389648</ele>
        <time>2011-05-22T09:08:05.000Z</time>
      </trkpt>
      <trkpt lat="48.70963" lon="1.58006">
        <ele>144.39999389648</ele>
        <time>2011-05-22T09:08:06.000Z</time>
      </trkpt>
      <trkpt lat="48.70957" lon="1.58001">
        <ele>144.39999389648</ele>
        <time>2011-05-22T09:08:22.000Z</time>
      </trkpt>
      <trkpt lat="48.70949" lon="1.57993">
        <ele>144.60000610352</ele>
        <time>2011-05-22T09:08:27.000Z</time>
      </trkpt>
      <trkpt lat="48.70952" lon="1.57983">
        <ele>144.60000610352</ele>
        <time>2011-05-22T09:08:33.000Z</time>
      </trkpt>
      <trkpt lat="48.70953" lon="1.57982">
        <ele>144.60000610352</ele>
        <time>2011-05-22T09:08:34.000Z</time>
      </trkpt>
      <trkpt lat="48.70966" lon="1.57969">
        <ele>144.60000610352</ele>
        <time>2011-05-22T09:08:44.000Z</time>
      </trkpt>
      <trkpt lat="48.70976" lon="1.57957">
        <ele>144.60000610352</ele>
        <time>2011-05-22T09:08:52.000Z</time>
      </trkpt>
      <trkpt lat="48.70991" lon="1.57938">
        <ele>144.60000610352</ele>
        <time>2011-05-22T09:09:03.000Z</time>
      </trkpt>
      <trkpt lat="48.71002" lon="1.57924">
        <ele>144.80000305176</ele>
        <time>2011-05-22T09:09:11.000Z</time>
      </trkpt>
      <trkpt lat="48.71018" lon="1.57902">
        <ele>144.39999389648</ele>
        <time>2011-05-22T09:09:24.000Z</time>
      </trkpt>
      <trkpt lat="48.71034" lon="1.5788">
        <ele>144.19999694824</ele>
        <time>2011-05-22T09:09:36.000Z</time>
      </trkpt>
      <trkpt lat="48.71043" lon="1.57868">
        <ele>144</ele>
        <time>2011-05-22T09:09:43.000Z</time>
      </trkpt>
      <trkpt lat="48.71047" lon="1.57863">
        <ele>143.80000305176</ele>
        <time>2011-05-22T09:09:46.000Z</time>
      </trkpt>
      <trkpt lat="48.71053" lon="1.57853">
        <ele>143.80000305176</ele>
        <time>2011-05-22T09:09:51.000Z</time>
      </trkpt>
      <trkpt lat="48.71058" lon="1.57847">
        <ele>143.60000610352</ele>
        <time>2011-05-22T09:09:55.000Z</time>
      </trkpt>
      <trkpt lat="48.71069" lon="1.5783">
        <ele>143.60000610352</ele>
        <time>2011-05-22T09:10:05.000Z</time>
      </trkpt>
      <trkpt lat="48.71082" lon="1.57811">
        <ele>144</ele>
        <time>2011-05-22T09:10:17.000Z</time>
      </trkpt>
      <trkpt lat="48.71093" lon="1.57797">
        <ele>144.39999389648</ele>
        <time>2011-05-22T09:10:26.000Z</time>
      </trkpt>
      <trkpt lat="48.71107" lon="1.57777">
        <ele>144.80000305176</ele>
        <time>2011-05-22T09:10:38.000Z</time>
      </trkpt>
      <trkpt lat="48.71119" lon="1.57761">
        <ele>145</ele>
        <time>2011-05-22T09:10:48.000Z</time>
      </trkpt>
      <trkpt lat="48.71125" lon="1.57752">
        <ele>145.19999694824</ele>
        <time>2011-05-22T09:10:54.000Z</time>
      </trkpt>
      <trkpt lat="48.71134" lon="1.57742">
        <ele>145.19999694824</ele>
        <time>2011-05-22T09:11:02.000Z</time>
      </trkpt>
      <trkpt lat="48.71146" lon="1.57729">
        <ele>145.19999694824</ele>
        <time>2011-05-22T09:11:11.000Z</time>
      </trkpt>
      <trkpt lat="48.71153" lon="1.5772">
        <ele>145.39999389648</ele>
        <time>2011-05-22T09:11:17.000Z</time>
      </trkpt>
      <trkpt lat="48.71163" lon="1.57711">
        <ele>145.39999389648</ele>
        <time>2011-05-22T09:11:25.000Z</time>
      </trkpt>
      <trkpt lat="48.71171" lon="1.57703">
        <ele>145.60000610352</ele>
        <time>2011-05-22T09:11:31.000Z</time>
      </trkpt>
      <trkpt lat="48.71178" lon="1.57693">
        <ele>145.80000305176</ele>
        <time>2011-05-22T09:11:36.000Z</time>
      </trkpt>
      <trkpt lat="48.71184" lon="1.57684">
        <ele>145.80000305176</ele>
        <time>2011-05-22T09:11:41.000Z</time>
      </trkpt>
      <trkpt lat="48.71185" lon="1.5768">
        <ele>145.80000305176</ele>
        <time>2011-05-22T09:11:45.000Z</time>
      </trkpt>
      <trkpt lat="48.71187" lon="1.57662">
        <ele>146</ele>
        <time>2011-05-22T09:12:17.000Z</time>
      </trkpt>
      <trkpt lat="48.71183" lon="1.57645">
        <ele>145.19999694824</ele>
        <time>2011-05-22T09:12:23.000Z</time>
      </trkpt>
      <trkpt lat="48.71178" lon="1.5763">
        <ele>144.39999389648</ele>
        <time>2011-05-22T09:12:30.000Z</time>
      </trkpt>
      <trkpt lat="48.71176" lon="1.57625">
        <ele>144.19999694824</ele>
        <time>2011-05-22T09:12:32.000Z</time>
      </trkpt>
      <trkpt lat="48.7117" lon="1.5761">
        <ele>143.39999389648</ele>
        <time>2011-05-22T09:12:39.000Z</time>
      </trkpt>
      <trkpt lat="48.71164" lon="1.57595">
        <ele>142.60000610352</ele>
        <time>2011-05-22T09:12:46.000Z</time>
      </trkpt>
      <trkpt lat="48.71157" lon="1.57576">
        <ele>141.39999389648</ele>
        <time>2011-05-22T09:12:55.000Z</time>
      </trkpt>
      <trkpt lat="48.7115" lon="1.57556">
        <ele>140.39999389648</ele>
        <time>2011-05-22T09:13:04.000Z</time>
      </trkpt>
      <trkpt lat="48.71141" lon="1.57535">
        <ele>139.39999389648</ele>
        <time>2011-05-22T09:13:09.000Z</time>
      </trkpt>
      <trkpt lat="48.71132" lon="1.57505">
        <ele>138.19999694824</ele>
        <time>2011-05-22T09:13:15.000Z</time>
      </trkpt>
      <trkpt lat="48.71125" lon="1.57473">
        <ele>137.80000305176</ele>
        <time>2011-05-22T09:13:21.000Z</time>
      </trkpt>
      <trkpt lat="48.71123" lon="1.57429">
        <ele>138</ele>
        <time>2011-05-22T09:13:29.000Z</time>
      </trkpt>
      <trkpt lat="48.71129" lon="1.57402">
        <ele>138</ele>
        <time>2011-05-22T09:13:35.000Z</time>
      </trkpt>
      <trkpt lat="48.71137" lon="1.57373">
        <ele>138.19999694824</ele>
        <time>2011-05-22T09:13:41.000Z</time>
      </trkpt>
      <trkpt lat="48.71145" lon="1.5734">
        <ele>138.39999389648</ele>
        <time>2011-05-22T09:13:48.000Z</time>
      </trkpt>
      <trkpt lat="48.71152" lon="1.57313">
        <ele>138.39999389648</ele>
        <time>2011-05-22T09:13:53.000Z</time>
      </trkpt>
      <trkpt lat="48.71161" lon="1.57277">
        <ele>138.80000305176</ele>
        <time>2011-05-22T09:13:58.000Z</time>
      </trkpt>
      <trkpt lat="48.71176" lon="1.57208">
        <ele>138.19999694824</ele>
        <time>2011-05-22T09:14:06.000Z</time>
      </trkpt>
      <trkpt lat="48.71185" lon="1.57153">
        <ele>137.80000305176</ele>
        <time>2011-05-22T09:14:12.000Z</time>
      </trkpt>
      <trkpt lat="48.71199" lon="1.57076">
        <ele>139.19999694824</ele>
        <time>2011-05-22T09:14:20.000Z</time>
      </trkpt>
      <trkpt lat="48.71211" lon="1.57009">
        <ele>139.80000305176</ele>
        <time>2011-05-22T09:14:27.000Z</time>
      </trkpt>
      <trkpt lat="48.71225" lon="1.56933">
        <ele>140.39999389648</ele>
        <time>2011-05-22T09:14:35.000Z</time>
      </trkpt>
      <trkpt lat="48.71236" lon="1.5687">
        <ele>141.39999389648</ele>
        <time>2011-05-22T09:14:42.000Z</time>
      </trkpt>
      <trkpt lat="48.71245" lon="1.56832">
        <ele>141.80000305176</ele>
        <time>2011-05-22T09:14:46.000Z</time>
      </trkpt>
      <trkpt lat="48.71249" lon="1.56816">
        <ele>141.60000610352</ele>
        <time>2011-05-22T09:14:48.000Z</time>
      </trkpt>
      <trkpt lat="48.71261" lon="1.56768">
        <ele>140.80000305176</ele>
        <time>2011-05-22T09:14:56.000Z</time>
      </trkpt>
      <trkpt lat="48.71264" lon="1.56757">
        <ele>140.60000610352</ele>
        <time>2011-05-22T09:15:00.000Z</time>
      </trkpt>
      <trkpt lat="48.71268" lon="1.56739">
        <ele>140.60000610352</ele>
        <time>2011-05-22T09:15:08.000Z</time>
      </trkpt>
      <trkpt lat="48.71272" lon="1.56723">
        <ele>140.60000610352</ele>
        <time>2011-05-22T09:15:16.000Z</time>
      </trkpt>
      <trkpt lat="48.71275" lon="1.56709">
        <ele>140.80000305176</ele>
        <time>2011-05-22T09:15:23.000Z</time>
      </trkpt>
      <trkpt lat="48.7128" lon="1.56697">
        <ele>140.80000305176</ele>
        <time>2011-05-22T09:15:30.000Z</time>
      </trkpt>
      <trkpt lat="48.71285" lon="1.56683">
        <ele>140.80000305176</ele>
        <time>2011-05-22T09:15:37.000Z</time>
      </trkpt>
      <trkpt lat="48.7129" lon="1.56663">
        <ele>141</ele>
        <time>2011-05-22T09:15:47.000Z</time>
      </trkpt>
      <trkpt lat="48.71294" lon="1.56645">
        <ele>140.80000305176</ele>
        <time>2011-05-22T09:15:56.000Z</time>
      </trkpt>
      <trkpt lat="48.71297" lon="1.56627">
        <ele>140.80000305176</ele>
        <time>2011-05-22T09:16:04.000Z</time>
      </trkpt>
      <trkpt lat="48.71302" lon="1.56605">
        <ele>140.80000305176</ele>
        <time>2011-05-22T09:16:15.000Z</time>
      </trkpt>
      <trkpt lat="48.71307" lon="1.5658">
        <ele>140.80000305176</ele>
        <time>2011-05-22T09:16:27.000Z</time>
      </trkpt>
      <trkpt lat="48.71313" lon="1.56558">
        <ele>140.60000610352</ele>
        <time>2011-05-22T09:16:38.000Z</time>
      </trkpt>
      <trkpt lat="48.71321" lon="1.56535">
        <ele>140.39999389648</ele>
        <time>2011-05-22T09:16:50.000Z</time>
      </trkpt>
      <trkpt lat="48.71325" lon="1.56525">
        <ele>140.19999694824</ele>
        <time>2011-05-22T09:16:56.000Z</time>
      </trkpt>
      <trkpt lat="48.71327" lon="1.56523">
        <ele>140.19999694824</ele>
        <time>2011-05-22T09:16:58.000Z</time>
      </trkpt>
      <trkpt lat="48.71329" lon="1.5652">
        <ele>140.19999694824</ele>
        <time>2011-05-22T09:17:03.000Z</time>
      </trkpt>
      <trkpt lat="48.71332" lon="1.56514">
        <ele>140</ele>
        <time>2011-05-22T09:17:09.000Z</time>
      </trkpt>
      <trkpt lat="48.71339" lon="1.56498">
        <ele>139.80000305176</ele>
        <time>2011-05-22T09:17:16.000Z</time>
      </trkpt>
      <trkpt lat="48.71345" lon="1.5648">
        <ele>139.80000305176</ele>
        <time>2011-05-22T09:17:25.000Z</time>
      </trkpt>
      <trkpt lat="48.71349" lon="1.56469">
        <ele>139.80000305176</ele>
        <time>2011-05-22T09:17:31.000Z</time>
      </trkpt>
      <trkpt lat="48.71351" lon="1.56462">
        <ele>139.80000305176</ele>
        <time>2011-05-22T09:17:34.000Z</time>
      </trkpt>
      <trkpt lat="48.71355" lon="1.56455">
        <ele>139.80000305176</ele>
        <time>2011-05-22T09:17:38.000Z</time>
      </trkpt>
      <trkpt lat="48.71363" lon="1.56436">
        <ele>139.80000305176</ele>
        <time>2011-05-22T09:17:49.000Z</time>
      </trkpt>
      <trkpt lat="48.71369" lon="1.56421">
        <ele>139.80000305176</ele>
        <time>2011-05-22T09:17:57.000Z</time>
      </trkpt>
      <trkpt lat="48.71376" lon="1.56407">
        <ele>139.80000305176</ele>
        <time>2011-05-22T09:18:05.000Z</time>
      </trkpt>
      <trkpt lat="48.71381" lon="1.56396">
        <ele>139.60000610352</ele>
        <time>2011-05-22T09:18:11.000Z</time>
      </trkpt>
      <trkpt lat="48.71386" lon="1.5638">
        <ele>139.39999389648</ele>
        <time>2011-05-22T09:18:19.000Z</time>
      </trkpt>
      <trkpt lat="48.71392" lon="1.56363">
        <ele>139.19999694824</ele>
        <time>2011-05-22T09:18:27.000Z</time>
      </trkpt>
      <trkpt lat="48.71396" lon="1.56346">
        <ele>139</ele>
        <time>2011-05-22T09:18:35.000Z</time>
      </trkpt>
      <trkpt lat="48.71399" lon="1.56334">
        <ele>139</ele>
        <time>2011-05-22T09:18:41.000Z</time>
      </trkpt>
      <trkpt lat="48.71401" lon="1.56321">
        <ele>138.60000610352</ele>
        <time>2011-05-22T09:18:47.000Z</time>
      </trkpt>
      <trkpt lat="48.71404" lon="1.56307">
        <ele>138.39999389648</ele>
        <time>2011-05-22T09:18:54.000Z</time>
      </trkpt>
      <trkpt lat="48.71406" lon="1.56286">
        <ele>138</ele>
        <time>2011-05-22T09:19:04.000Z</time>
      </trkpt>
      <trkpt lat="48.71408" lon="1.56269">
        <ele>137.60000610352</ele>
        <time>2011-05-22T09:19:12.000Z</time>
      </trkpt>
      <trkpt lat="48.7141" lon="1.56253">
        <ele>137.19999694824</ele>
        <time>2011-05-22T09:19:19.000Z</time>
      </trkpt>
      <trkpt lat="48.71412" lon="1.56241">
        <ele>137.19999694824</ele>
        <time>2011-05-22T09:19:25.000Z</time>
      </trkpt>
      <trkpt lat="48.71415" lon="1.56221">
        <ele>137.19999694824</ele>
        <time>2011-05-22T09:19:34.000Z</time>
      </trkpt>
      <trkpt lat="48.71417" lon="1.56209">
        <ele>137.39999389648</ele>
        <time>2011-05-22T09:19:40.000Z</time>
      </trkpt>
      <trkpt lat="48.7142" lon="1.56194">
        <ele>137.60000610352</ele>
        <time>2011-05-22T09:19:47.000Z</time>
      </trkpt>
      <trkpt lat="48.71422" lon="1.56181">
        <ele>137.60000610352</ele>
        <time>2011-05-22T09:19:53.000Z</time>
      </trkpt>
      <trkpt lat="48.71425" lon="1.56164">
        <ele>137.80000305176</ele>
        <time>2011-05-22T09:20:01.000Z</time>
      </trkpt>
      <trkpt lat="48.7143" lon="1.56144">
        <ele>137.39999389648</ele>
        <time>2011-05-22T09:20:11.000Z</time>
      </trkpt>
      <trkpt lat="48.71434" lon="1.56127">
        <ele>137.19999694824</ele>
        <time>2011-05-22T09:20:19.000Z</time>
      </trkpt>
      <trkpt lat="48.71438" lon="1.56112">
        <ele>136.80000305176</ele>
        <time>2011-05-22T09:20:26.000Z</time>
      </trkpt>
      <trkpt lat="48.71444" lon="1.56094">
        <ele>136.39999389648</ele>
        <time>2011-05-22T09:20:35.000Z</time>
      </trkpt>
      <trkpt lat="48.71448" lon="1.56081">
        <ele>136.19999694824</ele>
        <time>2011-05-22T09:20:41.000Z</time>
      </trkpt>
      <trkpt lat="48.71453" lon="1.56068">
        <ele>136</ele>
        <time>2011-05-22T09:20:47.000Z</time>
      </trkpt>
      <trkpt lat="48.71463" lon="1.56045">
        <ele>135.60000610352</ele>
        <time>2011-05-22T09:20:59.000Z</time>
      </trkpt>
      <trkpt lat="48.71467" lon="1.56037">
        <ele>135.39999389648</ele>
        <time>2011-05-22T09:21:03.000Z</time>
      </trkpt>
      <trkpt lat="48.71478" lon="1.56023">
        <ele>135.19999694824</ele>
        <time>2011-05-22T09:21:12.000Z</time>
      </trkpt>
      <trkpt lat="48.71486" lon="1.56016">
        <ele>135</ele>
        <time>2011-05-22T09:21:18.000Z</time>
      </trkpt>
      <trkpt lat="48.71495" lon="1.56014">
        <ele>135</ele>
        <time>2011-05-22T09:21:24.000Z</time>
      </trkpt>
      <trkpt lat="48.71507" lon="1.56015">
        <ele>134.80000305176</ele>
        <time>2011-05-22T09:21:32.000Z</time>
      </trkpt>
      <trkpt lat="48.71518" lon="1.56017">
        <ele>134.80000305176</ele>
        <time>2011-05-22T09:21:39.000Z</time>
      </trkpt>
      <trkpt lat="48.71527" lon="1.56019">
        <ele>134.60000610352</ele>
        <time>2011-05-22T09:21:45.000Z</time>
      </trkpt>
      <trkpt lat="48.71536" lon="1.56017">
        <ele>134.60000610352</ele>
        <time>2011-05-22T09:21:51.000Z</time>
      </trkpt>
      <trkpt lat="48.71549" lon="1.5602">
        <ele>134.39999389648</ele>
        <time>2011-05-22T09:22:00.000Z</time>
      </trkpt>
      <trkpt lat="48.71557" lon="1.56027">
        <ele>134.39999389648</ele>
        <time>2011-05-22T09:22:06.000Z</time>
      </trkpt>
      <trkpt lat="48.7157" lon="1.56039">
        <ele>134.39999389648</ele>
        <time>2011-05-22T09:22:16.000Z</time>
      </trkpt>
      <trkpt lat="48.7158" lon="1.56049">
        <ele>134.60000610352</ele>
        <time>2011-05-22T09:22:24.000Z</time>
      </trkpt>
      <trkpt lat="48.71595" lon="1.56063">
        <ele>134.60000610352</ele>
        <time>2011-05-22T09:22:35.000Z</time>
      </trkpt>
      <trkpt lat="48.71607" lon="1.56077">
        <ele>134.80000305176</ele>
        <time>2011-05-22T09:22:45.000Z</time>
      </trkpt>
      <trkpt lat="48.71613" lon="1.56083">
        <ele>134.80000305176</ele>
        <time>2011-05-22T09:22:50.000Z</time>
      </trkpt>
      <trkpt lat="48.71625" lon="1.56088">
        <ele>135</ele>
        <time>2011-05-22T09:22:58.000Z</time>
      </trkpt>
      <trkpt lat="48.71635" lon="1.56091">
        <ele>135</ele>
        <time>2011-05-22T09:23:05.000Z</time>
      </trkpt>
      <trkpt lat="48.71647" lon="1.5609">
        <ele>135</ele>
        <time>2011-05-22T09:23:13.000Z</time>
      </trkpt>
      <trkpt lat="48.71653" lon="1.56088">
        <ele>135</ele>
        <time>2011-05-22T09:23:17.000Z</time>
      </trkpt>
      <trkpt lat="48.71661" lon="1.56082">
        <ele>134.80000305176</ele>
        <time>2011-05-22T09:23:23.000Z</time>
      </trkpt>
      <trkpt lat="48.71676" lon="1.56075">
        <ele>134.60000610352</ele>
        <time>2011-05-22T09:23:33.000Z</time>
      </trkpt>
      <trkpt lat="48.71687" lon="1.5607">
        <ele>134.39999389648</ele>
        <time>2011-05-22T09:23:40.000Z</time>
      </trkpt>
      <trkpt lat="48.71696" lon="1.56067">
        <ele>134.19999694824</ele>
        <time>2011-05-22T09:23:46.000Z</time>
      </trkpt>
      <trkpt lat="48.71706" lon="1.56061">
        <ele>134</ele>
        <time>2011-05-22T09:23:53.000Z</time>
      </trkpt>
      <trkpt lat="48.71716" lon="1.56057">
        <ele>133.80000305176</ele>
        <time>2011-05-22T09:24:00.000Z</time>
      </trkpt>
      <trkpt lat="48.71724" lon="1.56058">
        <ele>133.60000610352</ele>
        <time>2011-05-22T09:24:05.000Z</time>
      </trkpt>
      <trkpt lat="48.71729" lon="1.56061">
        <ele>133.60000610352</ele>
        <time>2011-05-22T09:24:09.000Z</time>
      </trkpt>
      <trkpt lat="48.71739" lon="1.56063">
        <ele>133.39999389648</ele>
        <time>2011-05-22T09:24:16.000Z</time>
      </trkpt>
      <trkpt lat="48.7175" lon="1.56062">
        <ele>133.19999694824</ele>
        <time>2011-05-22T09:24:23.000Z</time>
      </trkpt>
      <trkpt lat="48.71761" lon="1.56066">
        <ele>133</ele>
        <time>2011-05-22T09:24:30.000Z</time>
      </trkpt>
      <trkpt lat="48.71773" lon="1.56071">
        <ele>132.80000305176</ele>
        <time>2011-05-22T09:24:38.000Z</time>
      </trkpt>
      <trkpt lat="48.71787" lon="1.56069">
        <ele>132.60000610352</ele>
        <time>2011-05-22T09:24:47.000Z</time>
      </trkpt>
      <trkpt lat="48.71788" lon="1.56068">
        <ele>132.60000610352</ele>
        <time>2011-05-22T09:24:48.000Z</time>
      </trkpt>
      <trkpt lat="48.71801" lon="1.56073">
        <ele>132.39999389648</ele>
        <time>2011-05-22T09:24:56.000Z</time>
      </trkpt>
      <trkpt lat="48.71817" lon="1.56083">
        <ele>132</ele>
        <time>2011-05-22T09:25:07.000Z</time>
      </trkpt>
      <trkpt lat="48.71828" lon="1.5609">
        <ele>131.80000305176</ele>
        <time>2011-05-22T09:25:13.000Z</time>
      </trkpt>
      <trkpt lat="48.71854" lon="1.56103">
        <ele>132.19999694824</ele>
        <time>2011-05-22T09:25:21.000Z</time>
      </trkpt>
      <trkpt lat="48.7188" lon="1.56117">
        <ele>132.60000610352</ele>
        <time>2011-05-22T09:25:28.000Z</time>
      </trkpt>
      <trkpt lat="48.71912" lon="1.56134">
        <ele>133.19999694824</ele>
        <time>2011-05-22T09:25:36.000Z</time>
      </trkpt>
      <trkpt lat="48.71942" lon="1.5615">
        <ele>133.60000610352</ele>
        <time>2011-05-22T09:25:43.000Z</time>
      </trkpt>
      <trkpt lat="48.71972" lon="1.56165">
        <ele>134.19999694824</ele>
        <time>2011-05-22T09:25:49.000Z</time>
      </trkpt>
      <trkpt lat="48.72004" lon="1.56179">
        <ele>134.80000305176</ele>
        <time>2011-05-22T09:25:55.000Z</time>
      </trkpt>
      <trkpt lat="48.72039" lon="1.56193">
        <ele>134.60000610352</ele>
        <time>2011-05-22T09:26:01.000Z</time>
      </trkpt>
      <trkpt lat="48.72067" lon="1.56205">
        <ele>134.39999389648</ele>
        <time>2011-05-22T09:26:06.000Z</time>
      </trkpt>
      <trkpt lat="48.72099" lon="1.56217">
        <ele>134.60000610352</ele>
        <time>2011-05-22T09:26:12.000Z</time>
      </trkpt>
      <trkpt lat="48.72143" lon="1.56234">
        <ele>135.39999389648</ele>
        <time>2011-05-22T09:26:20.000Z</time>
      </trkpt>
      <trkpt lat="48.72171" lon="1.56244">
        <ele>136</ele>
        <time>2011-05-22T09:26:25.000Z</time>
      </trkpt>
      <trkpt lat="48.72176" lon="1.56246">
        <ele>136</ele>
        <time>2011-05-22T09:26:26.000Z</time>
      </trkpt>
      <trkpt lat="48.72195" lon="1.5625">
        <ele>136</ele>
        <time>2011-05-22T09:26:31.000Z</time>
      </trkpt>
      <trkpt lat="48.72229" lon="1.56252">
        <ele>135.80000305176</ele>
        <time>2011-05-22T09:26:40.000Z</time>
      </trkpt>
      <trkpt lat="48.72256" lon="1.56256">
        <ele>135.80000305176</ele>
        <time>2011-05-22T09:26:47.000Z</time>
      </trkpt>
      <trkpt lat="48.72292" lon="1.56259">
        <ele>135.39999389648</ele>
        <time>2011-05-22T09:26:56.000Z</time>
      </trkpt>
      <trkpt lat="48.72322" lon="1.56262">
        <ele>135</ele>
        <time>2011-05-22T09:27:04.000Z</time>
      </trkpt>
      <trkpt lat="48.72352" lon="1.56263">
        <ele>135.19999694824</ele>
        <time>2011-05-22T09:27:12.000Z</time>
      </trkpt>
      <trkpt lat="48.72369" lon="1.56265">
        <ele>135.39999389648</ele>
        <time>2011-05-22T09:27:18.000Z</time>
      </trkpt>
      <trkpt lat="48.7238" lon="1.56266">
        <ele>135.39999389648</ele>
        <time>2011-05-22T09:27:24.000Z</time>
      </trkpt>
      <trkpt lat="48.72395" lon="1.56267">
        <ele>135.60000610352</ele>
        <time>2011-05-22T09:27:33.000Z</time>
      </trkpt>
      <trkpt lat="48.72401" lon="1.56268">
        <ele>135.80000305176</ele>
        <time>2011-05-22T09:27:37.000Z</time>
      </trkpt>
      <trkpt lat="48.72412" lon="1.5627">
        <ele>135.80000305176</ele>
        <time>2011-05-22T09:27:44.000Z</time>
      </trkpt>
      <trkpt lat="48.72425" lon="1.56272">
        <ele>136</ele>
        <time>2011-05-22T09:27:52.000Z</time>
      </trkpt>
      <trkpt lat="48.72435" lon="1.56271">
        <ele>136</ele>
        <time>2011-05-22T09:27:57.000Z</time>
      </trkpt>
      <trkpt lat="48.7245" lon="1.56272">
        <ele>136</ele>
        <time>2011-05-22T09:28:05.000Z</time>
      </trkpt>
      <trkpt lat="48.72457" lon="1.56273">
        <ele>136</ele>
        <time>2011-05-22T09:28:09.000Z</time>
      </trkpt>
      <trkpt lat="48.72464" lon="1.56273">
        <ele>136</ele>
        <time>2011-05-22T09:28:13.000Z</time>
      </trkpt>
      <trkpt lat="48.72479" lon="1.56273">
        <ele>136</ele>
        <time>2011-05-22T09:28:22.000Z</time>
      </trkpt>
      <trkpt lat="48.72496" lon="1.56275">
        <ele>136</ele>
        <time>2011-05-22T09:28:32.000Z</time>
      </trkpt>
      <trkpt lat="48.72511" lon="1.56276">
        <ele>136</ele>
        <time>2011-05-22T09:28:41.000Z</time>
      </trkpt>
      <trkpt lat="48.72519" lon="1.56276">
        <ele>136</ele>
        <time>2011-05-22T09:28:46.000Z</time>
      </trkpt>
      <trkpt lat="48.72521" lon="1.56275">
        <ele>136</ele>
        <time>2011-05-22T09:28:51.000Z</time>
      </trkpt>
      <trkpt lat="48.72531" lon="1.56276">
        <ele>136</ele>
        <time>2011-05-22T09:29:20.000Z</time>
      </trkpt>
      <trkpt lat="48.72544" lon="1.56273">
        <ele>136</ele>
        <time>2011-05-22T09:29:27.000Z</time>
      </trkpt>
      <trkpt lat="48.72555" lon="1.56271">
        <ele>136</ele>
        <time>2011-05-22T09:29:33.000Z</time>
      </trkpt>
      <trkpt lat="48.72567" lon="1.56268">
        <ele>136</ele>
        <time>2011-05-22T09:29:40.000Z</time>
      </trkpt>
      <trkpt lat="48.72581" lon="1.56264">
        <ele>136</ele>
        <time>2011-05-22T09:29:48.000Z</time>
      </trkpt>
      <trkpt lat="48.72596" lon="1.56261">
        <ele>136</ele>
        <time>2011-05-22T09:29:57.000Z</time>
      </trkpt>
      <trkpt lat="48.72608" lon="1.56257">
        <ele>136.19999694824</ele>
        <time>2011-05-22T09:30:04.000Z</time>
      </trkpt>
      <trkpt lat="48.72623" lon="1.56254">
        <ele>136.39999389648</ele>
        <time>2011-05-22T09:30:13.000Z</time>
      </trkpt>
      <trkpt lat="48.72637" lon="1.56251">
        <ele>136.60000610352</ele>
        <time>2011-05-22T09:30:22.000Z</time>
      </trkpt>
      <trkpt lat="48.72648" lon="1.56248">
        <ele>136.60000610352</ele>
        <time>2011-05-22T09:30:28.000Z</time>
      </trkpt>
      <trkpt lat="48.72667" lon="1.56243">
        <ele>136.80000305176</ele>
        <time>2011-05-22T09:30:39.000Z</time>
      </trkpt>
      <trkpt lat="48.7268" lon="1.5624">
        <ele>136.80000305176</ele>
        <time>2011-05-22T09:30:46.000Z</time>
      </trkpt>
      <trkpt lat="48.727" lon="1.56236">
        <ele>136.80000305176</ele>
        <time>2011-05-22T09:30:58.000Z</time>
      </trkpt>
      <trkpt lat="48.72711" lon="1.56233">
        <ele>136.80000305176</ele>
        <time>2011-05-22T09:31:04.000Z</time>
      </trkpt>
      <trkpt lat="48.72723" lon="1.56231">
        <ele>136.80000305176</ele>
        <time>2011-05-22T09:31:13.000Z</time>
      </trkpt>
      <trkpt lat="48.72731" lon="1.56231">
        <ele>136.80000305176</ele>
        <time>2011-05-22T09:31:18.000Z</time>
      </trkpt>
      <trkpt lat="48.72743" lon="1.56234">
        <ele>136.80000305176</ele>
        <time>2011-05-22T09:31:25.000Z</time>
      </trkpt>
      <trkpt lat="48.72757" lon="1.56239">
        <ele>136.80000305176</ele>
        <time>2011-05-22T09:31:34.000Z</time>
      </trkpt>
      <trkpt lat="48.72773" lon="1.56245">
        <ele>136.60000610352</ele>
        <time>2011-05-22T09:31:44.000Z</time>
      </trkpt>
      <trkpt lat="48.72789" lon="1.56251">
        <ele>136.39999389648</ele>
        <time>2011-05-22T09:31:54.000Z</time>
      </trkpt>
      <trkpt lat="48.72806" lon="1.56257">
        <ele>136.19999694824</ele>
        <time>2011-05-22T09:32:05.000Z</time>
      </trkpt>
      <trkpt lat="48.72819" lon="1.56262">
        <ele>136.19999694824</ele>
        <time>2011-05-22T09:32:15.000Z</time>
      </trkpt>
      <trkpt lat="48.72829" lon="1.56266">
        <ele>136.19999694824</ele>
        <time>2011-05-22T09:32:24.000Z</time>
      </trkpt>
      <trkpt lat="48.72841" lon="1.5627">
        <ele>136.19999694824</ele>
        <time>2011-05-22T09:32:32.000Z</time>
      </trkpt>
      <trkpt lat="48.72846" lon="1.56273">
        <ele>136.39999389648</ele>
        <time>2011-05-22T09:32:36.000Z</time>
      </trkpt>
      <trkpt lat="48.72849" lon="1.56287">
        <ele>136.60000610352</ele>
        <time>2011-05-22T09:32:43.000Z</time>
      </trkpt>
      <trkpt lat="48.72843" lon="1.56302">
        <ele>136.80000305176</ele>
        <time>2011-05-22T09:32:50.000Z</time>
      </trkpt>
      <trkpt lat="48.72833" lon="1.56317">
        <ele>136.80000305176</ele>
        <time>2011-05-22T09:32:58.000Z</time>
      </trkpt>
      <trkpt lat="48.72823" lon="1.5633">
        <ele>136.80000305176</ele>
        <time>2011-05-22T09:33:06.000Z</time>
      </trkpt>
      <trkpt lat="48.72813" lon="1.56341">
        <ele>137</ele>
        <time>2011-05-22T09:33:13.000Z</time>
      </trkpt>
      <trkpt lat="48.72798" lon="1.56361">
        <ele>137</ele>
        <time>2011-05-22T09:33:25.000Z</time>
      </trkpt>
      <trkpt lat="48.72784" lon="1.56379">
        <ele>137.19999694824</ele>
        <time>2011-05-22T09:33:36.000Z</time>
      </trkpt>
      <trkpt lat="48.72767" lon="1.56399">
        <ele>137.60000610352</ele>
        <time>2011-05-22T09:33:49.000Z</time>
      </trkpt>
      <trkpt lat="48.72751" lon="1.56409">
        <ele>137.80000305176</ele>
        <time>2011-05-22T09:33:59.000Z</time>
      </trkpt>
      <trkpt lat="48.72738" lon="1.56416">
        <ele>137.80000305176</ele>
        <time>2011-05-22T09:34:08.000Z</time>
      </trkpt>
      <trkpt lat="48.72723" lon="1.56427">
        <ele>137.60000610352</ele>
        <time>2011-05-22T09:34:18.000Z</time>
      </trkpt>
      <trkpt lat="48.72717" lon="1.56445">
        <ele>137.60000610352</ele>
        <time>2011-05-22T09:34:26.000Z</time>
      </trkpt>
      <trkpt lat="48.72716" lon="1.56447">
        <ele>137.60000610352</ele>
        <time>2011-05-22T09:34:27.000Z</time>
      </trkpt>
      <trkpt lat="48.72713" lon="1.56458">
        <ele>137.60000610352</ele>
        <time>2011-05-22T09:34:32.000Z</time>
      </trkpt>
      <trkpt lat="48.72711" lon="1.56475">
        <ele>137.80000305176</ele>
        <time>2011-05-22T09:34:39.000Z</time>
      </trkpt>
      <trkpt lat="48.72708" lon="1.56495">
        <ele>137.80000305176</ele>
        <time>2011-05-22T09:34:46.000Z</time>
      </trkpt>
      <trkpt lat="48.72705" lon="1.56517">
        <ele>137.80000305176</ele>
        <time>2011-05-22T09:34:54.000Z</time>
      </trkpt>
      <trkpt lat="48.72704" lon="1.5653">
        <ele>137.80000305176</ele>
        <time>2011-05-22T09:34:59.000Z</time>
      </trkpt>
      <trkpt lat="48.72704" lon="1.56542">
        <ele>137.60000610352</ele>
        <time>2011-05-22T09:35:06.000Z</time>
      </trkpt>
      <trkpt lat="48.72704" lon="1.56542">
        <ele>137.60000610352</ele>
        <time>2011-05-22T09:35:07.000Z</time>
      </trkpt>
      <trkpt lat="48.72703" lon="1.56552">
        <ele>137.60000610352</ele>
        <time>2011-05-22T09:35:31.000Z</time>
      </trkpt>
      <trkpt lat="48.72701" lon="1.56574">
        <ele>137.39999389648</ele>
        <time>2011-05-22T09:35:40.000Z</time>
      </trkpt>
      <trkpt lat="48.727" lon="1.56589">
        <ele>137.39999389648</ele>
        <time>2011-05-22T09:35:47.000Z</time>
      </trkpt>
      <trkpt lat="48.72699" lon="1.56608">
        <ele>137.39999389648</ele>
        <time>2011-05-22T09:35:55.000Z</time>
      </trkpt>
      <trkpt lat="48.72697" lon="1.56633">
        <ele>137.39999389648</ele>
        <time>2011-05-22T09:36:05.000Z</time>
      </trkpt>
      <trkpt lat="48.72696" lon="1.56643">
        <ele>137.60000610352</ele>
        <time>2011-05-22T09:36:10.000Z</time>
      </trkpt>
      <trkpt lat="48.72695" lon="1.56656">
        <ele>137.60000610352</ele>
        <time>2011-05-22T09:36:16.000Z</time>
      </trkpt>
      <trkpt lat="48.72692" lon="1.56674">
        <ele>137.39999389648</ele>
        <time>2011-05-22T09:36:23.000Z</time>
      </trkpt>
      <trkpt lat="48.72689" lon="1.56691">
        <ele>137.19999694824</ele>
        <time>2011-05-22T09:36:29.000Z</time>
      </trkpt>
      <trkpt lat="48.72687" lon="1.56714">
        <ele>137.19999694824</ele>
        <time>2011-05-22T09:36:38.000Z</time>
      </trkpt>
      <trkpt lat="48.72683" lon="1.56734">
        <ele>137</ele>
        <time>2011-05-22T09:36:46.000Z</time>
      </trkpt>
      <trkpt lat="48.72679" lon="1.56751">
        <ele>136.80000305176</ele>
        <time>2011-05-22T09:36:53.000Z</time>
      </trkpt>
      <trkpt lat="48.72674" lon="1.56772">
        <ele>136.80000305176</ele>
        <time>2011-05-22T09:37:01.000Z</time>
      </trkpt>
      <trkpt lat="48.7267" lon="1.56793">
        <ele>136.80000305176</ele>
        <time>2011-05-22T09:37:09.000Z</time>
      </trkpt>
      <trkpt lat="48.72665" lon="1.56815">
        <ele>136.80000305176</ele>
        <time>2011-05-22T09:37:18.000Z</time>
      </trkpt>
      <trkpt lat="48.72659" lon="1.56832">
        <ele>136.80000305176</ele>
        <time>2011-05-22T09:37:26.000Z</time>
      </trkpt>
      <trkpt lat="48.72655" lon="1.56849">
        <ele>136.39999389648</ele>
        <time>2011-05-22T09:37:33.000Z</time>
      </trkpt>
      <trkpt lat="48.72649" lon="1.56872">
        <ele>136.19999694824</ele>
        <time>2011-05-22T09:37:42.000Z</time>
      </trkpt>
      <trkpt lat="48.72643" lon="1.56894">
        <ele>135.80000305176</ele>
        <time>2011-05-22T09:37:51.000Z</time>
      </trkpt>
      <trkpt lat="48.72636" lon="1.56915">
        <ele>135.60000610352</ele>
        <time>2011-05-22T09:38:00.000Z</time>
      </trkpt>
      <trkpt lat="48.72627" lon="1.56945">
        <ele>135.19999694824</ele>
        <time>2011-05-22T09:38:13.000Z</time>
      </trkpt>
      <trkpt lat="48.72622" lon="1.56968">
        <ele>135</ele>
        <time>2011-05-22T09:38:22.000Z</time>
      </trkpt>
      <trkpt lat="48.72616" lon="1.56989">
        <ele>135</ele>
        <time>2011-05-22T09:38:31.000Z</time>
      </trkpt>
      <trkpt lat="48.72607" lon="1.57021">
        <ele>135</ele>
        <time>2011-05-22T09:38:44.000Z</time>
      </trkpt>
      <trkpt lat="48.72603" lon="1.57031">
        <ele>135</ele>
        <time>2011-05-22T09:38:50.000Z</time>
      </trkpt>
      <trkpt lat="48.72599" lon="1.57044">
        <ele>135</ele>
        <time>2011-05-22T09:38:56.000Z</time>
      </trkpt>
      <trkpt lat="48.72595" lon="1.57057">
        <ele>135</ele>
        <time>2011-05-22T09:39:02.000Z</time>
      </trkpt>
      <trkpt lat="48.7259" lon="1.57073">
        <ele>135</ele>
        <time>2011-05-22T09:39:09.000Z</time>
      </trkpt>
      <trkpt lat="48.72581" lon="1.571">
        <ele>134.39999389648</ele>
        <time>2011-05-22T09:39:21.000Z</time>
      </trkpt>
      <trkpt lat="48.72574" lon="1.5712">
        <ele>134</ele>
        <time>2011-05-22T09:39:30.000Z</time>
      </trkpt>
      <trkpt lat="48.72566" lon="1.57139">
        <ele>133.39999389648</ele>
        <time>2011-05-22T09:39:39.000Z</time>
      </trkpt>
      <trkpt lat="48.72557" lon="1.57163">
        <ele>133</ele>
        <time>2011-05-22T09:39:50.000Z</time>
      </trkpt>
      <trkpt lat="48.72552" lon="1.57177">
        <ele>132.80000305176</ele>
        <time>2011-05-22T09:39:56.000Z</time>
      </trkpt>
      <trkpt lat="48.72546" lon="1.57193">
        <ele>132.80000305176</ele>
        <time>2011-05-22T09:40:03.000Z</time>
      </trkpt>
      <trkpt lat="48.7254" lon="1.57207">
        <ele>132.60000610352</ele>
        <time>2011-05-22T09:40:09.000Z</time>
      </trkpt>
      <trkpt lat="48.72533" lon="1.57229">
        <ele>132.39999389648</ele>
        <time>2011-05-22T09:40:19.000Z</time>
      </trkpt>
      <trkpt lat="48.72526" lon="1.57249">
        <ele>132.19999694824</ele>
        <time>2011-05-22T09:40:28.000Z</time>
      </trkpt>
      <trkpt lat="48.72519" lon="1.5727">
        <ele>132.19999694824</ele>
        <time>2011-05-22T09:40:38.000Z</time>
      </trkpt>
      <trkpt lat="48.72508" lon="1.57298">
        <ele>132</ele>
        <time>2011-05-22T09:40:51.000Z</time>
      </trkpt>
      <trkpt lat="48.72502" lon="1.57317">
        <ele>132</ele>
        <time>2011-05-22T09:41:00.000Z</time>
      </trkpt>
      <trkpt lat="48.72496" lon="1.57333">
        <ele>131.80000305176</ele>
        <time>2011-05-22T09:41:07.000Z</time>
      </trkpt>
      <trkpt lat="48.72487" lon="1.57353">
        <ele>131.80000305176</ele>
        <time>2011-05-22T09:41:17.000Z</time>
      </trkpt>
      <trkpt lat="48.72476" lon="1.57376">
        <ele>131.60000610352</ele>
        <time>2011-05-22T09:41:28.000Z</time>
      </trkpt>
      <trkpt lat="48.72466" lon="1.57395">
        <ele>131.39999389648</ele>
        <time>2011-05-22T09:41:38.000Z</time>
      </trkpt>
      <trkpt lat="48.72457" lon="1.57413">
        <ele>131.39999389648</ele>
        <time>2011-05-22T09:41:47.000Z</time>
      </trkpt>
      <trkpt lat="48.72447" lon="1.57434">
        <ele>131.19999694824</ele>
        <time>2011-05-22T09:41:57.000Z</time>
      </trkpt>
      <trkpt lat="48.7244" lon="1.57445">
        <ele>131.19999694824</ele>
        <time>2011-05-22T09:42:04.000Z</time>
      </trkpt>
      <trkpt lat="48.72435" lon="1.57454">
        <ele>131.19999694824</ele>
        <time>2011-05-22T09:42:10.000Z</time>
      </trkpt>
      <trkpt lat="48.72428" lon="1.57463">
        <ele>131</ele>
        <time>2011-05-22T09:42:16.000Z</time>
      </trkpt>
      <trkpt lat="48.72424" lon="1.57472">
        <ele>131</ele>
        <time>2011-05-22T09:42:20.000Z</time>
      </trkpt>
      <trkpt lat="48.7242" lon="1.57485">
        <ele>131</ele>
        <time>2011-05-22T09:42:25.000Z</time>
      </trkpt>
      <trkpt lat="48.72414" lon="1.57501">
        <ele>131</ele>
        <time>2011-05-22T09:42:32.000Z</time>
      </trkpt>
      <trkpt lat="48.72408" lon="1.57516">
        <ele>131.19999694824</ele>
        <time>2011-05-22T09:42:39.000Z</time>
      </trkpt>
      <trkpt lat="48.72407" lon="1.57519">
        <ele>131.19999694824</ele>
        <time>2011-05-22T09:42:40.000Z</time>
      </trkpt>
      <trkpt lat="48.72401" lon="1.57537">
        <ele>131.60000610352</ele>
        <time>2011-05-22T09:42:48.000Z</time>
      </trkpt>
      <trkpt lat="48.72391" lon="1.57564">
        <ele>132.19999694824</ele>
        <time>2011-05-22T09:42:59.000Z</time>
      </trkpt>
      <trkpt lat="48.72385" lon="1.57581">
        <ele>132.60000610352</ele>
        <time>2011-05-22T09:43:06.000Z</time>
      </trkpt>
      <trkpt lat="48.72375" lon="1.57606">
        <ele>133</ele>
        <time>2011-05-22T09:43:17.000Z</time>
      </trkpt>
      <trkpt lat="48.72367" lon="1.57625">
        <ele>133.39999389648</ele>
        <time>2011-05-22T09:43:25.000Z</time>
      </trkpt>
      <trkpt lat="48.7236" lon="1.5764">
        <ele>133.80000305176</ele>
        <time>2011-05-22T09:43:30.000Z</time>
      </trkpt>
      <trkpt lat="48.72353" lon="1.57657">
        <ele>134</ele>
        <time>2011-05-22T09:43:36.000Z</time>
      </trkpt>
      <trkpt lat="48.72344" lon="1.57678">
        <ele>134.39999389648</ele>
        <time>2011-05-22T09:43:42.000Z</time>
      </trkpt>
      <trkpt lat="48.72332" lon="1.57707">
        <ele>134.39999389648</ele>
        <time>2011-05-22T09:43:48.000Z</time>
      </trkpt>
      <trkpt lat="48.72316" lon="1.5775">
        <ele>133.80000305176</ele>
        <time>2011-05-22T09:43:56.000Z</time>
      </trkpt>
      <trkpt lat="48.72302" lon="1.57783">
        <ele>133.80000305176</ele>
        <time>2011-05-22T09:44:02.000Z</time>
      </trkpt>
      <trkpt lat="48.72283" lon="1.57833">
        <ele>134.19999694824</ele>
        <time>2011-05-22T09:44:11.000Z</time>
      </trkpt>
      <trkpt lat="48.72269" lon="1.5787">
        <ele>134.19999694824</ele>
        <time>2011-05-22T09:44:17.000Z</time>
      </trkpt>
      <trkpt lat="48.72248" lon="1.57923">
        <ele>133.80000305176</ele>
        <time>2011-05-22T09:44:25.000Z</time>
      </trkpt>
      <trkpt lat="48.7223" lon="1.57968">
        <ele>132.80000305176</ele>
        <time>2011-05-22T09:44:31.000Z</time>
      </trkpt>
      <trkpt lat="48.72214" lon="1.5801">
        <ele>132.19999694824</ele>
        <time>2011-05-22T09:44:37.000Z</time>
      </trkpt>
      <trkpt lat="48.72192" lon="1.58064">
        <ele>132.39999389648</ele>
        <time>2011-05-22T09:44:44.000Z</time>
      </trkpt>
      <trkpt lat="48.72174" lon="1.58107">
        <ele>132.80000305176</ele>
        <time>2011-05-22T09:44:49.000Z</time>
      </trkpt>
      <trkpt lat="48.72166" lon="1.58124">
        <ele>133</ele>
        <time>2011-05-22T09:44:51.000Z</time>
      </trkpt>
      <trkpt lat="48.72138" lon="1.58192">
        <ele>132.39999389648</ele>
        <time>2011-05-22T09:44:59.000Z</time>
      </trkpt>
      <trkpt lat="48.72119" lon="1.58237">
        <ele>131.60000610352</ele>
        <time>2011-05-22T09:45:06.000Z</time>
      </trkpt>
      <trkpt lat="48.72105" lon="1.58272">
        <ele>131.60000610352</ele>
        <time>2011-05-22T09:45:12.000Z</time>
      </trkpt>
      <trkpt lat="48.72099" lon="1.58286">
        <ele>131.60000610352</ele>
        <time>2011-05-22T09:45:15.000Z</time>
      </trkpt>
      <trkpt lat="48.72093" lon="1.583">
        <ele>131.39999389648</ele>
        <time>2011-05-22T09:45:20.000Z</time>
      </trkpt>
      <trkpt lat="48.72092" lon="1.58305">
        <ele>131.39999389648</ele>
        <time>2011-05-22T09:45:22.000Z</time>
      </trkpt>
      <trkpt lat="48.72084" lon="1.58323">
        <ele>131</ele>
        <time>2011-05-22T09:45:30.000Z</time>
      </trkpt>
      <trkpt lat="48.72077" lon="1.58343">
        <ele>131</ele>
        <time>2011-05-22T09:45:38.000Z</time>
      </trkpt>
      <trkpt lat="48.72069" lon="1.58363">
        <ele>131.19999694824</ele>
        <time>2011-05-22T09:45:47.000Z</time>
      </trkpt>
      <trkpt lat="48.72061" lon="1.58384">
        <ele>131.19999694824</ele>
        <time>2011-05-22T09:45:57.000Z</time>
      </trkpt>
      <trkpt lat="48.72054" lon="1.58403">
        <ele>131.19999694824</ele>
        <time>2011-05-22T09:46:06.000Z</time>
      </trkpt>
      <trkpt lat="48.72046" lon="1.58423">
        <ele>131</ele>
        <time>2011-05-22T09:46:16.000Z</time>
      </trkpt>
      <trkpt lat="48.72039" lon="1.58442">
        <ele>130.80000305176</ele>
        <time>2011-05-22T09:46:25.000Z</time>
      </trkpt>
      <trkpt lat="48.7203" lon="1.58463">
        <ele>130.39999389648</ele>
        <time>2011-05-22T09:46:35.000Z</time>
      </trkpt>
      <trkpt lat="48.72023" lon="1.58482">
        <ele>130.19999694824</ele>
        <time>2011-05-22T09:46:44.000Z</time>
      </trkpt>
      <trkpt lat="48.72015" lon="1.58503">
        <ele>129.60000610352</ele>
        <time>2011-05-22T09:46:54.000Z</time>
      </trkpt>
      <trkpt lat="48.72008" lon="1.58519">
        <ele>129.80000305176</ele>
        <time>2011-05-22T09:47:02.000Z</time>
      </trkpt>
      <trkpt lat="48.72002" lon="1.58536">
        <ele>129.80000305176</ele>
        <time>2011-05-22T09:47:10.000Z</time>
      </trkpt>
      <trkpt lat="48.72001" lon="1.58537">
        <ele>129.80000305176</ele>
        <time>2011-05-22T09:47:13.000Z</time>
      </trkpt>
      <trkpt lat="48.72006" lon="1.5853">
        <ele>129.80000305176</ele>
        <time>2011-05-22T09:47:34.000Z</time>
      </trkpt>
      <trkpt lat="48.72013" lon="1.58525">
        <ele>130</ele>
        <time>2011-05-22T09:47:37.000Z</time>
      </trkpt>
      <trkpt lat="48.72014" lon="1.58527">
        <ele>130</ele>
        <time>2011-05-22T09:47:38.000Z</time>
      </trkpt>
      <trkpt lat="48.72023" lon="1.5854">
        <ele>130.60000610352</ele>
        <time>2011-05-22T09:47:45.000Z</time>
      </trkpt>
      <trkpt lat="48.72032" lon="1.58554">
        <ele>131</ele>
        <time>2011-05-22T09:47:53.000Z</time>
      </trkpt>
      <trkpt lat="48.72045" lon="1.58569">
        <ele>131.39999389648</ele>
        <time>2011-05-22T09:48:03.000Z</time>
      </trkpt>
      <trkpt lat="48.72052" lon="1.58574">
        <ele>131.60000610352</ele>
        <time>2011-05-22T09:48:09.000Z</time>
      </trkpt>
      <trkpt lat="48.72054" lon="1.58576">
        <ele>131.60000610352</ele>
        <time>2011-05-22T09:48:13.000Z</time>
      </trkpt>
      <trkpt lat="48.7206" lon="1.5858">
        <ele>131.60000610352</ele>
        <time>2011-05-22T09:48:21.000Z</time>
      </trkpt>
      <trkpt lat="48.72068" lon="1.58582">
        <ele>131.80000305176</ele>
        <time>2011-05-22T09:48:26.000Z</time>
      </trkpt>
      <trkpt lat="48.72069" lon="1.58582">
        <ele>131.80000305176</ele>
        <time>2011-05-22T09:48:27.000Z</time>
      </trkpt>
      <trkpt lat="48.72071" lon="1.58582">
        <ele>131.80000305176</ele>
        <time>2011-05-22T09:48:30.000Z</time>
      </trkpt>
      <trkpt lat="48.72073" lon="1.58583">
        <ele>131.80000305176</ele>
        <time>2011-05-22T09:48:33.000Z</time>
      </trkpt>
      <trkpt lat="48.72082" lon="1.58584">
        <ele>131.80000305176</ele>
        <time>2011-05-22T09:48:38.000Z</time>
      </trkpt>
      <trkpt lat="48.72089" lon="1.58585">
        <ele>132.39999389648</ele>
        <time>2011-05-22T09:48:43.000Z</time>
      </trkpt>
      <trkpt lat="48.72102" lon="1.58588">
        <ele>133.80000305176</ele>
        <time>2011-05-22T09:48:52.000Z</time>
      </trkpt>
      <trkpt lat="48.72111" lon="1.58588">
        <ele>134.60000610352</ele>
        <time>2011-05-22T09:48:58.000Z</time>
      </trkpt>
      <trkpt lat="48.72122" lon="1.5859">
        <ele>135.39999389648</ele>
        <time>2011-05-22T09:49:05.000Z</time>
      </trkpt>
      <trkpt lat="48.7213" lon="1.58592">
        <ele>136.19999694824</ele>
        <time>2011-05-22T09:49:11.000Z</time>
      </trkpt>
      <trkpt lat="48.72139" lon="1.58594">
        <ele>137</ele>
        <time>2011-05-22T09:49:17.000Z</time>
      </trkpt>
      <trkpt lat="48.72151" lon="1.58595">
        <ele>138</ele>
        <time>2011-05-22T09:49:25.000Z</time>
      </trkpt>
      <trkpt lat="48.72161" lon="1.58597">
        <ele>138.80000305176</ele>
        <time>2011-05-22T09:49:33.000Z</time>
      </trkpt>
      <trkpt lat="48.72172" lon="1.586">
        <ele>139.19999694824</ele>
        <time>2011-05-22T09:49:42.000Z</time>
      </trkpt>
      <trkpt lat="48.72184" lon="1.58603">
        <ele>139</ele>
        <time>2011-05-22T09:49:51.000Z</time>
      </trkpt>
      <trkpt lat="48.72189" lon="1.58605">
        <ele>138.80000305176</ele>
        <time>2011-05-22T09:49:57.000Z</time>
      </trkpt>
      <trkpt lat="48.72195" lon="1.58606">
        <ele>138.80000305176</ele>
        <time>2011-05-22T09:50:08.000Z</time>
      </trkpt>
      <trkpt lat="48.72204" lon="1.58609">
        <ele>138.60000610352</ele>
        <time>2011-05-22T09:50:14.000Z</time>
      </trkpt>
      <trkpt lat="48.72218" lon="1.5861">
        <ele>138.60000610352</ele>
        <time>2011-05-22T09:50:23.000Z</time>
      </trkpt>
      <trkpt lat="48.72231" lon="1.58612">
        <ele>138.60000610352</ele>
        <time>2011-05-22T09:50:32.000Z</time>
      </trkpt>
      <trkpt lat="48.72245" lon="1.58614">
        <ele>138.39999389648</ele>
        <time>2011-05-22T09:50:41.000Z</time>
      </trkpt>
      <trkpt lat="48.72261" lon="1.58618">
        <ele>137.80000305176</ele>
        <time>2011-05-22T09:50:52.000Z</time>
      </trkpt>
      <trkpt lat="48.72275" lon="1.58618">
        <ele>137.39999389648</ele>
        <time>2011-05-22T09:51:01.000Z</time>
      </trkpt>
      <trkpt lat="48.72288" lon="1.58621">
        <ele>136.80000305176</ele>
        <time>2011-05-22T09:51:10.000Z</time>
      </trkpt>
      <trkpt lat="48.72299" lon="1.5862">
        <ele>136.60000610352</ele>
        <time>2011-05-22T09:51:17.000Z</time>
      </trkpt>
      <trkpt lat="48.72309" lon="1.58626">
        <ele>136</ele>
        <time>2011-05-22T09:51:24.000Z</time>
      </trkpt>
      <trkpt lat="48.72322" lon="1.58627">
        <ele>135.80000305176</ele>
        <time>2011-05-22T09:51:31.000Z</time>
      </trkpt>
      <trkpt lat="48.7233" lon="1.58627">
        <ele>135.39999389648</ele>
        <time>2011-05-22T09:51:36.000Z</time>
      </trkpt>
      <trkpt lat="48.7234" lon="1.58629">
        <ele>135.39999389648</ele>
        <time>2011-05-22T09:51:43.000Z</time>
      </trkpt>
      <trkpt lat="48.72348" lon="1.58631">
        <ele>135.39999389648</ele>
        <time>2011-05-22T09:51:48.000Z</time>
      </trkpt>
      <trkpt lat="48.72362" lon="1.58633">
        <ele>135.60000610352</ele>
        <time>2011-05-22T09:51:56.000Z</time>
      </trkpt>
      <trkpt lat="48.72371" lon="1.58634">
        <ele>135.60000610352</ele>
        <time>2011-05-22T09:52:02.000Z</time>
      </trkpt>
      <trkpt lat="48.72382" lon="1.5864">
        <ele>135.60000610352</ele>
        <time>2011-05-22T09:52:09.000Z</time>
      </trkpt>
      <trkpt lat="48.72398" lon="1.58646">
        <ele>135.80000305176</ele>
        <time>2011-05-22T09:52:17.000Z</time>
      </trkpt>
      <trkpt lat="48.7241" lon="1.58651">
        <ele>135.80000305176</ele>
        <time>2011-05-22T09:52:25.000Z</time>
      </trkpt>
      <trkpt lat="48.72422" lon="1.58657">
        <ele>136</ele>
        <time>2011-05-22T09:52:33.000Z</time>
      </trkpt>
      <trkpt lat="48.72431" lon="1.58661">
        <ele>136</ele>
        <time>2011-05-22T09:52:39.000Z</time>
      </trkpt>
      <trkpt lat="48.7244" lon="1.58664">
        <ele>136.19999694824</ele>
        <time>2011-05-22T09:52:45.000Z</time>
      </trkpt>
      <trkpt lat="48.72454" lon="1.58672">
        <ele>136.39999389648</ele>
        <time>2011-05-22T09:52:55.000Z</time>
      </trkpt>
      <trkpt lat="48.72466" lon="1.58677">
        <ele>136.60000610352</ele>
        <time>2011-05-22T09:53:03.000Z</time>
      </trkpt>
      <trkpt lat="48.7247" lon="1.58678">
        <ele>136.60000610352</ele>
        <time>2011-05-22T09:53:06.000Z</time>
      </trkpt>
      <trkpt lat="48.72479" lon="1.58682">
        <ele>136.60000610352</ele>
        <time>2011-05-22T09:53:12.000Z</time>
      </trkpt>
      <trkpt lat="48.72495" lon="1.58689">
        <ele>136.80000305176</ele>
        <time>2011-05-22T09:53:23.000Z</time>
      </trkpt>
      <trkpt lat="48.7251" lon="1.58696">
        <ele>136.60000610352</ele>
        <time>2011-05-22T09:53:34.000Z</time>
      </trkpt>
      <trkpt lat="48.72523" lon="1.58702">
        <ele>136</ele>
        <time>2011-05-22T09:53:43.000Z</time>
      </trkpt>
      <trkpt lat="48.72533" lon="1.58706">
        <ele>135.80000305176</ele>
        <time>2011-05-22T09:53:50.000Z</time>
      </trkpt>
      <trkpt lat="48.72543" lon="1.58712">
        <ele>135.39999389648</ele>
        <time>2011-05-22T09:53:58.000Z</time>
      </trkpt>
      <trkpt lat="48.72551" lon="1.58714">
        <ele>135</ele>
        <time>2011-05-22T09:54:03.000Z</time>
      </trkpt>
      <trkpt lat="48.72563" lon="1.58715">
        <ele>134.60000610352</ele>
        <time>2011-05-22T09:54:11.000Z</time>
      </trkpt>
      <trkpt lat="48.72576" lon="1.58717">
        <ele>134.19999694824</ele>
        <time>2011-05-22T09:54:20.000Z</time>
      </trkpt>
      <trkpt lat="48.72583" lon="1.58717">
        <ele>134</ele>
        <time>2011-05-22T09:54:25.000Z</time>
      </trkpt>
      <trkpt lat="48.72593" lon="1.58716">
        <ele>133.60000610352</ele>
        <time>2011-05-22T09:54:32.000Z</time>
      </trkpt>
      <trkpt lat="48.72607" lon="1.58719">
        <ele>133.39999389648</ele>
        <time>2011-05-22T09:54:41.000Z</time>
      </trkpt>
      <trkpt lat="48.7262" lon="1.58722">
        <ele>133</ele>
        <time>2011-05-22T09:54:49.000Z</time>
      </trkpt>
      <trkpt lat="48.72626" lon="1.58724">
        <ele>132.80000305176</ele>
        <time>2011-05-22T09:54:53.000Z</time>
      </trkpt>
      <trkpt lat="48.72638" lon="1.58727">
        <ele>132.60000610352</ele>
        <time>2011-05-22T09:55:00.000Z</time>
      </trkpt>
      <trkpt lat="48.72653" lon="1.58733">
        <ele>132.19999694824</ele>
        <time>2011-05-22T09:55:09.000Z</time>
      </trkpt>
      <trkpt lat="48.72673" lon="1.58741">
        <ele>131.80000305176</ele>
        <time>2011-05-22T09:55:21.000Z</time>
      </trkpt>
      <trkpt lat="48.72683" lon="1.58745">
        <ele>131.60000610352</ele>
        <time>2011-05-22T09:55:27.000Z</time>
      </trkpt>
      <trkpt lat="48.72696" lon="1.5875">
        <ele>131.19999694824</ele>
        <time>2011-05-22T09:55:35.000Z</time>
      </trkpt>
      <trkpt lat="48.72715" lon="1.58755">
        <ele>130.80000305176</ele>
        <time>2011-05-22T09:55:47.000Z</time>
      </trkpt>
      <trkpt lat="48.72729" lon="1.58761">
        <ele>130.39999389648</ele>
        <time>2011-05-22T09:55:56.000Z</time>
      </trkpt>
      <trkpt lat="48.72743" lon="1.58765">
        <ele>130</ele>
        <time>2011-05-22T09:56:05.000Z</time>
      </trkpt>
      <trkpt lat="48.72756" lon="1.58774">
        <ele>129.60000610352</ele>
        <time>2011-05-22T09:56:14.000Z</time>
      </trkpt>
      <trkpt lat="48.72768" lon="1.58773">
        <ele>129.19999694824</ele>
        <time>2011-05-22T09:56:22.000Z</time>
      </trkpt>
      <trkpt lat="48.72782" lon="1.58771">
        <ele>128.80000305176</ele>
        <time>2011-05-22T09:56:30.000Z</time>
      </trkpt>
      <trkpt lat="48.72796" lon="1.58769">
        <ele>128.19999694824</ele>
        <time>2011-05-22T09:56:39.000Z</time>
      </trkpt>
      <trkpt lat="48.72804" lon="1.58769">
        <ele>128</ele>
        <time>2011-05-22T09:56:44.000Z</time>
      </trkpt>
      <trkpt lat="48.7281" lon="1.58768">
        <ele>127.80000305176</ele>
        <time>2011-05-22T09:56:48.000Z</time>
      </trkpt>
      <trkpt lat="48.72824" lon="1.58767">
        <ele>127.19999694824</ele>
        <time>2011-05-22T09:56:56.000Z</time>
      </trkpt>
      <trkpt lat="48.72836" lon="1.58766">
        <ele>127</ele>
        <time>2011-05-22T09:57:03.000Z</time>
      </trkpt>
      <trkpt lat="48.72853" lon="1.58764">
        <ele>127.19999694824</ele>
        <time>2011-05-22T09:57:14.000Z</time>
      </trkpt>
      <trkpt lat="48.72856" lon="1.58763">
        <ele>127.19999694824</ele>
        <time>2011-05-22T09:57:16.000Z</time>
      </trkpt>
      <trkpt lat="48.72858" lon="1.58762">
        <ele>127.19999694824</ele>
        <time>2011-05-22T09:57:20.000Z</time>
      </trkpt>
      <trkpt lat="48.72866" lon="1.58762">
        <ele>127.19999694824</ele>
        <time>2011-05-22T09:57:30.000Z</time>
      </trkpt>
      <trkpt lat="48.72884" lon="1.58761">
        <ele>127.59999847412</ele>
        <time>2011-05-22T09:57:40.000Z</time>
      </trkpt>
      <trkpt lat="48.729" lon="1.58759">
        <ele>127.59999847412</ele>
        <time>2011-05-22T09:57:49.000Z</time>
      </trkpt>
      <trkpt lat="48.72913" lon="1.58759">
        <ele>127.80000305176</ele>
        <time>2011-05-22T09:57:55.000Z</time>
      </trkpt>
      <trkpt lat="48.72931" lon="1.58757">
        <ele>128.39999389648</ele>
        <time>2011-05-22T09:58:02.000Z</time>
      </trkpt>
      <trkpt lat="48.7295" lon="1.58756">
        <ele>129</ele>
        <time>2011-05-22T09:58:08.000Z</time>
      </trkpt>
      <trkpt lat="48.7296" lon="1.58757">
        <ele>129.39999389648</ele>
        <time>2011-05-22T09:58:13.000Z</time>
      </trkpt>
      <trkpt lat="48.72971" lon="1.58768">
        <ele>129.80000305176</ele>
        <time>2011-05-22T09:58:20.000Z</time>
      </trkpt>
      <trkpt lat="48.72983" lon="1.58783">
        <ele>130</ele>
        <time>2011-05-22T09:58:29.000Z</time>
      </trkpt>
      <trkpt lat="48.72999" lon="1.58802">
        <ele>130.19999694824</ele>
        <time>2011-05-22T09:58:41.000Z</time>
      </trkpt>
      <trkpt lat="48.73008" lon="1.58812">
        <ele>130.60000610352</ele>
        <time>2011-05-22T09:58:47.000Z</time>
      </trkpt>
      <trkpt lat="48.73023" lon="1.58829">
        <ele>131</ele>
        <time>2011-05-22T09:58:58.000Z</time>
      </trkpt>
      <trkpt lat="48.7304" lon="1.58846">
        <ele>131.39999389648</ele>
        <time>2011-05-22T09:59:10.000Z</time>
      </trkpt>
      <trkpt lat="48.73056" lon="1.58862">
        <ele>131.60000610352</ele>
        <time>2011-05-22T09:59:21.000Z</time>
      </trkpt>
      <trkpt lat="48.73072" lon="1.58879">
        <ele>131.80000305176</ele>
        <time>2011-05-22T09:59:33.000Z</time>
      </trkpt>
      <trkpt lat="48.73088" lon="1.58903">
        <ele>131.60000610352</ele>
        <time>2011-05-22T09:59:46.000Z</time>
      </trkpt>
      <trkpt lat="48.73101" lon="1.58923">
        <ele>131.60000610352</ele>
        <time>2011-05-22T09:59:56.000Z</time>
      </trkpt>
      <trkpt lat="48.73112" lon="1.58943">
        <ele>131.80000305176</ele>
        <time>2011-05-22T10:00:06.000Z</time>
      </trkpt>
      <trkpt lat="48.73129" lon="1.58967">
        <ele>132.19999694824</ele>
        <time>2011-05-22T10:00:19.000Z</time>
      </trkpt>
      <trkpt lat="48.73145" lon="1.58981">
        <ele>132.60000610352</ele>
        <time>2011-05-22T10:00:30.000Z</time>
      </trkpt>
      <trkpt lat="48.73161" lon="1.58989">
        <ele>133</ele>
        <time>2011-05-22T10:00:40.000Z</time>
      </trkpt>
      <trkpt lat="48.73175" lon="1.5899">
        <ele>133.39999389648</ele>
        <time>2011-05-22T10:00:49.000Z</time>
      </trkpt>
      <trkpt lat="48.73176" lon="1.58989">
        <ele>133.39999389648</ele>
        <time>2011-05-22T10:00:52.000Z</time>
      </trkpt>
      <trkpt lat="48.73186" lon="1.58986">
        <ele>133.60000610352</ele>
        <time>2011-05-22T10:01:52.000Z</time>
      </trkpt>
      <trkpt lat="48.73196" lon="1.58974">
        <ele>134</ele>
        <time>2011-05-22T10:02:01.000Z</time>
      </trkpt>
      <trkpt lat="48.73205" lon="1.58964">
        <ele>134.19999694824</ele>
        <time>2011-05-22T10:02:09.000Z</time>
      </trkpt>
      <trkpt lat="48.73215" lon="1.58952">
        <ele>134.60000610352</ele>
        <time>2011-05-22T10:02:18.000Z</time>
      </trkpt>
      <trkpt lat="48.73227" lon="1.58937">
        <ele>134.80000305176</ele>
        <time>2011-05-22T10:02:29.000Z</time>
      </trkpt>
      <trkpt lat="48.7323" lon="1.58933">
        <ele>134.80000305176</ele>
        <time>2011-05-22T10:02:32.000Z</time>
      </trkpt>
      <trkpt lat="48.73241" lon="1.58933">
        <ele>134.80000305176</ele>
        <time>2011-05-22T10:02:40.000Z</time>
      </trkpt>
      <trkpt lat="48.73251" lon="1.58933">
        <ele>135</ele>
        <time>2011-05-22T10:02:49.000Z</time>
      </trkpt>
      <trkpt lat="48.73263" lon="1.58928">
        <ele>135</ele>
        <time>2011-05-22T10:02:57.000Z</time>
      </trkpt>
      <trkpt lat="48.73278" lon="1.58927">
        <ele>135.19999694824</ele>
        <time>2011-05-22T10:03:06.000Z</time>
      </trkpt>
      <trkpt lat="48.7329" lon="1.58927">
        <ele>135.39999389648</ele>
        <time>2011-05-22T10:03:14.000Z</time>
      </trkpt>
      <trkpt lat="48.73305" lon="1.58929">
        <ele>135.60000610352</ele>
        <time>2011-05-22T10:03:24.000Z</time>
      </trkpt>
      <trkpt lat="48.73324" lon="1.58931">
        <ele>136</ele>
        <time>2011-05-22T10:03:36.000Z</time>
      </trkpt>
      <trkpt lat="48.7334" lon="1.58935">
        <ele>136</ele>
        <time>2011-05-22T10:03:46.000Z</time>
      </trkpt>
      <trkpt lat="48.73349" lon="1.58939">
        <ele>136</ele>
        <time>2011-05-22T10:03:51.000Z</time>
      </trkpt>
      <trkpt lat="48.73365" lon="1.58946">
        <ele>135.80000305176</ele>
        <time>2011-05-22T10:04:01.000Z</time>
      </trkpt>
      <trkpt lat="48.73372" lon="1.58955">
        <ele>135.80000305176</ele>
        <time>2011-05-22T10:04:07.000Z</time>
      </trkpt>
      <trkpt lat="48.73377" lon="1.58956">
        <ele>135.80000305176</ele>
        <time>2011-05-22T10:04:11.000Z</time>
      </trkpt>
      <trkpt lat="48.73389" lon="1.58962">
        <ele>135.80000305176</ele>
        <time>2011-05-22T10:04:19.000Z</time>
      </trkpt>
      <trkpt lat="48.73391" lon="1.58963">
        <ele>135.80000305176</ele>
        <time>2011-05-22T10:04:20.000Z</time>
      </trkpt>
      <trkpt lat="48.73401" lon="1.58969">
        <ele>135.80000305176</ele>
        <time>2011-05-22T10:04:27.000Z</time>
      </trkpt>
      <trkpt lat="48.73412" lon="1.58976">
        <ele>135.60000610352</ele>
        <time>2011-05-22T10:04:34.000Z</time>
      </trkpt>
      <trkpt lat="48.73426" lon="1.58987">
        <ele>135.39999389648</ele>
        <time>2011-05-22T10:04:43.000Z</time>
      </trkpt>
      <trkpt lat="48.73434" lon="1.58994">
        <ele>135.19999694824</ele>
        <time>2011-05-22T10:04:49.000Z</time>
      </trkpt>
      <trkpt lat="48.73445" lon="1.59004">
        <ele>135</ele>
        <time>2011-05-22T10:04:57.000Z</time>
      </trkpt>
      <trkpt lat="48.73455" lon="1.59015">
        <ele>134.60000610352</ele>
        <time>2011-05-22T10:05:05.000Z</time>
      </trkpt>
      <trkpt lat="48.73465" lon="1.59024">
        <ele>134.39999389648</ele>
        <time>2011-05-22T10:05:12.000Z</time>
      </trkpt>
      <trkpt lat="48.73474" lon="1.59035">
        <ele>134</ele>
        <time>2011-05-22T10:05:20.000Z</time>
      </trkpt>
      <trkpt lat="48.73483" lon="1.59043">
        <ele>133.80000305176</ele>
        <time>2011-05-22T10:05:27.000Z</time>
      </trkpt>
      <trkpt lat="48.73484" lon="1.59044">
        <ele>133.60000610352</ele>
        <time>2011-05-22T10:05:29.000Z</time>
      </trkpt>
      <trkpt lat="48.73486" lon="1.5905">
        <ele>133.60000610352</ele>
        <time>2011-05-22T10:05:33.000Z</time>
      </trkpt>
      <trkpt lat="48.7348" lon="1.59057">
        <ele>134</ele>
        <time>2011-05-22T10:05:39.000Z</time>
      </trkpt>
      <trkpt lat="48.73462" lon="1.59061">
        <ele>135</ele>
        <time>2011-05-22T10:05:50.000Z</time>
      </trkpt>
      <trkpt lat="48.73454" lon="1.59064">
        <ele>135.39999389648</ele>
        <time>2011-05-22T10:05:58.000Z</time>
      </trkpt>
      <trkpt lat="48.73454" lon="1.59064">
        <ele>135.39999389648</ele>
        <time>2011-05-22T10:05:59.000Z</time>
      </trkpt>
      <trkpt lat="48.73448" lon="1.59068">
        <ele>135.80000305176</ele>
        <time>2011-05-22T10:06:07.000Z</time>
      </trkpt>
      <trkpt lat="48.73442" lon="1.59075">
        <ele>136.19999694824</ele>
        <time>2011-05-22T10:06:11.000Z</time>
      </trkpt>
      <trkpt lat="48.73434" lon="1.5909">
        <ele>136.80000305176</ele>
        <time>2011-05-22T10:06:19.000Z</time>
      </trkpt>
      <trkpt lat="48.73432" lon="1.59097">
        <ele>137</ele>
        <time>2011-05-22T10:06:22.000Z</time>
      </trkpt>
      <trkpt lat="48.73429" lon="1.5911">
        <ele>137.19999694824</ele>
        <time>2011-05-22T10:06:28.000Z</time>
      </trkpt>
      <trkpt lat="48.73426" lon="1.59125">
        <ele>137.39999389648</ele>
        <time>2011-05-22T10:06:35.000Z</time>
      </trkpt>
      <trkpt lat="48.73422" lon="1.59143">
        <ele>137.60000610352</ele>
        <time>2011-05-22T10:06:43.000Z</time>
      </trkpt>
      <trkpt lat="48.7342" lon="1.59152">
        <ele>137.80000305176</ele>
        <time>2011-05-22T10:06:47.000Z</time>
      </trkpt>
      <trkpt lat="48.73419" lon="1.5916">
        <ele>137.80000305176</ele>
        <time>2011-05-22T10:06:51.000Z</time>
      </trkpt>
      <trkpt lat="48.73416" lon="1.59184">
        <ele>138.19999694824</ele>
        <time>2011-05-22T10:07:02.000Z</time>
      </trkpt>
      <trkpt lat="48.73415" lon="1.59186">
        <ele>138.19999694824</ele>
        <time>2011-05-22T10:07:03.000Z</time>
      </trkpt>
      <trkpt lat="48.73414" lon="1.59198">
        <ele>138.39999389648</ele>
        <time>2011-05-22T10:07:09.000Z</time>
      </trkpt>
      <trkpt lat="48.73409" lon="1.59222">
        <ele>138.60000610352</ele>
        <time>2011-05-22T10:07:20.000Z</time>
      </trkpt>
      <trkpt lat="48.73406" lon="1.59245">
        <ele>138.80000305176</ele>
        <time>2011-05-22T10:07:30.000Z</time>
      </trkpt>
      <trkpt lat="48.73405" lon="1.59252">
        <ele>139</ele>
        <time>2011-05-22T10:07:33.000Z</time>
      </trkpt>
      <trkpt lat="48.73402" lon="1.59272">
        <ele>139.19999694824</ele>
        <time>2011-05-22T10:07:42.000Z</time>
      </trkpt>
      <trkpt lat="48.73398" lon="1.59296">
        <ele>139.39999389648</ele>
        <time>2011-05-22T10:07:52.000Z</time>
      </trkpt>
      <trkpt lat="48.73393" lon="1.59323">
        <ele>139.60000610352</ele>
        <time>2011-05-22T10:08:03.000Z</time>
      </trkpt>
      <trkpt lat="48.73387" lon="1.59346">
        <ele>139.80000305176</ele>
        <time>2011-05-22T10:08:13.000Z</time>
      </trkpt>
      <trkpt lat="48.73381" lon="1.59371">
        <ele>140.39999389648</ele>
        <time>2011-05-22T10:08:24.000Z</time>
      </trkpt>
      <trkpt lat="48.73374" lon="1.59388">
        <ele>140.80000305176</ele>
        <time>2011-05-22T10:08:33.000Z</time>
      </trkpt>
      <trkpt lat="48.73366" lon="1.59409">
        <ele>141.39999389648</ele>
        <time>2011-05-22T10:08:43.000Z</time>
      </trkpt>
      <trkpt lat="48.73357" lon="1.59428">
        <ele>142</ele>
        <time>2011-05-22T10:08:52.000Z</time>
      </trkpt>
      <trkpt lat="48.73347" lon="1.59446">
        <ele>142.60000610352</ele>
        <time>2011-05-22T10:09:01.000Z</time>
      </trkpt>
      <trkpt lat="48.73342" lon="1.59459">
        <ele>143.19999694824</ele>
        <time>2011-05-22T10:09:08.000Z</time>
      </trkpt>
      <trkpt lat="48.73336" lon="1.59477">
        <ele>144</ele>
        <time>2011-05-22T10:09:16.000Z</time>
      </trkpt>
      <trkpt lat="48.73331" lon="1.59493">
        <ele>144.60000610352</ele>
        <time>2011-05-22T10:09:23.000Z</time>
      </trkpt>
      <trkpt lat="48.73325" lon="1.59509">
        <ele>145.19999694824</ele>
        <time>2011-05-22T10:09:30.000Z</time>
      </trkpt>
      <trkpt lat="48.7332" lon="1.59524">
        <ele>145.39999389648</ele>
        <time>2011-05-22T10:09:37.000Z</time>
      </trkpt>
      <trkpt lat="48.73316" lon="1.59542">
        <ele>145.80000305176</ele>
        <time>2011-05-22T10:09:44.000Z</time>
      </trkpt>
      <trkpt lat="48.73311" lon="1.59563">
        <ele>146.19999694824</ele>
        <time>2011-05-22T10:09:52.000Z</time>
      </trkpt>
      <trkpt lat="48.73302" lon="1.59579">
        <ele>146.60000610352</ele>
        <time>2011-05-22T10:10:00.000Z</time>
      </trkpt>
      <trkpt lat="48.73294" lon="1.59592">
        <ele>147</ele>
        <time>2011-05-22T10:10:07.000Z</time>
      </trkpt>
      <trkpt lat="48.73288" lon="1.59606">
        <ele>147.19999694824</ele>
        <time>2011-05-22T10:10:14.000Z</time>
      </trkpt>
      <trkpt lat="48.73282" lon="1.5962">
        <ele>147.60000610352</ele>
        <time>2011-05-22T10:10:21.000Z</time>
      </trkpt>
      <trkpt lat="48.73278" lon="1.59634">
        <ele>148</ele>
        <time>2011-05-22T10:10:28.000Z</time>
      </trkpt>
      <trkpt lat="48.73273" lon="1.59648">
        <ele>148.39999389648</ele>
        <time>2011-05-22T10:10:34.000Z</time>
      </trkpt>
      <trkpt lat="48.73269" lon="1.59663">
        <ele>149</ele>
        <time>2011-05-22T10:10:40.000Z</time>
      </trkpt>
      <trkpt lat="48.73262" lon="1.59684">
        <ele>149.19999694824</ele>
        <time>2011-05-22T10:10:48.000Z</time>
      </trkpt>
      <trkpt lat="48.73257" lon="1.59698">
        <ele>149.19999694824</ele>
        <time>2011-05-22T10:10:53.000Z</time>
      </trkpt>
      <trkpt lat="48.73251" lon="1.59712">
        <ele>149.39999389648</ele>
        <time>2011-05-22T10:10:59.000Z</time>
      </trkpt>
      <trkpt lat="48.73244" lon="1.59727">
        <ele>149.39999389648</ele>
        <time>2011-05-22T10:11:06.000Z</time>
      </trkpt>
      <trkpt lat="48.73238" lon="1.59742">
        <ele>149.60000610352</ele>
        <time>2011-05-22T10:11:13.000Z</time>
      </trkpt>
      <trkpt lat="48.73229" lon="1.5976">
        <ele>150.39999389648</ele>
        <time>2011-05-22T10:11:21.000Z</time>
      </trkpt>
      <trkpt lat="48.73223" lon="1.59771">
        <ele>151</ele>
        <time>2011-05-22T10:11:26.000Z</time>
      </trkpt>
      <trkpt lat="48.73215" lon="1.59787">
        <ele>151.60000610352</ele>
        <time>2011-05-22T10:11:34.000Z</time>
      </trkpt>
      <trkpt lat="48.7321" lon="1.59803">
        <ele>152.19999694824</ele>
        <time>2011-05-22T10:11:41.000Z</time>
      </trkpt>
      <trkpt lat="48.73203" lon="1.59816">
        <ele>152.80000305176</ele>
        <time>2011-05-22T10:11:48.000Z</time>
      </trkpt>
      <trkpt lat="48.73196" lon="1.5983">
        <ele>153.39999389648</ele>
        <time>2011-05-22T10:11:55.000Z</time>
      </trkpt>
      <trkpt lat="48.73188" lon="1.59844">
        <ele>154</ele>
        <time>2011-05-22T10:12:02.000Z</time>
      </trkpt>
      <trkpt lat="48.73185" lon="1.59848">
        <ele>154.39999389648</ele>
        <time>2011-05-22T10:12:04.000Z</time>
      </trkpt>
      <trkpt lat="48.73182" lon="1.59857">
        <ele>154.60000610352</ele>
        <time>2011-05-22T10:12:08.000Z</time>
      </trkpt>
      <trkpt lat="48.73174" lon="1.59871">
        <ele>155.39999389648</ele>
        <time>2011-05-22T10:12:15.000Z</time>
      </trkpt>
      <trkpt lat="48.73169" lon="1.5989">
        <ele>156.19999694824</ele>
        <time>2011-05-22T10:12:22.000Z</time>
      </trkpt>
      <trkpt lat="48.73169" lon="1.59914">
        <ele>156.60000610352</ele>
        <time>2011-05-22T10:12:27.000Z</time>
      </trkpt>
      <trkpt lat="48.73169" lon="1.59947">
        <ele>157.39999389648</ele>
        <time>2011-05-22T10:12:32.000Z</time>
      </trkpt>
      <trkpt lat="48.73169" lon="1.59975">
        <ele>158.19999694824</ele>
        <time>2011-05-22T10:12:36.000Z</time>
      </trkpt>
      <trkpt lat="48.73172" lon="1.59996">
        <ele>158.19999694824</ele>
        <time>2011-05-22T10:12:39.000Z</time>
      </trkpt>
      <trkpt lat="48.73174" lon="1.60028">
        <ele>158.80000305176</ele>
        <time>2011-05-22T10:12:43.000Z</time>
      </trkpt>
      <trkpt lat="48.73179" lon="1.60063">
        <ele>158.80000305176</ele>
        <time>2011-05-22T10:12:48.000Z</time>
      </trkpt>
      <trkpt lat="48.73179" lon="1.60086">
        <ele>159.39999389648</ele>
        <time>2011-05-22T10:12:52.000Z</time>
      </trkpt>
      <trkpt lat="48.73181" lon="1.60115">
        <ele>159</ele>
        <time>2011-05-22T10:12:57.000Z</time>
      </trkpt>
      <trkpt lat="48.73181" lon="1.60136">
        <ele>159</ele>
        <time>2011-05-22T10:13:00.000Z</time>
      </trkpt>
      <trkpt lat="48.73185" lon="1.60172">
        <ele>158.60000610352</ele>
        <time>2011-05-22T10:13:06.000Z</time>
      </trkpt>
      <trkpt lat="48.73187" lon="1.60199">
        <ele>159</ele>
        <time>2011-05-22T10:13:11.000Z</time>
      </trkpt>
      <trkpt lat="48.73193" lon="1.60235">
        <ele>159</ele>
        <time>2011-05-22T10:13:16.000Z</time>
      </trkpt>
      <trkpt lat="48.73198" lon="1.60255">
        <ele>158.60000610352</ele>
        <time>2011-05-22T10:13:20.000Z</time>
      </trkpt>
      <trkpt lat="48.73198" lon="1.6027">
        <ele>158.19999694824</ele>
        <time>2011-05-22T10:13:24.000Z</time>
      </trkpt>
      <trkpt lat="48.73199" lon="1.60273">
        <ele>158</ele>
        <time>2011-05-22T10:13:25.000Z</time>
      </trkpt>
      <trkpt lat="48.73199" lon="1.60299">
        <ele>157.39999389648</ele>
        <time>2011-05-22T10:13:32.000Z</time>
      </trkpt>
      <trkpt lat="48.73201" lon="1.60305">
        <ele>157</ele>
        <time>2011-05-22T10:13:34.000Z</time>
      </trkpt>
      <trkpt lat="48.73202" lon="1.60317">
        <ele>156.60000610352</ele>
        <time>2011-05-22T10:13:38.000Z</time>
      </trkpt>
      <trkpt lat="48.73202" lon="1.60326">
        <ele>156.39999389648</ele>
        <time>2011-05-22T10:13:41.000Z</time>
      </trkpt>
      <trkpt lat="48.73202" lon="1.6034">
        <ele>156.19999694824</ele>
        <time>2011-05-22T10:13:46.000Z</time>
      </trkpt>
      <trkpt lat="48.73203" lon="1.60343">
        <ele>155.80000305176</ele>
        <time>2011-05-22T10:13:48.000Z</time>
      </trkpt>
      <trkpt lat="48.73205" lon="1.6036">
        <ele>155.19999694824</ele>
        <time>2011-05-22T10:13:56.000Z</time>
      </trkpt>
      <trkpt lat="48.73207" lon="1.60367">
        <ele>154.80000305176</ele>
        <time>2011-05-22T10:14:00.000Z</time>
      </trkpt>
      <trkpt lat="48.73209" lon="1.60379">
        <ele>154.19999694824</ele>
        <time>2011-05-22T10:14:06.000Z</time>
      </trkpt>
      <trkpt lat="48.7321" lon="1.60388">
        <ele>153.80000305176</ele>
        <time>2011-05-22T10:14:11.000Z</time>
      </trkpt>
      <trkpt lat="48.73213" lon="1.60403">
        <ele>153</ele>
        <time>2011-05-22T10:14:17.000Z</time>
      </trkpt>
      <trkpt lat="48.73215" lon="1.60411">
        <ele>152.60000610352</ele>
        <time>2011-05-22T10:14:21.000Z</time>
      </trkpt>
      <trkpt lat="48.73216" lon="1.60425">
        <ele>152.39999389648</ele>
        <time>2011-05-22T10:14:27.000Z</time>
      </trkpt>
      <trkpt lat="48.73217" lon="1.60439">
        <ele>152</ele>
        <time>2011-05-22T10:14:33.000Z</time>
      </trkpt>
      <trkpt lat="48.73218" lon="1.60446">
        <ele>151.80000305176</ele>
        <time>2011-05-22T10:14:36.000Z</time>
      </trkpt>
      <trkpt lat="48.73223" lon="1.60473">
        <ele>150.80000305176</ele>
        <time>2011-05-22T10:14:46.000Z</time>
      </trkpt>
      <trkpt lat="48.73224" lon="1.60495">
        <ele>150.39999389648</ele>
        <time>2011-05-22T10:14:56.000Z</time>
      </trkpt>
      <trkpt lat="48.73225" lon="1.60498">
        <ele>150.19999694824</ele>
        <time>2011-05-22T10:14:58.000Z</time>
      </trkpt>
      <trkpt lat="48.73225" lon="1.605">
        <ele>150.19999694824</ele>
        <time>2011-05-22T10:15:02.000Z</time>
      </trkpt>
      <trkpt lat="48.73226" lon="1.60509">
        <ele>149.60000610352</ele>
        <time>2011-05-22T10:15:14.000Z</time>
      </trkpt>
      <trkpt lat="48.73229" lon="1.60527">
        <ele>148</ele>
        <time>2011-05-22T10:15:21.000Z</time>
      </trkpt>
      <trkpt lat="48.73231" lon="1.60541">
        <ele>147.19999694824</ele>
        <time>2011-05-22T10:15:28.000Z</time>
      </trkpt>
      <trkpt lat="48.73231" lon="1.60557">
        <ele>146.19999694824</ele>
        <time>2011-05-22T10:15:36.000Z</time>
      </trkpt>
      <trkpt lat="48.7323" lon="1.60575">
        <ele>145.19999694824</ele>
        <time>2011-05-22T10:15:44.000Z</time>
      </trkpt>
      <trkpt lat="48.73227" lon="1.60604">
        <ele>144.60000610352</ele>
        <time>2011-05-22T10:15:55.000Z</time>
      </trkpt>
      <trkpt lat="48.73224" lon="1.60631">
        <ele>144.39999389648</ele>
        <time>2011-05-22T10:16:06.000Z</time>
      </trkpt>
      <trkpt lat="48.73221" lon="1.60652">
        <ele>144</ele>
        <time>2011-05-22T10:16:16.000Z</time>
      </trkpt>
      <trkpt lat="48.7322" lon="1.60658">
        <ele>144</ele>
        <time>2011-05-22T10:16:19.000Z</time>
      </trkpt>
      <trkpt lat="48.73218" lon="1.60678">
        <ele>143.80000305176</ele>
        <time>2011-05-22T10:16:28.000Z</time>
      </trkpt>
      <trkpt lat="48.73213" lon="1.60701">
        <ele>144</ele>
        <time>2011-05-22T10:16:38.000Z</time>
      </trkpt>
      <trkpt lat="48.73211" lon="1.60714">
        <ele>144</ele>
        <time>2011-05-22T10:16:44.000Z</time>
      </trkpt>
      <trkpt lat="48.73206" lon="1.60727">
        <ele>144.19999694824</ele>
        <time>2011-05-22T10:16:51.000Z</time>
      </trkpt>
      <trkpt lat="48.73199" lon="1.60738">
        <ele>144.60000610352</ele>
        <time>2011-05-22T10:16:58.000Z</time>
      </trkpt>
      <trkpt lat="48.73191" lon="1.60748">
        <ele>145</ele>
        <time>2011-05-22T10:17:06.000Z</time>
      </trkpt>
      <trkpt lat="48.73179" lon="1.60764">
        <ele>145.39999389648</ele>
        <time>2011-05-22T10:17:17.000Z</time>
      </trkpt>
      <trkpt lat="48.73167" lon="1.6078">
        <ele>145.80000305176</ele>
        <time>2011-05-22T10:17:28.000Z</time>
      </trkpt>
      <trkpt lat="48.73157" lon="1.60796">
        <ele>146</ele>
        <time>2011-05-22T10:17:38.000Z</time>
      </trkpt>
      <trkpt lat="48.73152" lon="1.60807">
        <ele>146.19999694824</ele>
        <time>2011-05-22T10:17:45.000Z</time>
      </trkpt>
      <trkpt lat="48.73146" lon="1.60821">
        <ele>146.39999389648</ele>
        <time>2011-05-22T10:17:53.000Z</time>
      </trkpt>
      <trkpt lat="48.73144" lon="1.60824">
        <ele>146.60000610352</ele>
        <time>2011-05-22T10:17:55.000Z</time>
      </trkpt>
      <trkpt lat="48.73139" lon="1.60836">
        <ele>147</ele>
        <time>2011-05-22T10:18:02.000Z</time>
      </trkpt>
      <trkpt lat="48.73136" lon="1.60842">
        <ele>147.60000610352</ele>
        <time>2011-05-22T10:18:08.000Z</time>
      </trkpt>
      <trkpt lat="48.73136" lon="1.60843">
        <ele>147.60000610352</ele>
        <time>2011-05-22T10:18:09.000Z</time>
      </trkpt>
      <trkpt lat="48.73131" lon="1.60857">
        <ele>148.80000305176</ele>
        <time>2011-05-22T10:18:27.000Z</time>
      </trkpt>
      <trkpt lat="48.73125" lon="1.60871">
        <ele>150.19999694824</ele>
        <time>2011-05-22T10:18:32.000Z</time>
      </trkpt>
      <trkpt lat="48.73124" lon="1.60873">
        <ele>150.39999389648</ele>
        <time>2011-05-22T10:18:33.000Z</time>
      </trkpt>
      <trkpt lat="48.73121" lon="1.60885">
        <ele>151.39999389648</ele>
        <time>2011-05-22T10:18:40.000Z</time>
      </trkpt>
      <trkpt lat="48.73121" lon="1.60887">
        <ele>151.60000610352</ele>
        <time>2011-05-22T10:18:41.000Z</time>
      </trkpt>
      <trkpt lat="48.7312" lon="1.60906">
        <ele>152.60000610352</ele>
        <time>2011-05-22T10:18:50.000Z</time>
      </trkpt>
      <trkpt lat="48.73121" lon="1.60921">
        <ele>153.19999694824</ele>
        <time>2011-05-22T10:18:56.000Z</time>
      </trkpt>
      <trkpt lat="48.7312" lon="1.60934">
        <ele>153.80000305176</ele>
        <time>2011-05-22T10:19:02.000Z</time>
      </trkpt>
      <trkpt lat="48.73114" lon="1.6094">
        <ele>154.80000305176</ele>
        <time>2011-05-22T10:19:06.000Z</time>
      </trkpt>
      <trkpt lat="48.73104" lon="1.60947">
        <ele>156.60000610352</ele>
        <time>2011-05-22T10:19:12.000Z</time>
      </trkpt>
      <trkpt lat="48.73093" lon="1.60953">
        <ele>158.39999389648</ele>
        <time>2011-05-22T10:19:18.000Z</time>
      </trkpt>
      <trkpt lat="48.73083" lon="1.60956">
        <ele>159.80000305176</ele>
        <time>2011-05-22T10:19:25.000Z</time>
      </trkpt>
      <trkpt lat="48.73071" lon="1.60961">
        <ele>160</ele>
        <time>2011-05-22T10:19:33.000Z</time>
      </trkpt>
      <trkpt lat="48.73061" lon="1.60966">
        <ele>160.19999694824</ele>
        <time>2011-05-22T10:19:39.000Z</time>
      </trkpt>
      <trkpt lat="48.73055" lon="1.60969">
        <ele>160.19999694824</ele>
        <time>2011-05-22T10:19:42.000Z</time>
      </trkpt>
      <trkpt lat="48.73045" lon="1.60976">
        <ele>160.39999389648</ele>
        <time>2011-05-22T10:19:48.000Z</time>
      </trkpt>
      <trkpt lat="48.73034" lon="1.6098">
        <ele>160.60000610352</ele>
        <time>2011-05-22T10:19:56.000Z</time>
      </trkpt>
      <trkpt lat="48.73024" lon="1.60983">
        <ele>160.60000610352</ele>
        <time>2011-05-22T10:20:02.000Z</time>
      </trkpt>
      <trkpt lat="48.73014" lon="1.60986">
        <ele>160.80000305176</ele>
        <time>2011-05-22T10:20:09.000Z</time>
      </trkpt>
      <trkpt lat="48.73007" lon="1.60989">
        <ele>160.80000305176</ele>
        <time>2011-05-22T10:20:14.000Z</time>
      </trkpt>
      <trkpt lat="48.72993" lon="1.60993">
        <ele>161</ele>
        <time>2011-05-22T10:20:23.000Z</time>
      </trkpt>
      <trkpt lat="48.7298" lon="1.60999">
        <ele>161.39999389648</ele>
        <time>2011-05-22T10:20:31.000Z</time>
      </trkpt>
      <trkpt lat="48.72971" lon="1.61005">
        <ele>161.80000305176</ele>
        <time>2011-05-22T10:20:38.000Z</time>
      </trkpt>
      <trkpt lat="48.72966" lon="1.61006">
        <ele>161.80000305176</ele>
        <time>2011-05-22T10:20:42.000Z</time>
      </trkpt>
      <trkpt lat="48.72955" lon="1.61012">
        <ele>162.39999389648</ele>
        <time>2011-05-22T10:20:49.000Z</time>
      </trkpt>
      <trkpt lat="48.72946" lon="1.61016">
        <ele>162.80000305176</ele>
        <time>2011-05-22T10:20:54.000Z</time>
      </trkpt>
      <trkpt lat="48.72944" lon="1.61017">
        <ele>163</ele>
        <time>2011-05-22T10:20:55.000Z</time>
      </trkpt>
      <trkpt lat="48.72941" lon="1.61019">
        <ele>163</ele>
        <time>2011-05-22T10:21:00.000Z</time>
      </trkpt>
      <trkpt lat="48.72937" lon="1.61024">
        <ele>163.39999389648</ele>
        <time>2011-05-22T10:21:20.000Z</time>
      </trkpt>
      <trkpt lat="48.72928" lon="1.6103">
        <ele>164</ele>
        <time>2011-05-22T10:21:25.000Z</time>
      </trkpt>
      <trkpt lat="48.72924" lon="1.61034">
        <ele>164.19999694824</ele>
        <time>2011-05-22T10:21:28.000Z</time>
      </trkpt>
      <trkpt lat="48.72919" lon="1.61038">
        <ele>164.60000610352</ele>
        <time>2011-05-22T10:21:35.000Z</time>
      </trkpt>
      <trkpt lat="48.72912" lon="1.61052">
        <ele>165.39999389648</ele>
        <time>2011-05-22T10:21:52.000Z</time>
      </trkpt>
      <trkpt lat="48.72904" lon="1.61063">
        <ele>165.80000305176</ele>
        <time>2011-05-22T10:21:58.000Z</time>
      </trkpt>
      <trkpt lat="48.72897" lon="1.61074">
        <ele>166.19999694824</ele>
        <time>2011-05-22T10:22:05.000Z</time>
      </trkpt>
      <trkpt lat="48.7289" lon="1.61085">
        <ele>166.60000610352</ele>
        <time>2011-05-22T10:22:11.000Z</time>
      </trkpt>
      <trkpt lat="48.72884" lon="1.61093">
        <ele>166.80000305176</ele>
        <time>2011-05-22T10:22:17.000Z</time>
      </trkpt>
      <trkpt lat="48.72877" lon="1.61103">
        <ele>167</ele>
        <time>2011-05-22T10:22:24.000Z</time>
      </trkpt>
      <trkpt lat="48.72874" lon="1.61108">
        <ele>167.19999694824</ele>
        <time>2011-05-22T10:22:29.000Z</time>
      </trkpt>
      <trkpt lat="48.72874" lon="1.61108">
        <ele>167.19999694824</ele>
        <time>2011-05-22T10:22:30.000Z</time>
      </trkpt>
      <trkpt lat="48.72869" lon="1.61121">
        <ele>167.39999389648</ele>
        <time>2011-05-22T10:23:10.000Z</time>
      </trkpt>
      <trkpt lat="48.72865" lon="1.61131">
        <ele>167.80000305176</ele>
        <time>2011-05-22T10:23:16.000Z</time>
      </trkpt>
      <trkpt lat="48.72861" lon="1.61139">
        <ele>168</ele>
        <time>2011-05-22T10:23:21.000Z</time>
      </trkpt>
      <trkpt lat="48.72858" lon="1.61144">
        <ele>168.19999694824</ele>
        <time>2011-05-22T10:23:25.000Z</time>
      </trkpt>
      <trkpt lat="48.72852" lon="1.61159">
        <ele>168.60000610352</ele>
        <time>2011-05-22T10:23:33.000Z</time>
      </trkpt>
      <trkpt lat="48.72849" lon="1.61163">
        <ele>168.80000305176</ele>
        <time>2011-05-22T10:23:36.000Z</time>
      </trkpt>
      <trkpt lat="48.72845" lon="1.61173">
        <ele>169</ele>
        <time>2011-05-22T10:23:41.000Z</time>
      </trkpt>
      <trkpt lat="48.7284" lon="1.61183">
        <ele>169.19999694824</ele>
        <time>2011-05-22T10:23:47.000Z</time>
      </trkpt>
      <trkpt lat="48.72835" lon="1.612">
        <ele>169.60000610352</ele>
        <time>2011-05-22T10:23:56.000Z</time>
      </trkpt>
      <trkpt lat="48.72834" lon="1.61204">
        <ele>169.80000305176</ele>
        <time>2011-05-22T10:23:58.000Z</time>
      </trkpt>
      <trkpt lat="48.72829" lon="1.61215">
        <ele>169.80000305176</ele>
        <time>2011-05-22T10:24:04.000Z</time>
      </trkpt>
      <trkpt lat="48.72825" lon="1.61225">
        <ele>169.80000305176</ele>
        <time>2011-05-22T10:24:09.000Z</time>
      </trkpt>
      <trkpt lat="48.72822" lon="1.61231">
        <ele>169.80000305176</ele>
        <time>2011-05-22T10:24:13.000Z</time>
      </trkpt>
      <trkpt lat="48.72816" lon="1.61239">
        <ele>170</ele>
        <time>2011-05-22T10:24:18.000Z</time>
      </trkpt>
      <trkpt lat="48.72812" lon="1.61247">
        <ele>170</ele>
        <time>2011-05-22T10:24:23.000Z</time>
      </trkpt>
      <trkpt lat="48.72806" lon="1.61254">
        <ele>170.19999694824</ele>
        <time>2011-05-22T10:24:29.000Z</time>
      </trkpt>
      <trkpt lat="48.72798" lon="1.61264">
        <ele>170.39999389648</ele>
        <time>2011-05-22T10:24:36.000Z</time>
      </trkpt>
      <trkpt lat="48.72789" lon="1.61278">
        <ele>171</ele>
        <time>2011-05-22T10:24:45.000Z</time>
      </trkpt>
      <trkpt lat="48.72785" lon="1.61282">
        <ele>171.19999694824</ele>
        <time>2011-05-22T10:24:50.000Z</time>
      </trkpt>
      <trkpt lat="48.72785" lon="1.61283">
        <ele>171.19999694824</ele>
        <time>2011-05-22T10:24:51.000Z</time>
      </trkpt>
      <trkpt lat="48.72786" lon="1.61288">
        <ele>171.39999389648</ele>
        <time>2011-05-22T10:25:15.000Z</time>
      </trkpt>
      <trkpt lat="48.72788" lon="1.61288">
        <ele>171.60000610352</ele>
        <time>2011-05-22T10:25:17.000Z</time>
      </trkpt>
      <trkpt lat="48.72782" lon="1.61295">
        <ele>171.80000305176</ele>
        <time>2011-05-22T10:25:31.000Z</time>
      </trkpt>
      <trkpt lat="48.72774" lon="1.61306">
        <ele>172.19999694824</ele>
        <time>2011-05-22T10:25:36.000Z</time>
      </trkpt>
      <trkpt lat="48.72765" lon="1.61314">
        <ele>172.19999694824</ele>
        <time>2011-05-22T10:25:42.000Z</time>
      </trkpt>
      <trkpt lat="48.72756" lon="1.61323">
        <ele>172.39999389648</ele>
        <time>2011-05-22T10:25:48.000Z</time>
      </trkpt>
      <trkpt lat="48.72745" lon="1.61335">
        <ele>172.80000305176</ele>
        <time>2011-05-22T10:25:56.000Z</time>
      </trkpt>
      <trkpt lat="48.72735" lon="1.61349">
        <ele>173.19999694824</ele>
        <time>2011-05-22T10:26:04.000Z</time>
      </trkpt>
      <trkpt lat="48.72724" lon="1.61362">
        <ele>173.60000610352</ele>
        <time>2011-05-22T10:26:12.000Z</time>
      </trkpt>
      <trkpt lat="48.72713" lon="1.61374">
        <ele>174</ele>
        <time>2011-05-22T10:26:19.000Z</time>
      </trkpt>
      <trkpt lat="48.72705" lon="1.61379">
        <ele>173.80000305176</ele>
        <time>2011-05-22T10:26:25.000Z</time>
      </trkpt>
      <trkpt lat="48.72696" lon="1.61385">
        <ele>173.80000305176</ele>
        <time>2011-05-22T10:26:31.000Z</time>
      </trkpt>
      <trkpt lat="48.72687" lon="1.61392">
        <ele>173.80000305176</ele>
        <time>2011-05-22T10:26:37.000Z</time>
      </trkpt>
      <trkpt lat="48.72677" lon="1.61397">
        <ele>173.80000305176</ele>
        <time>2011-05-22T10:26:44.000Z</time>
      </trkpt>
      <trkpt lat="48.72672" lon="1.61399">
        <ele>173.60000610352</ele>
        <time>2011-05-22T10:26:49.000Z</time>
      </trkpt>
      <trkpt lat="48.72672" lon="1.614">
        <ele>173.60000610352</ele>
        <time>2011-05-22T10:26:53.000Z</time>
      </trkpt>
      <trkpt lat="48.72668" lon="1.61402">
        <ele>173.60000610352</ele>
        <time>2011-05-22T10:26:57.000Z</time>
      </trkpt>
      <trkpt lat="48.72661" lon="1.61406">
        <ele>173.60000610352</ele>
        <time>2011-05-22T10:27:01.000Z</time>
      </trkpt>
      <trkpt lat="48.72651" lon="1.6141">
        <ele>173.80000305176</ele>
        <time>2011-05-22T10:27:08.000Z</time>
      </trkpt>
      <trkpt lat="48.72649" lon="1.61412">
        <ele>173.80000305176</ele>
        <time>2011-05-22T10:27:13.000Z</time>
      </trkpt>
      <trkpt lat="48.72655" lon="1.6141">
        <ele>173.80000305176</ele>
        <time>2011-05-22T10:27:32.000Z</time>
      </trkpt>
      <trkpt lat="48.72663" lon="1.61406">
        <ele>173.80000305176</ele>
        <time>2011-05-22T10:27:37.000Z</time>
      </trkpt>
      <trkpt lat="48.72664" lon="1.61405">
        <ele>173.60000610352</ele>
        <time>2011-05-22T10:27:38.000Z</time>
      </trkpt>
      <trkpt lat="48.72674" lon="1.61398">
        <ele>173.60000610352</ele>
        <time>2011-05-22T10:27:45.000Z</time>
      </trkpt>
      <trkpt lat="48.72681" lon="1.61391">
        <ele>173.39999389648</ele>
        <time>2011-05-22T10:27:51.000Z</time>
      </trkpt>
      <trkpt lat="48.7269" lon="1.61387">
        <ele>173.60000610352</ele>
        <time>2011-05-22T10:27:56.000Z</time>
      </trkpt>
      <trkpt lat="48.72697" lon="1.61382">
        <ele>173.60000610352</ele>
        <time>2011-05-22T10:28:01.000Z</time>
      </trkpt>
      <trkpt lat="48.72707" lon="1.61376">
        <ele>173.60000610352</ele>
        <time>2011-05-22T10:28:08.000Z</time>
      </trkpt>
      <trkpt lat="48.72717" lon="1.61367">
        <ele>173.39999389648</ele>
        <time>2011-05-22T10:28:14.000Z</time>
      </trkpt>
      <trkpt lat="48.72727" lon="1.61356">
        <ele>173.19999694824</ele>
        <time>2011-05-22T10:28:21.000Z</time>
      </trkpt>
      <trkpt lat="48.72738" lon="1.61341">
        <ele>172.80000305176</ele>
        <time>2011-05-22T10:28:29.000Z</time>
      </trkpt>
      <trkpt lat="48.72751" lon="1.61329">
        <ele>172.60000610352</ele>
        <time>2011-05-22T10:28:37.000Z</time>
      </trkpt>
      <trkpt lat="48.72761" lon="1.61319">
        <ele>172.39999389648</ele>
        <time>2011-05-22T10:28:43.000Z</time>
      </trkpt>
      <trkpt lat="48.72769" lon="1.61312">
        <ele>172.39999389648</ele>
        <time>2011-05-22T10:28:48.000Z</time>
      </trkpt>
      <trkpt lat="48.72781" lon="1.61297">
        <ele>171.80000305176</ele>
        <time>2011-05-22T10:28:57.000Z</time>
      </trkpt>
      <trkpt lat="48.72789" lon="1.61286">
        <ele>171.39999389648</ele>
        <time>2011-05-22T10:29:03.000Z</time>
      </trkpt>
      <trkpt lat="48.72794" lon="1.61278">
        <ele>171.19999694824</ele>
        <time>2011-05-22T10:29:07.000Z</time>
      </trkpt>
      <trkpt lat="48.72804" lon="1.61264">
        <ele>170.60000610352</ele>
        <time>2011-05-22T10:29:16.000Z</time>
      </trkpt>
      <trkpt lat="48.72812" lon="1.61253">
        <ele>170.19999694824</ele>
        <time>2011-05-22T10:29:23.000Z</time>
      </trkpt>
      <trkpt lat="48.72819" lon="1.61241">
        <ele>170.19999694824</ele>
        <time>2011-05-22T10:29:29.000Z</time>
      </trkpt>
      <trkpt lat="48.72825" lon="1.6123">
        <ele>170</ele>
        <time>2011-05-22T10:29:34.000Z</time>
      </trkpt>
      <trkpt lat="48.7283" lon="1.61218">
        <ele>170</ele>
        <time>2011-05-22T10:29:40.000Z</time>
      </trkpt>
      <trkpt lat="48.72835" lon="1.61205">
        <ele>169.80000305176</ele>
        <time>2011-05-22T10:29:46.000Z</time>
      </trkpt>
      <trkpt lat="48.72839" lon="1.61192">
        <ele>169.39999389648</ele>
        <time>2011-05-22T10:29:52.000Z</time>
      </trkpt>
      <trkpt lat="48.72844" lon="1.61178">
        <ele>169.19999694824</ele>
        <time>2011-05-22T10:29:59.000Z</time>
      </trkpt>
      <trkpt lat="48.7285" lon="1.61165">
        <ele>168.80000305176</ele>
        <time>2011-05-22T10:30:05.000Z</time>
      </trkpt>
      <trkpt lat="48.72853" lon="1.61158">
        <ele>168.60000610352</ele>
        <time>2011-05-22T10:30:08.000Z</time>
      </trkpt>
      <trkpt lat="48.72857" lon="1.61147">
        <ele>168.19999694824</ele>
        <time>2011-05-22T10:30:13.000Z</time>
      </trkpt>
      <trkpt lat="48.72858" lon="1.61142">
        <ele>168</ele>
        <time>2011-05-22T10:30:15.000Z</time>
      </trkpt>
      <trkpt lat="48.72862" lon="1.61124">
        <ele>167.60000610352</ele>
        <time>2011-05-22T10:30:22.000Z</time>
      </trkpt>
      <trkpt lat="48.72869" lon="1.61111">
        <ele>167.19999694824</ele>
        <time>2011-05-22T10:30:29.000Z</time>
      </trkpt>
      <trkpt lat="48.72875" lon="1.61101">
        <ele>167</ele>
        <time>2011-05-22T10:30:35.000Z</time>
      </trkpt>
      <trkpt lat="48.72883" lon="1.61091">
        <ele>166.80000305176</ele>
        <time>2011-05-22T10:30:41.000Z</time>
      </trkpt>
      <trkpt lat="48.72891" lon="1.6108">
        <ele>166.39999389648</ele>
        <time>2011-05-22T10:30:47.000Z</time>
      </trkpt>
      <trkpt lat="48.729" lon="1.61068">
        <ele>166</ele>
        <time>2011-05-22T10:30:54.000Z</time>
      </trkpt>
      <trkpt lat="48.72907" lon="1.61056">
        <ele>165.60000610352</ele>
        <time>2011-05-22T10:31:00.000Z</time>
      </trkpt>
      <trkpt lat="48.72917" lon="1.6104">
        <ele>164.80000305176</ele>
        <time>2011-05-22T10:31:08.000Z</time>
      </trkpt>
      <trkpt lat="48.72927" lon="1.61031">
        <ele>164</ele>
        <time>2011-05-22T10:31:16.000Z</time>
      </trkpt>
      <trkpt lat="48.72935" lon="1.61033">
        <ele>163.80000305176</ele>
        <time>2011-05-22T10:31:23.000Z</time>
      </trkpt>
      <trkpt lat="48.72945" lon="1.61038">
        <ele>163.80000305176</ele>
        <time>2011-05-22T10:31:30.000Z</time>
      </trkpt>
      <trkpt lat="48.72957" lon="1.61045">
        <ele>163.60000610352</ele>
        <time>2011-05-22T10:31:37.000Z</time>
      </trkpt>
      <trkpt lat="48.72976" lon="1.61054">
        <ele>163.19999694824</ele>
        <time>2011-05-22T10:31:48.000Z</time>
      </trkpt>
      <trkpt lat="48.72989" lon="1.6106">
        <ele>162.80000305176</ele>
        <time>2011-05-22T10:31:55.000Z</time>
      </trkpt>
      <trkpt lat="48.73003" lon="1.61068">
        <ele>162.39999389648</ele>
        <time>2011-05-22T10:32:04.000Z</time>
      </trkpt>
      <trkpt lat="48.73015" lon="1.61079">
        <ele>162.19999694824</ele>
        <time>2011-05-22T10:32:12.000Z</time>
      </trkpt>
      <trkpt lat="48.73027" lon="1.61087">
        <ele>161.80000305176</ele>
        <time>2011-05-22T10:32:19.000Z</time>
      </trkpt>
      <trkpt lat="48.7304" lon="1.61094">
        <ele>161.19999694824</ele>
        <time>2011-05-22T10:32:26.000Z</time>
      </trkpt>
      <trkpt lat="48.73047" lon="1.61099">
        <ele>160.80000305176</ele>
        <time>2011-05-22T10:32:31.000Z</time>
      </trkpt>
      <trkpt lat="48.73052" lon="1.61101">
        <ele>160.39999389648</ele>
        <time>2011-05-22T10:32:37.000Z</time>
      </trkpt>
      <trkpt lat="48.73048" lon="1.61096">
        <ele>160.80000305176</ele>
        <time>2011-05-22T10:32:47.000Z</time>
      </trkpt>
      <trkpt lat="48.73048" lon="1.61096">
        <ele>160.80000305176</ele>
        <time>2011-05-22T10:32:49.000Z</time>
      </trkpt>
      <trkpt lat="48.73056" lon="1.61102">
        <ele>160.19999694824</ele>
        <time>2011-05-22T10:33:17.000Z</time>
      </trkpt>
      <trkpt lat="48.73059" lon="1.61105">
        <ele>160</ele>
        <time>2011-05-22T10:33:22.000Z</time>
      </trkpt>
      <trkpt lat="48.73066" lon="1.61108">
        <ele>159.60000610352</ele>
        <time>2011-05-22T10:33:39.000Z</time>
      </trkpt>
      <trkpt lat="48.73077" lon="1.61117">
        <ele>159</ele>
        <time>2011-05-22T10:33:45.000Z</time>
      </trkpt>
      <trkpt lat="48.73091" lon="1.61127">
        <ele>157.39999389648</ele>
        <time>2011-05-22T10:33:54.000Z</time>
      </trkpt>
      <trkpt lat="48.73103" lon="1.61137">
        <ele>155.80000305176</ele>
        <time>2011-05-22T10:34:02.000Z</time>
      </trkpt>
      <trkpt lat="48.73114" lon="1.6115">
        <ele>154.60000610352</ele>
        <time>2011-05-22T10:34:11.000Z</time>
      </trkpt>
      <trkpt lat="48.73114" lon="1.61151">
        <ele>154.39999389648</ele>
        <time>2011-05-22T10:34:12.000Z</time>
      </trkpt>
      <trkpt lat="48.73117" lon="1.61157">
        <ele>154.19999694824</ele>
        <time>2011-05-22T10:34:16.000Z</time>
      </trkpt>
      <trkpt lat="48.73129" lon="1.61173">
        <ele>153.19999694824</ele>
        <time>2011-05-22T10:34:26.000Z</time>
      </trkpt>
      <trkpt lat="48.73132" lon="1.61181">
        <ele>153.39999389648</ele>
        <time>2011-05-22T10:34:30.000Z</time>
      </trkpt>
      <trkpt lat="48.73145" lon="1.61196">
        <ele>153.19999694824</ele>
        <time>2011-05-22T10:34:40.000Z</time>
      </trkpt>
      <trkpt lat="48.73155" lon="1.61205">
        <ele>153.19999694824</ele>
        <time>2011-05-22T10:34:47.000Z</time>
      </trkpt>
      <trkpt lat="48.73158" lon="1.61207">
        <ele>153.19999694824</ele>
        <time>2011-05-22T10:34:49.000Z</time>
      </trkpt>
      <trkpt lat="48.73164" lon="1.61214">
        <ele>153.39999389648</ele>
        <time>2011-05-22T10:34:54.000Z</time>
      </trkpt>
      <trkpt lat="48.73165" lon="1.61216">
        <ele>153.39999389648</ele>
        <time>2011-05-22T10:34:55.000Z</time>
      </trkpt>
      <trkpt lat="48.73176" lon="1.61226">
        <ele>153.19999694824</ele>
        <time>2011-05-22T10:35:03.000Z</time>
      </trkpt>
      <trkpt lat="48.73187" lon="1.61234">
        <ele>152.39999389648</ele>
        <time>2011-05-22T10:35:11.000Z</time>
      </trkpt>
      <trkpt lat="48.73198" lon="1.61245">
        <ele>151.80000305176</ele>
        <time>2011-05-22T10:35:19.000Z</time>
      </trkpt>
      <trkpt lat="48.732" lon="1.61262">
        <ele>152</ele>
        <time>2011-05-22T10:35:26.000Z</time>
      </trkpt>
      <trkpt lat="48.73201" lon="1.61271">
        <ele>152.19999694824</ele>
        <time>2011-05-22T10:35:32.000Z</time>
      </trkpt>
      <trkpt lat="48.73201" lon="1.61271">
        <ele>152.19999694824</ele>
        <time>2011-05-22T10:35:33.000Z</time>
      </trkpt>
      <trkpt lat="48.73202" lon="1.61275">
        <ele>152</ele>
        <time>2011-05-22T10:35:55.000Z</time>
      </trkpt>
      <trkpt lat="48.73198" lon="1.6129">
        <ele>152.80000305176</ele>
        <time>2011-05-22T10:36:00.000Z</time>
      </trkpt>
      <trkpt lat="48.73195" lon="1.613">
        <ele>153.39999389648</ele>
        <time>2011-05-22T10:36:05.000Z</time>
      </trkpt>
      <trkpt lat="48.73194" lon="1.61314">
        <ele>154</ele>
        <time>2011-05-22T10:36:12.000Z</time>
      </trkpt>
      <trkpt lat="48.73189" lon="1.61333">
        <ele>155.19999694824</ele>
        <time>2011-05-22T10:36:21.000Z</time>
      </trkpt>
      <trkpt lat="48.73185" lon="1.61348">
        <ele>155</ele>
        <time>2011-05-22T10:36:28.000Z</time>
      </trkpt>
      <trkpt lat="48.73183" lon="1.61352">
        <ele>155</ele>
        <time>2011-05-22T10:36:30.000Z</time>
      </trkpt>
      <trkpt lat="48.73181" lon="1.61364">
        <ele>154.80000305176</ele>
        <time>2011-05-22T10:36:35.000Z</time>
      </trkpt>
      <trkpt lat="48.73178" lon="1.61381">
        <ele>154.39999389648</ele>
        <time>2011-05-22T10:36:43.000Z</time>
      </trkpt>
      <trkpt lat="48.73175" lon="1.61393">
        <ele>154</ele>
        <time>2011-05-22T10:36:48.000Z</time>
      </trkpt>
      <trkpt lat="48.73175" lon="1.61395">
        <ele>154</ele>
        <time>2011-05-22T10:36:49.000Z</time>
      </trkpt>
      <trkpt lat="48.7317" lon="1.61409">
        <ele>153.80000305176</ele>
        <time>2011-05-22T10:36:55.000Z</time>
      </trkpt>
      <trkpt lat="48.73166" lon="1.61426">
        <ele>153</ele>
        <time>2011-05-22T10:37:03.000Z</time>
      </trkpt>
      <trkpt lat="48.7316" lon="1.61443">
        <ele>151.39999389648</ele>
        <time>2011-05-22T10:37:11.000Z</time>
      </trkpt>
      <trkpt lat="48.73159" lon="1.61457">
        <ele>150.39999389648</ele>
        <time>2011-05-22T10:37:18.000Z</time>
      </trkpt>
      <trkpt lat="48.73156" lon="1.61468">
        <ele>149.39999389648</ele>
        <time>2011-05-22T10:37:23.000Z</time>
      </trkpt>
      <trkpt lat="48.73155" lon="1.61476">
        <ele>148.60000610352</ele>
        <time>2011-05-22T10:37:27.000Z</time>
      </trkpt>
      <trkpt lat="48.7315" lon="1.61488">
        <ele>147.60000610352</ele>
        <time>2011-05-22T10:37:33.000Z</time>
      </trkpt>
      <trkpt lat="48.73145" lon="1.61505">
        <ele>146.19999694824</ele>
        <time>2011-05-22T10:37:40.000Z</time>
      </trkpt>
      <trkpt lat="48.73143" lon="1.61511">
        <ele>145.80000305176</ele>
        <time>2011-05-22T10:37:43.000Z</time>
      </trkpt>
      <trkpt lat="48.7314" lon="1.61527">
        <ele>145.19999694824</ele>
        <time>2011-05-22T10:37:50.000Z</time>
      </trkpt>
      <trkpt lat="48.73135" lon="1.61544">
        <ele>144.39999389648</ele>
        <time>2011-05-22T10:37:57.000Z</time>
      </trkpt>
      <trkpt lat="48.73131" lon="1.61563">
        <ele>143.60000610352</ele>
        <time>2011-05-22T10:38:04.000Z</time>
      </trkpt>
      <trkpt lat="48.73126" lon="1.61577">
        <ele>143.19999694824</ele>
        <time>2011-05-22T10:38:10.000Z</time>
      </trkpt>
      <trkpt lat="48.7312" lon="1.61597">
        <ele>143.39999389648</ele>
        <time>2011-05-22T10:38:17.000Z</time>
      </trkpt>
      <trkpt lat="48.73117" lon="1.61612">
        <ele>144.19999694824</ele>
        <time>2011-05-22T10:38:23.000Z</time>
      </trkpt>
      <trkpt lat="48.73114" lon="1.61633">
        <ele>145.19999694824</ele>
        <time>2011-05-22T10:38:32.000Z</time>
      </trkpt>
      <trkpt lat="48.73114" lon="1.61654">
        <ele>146.19999694824</ele>
        <time>2011-05-22T10:38:40.000Z</time>
      </trkpt>
      <trkpt lat="48.73116" lon="1.61672">
        <ele>146.80000305176</ele>
        <time>2011-05-22T10:38:46.000Z</time>
      </trkpt>
      <trkpt lat="48.73116" lon="1.61689">
        <ele>147.19999694824</ele>
        <time>2011-05-22T10:38:52.000Z</time>
      </trkpt>
      <trkpt lat="48.73116" lon="1.61697">
        <ele>147.39999389648</ele>
        <time>2011-05-22T10:38:55.000Z</time>
      </trkpt>
      <trkpt lat="48.73115" lon="1.61712">
        <ele>147.80000305176</ele>
        <time>2011-05-22T10:39:01.000Z</time>
      </trkpt>
      <trkpt lat="48.73111" lon="1.6173">
        <ele>148.19999694824</ele>
        <time>2011-05-22T10:39:09.000Z</time>
      </trkpt>
      <trkpt lat="48.73109" lon="1.61741">
        <ele>148.39999389648</ele>
        <time>2011-05-22T10:39:14.000Z</time>
      </trkpt>
      <trkpt lat="48.73106" lon="1.6175">
        <ele>148.60000610352</ele>
        <time>2011-05-22T10:39:18.000Z</time>
      </trkpt>
      <trkpt lat="48.73101" lon="1.61761">
        <ele>148.19999694824</ele>
        <time>2011-05-22T10:39:23.000Z</time>
      </trkpt>
      <trkpt lat="48.73094" lon="1.61777">
        <ele>147.60000610352</ele>
        <time>2011-05-22T10:39:31.000Z</time>
      </trkpt>
      <trkpt lat="48.73087" lon="1.6179">
        <ele>147</ele>
        <time>2011-05-22T10:39:37.000Z</time>
      </trkpt>
      <trkpt lat="48.7308" lon="1.61806">
        <ele>146.19999694824</ele>
        <time>2011-05-22T10:39:45.000Z</time>
      </trkpt>
      <trkpt lat="48.73071" lon="1.61827">
        <ele>145.19999694824</ele>
        <time>2011-05-22T10:39:55.000Z</time>
      </trkpt>
      <trkpt lat="48.73064" lon="1.61846">
        <ele>144.39999389648</ele>
        <time>2011-05-22T10:40:04.000Z</time>
      </trkpt>
      <trkpt lat="48.73056" lon="1.61866">
        <ele>143.80000305176</ele>
        <time>2011-05-22T10:40:13.000Z</time>
      </trkpt>
      <trkpt lat="48.73046" lon="1.61891">
        <ele>142.80000305176</ele>
        <time>2011-05-22T10:40:24.000Z</time>
      </trkpt>
      <trkpt lat="48.73043" lon="1.61906">
        <ele>142.19999694824</ele>
        <time>2011-05-22T10:40:31.000Z</time>
      </trkpt>
      <trkpt lat="48.73043" lon="1.61916">
        <ele>142</ele>
        <time>2011-05-22T10:40:35.000Z</time>
      </trkpt>
      <trkpt lat="48.73045" lon="1.61917">
        <ele>141.80000305176</ele>
        <time>2011-05-22T10:40:39.000Z</time>
      </trkpt>
      <trkpt lat="48.73037" lon="1.6192">
        <ele>141.80000305176</ele>
        <time>2011-05-22T10:40:58.000Z</time>
      </trkpt>
      <trkpt lat="48.7303" lon="1.61928">
        <ele>141.80000305176</ele>
        <time>2011-05-22T10:41:03.000Z</time>
      </trkpt>
      <trkpt lat="48.73023" lon="1.61944">
        <ele>141.39999389648</ele>
        <time>2011-05-22T10:41:10.000Z</time>
      </trkpt>
      <trkpt lat="48.73018" lon="1.61958">
        <ele>141.19999694824</ele>
        <time>2011-05-22T10:41:16.000Z</time>
      </trkpt>
      <trkpt lat="48.73012" lon="1.61974">
        <ele>140.80000305176</ele>
        <time>2011-05-22T10:41:23.000Z</time>
      </trkpt>
      <trkpt lat="48.73008" lon="1.61984">
        <ele>140.39999389648</ele>
        <time>2011-05-22T10:41:28.000Z</time>
      </trkpt>
      <trkpt lat="48.73005" lon="1.61992">
        <ele>140.19999694824</ele>
        <time>2011-05-22T10:41:32.000Z</time>
      </trkpt>
      <trkpt lat="48.73003" lon="1.61996">
        <ele>140</ele>
        <time>2011-05-22T10:41:34.000Z</time>
      </trkpt>
      <trkpt lat="48.73001" lon="1.62">
        <ele>140</ele>
        <time>2011-05-22T10:41:36.000Z</time>
      </trkpt>
      <trkpt lat="48.73001" lon="1.6201">
        <ele>139.60000610352</ele>
        <time>2011-05-22T10:41:40.000Z</time>
      </trkpt>
      <trkpt lat="48.7299" lon="1.62036">
        <ele>139.80000305176</ele>
        <time>2011-05-22T10:41:52.000Z</time>
      </trkpt>
      <trkpt lat="48.72985" lon="1.62048">
        <ele>139.80000305176</ele>
        <time>2011-05-22T10:41:58.000Z</time>
      </trkpt>
      <trkpt lat="48.72977" lon="1.62067">
        <ele>139.60000610352</ele>
        <time>2011-05-22T10:42:07.000Z</time>
      </trkpt>
      <trkpt lat="48.72969" lon="1.62088">
        <ele>139.39999389648</ele>
        <time>2011-05-22T10:42:17.000Z</time>
      </trkpt>
      <trkpt lat="48.7296" lon="1.62109">
        <ele>139.19999694824</ele>
        <time>2011-05-22T10:42:27.000Z</time>
      </trkpt>
      <trkpt lat="48.72955" lon="1.62121">
        <ele>139</ele>
        <time>2011-05-22T10:42:33.000Z</time>
      </trkpt>
      <trkpt lat="48.72945" lon="1.62145">
        <ele>138.80000305176</ele>
        <time>2011-05-22T10:42:44.000Z</time>
      </trkpt>
      <trkpt lat="48.72944" lon="1.62146">
        <ele>138.80000305176</ele>
        <time>2011-05-22T10:42:45.000Z</time>
      </trkpt>
      <trkpt lat="48.72935" lon="1.62155">
        <ele>138.80000305176</ele>
        <time>2011-05-22T10:42:52.000Z</time>
      </trkpt>
      <trkpt lat="48.72933" lon="1.62157">
        <ele>138.80000305176</ele>
        <time>2011-05-22T10:42:54.000Z</time>
      </trkpt>
      <trkpt lat="48.72924" lon="1.62169">
        <ele>138.60000610352</ele>
        <time>2011-05-22T10:43:01.000Z</time>
      </trkpt>
      <trkpt lat="48.72918" lon="1.62179">
        <ele>138.80000305176</ele>
        <time>2011-05-22T10:43:07.000Z</time>
      </trkpt>
      <trkpt lat="48.72911" lon="1.62194">
        <ele>138.60000610352</ele>
        <time>2011-05-22T10:43:14.000Z</time>
      </trkpt>
      <trkpt lat="48.72902" lon="1.6221">
        <ele>138.39999389648</ele>
        <time>2011-05-22T10:43:23.000Z</time>
      </trkpt>
      <trkpt lat="48.72892" lon="1.62226">
        <ele>138.39999389648</ele>
        <time>2011-05-22T10:43:32.000Z</time>
      </trkpt>
      <trkpt lat="48.72882" lon="1.62245">
        <ele>138.39999389648</ele>
        <time>2011-05-22T10:43:42.000Z</time>
      </trkpt>
      <trkpt lat="48.72876" lon="1.62257">
        <ele>138.60000610352</ele>
        <time>2011-05-22T10:43:48.000Z</time>
      </trkpt>
      <trkpt lat="48.72871" lon="1.62267">
        <ele>138.80000305176</ele>
        <time>2011-05-22T10:43:53.000Z</time>
      </trkpt>
      <trkpt lat="48.72864" lon="1.62283">
        <ele>139.19999694824</ele>
        <time>2011-05-22T10:44:01.000Z</time>
      </trkpt>
      <trkpt lat="48.72857" lon="1.62296">
        <ele>139.80000305176</ele>
        <time>2011-05-22T10:44:09.000Z</time>
      </trkpt>
      <trkpt lat="48.72852" lon="1.62307">
        <ele>140.19999694824</ele>
        <time>2011-05-22T10:44:16.000Z</time>
      </trkpt>
      <trkpt lat="48.72844" lon="1.62323">
        <ele>141</ele>
        <time>2011-05-22T10:44:25.000Z</time>
      </trkpt>
      <trkpt lat="48.72836" lon="1.62341">
        <ele>142</ele>
        <time>2011-05-22T10:44:33.000Z</time>
      </trkpt>
      <trkpt lat="48.72826" lon="1.62364">
        <ele>143</ele>
        <time>2011-05-22T10:44:43.000Z</time>
      </trkpt>
      <trkpt lat="48.7282" lon="1.6238">
        <ele>143.39999389648</ele>
        <time>2011-05-22T10:44:50.000Z</time>
      </trkpt>
      <trkpt lat="48.72813" lon="1.62398">
        <ele>144</ele>
        <time>2011-05-22T10:44:58.000Z</time>
      </trkpt>
      <trkpt lat="48.72811" lon="1.62401">
        <ele>144</ele>
        <time>2011-05-22T10:45:02.000Z</time>
      </trkpt>
      <trkpt lat="48.72809" lon="1.62407">
        <ele>144.19999694824</ele>
        <time>2011-05-22T10:45:08.000Z</time>
      </trkpt>
      <trkpt lat="48.72806" lon="1.62419">
        <ele>144.60000610352</ele>
        <time>2011-05-22T10:45:13.000Z</time>
      </trkpt>
      <trkpt lat="48.72802" lon="1.62432">
        <ele>145.39999389648</ele>
        <time>2011-05-22T10:45:21.000Z</time>
      </trkpt>
      <trkpt lat="48.72798" lon="1.62444">
        <ele>145.80000305176</ele>
        <time>2011-05-22T10:45:26.000Z</time>
      </trkpt>
      <trkpt lat="48.72794" lon="1.62458">
        <ele>146.39999389648</ele>
        <time>2011-05-22T10:45:32.000Z</time>
      </trkpt>
      <trkpt lat="48.7279" lon="1.62473">
        <ele>147</ele>
        <time>2011-05-22T10:45:39.000Z</time>
      </trkpt>
      <trkpt lat="48.72789" lon="1.62477">
        <ele>147.19999694824</ele>
        <time>2011-05-22T10:45:41.000Z</time>
      </trkpt>
      <trkpt lat="48.72785" lon="1.62498">
        <ele>148</ele>
        <time>2011-05-22T10:45:50.000Z</time>
      </trkpt>
      <trkpt lat="48.7278" lon="1.62512">
        <ele>148.19999694824</ele>
        <time>2011-05-22T10:45:56.000Z</time>
      </trkpt>
      <trkpt lat="48.72778" lon="1.62524">
        <ele>148.39999389648</ele>
        <time>2011-05-22T10:46:02.000Z</time>
      </trkpt>
      <trkpt lat="48.72776" lon="1.62539">
        <ele>148.80000305176</ele>
        <time>2011-05-22T10:46:09.000Z</time>
      </trkpt>
      <trkpt lat="48.72773" lon="1.62556">
        <ele>149.19999694824</ele>
        <time>2011-05-22T10:46:16.000Z</time>
      </trkpt>
      <trkpt lat="48.72771" lon="1.62573">
        <ele>149.60000610352</ele>
        <time>2011-05-22T10:46:23.000Z</time>
      </trkpt>
      <trkpt lat="48.72769" lon="1.62584">
        <ele>150</ele>
        <time>2011-05-22T10:46:28.000Z</time>
      </trkpt>
      <trkpt lat="48.72765" lon="1.62598">
        <ele>150</ele>
        <time>2011-05-22T10:46:35.000Z</time>
      </trkpt>
      <trkpt lat="48.72764" lon="1.62606">
        <ele>150</ele>
        <time>2011-05-22T10:46:39.000Z</time>
      </trkpt>
      <trkpt lat="48.72759" lon="1.6263">
        <ele>150.19999694824</ele>
        <time>2011-05-22T10:46:49.000Z</time>
      </trkpt>
      <trkpt lat="48.72759" lon="1.62632">
        <ele>150.19999694824</ele>
        <time>2011-05-22T10:46:50.000Z</time>
      </trkpt>
      <trkpt lat="48.72752" lon="1.6265">
        <ele>150.60000610352</ele>
        <time>2011-05-22T10:46:58.000Z</time>
      </trkpt>
      <trkpt lat="48.72752" lon="1.62664">
        <ele>150.80000305176</ele>
        <time>2011-05-22T10:47:03.000Z</time>
      </trkpt>
      <trkpt lat="48.72749" lon="1.62678">
        <ele>151</ele>
        <time>2011-05-22T10:47:10.000Z</time>
      </trkpt>
      <trkpt lat="48.72748" lon="1.62698">
        <ele>151.19999694824</ele>
        <time>2011-05-22T10:47:18.000Z</time>
      </trkpt>
      <trkpt lat="48.72745" lon="1.62712">
        <ele>151.39999389648</ele>
        <time>2011-05-22T10:47:24.000Z</time>
      </trkpt>
      <trkpt lat="48.72742" lon="1.62731">
        <ele>151.39999389648</ele>
        <time>2011-05-22T10:47:31.000Z</time>
      </trkpt>
      <trkpt lat="48.72738" lon="1.62744">
        <ele>151.60000610352</ele>
        <time>2011-05-22T10:47:37.000Z</time>
      </trkpt>
      <trkpt lat="48.72735" lon="1.62761">
        <ele>151.60000610352</ele>
        <time>2011-05-22T10:47:44.000Z</time>
      </trkpt>
      <trkpt lat="48.72732" lon="1.62774">
        <ele>151.60000610352</ele>
        <time>2011-05-22T10:47:51.000Z</time>
      </trkpt>
      <trkpt lat="48.72729" lon="1.6279">
        <ele>151.60000610352</ele>
        <time>2011-05-22T10:47:58.000Z</time>
      </trkpt>
      <trkpt lat="48.72726" lon="1.62803">
        <ele>151.60000610352</ele>
        <time>2011-05-22T10:48:04.000Z</time>
      </trkpt>
      <trkpt lat="48.72725" lon="1.62805">
        <ele>151.60000610352</ele>
        <time>2011-05-22T10:48:05.000Z</time>
      </trkpt>
      <trkpt lat="48.72724" lon="1.62815">
        <ele>151.60000610352</ele>
        <time>2011-05-22T10:48:10.000Z</time>
      </trkpt>
      <trkpt lat="48.72721" lon="1.62832">
        <ele>151.60000610352</ele>
        <time>2011-05-22T10:48:17.000Z</time>
      </trkpt>
      <trkpt lat="48.72719" lon="1.62837">
        <ele>151.39999389648</ele>
        <time>2011-05-22T10:48:19.000Z</time>
      </trkpt>
      <trkpt lat="48.72717" lon="1.6285">
        <ele>151.19999694824</ele>
        <time>2011-05-22T10:48:25.000Z</time>
      </trkpt>
      <trkpt lat="48.72715" lon="1.62863">
        <ele>151</ele>
        <time>2011-05-22T10:48:31.000Z</time>
      </trkpt>
      <trkpt lat="48.72711" lon="1.62873">
        <ele>150.80000305176</ele>
        <time>2011-05-22T10:48:36.000Z</time>
      </trkpt>
      <trkpt lat="48.72708" lon="1.62877">
        <ele>150.80000305176</ele>
        <time>2011-05-22T10:48:38.000Z</time>
      </trkpt>
      <trkpt lat="48.72699" lon="1.62879">
        <ele>151</ele>
        <time>2011-05-22T10:48:44.000Z</time>
      </trkpt>
      <trkpt lat="48.72697" lon="1.62879">
        <ele>151</ele>
        <time>2011-05-22T10:48:49.000Z</time>
      </trkpt>
      <trkpt lat="48.72691" lon="1.62882">
        <ele>151</ele>
        <time>2011-05-22T10:49:02.000Z</time>
      </trkpt>
      <trkpt lat="48.72683" lon="1.62874">
        <ele>151.19999694824</ele>
        <time>2011-05-22T10:49:07.000Z</time>
      </trkpt>
      <trkpt lat="48.72673" lon="1.62879">
        <ele>151.39999389648</ele>
        <time>2011-05-22T10:49:13.000Z</time>
      </trkpt>
      <trkpt lat="48.72658" lon="1.62891">
        <ele>151.60000610352</ele>
        <time>2011-05-22T10:49:22.000Z</time>
      </trkpt>
      <trkpt lat="48.72657" lon="1.62892">
        <ele>151.60000610352</ele>
        <time>2011-05-22T10:49:23.000Z</time>
      </trkpt>
      <trkpt lat="48.72651" lon="1.62903">
        <ele>151.60000610352</ele>
        <time>2011-05-22T10:49:29.000Z</time>
      </trkpt>
      <trkpt lat="48.72642" lon="1.6292">
        <ele>151.60000610352</ele>
        <time>2011-05-22T10:49:37.000Z</time>
      </trkpt>
      <trkpt lat="48.72635" lon="1.62936">
        <ele>151.80000305176</ele>
        <time>2011-05-22T10:49:45.000Z</time>
      </trkpt>
      <trkpt lat="48.72628" lon="1.62958">
        <ele>151.80000305176</ele>
        <time>2011-05-22T10:49:55.000Z</time>
      </trkpt>
      <trkpt lat="48.72622" lon="1.62978">
        <ele>151.60000610352</ele>
        <time>2011-05-22T10:50:04.000Z</time>
      </trkpt>
      <trkpt lat="48.72615" lon="1.62999">
        <ele>151.39999389648</ele>
        <time>2011-05-22T10:50:13.000Z</time>
      </trkpt>
      <trkpt lat="48.72609" lon="1.63018">
        <ele>151</ele>
        <time>2011-05-22T10:50:21.000Z</time>
      </trkpt>
      <trkpt lat="48.72604" lon="1.63034">
        <ele>150.39999389648</ele>
        <time>2011-05-22T10:50:28.000Z</time>
      </trkpt>
      <trkpt lat="48.72594" lon="1.63052">
        <ele>149.39999389648</ele>
        <time>2011-05-22T10:50:37.000Z</time>
      </trkpt>
      <trkpt lat="48.72585" lon="1.6305">
        <ele>148.80000305176</ele>
        <time>2011-05-22T10:50:43.000Z</time>
      </trkpt>
      <trkpt lat="48.7257" lon="1.63042">
        <ele>149</ele>
        <time>2011-05-22T10:50:52.000Z</time>
      </trkpt>
      <trkpt lat="48.72557" lon="1.63034">
        <ele>149.39999389648</ele>
        <time>2011-05-22T10:51:00.000Z</time>
      </trkpt>
      <trkpt lat="48.72547" lon="1.63027">
        <ele>149.80000305176</ele>
        <time>2011-05-22T10:51:06.000Z</time>
      </trkpt>
      <trkpt lat="48.72539" lon="1.63021">
        <ele>150.19999694824</ele>
        <time>2011-05-22T10:51:12.000Z</time>
      </trkpt>
      <trkpt lat="48.72529" lon="1.6301">
        <ele>150.80000305176</ele>
        <time>2011-05-22T10:51:19.000Z</time>
      </trkpt>
      <trkpt lat="48.72517" lon="1.62997">
        <ele>151.60000610352</ele>
        <time>2011-05-22T10:51:27.000Z</time>
      </trkpt>
      <trkpt lat="48.72504" lon="1.62982">
        <ele>152.60000610352</ele>
        <time>2011-05-22T10:51:37.000Z</time>
      </trkpt>
      <trkpt lat="48.72494" lon="1.62971">
        <ele>153.39999389648</ele>
        <time>2011-05-22T10:51:44.000Z</time>
      </trkpt>
      <trkpt lat="48.72479" lon="1.62951">
        <ele>154.19999694824</ele>
        <time>2011-05-22T10:51:54.000Z</time>
      </trkpt>
      <trkpt lat="48.7247" lon="1.62938">
        <ele>154.60000610352</ele>
        <time>2011-05-22T10:52:01.000Z</time>
      </trkpt>
      <trkpt lat="48.72458" lon="1.62921">
        <ele>155.19999694824</ele>
        <time>2011-05-22T10:52:11.000Z</time>
      </trkpt>
      <trkpt lat="48.7245" lon="1.62906">
        <ele>155.60000610352</ele>
        <time>2011-05-22T10:52:19.000Z</time>
      </trkpt>
      <trkpt lat="48.72445" lon="1.62897">
        <ele>155.80000305176</ele>
        <time>2011-05-22T10:52:24.000Z</time>
      </trkpt>
      <trkpt lat="48.72439" lon="1.62883">
        <ele>156.19999694824</ele>
        <time>2011-05-22T10:52:31.000Z</time>
      </trkpt>
      <trkpt lat="48.72433" lon="1.62869">
        <ele>156.80000305176</ele>
        <time>2011-05-22T10:52:38.000Z</time>
      </trkpt>
      <trkpt lat="48.72427" lon="1.62857">
        <ele>157.39999389648</ele>
        <time>2011-05-22T10:52:45.000Z</time>
      </trkpt>
      <trkpt lat="48.72423" lon="1.62846">
        <ele>158</ele>
        <time>2011-05-22T10:52:51.000Z</time>
      </trkpt>
      <trkpt lat="48.72415" lon="1.62832">
        <ele>159</ele>
        <time>2011-05-22T10:52:59.000Z</time>
      </trkpt>
      <trkpt lat="48.72405" lon="1.62814">
        <ele>159</ele>
        <time>2011-05-22T10:53:09.000Z</time>
      </trkpt>
      <trkpt lat="48.72403" lon="1.62813">
        <ele>159</ele>
        <time>2011-05-22T10:53:11.000Z</time>
      </trkpt>
      <trkpt lat="48.72394" lon="1.62816">
        <ele>159</ele>
        <time>2011-05-22T10:53:18.000Z</time>
      </trkpt>
      <trkpt lat="48.72383" lon="1.62822">
        <ele>159</ele>
        <time>2011-05-22T10:53:24.000Z</time>
      </trkpt>
      <trkpt lat="48.72371" lon="1.6283">
        <ele>159</ele>
        <time>2011-05-22T10:53:31.000Z</time>
      </trkpt>
      <trkpt lat="48.72357" lon="1.62841">
        <ele>158.60000610352</ele>
        <time>2011-05-22T10:53:40.000Z</time>
      </trkpt>
      <trkpt lat="48.72343" lon="1.62854">
        <ele>158</ele>
        <time>2011-05-22T10:53:49.000Z</time>
      </trkpt>
      <trkpt lat="48.72335" lon="1.62858">
        <ele>157.80000305176</ele>
        <time>2011-05-22T10:53:54.000Z</time>
      </trkpt>
      <trkpt lat="48.72328" lon="1.62861">
        <ele>157.60000610352</ele>
        <time>2011-05-22T10:54:00.000Z</time>
      </trkpt>
      <trkpt lat="48.72326" lon="1.62861">
        <ele>157.60000610352</ele>
        <time>2011-05-22T10:54:01.000Z</time>
      </trkpt>
      <trkpt lat="48.72315" lon="1.62867">
        <ele>157.39999389648</ele>
        <time>2011-05-22T10:54:08.000Z</time>
      </trkpt>
      <trkpt lat="48.7231" lon="1.62869">
        <ele>157.39999389648</ele>
        <time>2011-05-22T10:54:11.000Z</time>
      </trkpt>
      <trkpt lat="48.72303" lon="1.62877">
        <ele>157.19999694824</ele>
        <time>2011-05-22T10:54:16.000Z</time>
      </trkpt>
      <trkpt lat="48.72295" lon="1.62884">
        <ele>157.19999694824</ele>
        <time>2011-05-22T10:54:22.000Z</time>
      </trkpt>
      <trkpt lat="48.72288" lon="1.62891">
        <ele>157.19999694824</ele>
        <time>2011-05-22T10:54:27.000Z</time>
      </trkpt>
      <trkpt lat="48.72285" lon="1.62893">
        <ele>157.19999694824</ele>
        <time>2011-05-22T10:54:30.000Z</time>
      </trkpt>
      <trkpt lat="48.72276" lon="1.62901">
        <ele>157.19999694824</ele>
        <time>2011-05-22T10:54:34.000Z</time>
      </trkpt>
      <trkpt lat="48.7226" lon="1.62914">
        <ele>157.60000610352</ele>
        <time>2011-05-22T10:54:43.000Z</time>
      </trkpt>
      <trkpt lat="48.72248" lon="1.62924">
        <ele>157.80000305176</ele>
        <time>2011-05-22T10:54:51.000Z</time>
      </trkpt>
      <trkpt lat="48.72236" lon="1.62931">
        <ele>158</ele>
        <time>2011-05-22T10:54:58.000Z</time>
      </trkpt>
      <trkpt lat="48.72225" lon="1.62938">
        <ele>158</ele>
        <time>2011-05-22T10:55:05.000Z</time>
      </trkpt>
      <trkpt lat="48.72212" lon="1.6295">
        <ele>158.19999694824</ele>
        <time>2011-05-22T10:55:14.000Z</time>
      </trkpt>
      <trkpt lat="48.72202" lon="1.62957">
        <ele>158.19999694824</ele>
        <time>2011-05-22T10:55:20.000Z</time>
      </trkpt>
      <trkpt lat="48.72193" lon="1.62965">
        <ele>158.39999389648</ele>
        <time>2011-05-22T10:55:27.000Z</time>
      </trkpt>
      <trkpt lat="48.7219" lon="1.62966">
        <ele>158.39999389648</ele>
        <time>2011-05-22T10:55:29.000Z</time>
      </trkpt>
      <trkpt lat="48.72188" lon="1.62967">
        <ele>158.39999389648</ele>
        <time>2011-05-22T10:55:32.000Z</time>
      </trkpt>
      <trkpt lat="48.72186" lon="1.62962">
        <ele>158.60000610352</ele>
        <time>2011-05-22T10:55:39.000Z</time>
      </trkpt>
      <trkpt lat="48.72184" lon="1.62965">
        <ele>158.60000610352</ele>
        <time>2011-05-22T10:55:43.000Z</time>
      </trkpt>
      <trkpt lat="48.72178" lon="1.62968">
        <ele>158.60000610352</ele>
        <time>2011-05-22T10:55:46.000Z</time>
      </trkpt>
      <trkpt lat="48.7217" lon="1.62977">
        <ele>158.80000305176</ele>
        <time>2011-05-22T10:55:53.000Z</time>
      </trkpt>
      <trkpt lat="48.72157" lon="1.62987">
        <ele>159.19999694824</ele>
        <time>2011-05-22T10:56:00.000Z</time>
      </trkpt>
      <trkpt lat="48.7215" lon="1.6299">
        <ele>159.39999389648</ele>
        <time>2011-05-22T10:56:04.000Z</time>
      </trkpt>
      <trkpt lat="48.7214" lon="1.62999">
        <ele>159.80000305176</ele>
        <time>2011-05-22T10:56:11.000Z</time>
      </trkpt>
      <trkpt lat="48.72133" lon="1.63005">
        <ele>160</ele>
        <time>2011-05-22T10:56:16.000Z</time>
      </trkpt>
      <trkpt lat="48.72124" lon="1.63011">
        <ele>160.19999694824</ele>
        <time>2011-05-22T10:56:22.000Z</time>
      </trkpt>
      <trkpt lat="48.72111" lon="1.6302">
        <ele>160.60000610352</ele>
        <time>2011-05-22T10:56:30.000Z</time>
      </trkpt>
      <trkpt lat="48.72098" lon="1.63028">
        <ele>161</ele>
        <time>2011-05-22T10:56:39.000Z</time>
      </trkpt>
      <trkpt lat="48.7209" lon="1.63033">
        <ele>161.19999694824</ele>
        <time>2011-05-22T10:56:45.000Z</time>
      </trkpt>
      <trkpt lat="48.72079" lon="1.63041">
        <ele>161.80000305176</ele>
        <time>2011-05-22T10:56:52.000Z</time>
      </trkpt>
      <trkpt lat="48.72068" lon="1.63046">
        <ele>162.60000610352</ele>
        <time>2011-05-22T10:56:59.000Z</time>
      </trkpt>
      <trkpt lat="48.7206" lon="1.63054">
        <ele>163.19999694824</ele>
        <time>2011-05-22T10:57:06.000Z</time>
      </trkpt>
      <trkpt lat="48.72053" lon="1.6306">
        <ele>164</ele>
        <time>2011-05-22T10:57:12.000Z</time>
      </trkpt>
      <trkpt lat="48.72043" lon="1.63065">
        <ele>164.80000305176</ele>
        <time>2011-05-22T10:57:20.000Z</time>
      </trkpt>
      <trkpt lat="48.72034" lon="1.6307">
        <ele>165.60000610352</ele>
        <time>2011-05-22T10:57:25.000Z</time>
      </trkpt>
      <trkpt lat="48.72024" lon="1.63074">
        <ele>166.60000610352</ele>
        <time>2011-05-22T10:57:32.000Z</time>
      </trkpt>
      <trkpt lat="48.72016" lon="1.63078">
        <ele>167.19999694824</ele>
        <time>2011-05-22T10:57:37.000Z</time>
      </trkpt>
      <trkpt lat="48.72007" lon="1.63081">
        <ele>168.19999694824</ele>
        <time>2011-05-22T10:57:44.000Z</time>
      </trkpt>
      <trkpt lat="48.72004" lon="1.6308">
        <ele>168.39999389648</ele>
        <time>2011-05-22T10:57:46.000Z</time>
      </trkpt>
      <trkpt lat="48.71996" lon="1.63085">
        <ele>169.39999389648</ele>
        <time>2011-05-22T10:57:51.000Z</time>
      </trkpt>
      <trkpt lat="48.71986" lon="1.63087">
        <ele>170.39999389648</ele>
        <time>2011-05-22T10:57:57.000Z</time>
      </trkpt>
      <trkpt lat="48.71974" lon="1.63091">
        <ele>171.60000610352</ele>
        <time>2011-05-22T10:58:05.000Z</time>
      </trkpt>
      <trkpt lat="48.71966" lon="1.63095">
        <ele>172.60000610352</ele>
        <time>2011-05-22T10:58:12.000Z</time>
      </trkpt>
      <trkpt lat="48.71958" lon="1.631">
        <ele>173.39999389648</ele>
        <time>2011-05-22T10:58:18.000Z</time>
      </trkpt>
      <trkpt lat="48.71952" lon="1.63103">
        <ele>174</ele>
        <time>2011-05-22T10:58:23.000Z</time>
      </trkpt>
      <trkpt lat="48.71943" lon="1.63109">
        <ele>175</ele>
        <time>2011-05-22T10:58:30.000Z</time>
      </trkpt>
      <trkpt lat="48.71934" lon="1.63113">
        <ele>176</ele>
        <time>2011-05-22T10:58:35.000Z</time>
      </trkpt>
      <trkpt lat="48.71923" lon="1.63119">
        <ele>177.19999694824</ele>
        <time>2011-05-22T10:58:41.000Z</time>
      </trkpt>
      <trkpt lat="48.71911" lon="1.63122">
        <ele>178.19999694824</ele>
        <time>2011-05-22T10:58:48.000Z</time>
      </trkpt>
      <trkpt lat="48.71903" lon="1.63125">
        <ele>178.80000305176</ele>
        <time>2011-05-22T10:58:55.000Z</time>
      </trkpt>
      <trkpt lat="48.71895" lon="1.63128">
        <ele>179.39999389648</ele>
        <time>2011-05-22T10:59:01.000Z</time>
      </trkpt>
      <trkpt lat="48.7188" lon="1.63135">
        <ele>180.39999389648</ele>
        <time>2011-05-22T10:59:10.000Z</time>
      </trkpt>
      <trkpt lat="48.71871" lon="1.63145">
        <ele>181.39999389648</ele>
        <time>2011-05-22T10:59:17.000Z</time>
      </trkpt>
      <trkpt lat="48.71862" lon="1.63154">
        <ele>182.19999694824</ele>
        <time>2011-05-22T10:59:23.000Z</time>
      </trkpt>
      <trkpt lat="48.71857" lon="1.6316">
        <ele>182.80000305176</ele>
        <time>2011-05-22T10:59:27.000Z</time>
      </trkpt>
      <trkpt lat="48.7185" lon="1.63169">
        <ele>183.39999389648</ele>
        <time>2011-05-22T10:59:32.000Z</time>
      </trkpt>
      <trkpt lat="48.71846" lon="1.63172">
        <ele>183.80000305176</ele>
        <time>2011-05-22T10:59:35.000Z</time>
      </trkpt>
      <trkpt lat="48.71837" lon="1.63182">
        <ele>184.39999389648</ele>
        <time>2011-05-22T10:59:42.000Z</time>
      </trkpt>
      <trkpt lat="48.71836" lon="1.63184">
        <ele>184.39999389648</ele>
        <time>2011-05-22T10:59:43.000Z</time>
      </trkpt>
      <trkpt lat="48.71833" lon="1.63186">
        <ele>184.60000610352</ele>
        <time>2011-05-22T10:59:45.000Z</time>
      </trkpt>
      <trkpt lat="48.71824" lon="1.63197">
        <ele>184.60000610352</ele>
        <time>2011-05-22T10:59:51.000Z</time>
      </trkpt>
      <trkpt lat="48.71822" lon="1.63197">
        <ele>184.60000610352</ele>
        <time>2011-05-22T10:59:53.000Z</time>
      </trkpt>
      <trkpt lat="48.71811" lon="1.632">
        <ele>184.80000305176</ele>
        <time>2011-05-22T11:00:01.000Z</time>
      </trkpt>
      <trkpt lat="48.71807" lon="1.63202">
        <ele>184.80000305176</ele>
        <time>2011-05-22T11:00:05.000Z</time>
      </trkpt>
      <trkpt lat="48.71802" lon="1.63206">
        <ele>184.80000305176</ele>
        <time>2011-05-22T11:00:09.000Z</time>
      </trkpt>
      <trkpt lat="48.71795" lon="1.63207">
        <ele>184.80000305176</ele>
        <time>2011-05-22T11:00:15.000Z</time>
      </trkpt>
      <trkpt lat="48.71794" lon="1.63207">
        <ele>184.80000305176</ele>
        <time>2011-05-22T11:00:16.000Z</time>
      </trkpt>
      <trkpt lat="48.71785" lon="1.63208">
        <ele>185</ele>
        <time>2011-05-22T11:00:22.000Z</time>
      </trkpt>
      <trkpt lat="48.71775" lon="1.63215">
        <ele>185.19999694824</ele>
        <time>2011-05-22T11:00:29.000Z</time>
      </trkpt>
      <trkpt lat="48.7177" lon="1.63222">
        <ele>185.19999694824</ele>
        <time>2011-05-22T11:00:34.000Z</time>
      </trkpt>
      <trkpt lat="48.71762" lon="1.63233">
        <ele>185.39999389648</ele>
        <time>2011-05-22T11:00:42.000Z</time>
      </trkpt>
      <trkpt lat="48.71755" lon="1.63241">
        <ele>185.60000610352</ele>
        <time>2011-05-22T11:00:48.000Z</time>
      </trkpt>
      <trkpt lat="48.71754" lon="1.63243">
        <ele>185.80000305176</ele>
        <time>2011-05-22T11:00:49.000Z</time>
      </trkpt>
      <trkpt lat="48.71746" lon="1.63259">
        <ele>185.80000305176</ele>
        <time>2011-05-22T11:00:55.000Z</time>
      </trkpt>
      <trkpt lat="48.71734" lon="1.63276">
        <ele>185.80000305176</ele>
        <time>2011-05-22T11:01:00.000Z</time>
      </trkpt>
      <trkpt lat="48.7172" lon="1.63304">
        <ele>185.80000305176</ele>
        <time>2011-05-22T11:01:06.000Z</time>
      </trkpt>
      <trkpt lat="48.71706" lon="1.63326">
        <ele>186</ele>
        <time>2011-05-22T11:01:11.000Z</time>
      </trkpt>
      <trkpt lat="48.71695" lon="1.6335">
        <ele>186.19999694824</ele>
        <time>2011-05-22T11:01:16.000Z</time>
      </trkpt>
      <trkpt lat="48.7169" lon="1.63363">
        <ele>186.39999389648</ele>
        <time>2011-05-22T11:01:18.000Z</time>
      </trkpt>
      <trkpt lat="48.71681" lon="1.63377">
        <ele>186.80000305176</ele>
        <time>2011-05-22T11:01:21.000Z</time>
      </trkpt>
      <trkpt lat="48.71668" lon="1.63394">
        <ele>187.60000610352</ele>
        <time>2011-05-22T11:01:25.000Z</time>
      </trkpt>
      <trkpt lat="48.71655" lon="1.63411">
        <ele>187.80000305176</ele>
        <time>2011-05-22T11:01:29.000Z</time>
      </trkpt>
      <trkpt lat="48.7164" lon="1.63442">
        <ele>187.60000610352</ele>
        <time>2011-05-22T11:01:36.000Z</time>
      </trkpt>
      <trkpt lat="48.71627" lon="1.6347">
        <ele>187.80000305176</ele>
        <time>2011-05-22T11:01:41.000Z</time>
      </trkpt>
      <trkpt lat="48.71615" lon="1.63494">
        <ele>187.80000305176</ele>
        <time>2011-05-22T11:01:46.000Z</time>
      </trkpt>
      <trkpt lat="48.71613" lon="1.63499">
        <ele>187.80000305176</ele>
        <time>2011-05-22T11:01:47.000Z</time>
      </trkpt>
      <trkpt lat="48.71599" lon="1.63529">
        <ele>188.19999694824</ele>
        <time>2011-05-22T11:01:53.000Z</time>
      </trkpt>
      <trkpt lat="48.71594" lon="1.63538">
        <ele>188.19999694824</ele>
        <time>2011-05-22T11:01:55.000Z</time>
      </trkpt>
      <trkpt lat="48.71575" lon="1.63573">
        <ele>188.80000305176</ele>
        <time>2011-05-22T11:02:02.000Z</time>
      </trkpt>
      <trkpt lat="48.71567" lon="1.63586">
        <ele>189</ele>
        <time>2011-05-22T11:02:05.000Z</time>
      </trkpt>
      <trkpt lat="48.71551" lon="1.63615">
        <ele>189</ele>
        <time>2011-05-22T11:02:12.000Z</time>
      </trkpt>
      <trkpt lat="48.71541" lon="1.63637">
        <ele>188.80000305176</ele>
        <time>2011-05-22T11:02:17.000Z</time>
      </trkpt>
      <trkpt lat="48.71532" lon="1.63654">
        <ele>188.60000610352</ele>
        <time>2011-05-22T11:02:21.000Z</time>
      </trkpt>
      <trkpt lat="48.71521" lon="1.63674">
        <ele>188.39999389648</ele>
        <time>2011-05-22T11:02:25.000Z</time>
      </trkpt>
      <trkpt lat="48.71506" lon="1.63695">
        <ele>188.19999694824</ele>
        <time>2011-05-22T11:02:31.000Z</time>
      </trkpt>
      <trkpt lat="48.71495" lon="1.63699">
        <ele>188.19999694824</ele>
        <time>2011-05-22T11:02:36.000Z</time>
      </trkpt>
      <trkpt lat="48.71494" lon="1.63698">
        <ele>188.39999389648</ele>
        <time>2011-05-22T11:02:40.000Z</time>
      </trkpt>
      <trkpt lat="48.71499" lon="1.63695">
        <ele>188.19999694824</ele>
        <time>2011-05-22T11:02:49.000Z</time>
      </trkpt>
      <trkpt lat="48.71497" lon="1.63684">
        <ele>188.60000610352</ele>
        <time>2011-05-22T11:02:53.000Z</time>
      </trkpt>
      <trkpt lat="48.71492" lon="1.63665">
        <ele>189.19999694824</ele>
        <time>2011-05-22T11:03:01.000Z</time>
      </trkpt>
      <trkpt lat="48.71491" lon="1.63663">
        <ele>189.19999694824</ele>
        <time>2011-05-22T11:03:02.000Z</time>
      </trkpt>
      <trkpt lat="48.71489" lon="1.63651">
        <ele>189.39999389648</ele>
        <time>2011-05-22T11:03:08.000Z</time>
      </trkpt>
      <trkpt lat="48.71482" lon="1.63639">
        <ele>189.60000610352</ele>
        <time>2011-05-22T11:03:15.000Z</time>
      </trkpt>
      <trkpt lat="48.71479" lon="1.63629">
        <ele>189.60000610352</ele>
        <time>2011-05-22T11:03:20.000Z</time>
      </trkpt>
      <trkpt lat="48.71477" lon="1.63627">
        <ele>189.60000610352</ele>
        <time>2011-05-22T11:03:22.000Z</time>
      </trkpt>
      <trkpt lat="48.71473" lon="1.63611">
        <ele>189.80000305176</ele>
        <time>2011-05-22T11:03:28.000Z</time>
      </trkpt>
      <trkpt lat="48.71472" lon="1.63602">
        <ele>189.80000305176</ele>
        <time>2011-05-22T11:03:31.000Z</time>
      </trkpt>
      <trkpt lat="48.71461" lon="1.63573">
        <ele>189.80000305176</ele>
        <time>2011-05-22T11:03:37.000Z</time>
      </trkpt>
      <trkpt lat="48.71456" lon="1.6355">
        <ele>189.60000610352</ele>
        <time>2011-05-22T11:03:41.000Z</time>
      </trkpt>
      <trkpt lat="48.71449" lon="1.63522">
        <ele>189.19999694824</ele>
        <time>2011-05-22T11:03:46.000Z</time>
      </trkpt>
      <trkpt lat="48.71442" lon="1.63491">
        <ele>188.39999389648</ele>
        <time>2011-05-22T11:03:52.000Z</time>
      </trkpt>
      <trkpt lat="48.7143" lon="1.6346">
        <ele>187</ele>
        <time>2011-05-22T11:03:58.000Z</time>
      </trkpt>
      <trkpt lat="48.71424" lon="1.63447">
        <ele>186.39999389648</ele>
        <time>2011-05-22T11:04:02.000Z</time>
      </trkpt>
      <trkpt lat="48.71417" lon="1.63428">
        <ele>185.39999389648</ele>
        <time>2011-05-22T11:04:06.000Z</time>
      </trkpt>
      <trkpt lat="48.71405" lon="1.63392">
        <ele>184.80000305176</ele>
        <time>2011-05-22T11:04:12.000Z</time>
      </trkpt>
      <trkpt lat="48.71403" lon="1.63386">
        <ele>184.80000305176</ele>
        <time>2011-05-22T11:04:13.000Z</time>
      </trkpt>
      <trkpt lat="48.71399" lon="1.63376">
        <ele>184.80000305176</ele>
        <time>2011-05-22T11:04:15.000Z</time>
      </trkpt>
      <trkpt lat="48.7139" lon="1.63354">
        <ele>184.60000610352</ele>
        <time>2011-05-22T11:04:20.000Z</time>
      </trkpt>
      <trkpt lat="48.71388" lon="1.63349">
        <ele>184.60000610352</ele>
        <time>2011-05-22T11:04:21.000Z</time>
      </trkpt>
      <trkpt lat="48.71372" lon="1.63301">
        <ele>184.80000305176</ele>
        <time>2011-05-22T11:04:29.000Z</time>
      </trkpt>
      <trkpt lat="48.71357" lon="1.63267">
        <ele>185.19999694824</ele>
        <time>2011-05-22T11:04:35.000Z</time>
      </trkpt>
      <trkpt lat="48.71349" lon="1.63247">
        <ele>185.39999389648</ele>
        <time>2011-05-22T11:04:39.000Z</time>
      </trkpt>
      <trkpt lat="48.71333" lon="1.63207">
        <ele>186</ele>
        <time>2011-05-22T11:04:46.000Z</time>
      </trkpt>
      <trkpt lat="48.71319" lon="1.63169">
        <ele>186.60000610352</ele>
        <time>2011-05-22T11:04:53.000Z</time>
      </trkpt>
      <trkpt lat="48.71303" lon="1.6313">
        <ele>186.80000305176</ele>
        <time>2011-05-22T11:05:00.000Z</time>
      </trkpt>
      <trkpt lat="48.71298" lon="1.63118">
        <ele>187</ele>
        <time>2011-05-22T11:05:02.000Z</time>
      </trkpt>
      <trkpt lat="48.7129" lon="1.63102">
        <ele>187.19999694824</ele>
        <time>2011-05-22T11:05:05.000Z</time>
      </trkpt>
      <trkpt lat="48.71284" lon="1.6308">
        <ele>187.39999389648</ele>
        <time>2011-05-22T11:05:09.000Z</time>
      </trkpt>
      <trkpt lat="48.71278" lon="1.63065">
        <ele>187.19999694824</ele>
        <time>2011-05-22T11:05:12.000Z</time>
      </trkpt>
      <trkpt lat="48.71265" lon="1.63044">
        <ele>187.19999694824</ele>
        <time>2011-05-22T11:05:16.000Z</time>
      </trkpt>
      <trkpt lat="48.71251" lon="1.63022">
        <ele>187.19999694824</ele>
        <time>2011-05-22T11:05:20.000Z</time>
      </trkpt>
      <trkpt lat="48.71231" lon="1.62991">
        <ele>186.60000610352</ele>
        <time>2011-05-22T11:05:26.000Z</time>
      </trkpt>
      <trkpt lat="48.71219" lon="1.6297">
        <ele>186</ele>
        <time>2011-05-22T11:05:30.000Z</time>
      </trkpt>
      <trkpt lat="48.71209" lon="1.62954">
        <ele>185.60000610352</ele>
        <time>2011-05-22T11:05:34.000Z</time>
      </trkpt>
      <trkpt lat="48.71197" lon="1.62933">
        <ele>185</ele>
        <time>2011-05-22T11:05:40.000Z</time>
      </trkpt>
      <trkpt lat="48.71192" lon="1.62923">
        <ele>184.60000610352</ele>
        <time>2011-05-22T11:05:46.000Z</time>
      </trkpt>
      <trkpt lat="48.71184" lon="1.62916">
        <ele>184.39999389648</ele>
        <time>2011-05-22T11:05:52.000Z</time>
      </trkpt>
      <trkpt lat="48.71178" lon="1.62905">
        <ele>184</ele>
        <time>2011-05-22T11:06:00.000Z</time>
      </trkpt>
      <trkpt lat="48.71176" lon="1.62903">
        <ele>183.80000305176</ele>
        <time>2011-05-22T11:06:02.000Z</time>
      </trkpt>
      <trkpt lat="48.71172" lon="1.62899">
        <ele>183.60000610352</ele>
        <time>2011-05-22T11:06:07.000Z</time>
      </trkpt>
      <trkpt lat="48.71164" lon="1.62882">
        <ele>183</ele>
        <time>2011-05-22T11:06:14.000Z</time>
      </trkpt>
      <trkpt lat="48.71157" lon="1.62872">
        <ele>182.39999389648</ele>
        <time>2011-05-22T11:06:20.000Z</time>
      </trkpt>
      <trkpt lat="48.71147" lon="1.62856">
        <ele>181.80000305176</ele>
        <time>2011-05-22T11:06:29.000Z</time>
      </trkpt>
      <trkpt lat="48.71139" lon="1.62846">
        <ele>181.60000610352</ele>
        <time>2011-05-22T11:06:36.000Z</time>
      </trkpt>
      <trkpt lat="48.71131" lon="1.62832">
        <ele>181.39999389648</ele>
        <time>2011-05-22T11:06:44.000Z</time>
      </trkpt>
      <trkpt lat="48.71125" lon="1.6282">
        <ele>181.19999694824</ele>
        <time>2011-05-22T11:06:50.000Z</time>
      </trkpt>
      <trkpt lat="48.71119" lon="1.62806">
        <ele>180.80000305176</ele>
        <time>2011-05-22T11:06:57.000Z</time>
      </trkpt>
      <trkpt lat="48.71113" lon="1.6279">
        <ele>180.60000610352</ele>
        <time>2011-05-22T11:07:04.000Z</time>
      </trkpt>
      <trkpt lat="48.71109" lon="1.62772">
        <ele>180.19999694824</ele>
        <time>2011-05-22T11:07:11.000Z</time>
      </trkpt>
      <trkpt lat="48.71105" lon="1.62759">
        <ele>180</ele>
        <time>2011-05-22T11:07:16.000Z</time>
      </trkpt>
      <trkpt lat="48.71099" lon="1.62744">
        <ele>179.60000610352</ele>
        <time>2011-05-22T11:07:23.000Z</time>
      </trkpt>
      <trkpt lat="48.71097" lon="1.62735">
        <ele>179.19999694824</ele>
        <time>2011-05-22T11:07:27.000Z</time>
      </trkpt>
      <trkpt lat="48.71092" lon="1.62722">
        <ele>178.60000610352</ele>
        <time>2011-05-22T11:07:33.000Z</time>
      </trkpt>
      <trkpt lat="48.71088" lon="1.62711">
        <ele>178</ele>
        <time>2011-05-22T11:07:37.000Z</time>
      </trkpt>
      <trkpt lat="48.71085" lon="1.627">
        <ele>177.39999389648</ele>
        <time>2011-05-22T11:07:42.000Z</time>
      </trkpt>
      <trkpt lat="48.71078" lon="1.62687">
        <ele>177.39999389648</ele>
        <time>2011-05-22T11:07:49.000Z</time>
      </trkpt>
      <trkpt lat="48.71071" lon="1.62678">
        <ele>177.39999389648</ele>
        <time>2011-05-22T11:07:55.000Z</time>
      </trkpt>
      <trkpt lat="48.71063" lon="1.62663">
        <ele>177.39999389648</ele>
        <time>2011-05-22T11:08:01.000Z</time>
      </trkpt>
      <trkpt lat="48.71053" lon="1.62652">
        <ele>177.19999694824</ele>
        <time>2011-05-22T11:08:07.000Z</time>
      </trkpt>
      <trkpt lat="48.71042" lon="1.62636">
        <ele>176.80000305176</ele>
        <time>2011-05-22T11:08:16.000Z</time>
      </trkpt>
      <trkpt lat="48.71031" lon="1.62622">
        <ele>176.60000610352</ele>
        <time>2011-05-22T11:08:24.000Z</time>
      </trkpt>
      <trkpt lat="48.7102" lon="1.62608">
        <ele>176.19999694824</ele>
        <time>2011-05-22T11:08:31.000Z</time>
      </trkpt>
      <trkpt lat="48.7101" lon="1.62596">
        <ele>176.19999694824</ele>
        <time>2011-05-22T11:08:38.000Z</time>
      </trkpt>
      <trkpt lat="48.70998" lon="1.62583">
        <ele>175.80000305176</ele>
        <time>2011-05-22T11:08:47.000Z</time>
      </trkpt>
      <trkpt lat="48.7099" lon="1.62572">
        <ele>175.39999389648</ele>
        <time>2011-05-22T11:08:54.000Z</time>
      </trkpt>
      <trkpt lat="48.70983" lon="1.62565">
        <ele>175.19999694824</ele>
        <time>2011-05-22T11:09:00.000Z</time>
      </trkpt>
      <trkpt lat="48.70977" lon="1.62561">
        <ele>175.19999694824</ele>
        <time>2011-05-22T11:09:06.000Z</time>
      </trkpt>
      <trkpt lat="48.70975" lon="1.62559">
        <ele>175</ele>
        <time>2011-05-22T11:09:08.000Z</time>
      </trkpt>
      <trkpt lat="48.70965" lon="1.62547">
        <ele>174.80000305176</ele>
        <time>2011-05-22T11:09:16.000Z</time>
      </trkpt>
      <trkpt lat="48.70957" lon="1.62537">
        <ele>174.80000305176</ele>
        <time>2011-05-22T11:09:21.000Z</time>
      </trkpt>
      <trkpt lat="48.70947" lon="1.62525">
        <ele>174.60000610352</ele>
        <time>2011-05-22T11:09:27.000Z</time>
      </trkpt>
      <trkpt lat="48.70942" lon="1.62518">
        <ele>174.60000610352</ele>
        <time>2011-05-22T11:09:32.000Z</time>
      </trkpt>
      <trkpt lat="48.70935" lon="1.62512">
        <ele>174.80000305176</ele>
        <time>2011-05-22T11:09:37.000Z</time>
      </trkpt>
      <trkpt lat="48.70927" lon="1.625">
        <ele>175</ele>
        <time>2011-05-22T11:09:44.000Z</time>
      </trkpt>
      <trkpt lat="48.70918" lon="1.6249">
        <ele>175.39999389648</ele>
        <time>2011-05-22T11:09:52.000Z</time>
      </trkpt>
      <trkpt lat="48.7091" lon="1.62481">
        <ele>175.39999389648</ele>
        <time>2011-05-22T11:09:59.000Z</time>
      </trkpt>
      <trkpt lat="48.70902" lon="1.62472">
        <ele>175.39999389648</ele>
        <time>2011-05-22T11:10:06.000Z</time>
      </trkpt>
      <trkpt lat="48.70898" lon="1.62466">
        <ele>175.39999389648</ele>
        <time>2011-05-22T11:10:10.000Z</time>
      </trkpt>
      <trkpt lat="48.70893" lon="1.62455">
        <ele>175.39999389648</ele>
        <time>2011-05-22T11:10:15.000Z</time>
      </trkpt>
      <trkpt lat="48.70888" lon="1.62447">
        <ele>175.19999694824</ele>
        <time>2011-05-22T11:10:20.000Z</time>
      </trkpt>
      <trkpt lat="48.70887" lon="1.62445">
        <ele>175.19999694824</ele>
        <time>2011-05-22T11:10:21.000Z</time>
      </trkpt>
      <trkpt lat="48.70875" lon="1.6243">
        <ele>175.39999389648</ele>
        <time>2011-05-22T11:10:31.000Z</time>
      </trkpt>
      <trkpt lat="48.70864" lon="1.62416">
        <ele>175.80000305176</ele>
        <time>2011-05-22T11:10:39.000Z</time>
      </trkpt>
      <trkpt lat="48.70854" lon="1.62406">
        <ele>176.39999389648</ele>
        <time>2011-05-22T11:10:45.000Z</time>
      </trkpt>
      <trkpt lat="48.70846" lon="1.62396">
        <ele>177</ele>
        <time>2011-05-22T11:10:51.000Z</time>
      </trkpt>
      <trkpt lat="48.7084" lon="1.62387">
        <ele>177.39999389648</ele>
        <time>2011-05-22T11:10:58.000Z</time>
      </trkpt>
      <trkpt lat="48.70834" lon="1.6238">
        <ele>177.80000305176</ele>
        <time>2011-05-22T11:11:04.000Z</time>
      </trkpt>
      <trkpt lat="48.70828" lon="1.62377">
        <ele>177.80000305176</ele>
        <time>2011-05-22T11:11:09.000Z</time>
      </trkpt>
      <trkpt lat="48.70821" lon="1.62369">
        <ele>177.80000305176</ele>
        <time>2011-05-22T11:11:15.000Z</time>
      </trkpt>
      <trkpt lat="48.70817" lon="1.62362">
        <ele>177.80000305176</ele>
        <time>2011-05-22T11:11:20.000Z</time>
      </trkpt>
      <trkpt lat="48.70809" lon="1.62349">
        <ele>177.60000610352</ele>
        <time>2011-05-22T11:11:28.000Z</time>
      </trkpt>
      <trkpt lat="48.70808" lon="1.62347">
        <ele>177.60000610352</ele>
        <time>2011-05-22T11:11:29.000Z</time>
      </trkpt>
      <trkpt lat="48.70798" lon="1.62341">
        <ele>177.60000610352</ele>
        <time>2011-05-22T11:11:37.000Z</time>
      </trkpt>
      <trkpt lat="48.70793" lon="1.62331">
        <ele>177.39999389648</ele>
        <time>2011-05-22T11:11:43.000Z</time>
      </trkpt>
      <trkpt lat="48.70791" lon="1.62318">
        <ele>177.19999694824</ele>
        <time>2011-05-22T11:11:49.000Z</time>
      </trkpt>
      <trkpt lat="48.70787" lon="1.62304">
        <ele>177.19999694824</ele>
        <time>2011-05-22T11:11:57.000Z</time>
      </trkpt>
      <trkpt lat="48.70785" lon="1.62305">
        <ele>177.19999694824</ele>
        <time>2011-05-22T11:12:02.000Z</time>
      </trkpt>
      <trkpt lat="48.70786" lon="1.62291">
        <ele>177.19999694824</ele>
        <time>2011-05-22T11:12:40.000Z</time>
      </trkpt>
      <trkpt lat="48.70782" lon="1.62276">
        <ele>177</ele>
        <time>2011-05-22T11:12:46.000Z</time>
      </trkpt>
      <trkpt lat="48.7078" lon="1.62265">
        <ele>177</ele>
        <time>2011-05-22T11:12:54.000Z</time>
      </trkpt>
      <trkpt lat="48.7078" lon="1.62265">
        <ele>177</ele>
        <time>2011-05-22T11:12:55.000Z</time>
      </trkpt>
      <trkpt lat="48.70774" lon="1.62265">
        <ele>177</ele>
        <time>2011-05-22T11:13:26.000Z</time>
      </trkpt>
      <trkpt lat="48.70767" lon="1.62265">
        <ele>177</ele>
        <time>2011-05-22T11:13:31.000Z</time>
      </trkpt>
      <trkpt lat="48.70752" lon="1.6226">
        <ele>177</ele>
        <time>2011-05-22T11:13:42.000Z</time>
      </trkpt>
      <trkpt lat="48.70737" lon="1.62256">
        <ele>177</ele>
        <time>2011-05-22T11:13:53.000Z</time>
      </trkpt>
      <trkpt lat="48.70719" lon="1.62251">
        <ele>177</ele>
        <time>2011-05-22T11:14:05.000Z</time>
      </trkpt>
      <trkpt lat="48.70711" lon="1.62248">
        <ele>177</ele>
        <time>2011-05-22T11:14:11.000Z</time>
      </trkpt>
      <trkpt lat="48.70695" lon="1.62234">
        <ele>176.80000305176</ele>
        <time>2011-05-22T11:14:24.000Z</time>
      </trkpt>
      <trkpt lat="48.70683" lon="1.62221">
        <ele>176.60000610352</ele>
        <time>2011-05-22T11:14:34.000Z</time>
      </trkpt>
      <trkpt lat="48.70678" lon="1.62211">
        <ele>176.60000610352</ele>
        <time>2011-05-22T11:14:40.000Z</time>
      </trkpt>
      <trkpt lat="48.70671" lon="1.62203">
        <ele>176.39999389648</ele>
        <time>2011-05-22T11:14:46.000Z</time>
      </trkpt>
      <trkpt lat="48.70666" lon="1.62196">
        <ele>176.19999694824</ele>
        <time>2011-05-22T11:14:49.000Z</time>
      </trkpt>
      <trkpt lat="48.70657" lon="1.62187">
        <ele>175.80000305176</ele>
        <time>2011-05-22T11:14:57.000Z</time>
      </trkpt>
      <trkpt lat="48.70649" lon="1.62178">
        <ele>175.39999389648</ele>
        <time>2011-05-22T11:15:05.000Z</time>
      </trkpt>
      <trkpt lat="48.70638" lon="1.62166">
        <ele>174.80000305176</ele>
        <time>2011-05-22T11:15:15.000Z</time>
      </trkpt>
      <trkpt lat="48.70632" lon="1.62158">
        <ele>174.80000305176</ele>
        <time>2011-05-22T11:15:21.000Z</time>
      </trkpt>
      <trkpt lat="48.70623" lon="1.62141">
        <ele>175.19999694824</ele>
        <time>2011-05-22T11:15:32.000Z</time>
      </trkpt>
      <trkpt lat="48.70617" lon="1.62123">
        <ele>175.60000610352</ele>
        <time>2011-05-22T11:15:42.000Z</time>
      </trkpt>
      <trkpt lat="48.70611" lon="1.62108">
        <ele>176</ele>
        <time>2011-05-22T11:15:51.000Z</time>
      </trkpt>
      <trkpt lat="48.70605" lon="1.62098">
        <ele>176.39999389648</ele>
        <time>2011-05-22T11:15:58.000Z</time>
      </trkpt>
      <trkpt lat="48.70596" lon="1.62085">
        <ele>176.80000305176</ele>
        <time>2011-05-22T11:16:07.000Z</time>
      </trkpt>
      <trkpt lat="48.70592" lon="1.62081">
        <ele>177</ele>
        <time>2011-05-22T11:16:10.000Z</time>
      </trkpt>
      <trkpt lat="48.70582" lon="1.6207">
        <ele>176.80000305176</ele>
        <time>2011-05-22T11:16:19.000Z</time>
      </trkpt>
      <trkpt lat="48.70565" lon="1.6206">
        <ele>175.39999389648</ele>
        <time>2011-05-22T11:16:31.000Z</time>
      </trkpt>
      <trkpt lat="48.70553" lon="1.6205">
        <ele>174.60000610352</ele>
        <time>2011-05-22T11:16:40.000Z</time>
      </trkpt>
      <trkpt lat="48.70543" lon="1.62038">
        <ele>174</ele>
        <time>2011-05-22T11:16:49.000Z</time>
      </trkpt>
      <trkpt lat="48.70529" lon="1.62022">
        <ele>173.39999389648</ele>
        <time>2011-05-22T11:17:01.000Z</time>
      </trkpt>
      <trkpt lat="48.70519" lon="1.6201">
        <ele>172.80000305176</ele>
        <time>2011-05-22T11:17:10.000Z</time>
      </trkpt>
      <trkpt lat="48.7051" lon="1.61999">
        <ele>172.60000610352</ele>
        <time>2011-05-22T11:17:18.000Z</time>
      </trkpt>
      <trkpt lat="48.70504" lon="1.61995">
        <ele>172.19999694824</ele>
        <time>2011-05-22T11:17:23.000Z</time>
      </trkpt>
      <trkpt lat="48.70497" lon="1.61989">
        <ele>172</ele>
        <time>2011-05-22T11:17:29.000Z</time>
      </trkpt>
      <trkpt lat="48.7049" lon="1.61985">
        <ele>171.39999389648</ele>
        <time>2011-05-22T11:17:34.000Z</time>
      </trkpt>
      <trkpt lat="48.70475" lon="1.61984">
        <ele>170.39999389648</ele>
        <time>2011-05-22T11:17:44.000Z</time>
      </trkpt>
      <trkpt lat="48.70466" lon="1.61981">
        <ele>169.60000610352</ele>
        <time>2011-05-22T11:17:51.000Z</time>
      </trkpt>
      <trkpt lat="48.70455" lon="1.61976">
        <ele>169</ele>
        <time>2011-05-22T11:18:00.000Z</time>
      </trkpt>
      <trkpt lat="48.70449" lon="1.61964">
        <ele>169</ele>
        <time>2011-05-22T11:18:07.000Z</time>
      </trkpt>
      <trkpt lat="48.70445" lon="1.61946">
        <ele>169.39999389648</ele>
        <time>2011-05-22T11:18:17.000Z</time>
      </trkpt>
      <trkpt lat="48.70443" lon="1.61922">
        <ele>170.19999694824</ele>
        <time>2011-05-22T11:18:28.000Z</time>
      </trkpt>
      <trkpt lat="48.70441" lon="1.61905">
        <ele>170.60000610352</ele>
        <time>2011-05-22T11:18:37.000Z</time>
      </trkpt>
      <trkpt lat="48.70441" lon="1.61888">
        <ele>170.80000305176</ele>
        <time>2011-05-22T11:18:45.000Z</time>
      </trkpt>
      <trkpt lat="48.70441" lon="1.61872">
        <ele>171.19999694824</ele>
        <time>2011-05-22T11:18:52.000Z</time>
      </trkpt>
      <trkpt lat="48.70441" lon="1.6186">
        <ele>171.39999389648</ele>
        <time>2011-05-22T11:18:58.000Z</time>
      </trkpt>
      <trkpt lat="48.70443" lon="1.61849">
        <ele>171.60000610352</ele>
        <time>2011-05-22T11:19:04.000Z</time>
      </trkpt>
      <trkpt lat="48.70446" lon="1.61848">
        <ele>171.80000305176</ele>
        <time>2011-05-22T11:19:09.000Z</time>
      </trkpt>
      <trkpt lat="48.70441" lon="1.61842">
        <ele>171.60000610352</ele>
        <time>2011-05-22T11:19:18.000Z</time>
      </trkpt>
      <trkpt lat="48.70434" lon="1.61832">
        <ele>171.60000610352</ele>
        <time>2011-05-22T11:19:25.000Z</time>
      </trkpt>
      <trkpt lat="48.7043" lon="1.61828">
        <ele>171.39999389648</ele>
        <time>2011-05-22T11:19:32.000Z</time>
      </trkpt>
      <trkpt lat="48.70426" lon="1.6182">
        <ele>171</ele>
        <time>2011-05-22T11:19:39.000Z</time>
      </trkpt>
      <trkpt lat="48.7042" lon="1.61812">
        <ele>170.80000305176</ele>
        <time>2011-05-22T11:19:44.000Z</time>
      </trkpt>
      <trkpt lat="48.70411" lon="1.61801">
        <ele>170.19999694824</ele>
        <time>2011-05-22T11:19:54.000Z</time>
      </trkpt>
      <trkpt lat="48.70409" lon="1.61799">
        <ele>170</ele>
        <time>2011-05-22T11:19:58.000Z</time>
      </trkpt>
      <trkpt lat="48.70409" lon="1.61799">
        <ele>170</ele>
        <time>2011-05-22T11:19:59.000Z</time>
      </trkpt>
      <trkpt lat="48.70398" lon="1.61794">
        <ele>169.19999694824</ele>
        <time>2011-05-22T11:20:23.000Z</time>
      </trkpt>
      <trkpt lat="48.70391" lon="1.61799">
        <ele>168.80000305176</ele>
        <time>2011-05-22T11:20:28.000Z</time>
      </trkpt>
      <trkpt lat="48.70382" lon="1.61805">
        <ele>168.19999694824</ele>
        <time>2011-05-22T11:20:35.000Z</time>
      </trkpt>
      <trkpt lat="48.7037" lon="1.61814">
        <ele>167.39999389648</ele>
        <time>2011-05-22T11:20:44.000Z</time>
      </trkpt>
      <trkpt lat="48.70362" lon="1.61823">
        <ele>167</ele>
        <time>2011-05-22T11:20:52.000Z</time>
      </trkpt>
      <trkpt lat="48.70362" lon="1.61823">
        <ele>167</ele>
        <time>2011-05-22T11:20:53.000Z</time>
      </trkpt>
      <trkpt lat="48.70362" lon="1.61809">
        <ele>166.80000305176</ele>
        <time>2011-05-22T11:21:10.000Z</time>
      </trkpt>
      <trkpt lat="48.70352" lon="1.618">
        <ele>166.19999694824</ele>
        <time>2011-05-22T11:21:18.000Z</time>
      </trkpt>
      <trkpt lat="48.70343" lon="1.61793">
        <ele>165.60000610352</ele>
        <time>2011-05-22T11:21:26.000Z</time>
      </trkpt>
      <trkpt lat="48.7033" lon="1.61783">
        <ele>164.80000305176</ele>
        <time>2011-05-22T11:21:36.000Z</time>
      </trkpt>
      <trkpt lat="48.70321" lon="1.61775">
        <ele>164.39999389648</ele>
        <time>2011-05-22T11:21:42.000Z</time>
      </trkpt>
      <trkpt lat="48.70311" lon="1.61767">
        <ele>164</ele>
        <time>2011-05-22T11:21:49.000Z</time>
      </trkpt>
      <trkpt lat="48.70303" lon="1.61761">
        <ele>163.60000610352</ele>
        <time>2011-05-22T11:21:55.000Z</time>
      </trkpt>
      <trkpt lat="48.70294" lon="1.61754">
        <ele>163.39999389648</ele>
        <time>2011-05-22T11:22:02.000Z</time>
      </trkpt>
      <trkpt lat="48.70286" lon="1.61745">
        <ele>163.19999694824</ele>
        <time>2011-05-22T11:22:10.000Z</time>
      </trkpt>
      <trkpt lat="48.70278" lon="1.61744">
        <ele>162.80000305176</ele>
        <time>2011-05-22T11:22:16.000Z</time>
      </trkpt>
      <trkpt lat="48.7027" lon="1.61742">
        <ele>162.60000610352</ele>
        <time>2011-05-22T11:22:21.000Z</time>
      </trkpt>
      <trkpt lat="48.70267" lon="1.6174">
        <ele>162.60000610352</ele>
        <time>2011-05-22T11:22:23.000Z</time>
      </trkpt>
      <trkpt lat="48.70253" lon="1.6173">
        <ele>162</ele>
        <time>2011-05-22T11:22:33.000Z</time>
      </trkpt>
      <trkpt lat="48.70245" lon="1.61727">
        <ele>161.60000610352</ele>
        <time>2011-05-22T11:22:39.000Z</time>
      </trkpt>
      <trkpt lat="48.70235" lon="1.61726">
        <ele>160.80000305176</ele>
        <time>2011-05-22T11:22:45.000Z</time>
      </trkpt>
      <trkpt lat="48.70223" lon="1.61725">
        <ele>160</ele>
        <time>2011-05-22T11:22:53.000Z</time>
      </trkpt>
      <trkpt lat="48.7022" lon="1.61725">
        <ele>159.60000610352</ele>
        <time>2011-05-22T11:22:55.000Z</time>
      </trkpt>
      <trkpt lat="48.70209" lon="1.61726">
        <ele>158.80000305176</ele>
        <time>2011-05-22T11:23:02.000Z</time>
      </trkpt>
      <trkpt lat="48.70198" lon="1.61727">
        <ele>158</ele>
        <time>2011-05-22T11:23:09.000Z</time>
      </trkpt>
      <trkpt lat="48.70187" lon="1.61727">
        <ele>157.39999389648</ele>
        <time>2011-05-22T11:23:16.000Z</time>
      </trkpt>
      <trkpt lat="48.70177" lon="1.61728">
        <ele>156.60000610352</ele>
        <time>2011-05-22T11:23:23.000Z</time>
      </trkpt>
      <trkpt lat="48.70166" lon="1.61727">
        <ele>155.80000305176</ele>
        <time>2011-05-22T11:23:29.000Z</time>
      </trkpt>
      <trkpt lat="48.70153" lon="1.61729">
        <ele>154.19999694824</ele>
        <time>2011-05-22T11:23:37.000Z</time>
      </trkpt>
      <trkpt lat="48.70142" lon="1.61731">
        <ele>153</ele>
        <time>2011-05-22T11:23:44.000Z</time>
      </trkpt>
      <trkpt lat="48.70135" lon="1.61734">
        <ele>152.39999389648</ele>
        <time>2011-05-22T11:23:50.000Z</time>
      </trkpt>
      <trkpt lat="48.70129" lon="1.61735">
        <ele>151.60000610352</ele>
        <time>2011-05-22T11:23:56.000Z</time>
      </trkpt>
      <trkpt lat="48.70123" lon="1.61737">
        <ele>151</ele>
        <time>2011-05-22T11:24:00.000Z</time>
      </trkpt>
      <trkpt lat="48.7011" lon="1.61737">
        <ele>149.60000610352</ele>
        <time>2011-05-22T11:24:08.000Z</time>
      </trkpt>
      <trkpt lat="48.701" lon="1.6174">
        <ele>148.39999389648</ele>
        <time>2011-05-22T11:24:15.000Z</time>
      </trkpt>
      <trkpt lat="48.70091" lon="1.61739">
        <ele>147.19999694824</ele>
        <time>2011-05-22T11:24:21.000Z</time>
      </trkpt>
      <trkpt lat="48.70079" lon="1.6174">
        <ele>146.19999694824</ele>
        <time>2011-05-22T11:24:28.000Z</time>
      </trkpt>
      <trkpt lat="48.70063" lon="1.61741">
        <ele>145</ele>
        <time>2011-05-22T11:24:38.000Z</time>
      </trkpt>
      <trkpt lat="48.7006" lon="1.61741">
        <ele>144.80000305176</ele>
        <time>2011-05-22T11:24:40.000Z</time>
      </trkpt>
      <trkpt lat="48.70052" lon="1.61743">
        <ele>144.39999389648</ele>
        <time>2011-05-22T11:24:46.000Z</time>
      </trkpt>
      <trkpt lat="48.70051" lon="1.61742">
        <ele>144.19999694824</ele>
        <time>2011-05-22T11:24:47.000Z</time>
      </trkpt>
      <trkpt lat="48.70036" lon="1.61738">
        <ele>143</ele>
        <time>2011-05-22T11:24:55.000Z</time>
      </trkpt>
      <trkpt lat="48.70019" lon="1.61726">
        <ele>141.60000610352</ele>
        <time>2011-05-22T11:25:01.000Z</time>
      </trkpt>
      <trkpt lat="48.70006" lon="1.61716">
        <ele>140.39999389648</ele>
        <time>2011-05-22T11:25:06.000Z</time>
      </trkpt>
      <trkpt lat="48.69979" lon="1.617">
        <ele>139.39999389648</ele>
        <time>2011-05-22T11:25:14.000Z</time>
      </trkpt>
      <trkpt lat="48.69951" lon="1.61687">
        <ele>138.80000305176</ele>
        <time>2011-05-22T11:25:22.000Z</time>
      </trkpt>
      <trkpt lat="48.69927" lon="1.61676">
        <ele>138.19999694824</ele>
        <time>2011-05-22T11:25:29.000Z</time>
      </trkpt>
      <trkpt lat="48.6991" lon="1.61667">
        <ele>137.80000305176</ele>
        <time>2011-05-22T11:25:34.000Z</time>
      </trkpt>
      <trkpt lat="48.69897" lon="1.61658">
        <ele>137.60000610352</ele>
        <time>2011-05-22T11:25:39.000Z</time>
      </trkpt>
      <trkpt lat="48.69884" lon="1.61652">
        <ele>137.19999694824</ele>
        <time>2011-05-22T11:25:44.000Z</time>
      </trkpt>
      <trkpt lat="48.69866" lon="1.61642">
        <ele>137</ele>
        <time>2011-05-22T11:25:49.000Z</time>
      </trkpt>
      <trkpt lat="48.69847" lon="1.61629">
        <ele>137</ele>
        <time>2011-05-22T11:25:54.000Z</time>
      </trkpt>
      <trkpt lat="48.69817" lon="1.61612">
        <ele>136.80000305176</ele>
        <time>2011-05-22T11:26:02.000Z</time>
      </trkpt>
      <trkpt lat="48.6981" lon="1.61608">
        <ele>136.80000305176</ele>
        <time>2011-05-22T11:26:04.000Z</time>
      </trkpt>
      <trkpt lat="48.69777" lon="1.61593">
        <ele>136.80000305176</ele>
        <time>2011-05-22T11:26:12.000Z</time>
      </trkpt>
      <trkpt lat="48.69737" lon="1.61576">
        <ele>137.39999389648</ele>
        <time>2011-05-22T11:26:21.000Z</time>
      </trkpt>
      <trkpt lat="48.697" lon="1.61559">
        <ele>138.39999389648</ele>
        <time>2011-05-22T11:26:29.000Z</time>
      </trkpt>
      <trkpt lat="48.69665" lon="1.61545">
        <ele>139</ele>
        <time>2011-05-22T11:26:37.000Z</time>
      </trkpt>
      <trkpt lat="48.69648" lon="1.61537">
        <ele>139</ele>
        <time>2011-05-22T11:26:41.000Z</time>
      </trkpt>
      <trkpt lat="48.69627" lon="1.61527">
        <ele>139</ele>
        <time>2011-05-22T11:26:46.000Z</time>
      </trkpt>
      <trkpt lat="48.69592" lon="1.61512">
        <ele>139</ele>
        <time>2011-05-22T11:26:54.000Z</time>
      </trkpt>
      <trkpt lat="48.69562" lon="1.61499">
        <ele>139</ele>
        <time>2011-05-22T11:27:01.000Z</time>
      </trkpt>
      <trkpt lat="48.69532" lon="1.61486">
        <ele>139</ele>
        <time>2011-05-22T11:27:08.000Z</time>
      </trkpt>
      <trkpt lat="48.69511" lon="1.61475">
        <ele>139.19999694824</ele>
        <time>2011-05-22T11:27:13.000Z</time>
      </trkpt>
      <trkpt lat="48.69479" lon="1.61462">
        <ele>139.80000305176</ele>
        <time>2011-05-22T11:27:21.000Z</time>
      </trkpt>
      <trkpt lat="48.69447" lon="1.61447">
        <ele>140.19999694824</ele>
        <time>2011-05-22T11:27:29.000Z</time>
      </trkpt>
      <trkpt lat="48.69413" lon="1.61432">
        <ele>140.39999389648</ele>
        <time>2011-05-22T11:27:37.000Z</time>
      </trkpt>
      <trkpt lat="48.69385" lon="1.61419">
        <ele>140.80000305176</ele>
        <time>2011-05-22T11:27:44.000Z</time>
      </trkpt>
      <trkpt lat="48.6935" lon="1.61403">
        <ele>141.60000610352</ele>
        <time>2011-05-22T11:27:53.000Z</time>
      </trkpt>
      <trkpt lat="48.69342" lon="1.614">
        <ele>141.60000610352</ele>
        <time>2011-05-22T11:27:55.000Z</time>
      </trkpt>
      <trkpt lat="48.69326" lon="1.61392">
        <ele>142.19999694824</ele>
        <time>2011-05-22T11:28:00.000Z</time>
      </trkpt>
      <trkpt lat="48.69315" lon="1.61387">
        <ele>142.80000305176</ele>
        <time>2011-05-22T11:28:06.000Z</time>
      </trkpt>
      <trkpt lat="48.693" lon="1.61379">
        <ele>143.60000610352</ele>
        <time>2011-05-22T11:28:15.000Z</time>
      </trkpt>
      <trkpt lat="48.6929" lon="1.61375">
        <ele>144</ele>
        <time>2011-05-22T11:28:21.000Z</time>
      </trkpt>
      <trkpt lat="48.69278" lon="1.6137">
        <ele>144.60000610352</ele>
        <time>2011-05-22T11:28:28.000Z</time>
      </trkpt>
      <trkpt lat="48.69262" lon="1.61363">
        <ele>145.39999389648</ele>
        <time>2011-05-22T11:28:38.000Z</time>
      </trkpt>
      <trkpt lat="48.69246" lon="1.61356">
        <ele>146.19999694824</ele>
        <time>2011-05-22T11:28:48.000Z</time>
      </trkpt>
      <trkpt lat="48.69243" lon="1.61356">
        <ele>146.39999389648</ele>
        <time>2011-05-22T11:28:51.000Z</time>
      </trkpt>
      <trkpt lat="48.69242" lon="1.61356">
        <ele>146.60000610352</ele>
        <time>2011-05-22T11:28:54.000Z</time>
      </trkpt>
      <trkpt lat="48.69226" lon="1.61379">
        <ele>147.39999389648</ele>
        <time>2011-05-22T11:31:09.000Z</time>
      </trkpt>
      <trkpt lat="48.69221" lon="1.61391">
        <ele>147.60000610352</ele>
        <time>2011-05-22T11:31:16.000Z</time>
      </trkpt>
      <trkpt lat="48.69216" lon="1.61406">
        <ele>147.39999389648</ele>
        <time>2011-05-22T11:31:24.000Z</time>
      </trkpt>
      <trkpt lat="48.69214" lon="1.6142">
        <ele>147.19999694824</ele>
        <time>2011-05-22T11:31:31.000Z</time>
      </trkpt>
      <trkpt lat="48.69214" lon="1.61429">
        <ele>147</ele>
        <time>2011-05-22T11:31:36.000Z</time>
      </trkpt>
      <trkpt lat="48.69213" lon="1.61437">
        <ele>147</ele>
        <time>2011-05-22T11:31:40.000Z</time>
      </trkpt>
      <trkpt lat="48.69214" lon="1.61445">
        <ele>146.80000305176</ele>
        <time>2011-05-22T11:31:44.000Z</time>
      </trkpt>
      <trkpt lat="48.69213" lon="1.61451">
        <ele>146.80000305176</ele>
        <time>2011-05-22T11:31:47.000Z</time>
      </trkpt>
      <trkpt lat="48.69214" lon="1.61466">
        <ele>146.60000610352</ele>
        <time>2011-05-22T11:31:54.000Z</time>
      </trkpt>
      <trkpt lat="48.69219" lon="1.61479">
        <ele>146.19999694824</ele>
        <time>2011-05-22T11:32:00.000Z</time>
      </trkpt>
      <trkpt lat="48.69222" lon="1.61489">
        <ele>146</ele>
        <time>2011-05-22T11:32:05.000Z</time>
      </trkpt>
      <trkpt lat="48.69226" lon="1.61498">
        <ele>145.80000305176</ele>
        <time>2011-05-22T11:32:09.000Z</time>
      </trkpt>
      <trkpt lat="48.69227" lon="1.61506">
        <ele>145.60000610352</ele>
        <time>2011-05-22T11:32:14.000Z</time>
      </trkpt>
      <trkpt lat="48.69228" lon="1.61511">
        <ele>145.60000610352</ele>
        <time>2011-05-22T11:32:17.000Z</time>
      </trkpt>
      <trkpt lat="48.69228" lon="1.61519">
        <ele>145.60000610352</ele>
        <time>2011-05-22T11:32:21.000Z</time>
      </trkpt>
      <trkpt lat="48.69229" lon="1.61533">
        <ele>145.60000610352</ele>
        <time>2011-05-22T11:32:28.000Z</time>
      </trkpt>
      <trkpt lat="48.69231" lon="1.61545">
        <ele>145.39999389648</ele>
        <time>2011-05-22T11:32:34.000Z</time>
      </trkpt>
      <trkpt lat="48.69232" lon="1.61558">
        <ele>145.39999389648</ele>
        <time>2011-05-22T11:32:41.000Z</time>
      </trkpt>
      <trkpt lat="48.69233" lon="1.6157">
        <ele>145.39999389648</ele>
        <time>2011-05-22T11:32:47.000Z</time>
      </trkpt>
      <trkpt lat="48.69235" lon="1.61582">
        <ele>145.19999694824</ele>
        <time>2011-05-22T11:32:52.000Z</time>
      </trkpt>
      <trkpt lat="48.69237" lon="1.61588">
        <ele>145.19999694824</ele>
        <time>2011-05-22T11:32:56.000Z</time>
      </trkpt>
      <trkpt lat="48.69239" lon="1.61597">
        <ele>145.19999694824</ele>
        <time>2011-05-22T11:33:01.000Z</time>
      </trkpt>
      <trkpt lat="48.69242" lon="1.61607">
        <ele>145</ele>
        <time>2011-05-22T11:33:05.000Z</time>
      </trkpt>
      <trkpt lat="48.69242" lon="1.61616">
        <ele>145</ele>
        <time>2011-05-22T11:33:08.000Z</time>
      </trkpt>
      <trkpt lat="48.69242" lon="1.61621">
        <ele>145</ele>
        <time>2011-05-22T11:33:10.000Z</time>
      </trkpt>
      <trkpt lat="48.69243" lon="1.61628">
        <ele>145</ele>
        <time>2011-05-22T11:33:13.000Z</time>
      </trkpt>
      <trkpt lat="48.69247" lon="1.61638">
        <ele>145</ele>
        <time>2011-05-22T11:33:18.000Z</time>
      </trkpt>
      <trkpt lat="48.69249" lon="1.6165">
        <ele>145</ele>
        <time>2011-05-22T11:33:24.000Z</time>
      </trkpt>
      <trkpt lat="48.69248" lon="1.61656">
        <ele>145</ele>
        <time>2011-05-22T11:33:27.000Z</time>
      </trkpt>
      <trkpt lat="48.69248" lon="1.61665">
        <ele>145</ele>
        <time>2011-05-22T11:33:31.000Z</time>
      </trkpt>
      <trkpt lat="48.69248" lon="1.61673">
        <ele>145</ele>
        <time>2011-05-22T11:33:35.000Z</time>
      </trkpt>
      <trkpt lat="48.6925" lon="1.61686">
        <ele>145</ele>
        <time>2011-05-22T11:33:41.000Z</time>
      </trkpt>
      <trkpt lat="48.6925" lon="1.61688">
        <ele>144.80000305176</ele>
        <time>2011-05-22T11:33:42.000Z</time>
      </trkpt>
      <trkpt lat="48.69255" lon="1.61702">
        <ele>144.80000305176</ele>
        <time>2011-05-22T11:33:49.000Z</time>
      </trkpt>
      <trkpt lat="48.69256" lon="1.61704">
        <ele>144.60000610352</ele>
        <time>2011-05-22T11:33:50.000Z</time>
      </trkpt>
      <trkpt lat="48.6926" lon="1.61715">
        <ele>144.60000610352</ele>
        <time>2011-05-22T11:33:56.000Z</time>
      </trkpt>
      <trkpt lat="48.69262" lon="1.61733">
        <ele>144.39999389648</ele>
        <time>2011-05-22T11:34:04.000Z</time>
      </trkpt>
      <trkpt lat="48.69263" lon="1.61742">
        <ele>144.19999694824</ele>
        <time>2011-05-22T11:34:08.000Z</time>
      </trkpt>
      <trkpt lat="48.69264" lon="1.61753">
        <ele>144.19999694824</ele>
        <time>2011-05-22T11:34:13.000Z</time>
      </trkpt>
      <trkpt lat="48.69264" lon="1.61762">
        <ele>144.19999694824</ele>
        <time>2011-05-22T11:34:17.000Z</time>
      </trkpt>
      <trkpt lat="48.69265" lon="1.61766">
        <ele>144.19999694824</ele>
        <time>2011-05-22T11:34:19.000Z</time>
      </trkpt>
      <trkpt lat="48.69266" lon="1.61776">
        <ele>144.19999694824</ele>
        <time>2011-05-22T11:34:24.000Z</time>
      </trkpt>
      <trkpt lat="48.69266" lon="1.61784">
        <ele>144.19999694824</ele>
        <time>2011-05-22T11:34:28.000Z</time>
      </trkpt>
      <trkpt lat="48.69267" lon="1.61788">
        <ele>144</ele>
        <time>2011-05-22T11:34:30.000Z</time>
      </trkpt>
      <trkpt lat="48.6927" lon="1.61797">
        <ele>144</ele>
        <time>2011-05-22T11:34:35.000Z</time>
      </trkpt>
      <trkpt lat="48.69271" lon="1.61811">
        <ele>143.80000305176</ele>
        <time>2011-05-22T11:34:42.000Z</time>
      </trkpt>
      <trkpt lat="48.69272" lon="1.61815">
        <ele>143.80000305176</ele>
        <time>2011-05-22T11:34:44.000Z</time>
      </trkpt>
      <trkpt lat="48.69274" lon="1.61825">
        <ele>143.80000305176</ele>
        <time>2011-05-22T11:34:49.000Z</time>
      </trkpt>
      <trkpt lat="48.69275" lon="1.61844">
        <ele>143.80000305176</ele>
        <time>2011-05-22T11:34:58.000Z</time>
      </trkpt>
      <trkpt lat="48.69276" lon="1.61855">
        <ele>143.80000305176</ele>
        <time>2011-05-22T11:35:03.000Z</time>
      </trkpt>
      <trkpt lat="48.69277" lon="1.61859">
        <ele>143.80000305176</ele>
        <time>2011-05-22T11:35:05.000Z</time>
      </trkpt>
      <trkpt lat="48.69278" lon="1.6188">
        <ele>144</ele>
        <time>2011-05-22T11:35:15.000Z</time>
      </trkpt>
      <trkpt lat="48.6928" lon="1.61897">
        <ele>144</ele>
        <time>2011-05-22T11:35:23.000Z</time>
      </trkpt>
      <trkpt lat="48.69281" lon="1.61915">
        <ele>144</ele>
        <time>2011-05-22T11:35:31.000Z</time>
      </trkpt>
      <trkpt lat="48.69282" lon="1.61936">
        <ele>143.80000305176</ele>
        <time>2011-05-22T11:35:41.000Z</time>
      </trkpt>
      <trkpt lat="48.69281" lon="1.61958">
        <ele>143.60000610352</ele>
        <time>2011-05-22T11:35:51.000Z</time>
      </trkpt>
      <trkpt lat="48.6928" lon="1.61982">
        <ele>143.39999389648</ele>
        <time>2011-05-22T11:36:02.000Z</time>
      </trkpt>
      <trkpt lat="48.69279" lon="1.62005">
        <ele>143.19999694824</ele>
        <time>2011-05-22T11:36:13.000Z</time>
      </trkpt>
      <trkpt lat="48.69278" lon="1.6202">
        <ele>143.39999389648</ele>
        <time>2011-05-22T11:36:21.000Z</time>
      </trkpt>
      <trkpt lat="48.69275" lon="1.62037">
        <ele>143.80000305176</ele>
        <time>2011-05-22T11:36:29.000Z</time>
      </trkpt>
      <trkpt lat="48.69273" lon="1.62058">
        <ele>144</ele>
        <time>2011-05-22T11:36:39.000Z</time>
      </trkpt>
      <trkpt lat="48.6927" lon="1.6208">
        <ele>144.39999389648</ele>
        <time>2011-05-22T11:36:50.000Z</time>
      </trkpt>
      <trkpt lat="48.69267" lon="1.62097">
        <ele>144.39999389648</ele>
        <time>2011-05-22T11:36:59.000Z</time>
      </trkpt>
      <trkpt lat="48.69264" lon="1.62119">
        <ele>144.19999694824</ele>
        <time>2011-05-22T11:37:10.000Z</time>
      </trkpt>
      <trkpt lat="48.69262" lon="1.62135">
        <ele>144.19999694824</ele>
        <time>2011-05-22T11:37:18.000Z</time>
      </trkpt>
      <trkpt lat="48.6926" lon="1.62154">
        <ele>144</ele>
        <time>2011-05-22T11:37:28.000Z</time>
      </trkpt>
      <trkpt lat="48.69259" lon="1.62174">
        <ele>144</ele>
        <time>2011-05-22T11:37:38.000Z</time>
      </trkpt>
      <trkpt lat="48.69258" lon="1.62198">
        <ele>144.19999694824</ele>
        <time>2011-05-22T11:37:50.000Z</time>
      </trkpt>
      <trkpt lat="48.6926" lon="1.62214">
        <ele>144.39999389648</ele>
        <time>2011-05-22T11:37:58.000Z</time>
      </trkpt>
      <trkpt lat="48.69262" lon="1.62228">
        <ele>144.60000610352</ele>
        <time>2011-05-22T11:38:05.000Z</time>
      </trkpt>
      <trkpt lat="48.69266" lon="1.62244">
        <ele>144.80000305176</ele>
        <time>2011-05-22T11:38:13.000Z</time>
      </trkpt>
      <trkpt lat="48.69271" lon="1.62264">
        <ele>145.19999694824</ele>
        <time>2011-05-22T11:38:23.000Z</time>
      </trkpt>
      <trkpt lat="48.69276" lon="1.62281">
        <ele>145.39999389648</ele>
        <time>2011-05-22T11:38:31.000Z</time>
      </trkpt>
      <trkpt lat="48.6928" lon="1.62288">
        <ele>145.39999389648</ele>
        <time>2011-05-22T11:38:35.000Z</time>
      </trkpt>
      <trkpt lat="48.6928" lon="1.6229">
        <ele>145.60000610352</ele>
        <time>2011-05-22T11:38:36.000Z</time>
      </trkpt>
      <trkpt lat="48.69283" lon="1.623">
        <ele>145.60000610352</ele>
        <time>2011-05-22T11:38:41.000Z</time>
      </trkpt>
      <trkpt lat="48.69286" lon="1.62309">
        <ele>145.80000305176</ele>
        <time>2011-05-22T11:38:46.000Z</time>
      </trkpt>
      <trkpt lat="48.69289" lon="1.62314">
        <ele>145.80000305176</ele>
        <time>2011-05-22T11:38:48.000Z</time>
      </trkpt>
      <trkpt lat="48.69293" lon="1.62331">
        <ele>145.80000305176</ele>
        <time>2011-05-22T11:38:56.000Z</time>
      </trkpt>
      <trkpt lat="48.69298" lon="1.62341">
        <ele>145.60000610352</ele>
        <time>2011-05-22T11:39:01.000Z</time>
      </trkpt>
      <trkpt lat="48.69301" lon="1.62352">
        <ele>145.39999389648</ele>
        <time>2011-05-22T11:39:06.000Z</time>
      </trkpt>
      <trkpt lat="48.69304" lon="1.62362">
        <ele>145</ele>
        <time>2011-05-22T11:39:11.000Z</time>
      </trkpt>
      <trkpt lat="48.69307" lon="1.62375">
        <ele>144.80000305176</ele>
        <time>2011-05-22T11:39:17.000Z</time>
      </trkpt>
      <trkpt lat="48.69307" lon="1.62393">
        <ele>144.39999389648</ele>
        <time>2011-05-22T11:39:26.000Z</time>
      </trkpt>
      <trkpt lat="48.69309" lon="1.62409">
        <ele>144</ele>
        <time>2011-05-22T11:39:34.000Z</time>
      </trkpt>
      <trkpt lat="48.69311" lon="1.6242">
        <ele>143.80000305176</ele>
        <time>2011-05-22T11:39:39.000Z</time>
      </trkpt>
      <trkpt lat="48.69311" lon="1.62437">
        <ele>144</ele>
        <time>2011-05-22T11:39:45.000Z</time>
      </trkpt>
      <trkpt lat="48.69309" lon="1.6245">
        <ele>144.39999389648</ele>
        <time>2011-05-22T11:39:50.000Z</time>
      </trkpt>
      <trkpt lat="48.69306" lon="1.62453">
        <ele>144.39999389648</ele>
        <time>2011-05-22T11:39:55.000Z</time>
      </trkpt>
      <trkpt lat="48.69299" lon="1.62455">
        <ele>144.60000610352</ele>
        <time>2011-05-22T11:40:14.000Z</time>
      </trkpt>
      <trkpt lat="48.69293" lon="1.62456">
        <ele>144.80000305176</ele>
        <time>2011-05-22T11:40:18.000Z</time>
      </trkpt>
      <trkpt lat="48.69287" lon="1.62457">
        <ele>145</ele>
        <time>2011-05-22T11:40:24.000Z</time>
      </trkpt>
      <trkpt lat="48.69279" lon="1.62458">
        <ele>145.19999694824</ele>
        <time>2011-05-22T11:40:30.000Z</time>
      </trkpt>
      <trkpt lat="48.69275" lon="1.62458">
        <ele>145.19999694824</ele>
        <time>2011-05-22T11:40:33.000Z</time>
      </trkpt>
      <trkpt lat="48.69269" lon="1.6246">
        <ele>145.39999389648</ele>
        <time>2011-05-22T11:40:38.000Z</time>
      </trkpt>
      <trkpt lat="48.69262" lon="1.62465">
        <ele>145.60000610352</ele>
        <time>2011-05-22T11:40:43.000Z</time>
      </trkpt>
      <trkpt lat="48.69258" lon="1.62465">
        <ele>145.80000305176</ele>
        <time>2011-05-22T11:40:47.000Z</time>
      </trkpt>
      <trkpt lat="48.69249" lon="1.62467">
        <ele>145.80000305176</ele>
        <time>2011-05-22T11:40:53.000Z</time>
      </trkpt>
      <trkpt lat="48.69246" lon="1.62469">
        <ele>145.80000305176</ele>
        <time>2011-05-22T11:40:56.000Z</time>
      </trkpt>
      <trkpt lat="48.69238" lon="1.62471">
        <ele>145.80000305176</ele>
        <time>2011-05-22T11:41:02.000Z</time>
      </trkpt>
      <trkpt lat="48.69234" lon="1.62477">
        <ele>145.80000305176</ele>
        <time>2011-05-22T11:41:07.000Z</time>
      </trkpt>
      <trkpt lat="48.69232" lon="1.62482">
        <ele>145.80000305176</ele>
        <time>2011-05-22T11:41:10.000Z</time>
      </trkpt>
      <trkpt lat="48.69224" lon="1.625">
        <ele>145.60000610352</ele>
        <time>2011-05-22T11:41:20.000Z</time>
      </trkpt>
      <trkpt lat="48.69216" lon="1.62511">
        <ele>145.39999389648</ele>
        <time>2011-05-22T11:41:29.000Z</time>
      </trkpt>
      <trkpt lat="48.69216" lon="1.62513">
        <ele>145.39999389648</ele>
        <time>2011-05-22T11:41:32.000Z</time>
      </trkpt>
      <trkpt lat="48.69087" lon="1.6283">
        <ele>155.80000305176</ele>
        <time>2011-05-22T13:07:22.000Z</time>
      </trkpt>
      <trkpt lat="48.69085" lon="1.6284">
        <ele>156.39999389648</ele>
        <time>2011-05-22T13:07:26.000Z</time>
      </trkpt>
      <trkpt lat="48.69084" lon="1.62851">
        <ele>157.19999694824</ele>
        <time>2011-05-22T13:07:31.000Z</time>
      </trkpt>
      <trkpt lat="48.69083" lon="1.62863">
        <ele>158</ele>
        <time>2011-05-22T13:07:36.000Z</time>
      </trkpt>
      <trkpt lat="48.69083" lon="1.62878">
        <ele>159.19999694824</ele>
        <time>2011-05-22T13:07:43.000Z</time>
      </trkpt>
      <trkpt lat="48.69084" lon="1.6289">
        <ele>160</ele>
        <time>2011-05-22T13:07:48.000Z</time>
      </trkpt>
      <trkpt lat="48.69085" lon="1.62903">
        <ele>160.80000305176</ele>
        <time>2011-05-22T13:07:54.000Z</time>
      </trkpt>
      <trkpt lat="48.69088" lon="1.62917">
        <ele>161.60000610352</ele>
        <time>2011-05-22T13:08:00.000Z</time>
      </trkpt>
      <trkpt lat="48.69089" lon="1.6293">
        <ele>161.39999389648</ele>
        <time>2011-05-22T13:08:05.000Z</time>
      </trkpt>
      <trkpt lat="48.69088" lon="1.62941">
        <ele>161.19999694824</ele>
        <time>2011-05-22T13:08:10.000Z</time>
      </trkpt>
      <trkpt lat="48.69084" lon="1.62945">
        <ele>161.19999694824</ele>
        <time>2011-05-22T13:08:14.000Z</time>
      </trkpt>
      <trkpt lat="48.69071" lon="1.62954">
        <ele>162.19999694824</ele>
        <time>2011-05-22T13:08:23.000Z</time>
      </trkpt>
      <trkpt lat="48.69059" lon="1.62959">
        <ele>163.19999694824</ele>
        <time>2011-05-22T13:08:31.000Z</time>
      </trkpt>
      <trkpt lat="48.69045" lon="1.62963">
        <ele>164.39999389648</ele>
        <time>2011-05-22T13:08:40.000Z</time>
      </trkpt>
      <trkpt lat="48.69029" lon="1.62965">
        <ele>166</ele>
        <time>2011-05-22T13:08:51.000Z</time>
      </trkpt>
      <trkpt lat="48.69016" lon="1.62965">
        <ele>167.19999694824</ele>
        <time>2011-05-22T13:09:00.000Z</time>
      </trkpt>
      <trkpt lat="48.69004" lon="1.62965">
        <ele>168.39999389648</ele>
        <time>2011-05-22T13:09:08.000Z</time>
      </trkpt>
      <trkpt lat="48.68989" lon="1.62964">
        <ele>169</ele>
        <time>2011-05-22T13:09:18.000Z</time>
      </trkpt>
      <trkpt lat="48.68977" lon="1.62965">
        <ele>169.39999389648</ele>
        <time>2011-05-22T13:09:26.000Z</time>
      </trkpt>
      <trkpt lat="48.68962" lon="1.62965">
        <ele>169.80000305176</ele>
        <time>2011-05-22T13:09:36.000Z</time>
      </trkpt>
      <trkpt lat="48.68958" lon="1.62965">
        <ele>170</ele>
        <time>2011-05-22T13:09:39.000Z</time>
      </trkpt>
      <trkpt lat="48.68955" lon="1.62973">
        <ele>169.80000305176</ele>
        <time>2011-05-22T13:09:44.000Z</time>
      </trkpt>
      <trkpt lat="48.6896" lon="1.62983">
        <ele>169.39999389648</ele>
        <time>2011-05-22T13:09:49.000Z</time>
      </trkpt>
      <trkpt lat="48.68969" lon="1.62995">
        <ele>168.80000305176</ele>
        <time>2011-05-22T13:09:57.000Z</time>
      </trkpt>
      <trkpt lat="48.68978" lon="1.63007">
        <ele>168.19999694824</ele>
        <time>2011-05-22T13:10:04.000Z</time>
      </trkpt>
      <trkpt lat="48.68982" lon="1.63012">
        <ele>168</ele>
        <time>2011-05-22T13:10:07.000Z</time>
      </trkpt>
      <trkpt lat="48.6899" lon="1.63023">
        <ele>167.60000610352</ele>
        <time>2011-05-22T13:10:13.000Z</time>
      </trkpt>
      <trkpt lat="48.68994" lon="1.63031">
        <ele>167.39999389648</ele>
        <time>2011-05-22T13:10:18.000Z</time>
      </trkpt>
      <trkpt lat="48.68999" lon="1.63037">
        <ele>167</ele>
        <time>2011-05-22T13:10:22.000Z</time>
      </trkpt>
      <trkpt lat="48.69003" lon="1.63044">
        <ele>166.60000610352</ele>
        <time>2011-05-22T13:10:26.000Z</time>
      </trkpt>
      <trkpt lat="48.6901" lon="1.63058">
        <ele>165.80000305176</ele>
        <time>2011-05-22T13:10:33.000Z</time>
      </trkpt>
      <trkpt lat="48.69019" lon="1.63075">
        <ele>164.60000610352</ele>
        <time>2011-05-22T13:10:42.000Z</time>
      </trkpt>
      <trkpt lat="48.69026" lon="1.63092">
        <ele>163.80000305176</ele>
        <time>2011-05-22T13:10:50.000Z</time>
      </trkpt>
      <trkpt lat="48.69031" lon="1.63105">
        <ele>163.39999389648</ele>
        <time>2011-05-22T13:10:56.000Z</time>
      </trkpt>
      <trkpt lat="48.69033" lon="1.63108">
        <ele>163.19999694824</ele>
        <time>2011-05-22T13:10:58.000Z</time>
      </trkpt>
      <trkpt lat="48.69033" lon="1.63109">
        <ele>163.19999694824</ele>
        <time>2011-05-22T13:11:01.000Z</time>
      </trkpt>
      <trkpt lat="48.69036" lon="1.63115">
        <ele>162.80000305176</ele>
        <time>2011-05-22T13:11:06.000Z</time>
      </trkpt>
      <trkpt lat="48.69041" lon="1.63133">
        <ele>162.39999389648</ele>
        <time>2011-05-22T13:11:13.000Z</time>
      </trkpt>
      <trkpt lat="48.69045" lon="1.63145">
        <ele>162</ele>
        <time>2011-05-22T13:11:18.000Z</time>
      </trkpt>
      <trkpt lat="48.69047" lon="1.63154">
        <ele>161.80000305176</ele>
        <time>2011-05-22T13:11:22.000Z</time>
      </trkpt>
      <trkpt lat="48.69052" lon="1.63163">
        <ele>161.39999389648</ele>
        <time>2011-05-22T13:11:28.000Z</time>
      </trkpt>
      <trkpt lat="48.69058" lon="1.63179">
        <ele>161</ele>
        <time>2011-05-22T13:11:35.000Z</time>
      </trkpt>
      <trkpt lat="48.69066" lon="1.63194">
        <ele>160.19999694824</ele>
        <time>2011-05-22T13:11:43.000Z</time>
      </trkpt>
      <trkpt lat="48.69073" lon="1.63205">
        <ele>159.60000610352</ele>
        <time>2011-05-22T13:11:49.000Z</time>
      </trkpt>
      <trkpt lat="48.69076" lon="1.63208">
        <ele>159.39999389648</ele>
        <time>2011-05-22T13:11:51.000Z</time>
      </trkpt>
      <trkpt lat="48.69085" lon="1.63214">
        <ele>158.60000610352</ele>
        <time>2011-05-22T13:11:57.000Z</time>
      </trkpt>
      <trkpt lat="48.69093" lon="1.63222">
        <ele>158</ele>
        <time>2011-05-22T13:12:03.000Z</time>
      </trkpt>
      <trkpt lat="48.69104" lon="1.63232">
        <ele>157</ele>
        <time>2011-05-22T13:12:11.000Z</time>
      </trkpt>
      <trkpt lat="48.6911" lon="1.63238">
        <ele>156.60000610352</ele>
        <time>2011-05-22T13:12:15.000Z</time>
      </trkpt>
      <trkpt lat="48.69117" lon="1.63244">
        <ele>156</ele>
        <time>2011-05-22T13:12:20.000Z</time>
      </trkpt>
      <trkpt lat="48.6912" lon="1.63247">
        <ele>155.80000305176</ele>
        <time>2011-05-22T13:12:22.000Z</time>
      </trkpt>
      <trkpt lat="48.69126" lon="1.63255">
        <ele>155.19999694824</ele>
        <time>2011-05-22T13:12:27.000Z</time>
      </trkpt>
      <trkpt lat="48.69133" lon="1.63263">
        <ele>154.80000305176</ele>
        <time>2011-05-22T13:12:32.000Z</time>
      </trkpt>
      <trkpt lat="48.69142" lon="1.63272">
        <ele>154</ele>
        <time>2011-05-22T13:12:38.000Z</time>
      </trkpt>
      <trkpt lat="48.69149" lon="1.63279">
        <ele>153.60000610352</ele>
        <time>2011-05-22T13:12:43.000Z</time>
      </trkpt>
      <trkpt lat="48.69158" lon="1.63287">
        <ele>153</ele>
        <time>2011-05-22T13:12:49.000Z</time>
      </trkpt>
      <trkpt lat="48.69165" lon="1.63295">
        <ele>152.39999389648</ele>
        <time>2011-05-22T13:12:55.000Z</time>
      </trkpt>
      <trkpt lat="48.69173" lon="1.63303">
        <ele>152</ele>
        <time>2011-05-22T13:13:01.000Z</time>
      </trkpt>
      <trkpt lat="48.69182" lon="1.63314">
        <ele>151.60000610352</ele>
        <time>2011-05-22T13:13:08.000Z</time>
      </trkpt>
      <trkpt lat="48.6919" lon="1.63322">
        <ele>151.19999694824</ele>
        <time>2011-05-22T13:13:14.000Z</time>
      </trkpt>
      <trkpt lat="48.69199" lon="1.63332">
        <ele>150.80000305176</ele>
        <time>2011-05-22T13:13:21.000Z</time>
      </trkpt>
      <trkpt lat="48.69213" lon="1.63347">
        <ele>150.19999694824</ele>
        <time>2011-05-22T13:13:31.000Z</time>
      </trkpt>
      <trkpt lat="48.6922" lon="1.63357">
        <ele>149.80000305176</ele>
        <time>2011-05-22T13:13:37.000Z</time>
      </trkpt>
      <trkpt lat="48.69226" lon="1.63366">
        <ele>149.60000610352</ele>
        <time>2011-05-22T13:13:42.000Z</time>
      </trkpt>
      <trkpt lat="48.69233" lon="1.63378">
        <ele>149</ele>
        <time>2011-05-22T13:13:49.000Z</time>
      </trkpt>
      <trkpt lat="48.69239" lon="1.63389">
        <ele>148.80000305176</ele>
        <time>2011-05-22T13:13:55.000Z</time>
      </trkpt>
      <trkpt lat="48.69245" lon="1.634">
        <ele>148.39999389648</ele>
        <time>2011-05-22T13:14:01.000Z</time>
      </trkpt>
      <trkpt lat="48.6925" lon="1.63409">
        <ele>148</ele>
        <time>2011-05-22T13:14:07.000Z</time>
      </trkpt>
      <trkpt lat="48.69259" lon="1.63425">
        <ele>147.60000610352</ele>
        <time>2011-05-22T13:14:16.000Z</time>
      </trkpt>
      <trkpt lat="48.69266" lon="1.63437">
        <ele>147.60000610352</ele>
        <time>2011-05-22T13:14:22.000Z</time>
      </trkpt>
      <trkpt lat="48.69267" lon="1.63438">
        <ele>147.60000610352</ele>
        <time>2011-05-22T13:14:23.000Z</time>
      </trkpt>
      <trkpt lat="48.69275" lon="1.63451">
        <ele>147.60000610352</ele>
        <time>2011-05-22T13:14:30.000Z</time>
      </trkpt>
      <trkpt lat="48.69286" lon="1.63462">
        <ele>147.60000610352</ele>
        <time>2011-05-22T13:14:38.000Z</time>
      </trkpt>
      <trkpt lat="48.69293" lon="1.63472">
        <ele>147.60000610352</ele>
        <time>2011-05-22T13:14:44.000Z</time>
      </trkpt>
      <trkpt lat="48.693" lon="1.63478">
        <ele>147.80000305176</ele>
        <time>2011-05-22T13:14:49.000Z</time>
      </trkpt>
      <trkpt lat="48.69308" lon="1.63486">
        <ele>147.80000305176</ele>
        <time>2011-05-22T13:14:55.000Z</time>
      </trkpt>
      <trkpt lat="48.69316" lon="1.63493">
        <ele>147.80000305176</ele>
        <time>2011-05-22T13:15:01.000Z</time>
      </trkpt>
      <trkpt lat="48.69319" lon="1.63495">
        <ele>148</ele>
        <time>2011-05-22T13:15:03.000Z</time>
      </trkpt>
      <trkpt lat="48.69331" lon="1.63504">
        <ele>148</ele>
        <time>2011-05-22T13:15:11.000Z</time>
      </trkpt>
      <trkpt lat="48.69338" lon="1.63511">
        <ele>148</ele>
        <time>2011-05-22T13:15:16.000Z</time>
      </trkpt>
      <trkpt lat="48.69349" lon="1.63521">
        <ele>148.19999694824</ele>
        <time>2011-05-22T13:15:24.000Z</time>
      </trkpt>
      <trkpt lat="48.69357" lon="1.63528">
        <ele>148.19999694824</ele>
        <time>2011-05-22T13:15:30.000Z</time>
      </trkpt>
      <trkpt lat="48.69367" lon="1.63536">
        <ele>148.39999389648</ele>
        <time>2011-05-22T13:15:37.000Z</time>
      </trkpt>
      <trkpt lat="48.69375" lon="1.63545">
        <ele>148.60000610352</ele>
        <time>2011-05-22T13:15:44.000Z</time>
      </trkpt>
      <trkpt lat="48.69383" lon="1.63554">
        <ele>148.80000305176</ele>
        <time>2011-05-22T13:15:50.000Z</time>
      </trkpt>
      <trkpt lat="48.69389" lon="1.63563">
        <ele>149</ele>
        <time>2011-05-22T13:15:55.000Z</time>
      </trkpt>
      <trkpt lat="48.6939" lon="1.63564">
        <ele>149.19999694824</ele>
        <time>2011-05-22T13:15:56.000Z</time>
      </trkpt>
      <trkpt lat="48.69397" lon="1.63578">
        <ele>149.60000610352</ele>
        <time>2011-05-22T13:16:03.000Z</time>
      </trkpt>
      <trkpt lat="48.69402" lon="1.63591">
        <ele>150.19999694824</ele>
        <time>2011-05-22T13:16:09.000Z</time>
      </trkpt>
      <trkpt lat="48.69403" lon="1.63592">
        <ele>150.19999694824</ele>
        <time>2011-05-22T13:16:10.000Z</time>
      </trkpt>
      <trkpt lat="48.69405" lon="1.63598">
        <ele>150.39999389648</ele>
        <time>2011-05-22T13:16:15.000Z</time>
      </trkpt>
      <trkpt lat="48.6941" lon="1.63612">
        <ele>151</ele>
        <time>2011-05-22T13:16:22.000Z</time>
      </trkpt>
      <trkpt lat="48.69414" lon="1.63624">
        <ele>151.39999389648</ele>
        <time>2011-05-22T13:16:28.000Z</time>
      </trkpt>
      <trkpt lat="48.69419" lon="1.63633">
        <ele>151.60000610352</ele>
        <time>2011-05-22T13:16:33.000Z</time>
      </trkpt>
      <trkpt lat="48.69424" lon="1.63645">
        <ele>152</ele>
        <time>2011-05-22T13:16:39.000Z</time>
      </trkpt>
      <trkpt lat="48.69428" lon="1.63655">
        <ele>152.19999694824</ele>
        <time>2011-05-22T13:16:45.000Z</time>
      </trkpt>
      <trkpt lat="48.69434" lon="1.63667">
        <ele>152.60000610352</ele>
        <time>2011-05-22T13:16:52.000Z</time>
      </trkpt>
      <trkpt lat="48.6944" lon="1.6368">
        <ele>152.60000610352</ele>
        <time>2011-05-22T13:16:58.000Z</time>
      </trkpt>
      <trkpt lat="48.69441" lon="1.63685">
        <ele>152.60000610352</ele>
        <time>2011-05-22T13:17:00.000Z</time>
      </trkpt>
      <trkpt lat="48.69446" lon="1.63697">
        <ele>152.60000610352</ele>
        <time>2011-05-22T13:17:06.000Z</time>
      </trkpt>
      <trkpt lat="48.69453" lon="1.63709">
        <ele>152.60000610352</ele>
        <time>2011-05-22T13:17:13.000Z</time>
      </trkpt>
      <trkpt lat="48.69458" lon="1.63723">
        <ele>152.60000610352</ele>
        <time>2011-05-22T13:17:20.000Z</time>
      </trkpt>
      <trkpt lat="48.69465" lon="1.63736">
        <ele>152.60000610352</ele>
        <time>2011-05-22T13:17:27.000Z</time>
      </trkpt>
      <trkpt lat="48.69471" lon="1.63745">
        <ele>152.60000610352</ele>
        <time>2011-05-22T13:17:32.000Z</time>
      </trkpt>
      <trkpt lat="48.69474" lon="1.63755">
        <ele>152.60000610352</ele>
        <time>2011-05-22T13:17:37.000Z</time>
      </trkpt>
      <trkpt lat="48.69479" lon="1.63765">
        <ele>152.60000610352</ele>
        <time>2011-05-22T13:17:42.000Z</time>
      </trkpt>
      <trkpt lat="48.69487" lon="1.6378">
        <ele>152.80000305176</ele>
        <time>2011-05-22T13:17:51.000Z</time>
      </trkpt>
      <trkpt lat="48.69493" lon="1.63793">
        <ele>153</ele>
        <time>2011-05-22T13:17:58.000Z</time>
      </trkpt>
      <trkpt lat="48.69498" lon="1.63802">
        <ele>153.19999694824</ele>
        <time>2011-05-22T13:18:03.000Z</time>
      </trkpt>
      <trkpt lat="48.69502" lon="1.63812">
        <ele>153.19999694824</ele>
        <time>2011-05-22T13:18:08.000Z</time>
      </trkpt>
      <trkpt lat="48.69508" lon="1.63825">
        <ele>153.39999389648</ele>
        <time>2011-05-22T13:18:15.000Z</time>
      </trkpt>
      <trkpt lat="48.69514" lon="1.63836">
        <ele>153.39999389648</ele>
        <time>2011-05-22T13:18:22.000Z</time>
      </trkpt>
      <trkpt lat="48.69521" lon="1.63852">
        <ele>153</ele>
        <time>2011-05-22T13:18:30.000Z</time>
      </trkpt>
      <trkpt lat="48.69525" lon="1.63862">
        <ele>152.80000305176</ele>
        <time>2011-05-22T13:18:35.000Z</time>
      </trkpt>
      <trkpt lat="48.6953" lon="1.6387">
        <ele>152.60000610352</ele>
        <time>2011-05-22T13:18:40.000Z</time>
      </trkpt>
      <trkpt lat="48.69532" lon="1.63875">
        <ele>152.60000610352</ele>
        <time>2011-05-22T13:18:42.000Z</time>
      </trkpt>
      <trkpt lat="48.69539" lon="1.63891">
        <ele>152.39999389648</ele>
        <time>2011-05-22T13:18:50.000Z</time>
      </trkpt>
      <trkpt lat="48.69544" lon="1.63907">
        <ele>152.39999389648</ele>
        <time>2011-05-22T13:18:58.000Z</time>
      </trkpt>
      <trkpt lat="48.69548" lon="1.63922">
        <ele>152.39999389648</ele>
        <time>2011-05-22T13:19:05.000Z</time>
      </trkpt>
      <trkpt lat="48.69553" lon="1.63935">
        <ele>152.60000610352</ele>
        <time>2011-05-22T13:19:11.000Z</time>
      </trkpt>
      <trkpt lat="48.69557" lon="1.63944">
        <ele>152.60000610352</ele>
        <time>2011-05-22T13:19:16.000Z</time>
      </trkpt>
      <trkpt lat="48.69561" lon="1.63953">
        <ele>152.60000610352</ele>
        <time>2011-05-22T13:19:21.000Z</time>
      </trkpt>
      <trkpt lat="48.69563" lon="1.63959">
        <ele>152.60000610352</ele>
        <time>2011-05-22T13:19:24.000Z</time>
      </trkpt>
      <trkpt lat="48.69567" lon="1.63968">
        <ele>152.80000305176</ele>
        <time>2011-05-22T13:19:29.000Z</time>
      </trkpt>
      <trkpt lat="48.69573" lon="1.63986">
        <ele>152.80000305176</ele>
        <time>2011-05-22T13:19:38.000Z</time>
      </trkpt>
      <trkpt lat="48.69577" lon="1.63996">
        <ele>152.80000305176</ele>
        <time>2011-05-22T13:19:43.000Z</time>
      </trkpt>
      <trkpt lat="48.69578" lon="1.63998">
        <ele>152.80000305176</ele>
        <time>2011-05-22T13:19:44.000Z</time>
      </trkpt>
      <trkpt lat="48.69584" lon="1.64008">
        <ele>153</ele>
        <time>2011-05-22T13:19:50.000Z</time>
      </trkpt>
      <trkpt lat="48.69594" lon="1.64027">
        <ele>153.80000305176</ele>
        <time>2011-05-22T13:20:01.000Z</time>
      </trkpt>
      <trkpt lat="48.69606" lon="1.64051">
        <ele>154.60000610352</ele>
        <time>2011-05-22T13:20:14.000Z</time>
      </trkpt>
      <trkpt lat="48.69609" lon="1.64057">
        <ele>154.80000305176</ele>
        <time>2011-05-22T13:20:18.000Z</time>
      </trkpt>
      <trkpt lat="48.6961" lon="1.64058">
        <ele>154.80000305176</ele>
        <time>2011-05-22T13:20:21.000Z</time>
      </trkpt>
      <trkpt lat="48.69617" lon="1.64074">
        <ele>155.39999389648</ele>
        <time>2011-05-22T13:20:30.000Z</time>
      </trkpt>
      <trkpt lat="48.69623" lon="1.64087">
        <ele>156</ele>
        <time>2011-05-22T13:20:37.000Z</time>
      </trkpt>
      <trkpt lat="48.69627" lon="1.64096">
        <ele>156.19999694824</ele>
        <time>2011-05-22T13:20:42.000Z</time>
      </trkpt>
      <trkpt lat="48.69627" lon="1.64097">
        <ele>156.19999694824</ele>
        <time>2011-05-22T13:20:43.000Z</time>
      </trkpt>
      <trkpt lat="48.69634" lon="1.64105">
        <ele>156.60000610352</ele>
        <time>2011-05-22T13:20:49.000Z</time>
      </trkpt>
      <trkpt lat="48.69641" lon="1.64117">
        <ele>157.19999694824</ele>
        <time>2011-05-22T13:20:56.000Z</time>
      </trkpt>
      <trkpt lat="48.69648" lon="1.6413">
        <ele>157.80000305176</ele>
        <time>2011-05-22T13:21:04.000Z</time>
      </trkpt>
      <trkpt lat="48.69653" lon="1.64148">
        <ele>158.60000610352</ele>
        <time>2011-05-22T13:21:13.000Z</time>
      </trkpt>
      <trkpt lat="48.69655" lon="1.64155">
        <ele>158.80000305176</ele>
        <time>2011-05-22T13:21:17.000Z</time>
      </trkpt>
      <trkpt lat="48.69657" lon="1.64172">
        <ele>159.39999389648</ele>
        <time>2011-05-22T13:21:25.000Z</time>
      </trkpt>
      <trkpt lat="48.6966" lon="1.64183">
        <ele>160</ele>
        <time>2011-05-22T13:21:30.000Z</time>
      </trkpt>
      <trkpt lat="48.69665" lon="1.64201">
        <ele>161</ele>
        <time>2011-05-22T13:21:39.000Z</time>
      </trkpt>
      <trkpt lat="48.6967" lon="1.64217">
        <ele>162</ele>
        <time>2011-05-22T13:21:47.000Z</time>
      </trkpt>
      <trkpt lat="48.69671" lon="1.64219">
        <ele>162</ele>
        <time>2011-05-22T13:21:48.000Z</time>
      </trkpt>
      <trkpt lat="48.69677" lon="1.64222">
        <ele>162.60000610352</ele>
        <time>2011-05-22T13:21:53.000Z</time>
      </trkpt>
      <trkpt lat="48.69687" lon="1.64223">
        <ele>163.19999694824</ele>
        <time>2011-05-22T13:21:59.000Z</time>
      </trkpt>
      <trkpt lat="48.69692" lon="1.64225">
        <ele>163.60000610352</ele>
        <time>2011-05-22T13:22:03.000Z</time>
      </trkpt>
      <trkpt lat="48.69703" lon="1.64242">
        <ele>165</ele>
        <time>2011-05-22T13:22:14.000Z</time>
      </trkpt>
      <trkpt lat="48.6971" lon="1.64256">
        <ele>166.39999389648</ele>
        <time>2011-05-22T13:22:22.000Z</time>
      </trkpt>
      <trkpt lat="48.69714" lon="1.64262">
        <ele>167</ele>
        <time>2011-05-22T13:22:26.000Z</time>
      </trkpt>
      <trkpt lat="48.69717" lon="1.64268">
        <ele>167.60000610352</ele>
        <time>2011-05-22T13:22:29.000Z</time>
      </trkpt>
      <trkpt lat="48.69722" lon="1.64276">
        <ele>168.39999389648</ele>
        <time>2011-05-22T13:22:35.000Z</time>
      </trkpt>
      <trkpt lat="48.69725" lon="1.64278">
        <ele>168.80000305176</ele>
        <time>2011-05-22T13:22:37.000Z</time>
      </trkpt>
      <trkpt lat="48.69736" lon="1.64288">
        <ele>170.19999694824</ele>
        <time>2011-05-22T13:22:45.000Z</time>
      </trkpt>
      <trkpt lat="48.69744" lon="1.64295">
        <ele>171.19999694824</ele>
        <time>2011-05-22T13:22:50.000Z</time>
      </trkpt>
      <trkpt lat="48.69748" lon="1.64298">
        <ele>171.60000610352</ele>
        <time>2011-05-22T13:22:53.000Z</time>
      </trkpt>
      <trkpt lat="48.69755" lon="1.64307">
        <ele>172.39999389648</ele>
        <time>2011-05-22T13:22:59.000Z</time>
      </trkpt>
      <trkpt lat="48.69761" lon="1.64316">
        <ele>173</ele>
        <time>2011-05-22T13:23:04.000Z</time>
      </trkpt>
      <trkpt lat="48.69772" lon="1.64333">
        <ele>173.80000305176</ele>
        <time>2011-05-22T13:23:13.000Z</time>
      </trkpt>
      <trkpt lat="48.69777" lon="1.64343">
        <ele>173.80000305176</ele>
        <time>2011-05-22T13:23:18.000Z</time>
      </trkpt>
      <trkpt lat="48.69784" lon="1.64352">
        <ele>173.80000305176</ele>
        <time>2011-05-22T13:23:24.000Z</time>
      </trkpt>
      <trkpt lat="48.69792" lon="1.64365">
        <ele>173.80000305176</ele>
        <time>2011-05-22T13:23:32.000Z</time>
      </trkpt>
      <trkpt lat="48.698" lon="1.64377">
        <ele>173.60000610352</ele>
        <time>2011-05-22T13:23:39.000Z</time>
      </trkpt>
      <trkpt lat="48.69805" lon="1.64385">
        <ele>173.60000610352</ele>
        <time>2011-05-22T13:23:44.000Z</time>
      </trkpt>
      <trkpt lat="48.69809" lon="1.64389">
        <ele>173.80000305176</ele>
        <time>2011-05-22T13:23:49.000Z</time>
      </trkpt>
      <trkpt lat="48.6982" lon="1.64396">
        <ele>173.80000305176</ele>
        <time>2011-05-22T13:23:58.000Z</time>
      </trkpt>
      <trkpt lat="48.69827" lon="1.64399">
        <ele>173.80000305176</ele>
        <time>2011-05-22T13:24:04.000Z</time>
      </trkpt>
      <trkpt lat="48.69839" lon="1.64408">
        <ele>173.80000305176</ele>
        <time>2011-05-22T13:24:13.000Z</time>
      </trkpt>
      <trkpt lat="48.6985" lon="1.6442">
        <ele>173.80000305176</ele>
        <time>2011-05-22T13:24:22.000Z</time>
      </trkpt>
      <trkpt lat="48.69853" lon="1.64431">
        <ele>173.60000610352</ele>
        <time>2011-05-22T13:24:28.000Z</time>
      </trkpt>
      <trkpt lat="48.69855" lon="1.64438">
        <ele>173.60000610352</ele>
        <time>2011-05-22T13:24:34.000Z</time>
      </trkpt>
      <trkpt lat="48.69862" lon="1.64449">
        <ele>173.39999389648</ele>
        <time>2011-05-22T13:24:41.000Z</time>
      </trkpt>
      <trkpt lat="48.69871" lon="1.64459">
        <ele>173.39999389648</ele>
        <time>2011-05-22T13:24:48.000Z</time>
      </trkpt>
      <trkpt lat="48.69883" lon="1.64478">
        <ele>173.39999389648</ele>
        <time>2011-05-22T13:24:59.000Z</time>
      </trkpt>
      <trkpt lat="48.69893" lon="1.64495">
        <ele>173.39999389648</ele>
        <time>2011-05-22T13:25:09.000Z</time>
      </trkpt>
      <trkpt lat="48.69894" lon="1.64497">
        <ele>173.39999389648</ele>
        <time>2011-05-22T13:25:11.000Z</time>
      </trkpt>
      <trkpt lat="48.69903" lon="1.64503">
        <ele>173.60000610352</ele>
        <time>2011-05-22T13:25:18.000Z</time>
      </trkpt>
      <trkpt lat="48.69915" lon="1.64522">
        <ele>173.60000610352</ele>
        <time>2011-05-22T13:25:29.000Z</time>
      </trkpt>
      <trkpt lat="48.69925" lon="1.64537">
        <ele>173.60000610352</ele>
        <time>2011-05-22T13:25:38.000Z</time>
      </trkpt>
      <trkpt lat="48.69935" lon="1.64553">
        <ele>173.39999389648</ele>
        <time>2011-05-22T13:25:48.000Z</time>
      </trkpt>
      <trkpt lat="48.69938" lon="1.64563">
        <ele>173.39999389648</ele>
        <time>2011-05-22T13:25:53.000Z</time>
      </trkpt>
      <trkpt lat="48.69948" lon="1.64578">
        <ele>173.39999389648</ele>
        <time>2011-05-22T13:26:03.000Z</time>
      </trkpt>
      <trkpt lat="48.6996" lon="1.64598">
        <ele>173.39999389648</ele>
        <time>2011-05-22T13:26:16.000Z</time>
      </trkpt>
      <trkpt lat="48.69971" lon="1.64616">
        <ele>173.39999389648</ele>
        <time>2011-05-22T13:26:28.000Z</time>
      </trkpt>
      <trkpt lat="48.6998" lon="1.64631">
        <ele>173.60000610352</ele>
        <time>2011-05-22T13:26:38.000Z</time>
      </trkpt>
      <trkpt lat="48.69985" lon="1.6464">
        <ele>173.60000610352</ele>
        <time>2011-05-22T13:26:44.000Z</time>
      </trkpt>
      <trkpt lat="48.69987" lon="1.64644">
        <ele>173.60000610352</ele>
        <time>2011-05-22T13:26:47.000Z</time>
      </trkpt>
      <trkpt lat="48.69991" lon="1.64653">
        <ele>173.60000610352</ele>
        <time>2011-05-22T13:26:52.000Z</time>
      </trkpt>
      <trkpt lat="48.7" lon="1.64672">
        <ele>174.19999694824</ele>
        <time>2011-05-22T13:27:04.000Z</time>
      </trkpt>
      <trkpt lat="48.70005" lon="1.64687">
        <ele>175</ele>
        <time>2011-05-22T13:27:13.000Z</time>
      </trkpt>
      <trkpt lat="48.70012" lon="1.64698">
        <ele>175.60000610352</ele>
        <time>2011-05-22T13:27:21.000Z</time>
      </trkpt>
      <trkpt lat="48.70013" lon="1.64701">
        <ele>175.80000305176</ele>
        <time>2011-05-22T13:27:23.000Z</time>
      </trkpt>
      <trkpt lat="48.70019" lon="1.64714">
        <ele>176.39999389648</ele>
        <time>2011-05-22T13:27:31.000Z</time>
      </trkpt>
      <trkpt lat="48.70023" lon="1.64721">
        <ele>176.60000610352</ele>
        <time>2011-05-22T13:27:36.000Z</time>
      </trkpt>
      <trkpt lat="48.70026" lon="1.64725">
        <ele>176.80000305176</ele>
        <time>2011-05-22T13:27:39.000Z</time>
      </trkpt>
      <trkpt lat="48.70034" lon="1.64735">
        <ele>177</ele>
        <time>2011-05-22T13:27:48.000Z</time>
      </trkpt>
      <trkpt lat="48.70038" lon="1.64746">
        <ele>177.39999389648</ele>
        <time>2011-05-22T13:27:54.000Z</time>
      </trkpt>
      <trkpt lat="48.70043" lon="1.64756">
        <ele>177.60000610352</ele>
        <time>2011-05-22T13:28:01.000Z</time>
      </trkpt>
      <trkpt lat="48.70047" lon="1.64765">
        <ele>178</ele>
        <time>2011-05-22T13:28:07.000Z</time>
      </trkpt>
      <trkpt lat="48.70053" lon="1.64775">
        <ele>178.39999389648</ele>
        <time>2011-05-22T13:28:14.000Z</time>
      </trkpt>
      <trkpt lat="48.70058" lon="1.64784">
        <ele>178.60000610352</ele>
        <time>2011-05-22T13:28:20.000Z</time>
      </trkpt>
      <trkpt lat="48.70063" lon="1.64796">
        <ele>179</ele>
        <time>2011-05-22T13:28:28.000Z</time>
      </trkpt>
      <trkpt lat="48.70068" lon="1.64807">
        <ele>179.39999389648</ele>
        <time>2011-05-22T13:28:35.000Z</time>
      </trkpt>
      <trkpt lat="48.70076" lon="1.64822">
        <ele>179.80000305176</ele>
        <time>2011-05-22T13:28:45.000Z</time>
      </trkpt>
      <trkpt lat="48.70081" lon="1.64833">
        <ele>180</ele>
        <time>2011-05-22T13:28:52.000Z</time>
      </trkpt>
      <trkpt lat="48.70088" lon="1.64849">
        <ele>179.80000305176</ele>
        <time>2011-05-22T13:29:02.000Z</time>
      </trkpt>
      <trkpt lat="48.70095" lon="1.64861">
        <ele>179.80000305176</ele>
        <time>2011-05-22T13:29:11.000Z</time>
      </trkpt>
      <trkpt lat="48.70102" lon="1.64877">
        <ele>179.60000610352</ele>
        <time>2011-05-22T13:29:21.000Z</time>
      </trkpt>
      <trkpt lat="48.70111" lon="1.64895">
        <ele>179.60000610352</ele>
        <time>2011-05-22T13:29:32.000Z</time>
      </trkpt>
      <trkpt lat="48.70116" lon="1.64907">
        <ele>179.60000610352</ele>
        <time>2011-05-22T13:29:39.000Z</time>
      </trkpt>
      <trkpt lat="48.70125" lon="1.64925">
        <ele>179</ele>
        <time>2011-05-22T13:29:51.000Z</time>
      </trkpt>
      <trkpt lat="48.70132" lon="1.64939">
        <ele>178.60000610352</ele>
        <time>2011-05-22T13:29:59.000Z</time>
      </trkpt>
      <trkpt lat="48.70137" lon="1.64946">
        <ele>178.39999389648</ele>
        <time>2011-05-22T13:30:05.000Z</time>
      </trkpt>
      <trkpt lat="48.70143" lon="1.64957">
        <ele>178.39999389648</ele>
        <time>2011-05-22T13:30:12.000Z</time>
      </trkpt>
      <trkpt lat="48.70149" lon="1.64969">
        <ele>178.39999389648</ele>
        <time>2011-05-22T13:30:20.000Z</time>
      </trkpt>
      <trkpt lat="48.70155" lon="1.64983">
        <ele>178.39999389648</ele>
        <time>2011-05-22T13:30:28.000Z</time>
      </trkpt>
      <trkpt lat="48.7016" lon="1.64991">
        <ele>178.60000610352</ele>
        <time>2011-05-22T13:30:34.000Z</time>
      </trkpt>
      <trkpt lat="48.70165" lon="1.65002">
        <ele>178.80000305176</ele>
        <time>2011-05-22T13:30:38.000Z</time>
      </trkpt>
      <trkpt lat="48.70182" lon="1.65037">
        <ele>179.60000610352</ele>
        <time>2011-05-22T13:30:46.000Z</time>
      </trkpt>
      <trkpt lat="48.70197" lon="1.65073">
        <ele>180</ele>
        <time>2011-05-22T13:30:54.000Z</time>
      </trkpt>
      <trkpt lat="48.70213" lon="1.65107">
        <ele>180.39999389648</ele>
        <time>2011-05-22T13:31:02.000Z</time>
      </trkpt>
      <trkpt lat="48.70225" lon="1.65131">
        <ele>180.80000305176</ele>
        <time>2011-05-22T13:31:08.000Z</time>
      </trkpt>
      <trkpt lat="48.70238" lon="1.65153">
        <ele>181</ele>
        <time>2011-05-22T13:31:14.000Z</time>
      </trkpt>
      <trkpt lat="48.70251" lon="1.65178">
        <ele>181.19999694824</ele>
        <time>2011-05-22T13:31:20.000Z</time>
      </trkpt>
      <trkpt lat="48.70272" lon="1.65212">
        <ele>181.39999389648</ele>
        <time>2011-05-22T13:31:29.000Z</time>
      </trkpt>
      <trkpt lat="48.7029" lon="1.65238">
        <ele>180.80000305176</ele>
        <time>2011-05-22T13:31:36.000Z</time>
      </trkpt>
      <trkpt lat="48.7031" lon="1.65263">
        <ele>179.60000610352</ele>
        <time>2011-05-22T13:31:43.000Z</time>
      </trkpt>
      <trkpt lat="48.70333" lon="1.6529">
        <ele>178</ele>
        <time>2011-05-22T13:31:51.000Z</time>
      </trkpt>
      <trkpt lat="48.70347" lon="1.65314">
        <ele>177.80000305176</ele>
        <time>2011-05-22T13:31:57.000Z</time>
      </trkpt>
      <trkpt lat="48.70358" lon="1.65335">
        <ele>177.60000610352</ele>
        <time>2011-05-22T13:32:02.000Z</time>
      </trkpt>
      <trkpt lat="48.70377" lon="1.65375">
        <ele>176.80000305176</ele>
        <time>2011-05-22T13:32:10.000Z</time>
      </trkpt>
      <trkpt lat="48.70391" lon="1.65417">
        <ele>176.60000610352</ele>
        <time>2011-05-22T13:32:18.000Z</time>
      </trkpt>
      <trkpt lat="48.70393" lon="1.65433">
        <ele>176.60000610352</ele>
        <time>2011-05-22T13:32:22.000Z</time>
      </trkpt>
      <trkpt lat="48.70394" lon="1.6544">
        <ele>176.60000610352</ele>
        <time>2011-05-22T13:32:26.000Z</time>
      </trkpt>
      <trkpt lat="48.70397" lon="1.65451">
        <ele>176.80000305176</ele>
        <time>2011-05-22T13:32:32.000Z</time>
      </trkpt>
      <trkpt lat="48.70401" lon="1.65455">
        <ele>177</ele>
        <time>2011-05-22T13:32:36.000Z</time>
      </trkpt>
      <trkpt lat="48.70402" lon="1.65456">
        <ele>177</ele>
        <time>2011-05-22T13:32:37.000Z</time>
      </trkpt>
      <trkpt lat="48.70405" lon="1.65465">
        <ele>177.19999694824</ele>
        <time>2011-05-22T13:32:41.000Z</time>
      </trkpt>
      <trkpt lat="48.70411" lon="1.65476">
        <ele>177.39999389648</ele>
        <time>2011-05-22T13:32:47.000Z</time>
      </trkpt>
      <trkpt lat="48.70417" lon="1.65491">
        <ele>177.80000305176</ele>
        <time>2011-05-22T13:32:55.000Z</time>
      </trkpt>
      <trkpt lat="48.70421" lon="1.65505">
        <ele>177.80000305176</ele>
        <time>2011-05-22T13:33:02.000Z</time>
      </trkpt>
      <trkpt lat="48.70425" lon="1.65516">
        <ele>177.60000610352</ele>
        <time>2011-05-22T13:33:08.000Z</time>
      </trkpt>
      <trkpt lat="48.70431" lon="1.65532">
        <ele>177.39999389648</ele>
        <time>2011-05-22T13:33:13.000Z</time>
      </trkpt>
      <trkpt lat="48.70433" lon="1.65536">
        <ele>177.19999694824</ele>
        <time>2011-05-22T13:33:14.000Z</time>
      </trkpt>
      <trkpt lat="48.70452" lon="1.65571">
        <ele>176.60000610352</ele>
        <time>2011-05-22T13:33:22.000Z</time>
      </trkpt>
      <trkpt lat="48.70477" lon="1.65604">
        <ele>175.80000305176</ele>
        <time>2011-05-22T13:33:31.000Z</time>
      </trkpt>
      <trkpt lat="48.70506" lon="1.65624">
        <ele>175.39999389648</ele>
        <time>2011-05-22T13:33:40.000Z</time>
      </trkpt>
      <trkpt lat="48.7053" lon="1.65627">
        <ele>175.80000305176</ele>
        <time>2011-05-22T13:33:47.000Z</time>
      </trkpt>
      <trkpt lat="48.70555" lon="1.65632">
        <ele>176</ele>
        <time>2011-05-22T13:33:54.000Z</time>
      </trkpt>
      <trkpt lat="48.70578" lon="1.65643">
        <ele>176.19999694824</ele>
        <time>2011-05-22T13:34:01.000Z</time>
      </trkpt>
      <trkpt lat="48.70591" lon="1.65655">
        <ele>176.19999694824</ele>
        <time>2011-05-22T13:34:06.000Z</time>
      </trkpt>
      <trkpt lat="48.70599" lon="1.65662">
        <ele>176.39999389648</ele>
        <time>2011-05-22T13:34:09.000Z</time>
      </trkpt>
      <trkpt lat="48.70604" lon="1.65684">
        <ele>176.19999694824</ele>
        <time>2011-05-22T13:34:14.000Z</time>
      </trkpt>
      <trkpt lat="48.70607" lon="1.65721">
        <ele>176</ele>
        <time>2011-05-22T13:34:21.000Z</time>
      </trkpt>
      <trkpt lat="48.70609" lon="1.65761">
        <ele>175.80000305176</ele>
        <time>2011-05-22T13:34:29.000Z</time>
      </trkpt>
      <trkpt lat="48.70611" lon="1.65797">
        <ele>175.80000305176</ele>
        <time>2011-05-22T13:34:36.000Z</time>
      </trkpt>
      <trkpt lat="48.70614" lon="1.65838">
        <ele>175.60000610352</ele>
        <time>2011-05-22T13:34:44.000Z</time>
      </trkpt>
      <trkpt lat="48.70616" lon="1.65876">
        <ele>176.39999389648</ele>
        <time>2011-05-22T13:34:52.000Z</time>
      </trkpt>
      <trkpt lat="48.7062" lon="1.65918">
        <ele>177.19999694824</ele>
        <time>2011-05-22T13:35:01.000Z</time>
      </trkpt>
      <trkpt lat="48.70621" lon="1.65938">
        <ele>178.19999694824</ele>
        <time>2011-05-22T13:35:09.000Z</time>
      </trkpt>
      <trkpt lat="48.7062" lon="1.65956">
        <ele>178.80000305176</ele>
        <time>2011-05-22T13:35:17.000Z</time>
      </trkpt>
      <trkpt lat="48.7062" lon="1.65967">
        <ele>179.39999389648</ele>
        <time>2011-05-22T13:35:22.000Z</time>
      </trkpt>
      <trkpt lat="48.70622" lon="1.65979">
        <ele>180</ele>
        <time>2011-05-22T13:35:28.000Z</time>
      </trkpt>
      <trkpt lat="48.70624" lon="1.6599">
        <ele>180.39999389648</ele>
        <time>2011-05-22T13:35:34.000Z</time>
      </trkpt>
      <trkpt lat="48.70623" lon="1.65999">
        <ele>180.80000305176</ele>
        <time>2011-05-22T13:35:38.000Z</time>
      </trkpt>
      <trkpt lat="48.70623" lon="1.66015">
        <ele>181.19999694824</ele>
        <time>2011-05-22T13:35:45.000Z</time>
      </trkpt>
      <trkpt lat="48.70623" lon="1.66024">
        <ele>181.39999389648</ele>
        <time>2011-05-22T13:35:49.000Z</time>
      </trkpt>
      <trkpt lat="48.70625" lon="1.66041">
        <ele>181.80000305176</ele>
        <time>2011-05-22T13:35:56.000Z</time>
      </trkpt>
      <trkpt lat="48.70625" lon="1.66055">
        <ele>182.19999694824</ele>
        <time>2011-05-22T13:36:02.000Z</time>
      </trkpt>
      <trkpt lat="48.70627" lon="1.66076">
        <ele>182.80000305176</ele>
        <time>2011-05-22T13:36:11.000Z</time>
      </trkpt>
      <trkpt lat="48.70628" lon="1.6609">
        <ele>183</ele>
        <time>2011-05-22T13:36:17.000Z</time>
      </trkpt>
      <trkpt lat="48.70631" lon="1.66103">
        <ele>183.39999389648</ele>
        <time>2011-05-22T13:36:23.000Z</time>
      </trkpt>
      <trkpt lat="48.70632" lon="1.66116">
        <ele>183.60000610352</ele>
        <time>2011-05-22T13:36:30.000Z</time>
      </trkpt>
      <trkpt lat="48.7063" lon="1.66129">
        <ele>184</ele>
        <time>2011-05-22T13:36:36.000Z</time>
      </trkpt>
      <trkpt lat="48.7063" lon="1.66133">
        <ele>184</ele>
        <time>2011-05-22T13:36:38.000Z</time>
      </trkpt>
      <trkpt lat="48.70632" lon="1.66147">
        <ele>184.39999389648</ele>
        <time>2011-05-22T13:36:44.000Z</time>
      </trkpt>
      <trkpt lat="48.70635" lon="1.6616">
        <ele>184.80000305176</ele>
        <time>2011-05-22T13:36:50.000Z</time>
      </trkpt>
      <trkpt lat="48.70637" lon="1.66177">
        <ele>185</ele>
        <time>2011-05-22T13:36:57.000Z</time>
      </trkpt>
      <trkpt lat="48.70638" lon="1.66192">
        <ele>185</ele>
        <time>2011-05-22T13:37:03.000Z</time>
      </trkpt>
      <trkpt lat="48.70639" lon="1.66205">
        <ele>185</ele>
        <time>2011-05-22T13:37:09.000Z</time>
      </trkpt>
      <trkpt lat="48.70639" lon="1.66216">
        <ele>185</ele>
        <time>2011-05-22T13:37:15.000Z</time>
      </trkpt>
      <trkpt lat="48.7064" lon="1.66228">
        <ele>185</ele>
        <time>2011-05-22T13:37:20.000Z</time>
      </trkpt>
      <trkpt lat="48.70643" lon="1.66241">
        <ele>185</ele>
        <time>2011-05-22T13:37:26.000Z</time>
      </trkpt>
      <trkpt lat="48.70647" lon="1.66248">
        <ele>185</ele>
        <time>2011-05-22T13:37:31.000Z</time>
      </trkpt>
      <trkpt lat="48.70647" lon="1.66258">
        <ele>184.80000305176</ele>
        <time>2011-05-22T13:37:35.000Z</time>
      </trkpt>
      <trkpt lat="48.70647" lon="1.66267">
        <ele>184.80000305176</ele>
        <time>2011-05-22T13:37:42.000Z</time>
      </trkpt>
      <trkpt lat="48.70645" lon="1.66273">
        <ele>184.80000305176</ele>
        <time>2011-05-22T13:37:52.000Z</time>
      </trkpt>
      <trkpt lat="48.70645" lon="1.66273">
        <ele>184.80000305176</ele>
        <time>2011-05-22T13:37:53.000Z</time>
      </trkpt>
      <trkpt lat="48.70646" lon="1.66279">
        <ele>184.80000305176</ele>
        <time>2011-05-22T13:38:03.000Z</time>
      </trkpt>
      <trkpt lat="48.70648" lon="1.66294">
        <ele>184.60000610352</ele>
        <time>2011-05-22T13:38:08.000Z</time>
      </trkpt>
      <trkpt lat="48.7065" lon="1.66306">
        <ele>184.39999389648</ele>
        <time>2011-05-22T13:38:12.000Z</time>
      </trkpt>
      <trkpt lat="48.70652" lon="1.66322">
        <ele>184.39999389648</ele>
        <time>2011-05-22T13:38:19.000Z</time>
      </trkpt>
      <trkpt lat="48.70653" lon="1.66331">
        <ele>184.19999694824</ele>
        <time>2011-05-22T13:38:23.000Z</time>
      </trkpt>
      <trkpt lat="48.70655" lon="1.66348">
        <ele>183.80000305176</ele>
        <time>2011-05-22T13:38:31.000Z</time>
      </trkpt>
      <trkpt lat="48.70655" lon="1.6635">
        <ele>183.80000305176</ele>
        <time>2011-05-22T13:38:32.000Z</time>
      </trkpt>
      <trkpt lat="48.70656" lon="1.66359">
        <ele>183.60000610352</ele>
        <time>2011-05-22T13:38:37.000Z</time>
      </trkpt>
      <trkpt lat="48.70657" lon="1.66363">
        <ele>183.39999389648</ele>
        <time>2011-05-22T13:38:39.000Z</time>
      </trkpt>
      <trkpt lat="48.70656" lon="1.66371">
        <ele>183.19999694824</ele>
        <time>2011-05-22T13:38:43.000Z</time>
      </trkpt>
      <trkpt lat="48.70654" lon="1.66381">
        <ele>183</ele>
        <time>2011-05-22T13:38:48.000Z</time>
      </trkpt>
      <trkpt lat="48.70654" lon="1.66383">
        <ele>183</ele>
        <time>2011-05-22T13:38:49.000Z</time>
      </trkpt>
      <trkpt lat="48.70654" lon="1.6639">
        <ele>182.80000305176</ele>
        <time>2011-05-22T13:38:53.000Z</time>
      </trkpt>
      <trkpt lat="48.70655" lon="1.66404">
        <ele>182.39999389648</ele>
        <time>2011-05-22T13:38:59.000Z</time>
      </trkpt>
      <trkpt lat="48.7065" lon="1.66419">
        <ele>182.39999389648</ele>
        <time>2011-05-22T13:39:05.000Z</time>
      </trkpt>
      <trkpt lat="48.7065" lon="1.66421">
        <ele>182.39999389648</ele>
        <time>2011-05-22T13:39:06.000Z</time>
      </trkpt>
      <trkpt lat="48.70645" lon="1.66437">
        <ele>182.80000305176</ele>
        <time>2011-05-22T13:39:13.000Z</time>
      </trkpt>
      <trkpt lat="48.70645" lon="1.66449">
        <ele>183</ele>
        <time>2011-05-22T13:39:19.000Z</time>
      </trkpt>
      <trkpt lat="48.70644" lon="1.66451">
        <ele>183</ele>
        <time>2011-05-22T13:39:20.000Z</time>
      </trkpt>
      <trkpt lat="48.70642" lon="1.66467">
        <ele>183.39999389648</ele>
        <time>2011-05-22T13:39:27.000Z</time>
      </trkpt>
      <trkpt lat="48.70643" lon="1.66474">
        <ele>183.60000610352</ele>
        <time>2011-05-22T13:39:30.000Z</time>
      </trkpt>
      <trkpt lat="48.70646" lon="1.6648">
        <ele>183.60000610352</ele>
        <time>2011-05-22T13:39:35.000Z</time>
      </trkpt>
      <trkpt lat="48.70645" lon="1.6649">
        <ele>183.80000305176</ele>
        <time>2011-05-22T13:39:40.000Z</time>
      </trkpt>
      <trkpt lat="48.70643" lon="1.66501">
        <ele>184</ele>
        <time>2011-05-22T13:39:45.000Z</time>
      </trkpt>
      <trkpt lat="48.70642" lon="1.66505">
        <ele>184</ele>
        <time>2011-05-22T13:39:47.000Z</time>
      </trkpt>
      <trkpt lat="48.70644" lon="1.66519">
        <ele>184</ele>
        <time>2011-05-22T13:39:54.000Z</time>
      </trkpt>
      <trkpt lat="48.70643" lon="1.66527">
        <ele>184</ele>
        <time>2011-05-22T13:39:58.000Z</time>
      </trkpt>
      <trkpt lat="48.70641" lon="1.66536">
        <ele>184</ele>
        <time>2011-05-22T13:40:03.000Z</time>
      </trkpt>
      <trkpt lat="48.70636" lon="1.66544">
        <ele>184.19999694824</ele>
        <time>2011-05-22T13:40:08.000Z</time>
      </trkpt>
      <trkpt lat="48.70634" lon="1.66554">
        <ele>184.19999694824</ele>
        <time>2011-05-22T13:40:14.000Z</time>
      </trkpt>
      <trkpt lat="48.70632" lon="1.66565">
        <ele>184.19999694824</ele>
        <time>2011-05-22T13:40:20.000Z</time>
      </trkpt>
      <trkpt lat="48.70631" lon="1.66575">
        <ele>184.19999694824</ele>
        <time>2011-05-22T13:40:25.000Z</time>
      </trkpt>
      <trkpt lat="48.70631" lon="1.66578">
        <ele>184.19999694824</ele>
        <time>2011-05-22T13:40:26.000Z</time>
      </trkpt>
      <trkpt lat="48.7063" lon="1.6659">
        <ele>184.19999694824</ele>
        <time>2011-05-22T13:40:31.000Z</time>
      </trkpt>
      <trkpt lat="48.70629" lon="1.66608">
        <ele>184.19999694824</ele>
        <time>2011-05-22T13:40:39.000Z</time>
      </trkpt>
      <trkpt lat="48.70629" lon="1.66612">
        <ele>184.19999694824</ele>
        <time>2011-05-22T13:40:41.000Z</time>
      </trkpt>
      <trkpt lat="48.70629" lon="1.66623">
        <ele>184.19999694824</ele>
        <time>2011-05-22T13:40:46.000Z</time>
      </trkpt>
      <trkpt lat="48.70629" lon="1.66634">
        <ele>184.19999694824</ele>
        <time>2011-05-22T13:40:51.000Z</time>
      </trkpt>
      <trkpt lat="48.70626" lon="1.66644">
        <ele>184.39999389648</ele>
        <time>2011-05-22T13:40:57.000Z</time>
      </trkpt>
      <trkpt lat="48.7062" lon="1.66659">
        <ele>184.60000610352</ele>
        <time>2011-05-22T13:41:05.000Z</time>
      </trkpt>
      <trkpt lat="48.70611" lon="1.66674">
        <ele>185.19999694824</ele>
        <time>2011-05-22T13:41:13.000Z</time>
      </trkpt>
      <trkpt lat="48.70605" lon="1.66679">
        <ele>185.39999389648</ele>
        <time>2011-05-22T13:41:19.000Z</time>
      </trkpt>
      <trkpt lat="48.70596" lon="1.66688">
        <ele>185.80000305176</ele>
        <time>2011-05-22T13:41:27.000Z</time>
      </trkpt>
      <trkpt lat="48.70595" lon="1.6669">
        <ele>186</ele>
        <time>2011-05-22T13:41:28.000Z</time>
      </trkpt>
      <trkpt lat="48.70588" lon="1.66696">
        <ele>186.19999694824</ele>
        <time>2011-05-22T13:41:35.000Z</time>
      </trkpt>
      <trkpt lat="48.70586" lon="1.66697">
        <ele>186.39999389648</ele>
        <time>2011-05-22T13:41:36.000Z</time>
      </trkpt>
      <trkpt lat="48.70576" lon="1.66707">
        <ele>186.60000610352</ele>
        <time>2011-05-22T13:41:45.000Z</time>
      </trkpt>
      <trkpt lat="48.70573" lon="1.66716">
        <ele>186.60000610352</ele>
        <time>2011-05-22T13:41:51.000Z</time>
      </trkpt>
      <trkpt lat="48.70576" lon="1.66726">
        <ele>186.39999389648</ele>
        <time>2011-05-22T13:41:56.000Z</time>
      </trkpt>
      <trkpt lat="48.70576" lon="1.66735">
        <ele>186.19999694824</ele>
        <time>2011-05-22T13:42:00.000Z</time>
      </trkpt>
      <trkpt lat="48.70575" lon="1.66742">
        <ele>186.19999694824</ele>
        <time>2011-05-22T13:42:04.000Z</time>
      </trkpt>
      <trkpt lat="48.70575" lon="1.66746">
        <ele>186.19999694824</ele>
        <time>2011-05-22T13:42:06.000Z</time>
      </trkpt>
      <trkpt lat="48.70576" lon="1.66755">
        <ele>186</ele>
        <time>2011-05-22T13:42:12.000Z</time>
      </trkpt>
      <trkpt lat="48.70576" lon="1.66758">
        <ele>186</ele>
        <time>2011-05-22T13:42:14.000Z</time>
      </trkpt>
      <trkpt lat="48.70577" lon="1.6677">
        <ele>186</ele>
        <time>2011-05-22T13:42:19.000Z</time>
      </trkpt>
      <trkpt lat="48.70578" lon="1.66779">
        <ele>186</ele>
        <time>2011-05-22T13:42:24.000Z</time>
      </trkpt>
      <trkpt lat="48.70579" lon="1.66789">
        <ele>186</ele>
        <time>2011-05-22T13:42:29.000Z</time>
      </trkpt>
      <trkpt lat="48.70581" lon="1.66801">
        <ele>186</ele>
        <time>2011-05-22T13:42:34.000Z</time>
      </trkpt>
      <trkpt lat="48.70583" lon="1.66808">
        <ele>186</ele>
        <time>2011-05-22T13:42:37.000Z</time>
      </trkpt>
      <trkpt lat="48.70583" lon="1.66815">
        <ele>186</ele>
        <time>2011-05-22T13:42:41.000Z</time>
      </trkpt>
      <trkpt lat="48.70583" lon="1.66823">
        <ele>186</ele>
        <time>2011-05-22T13:42:45.000Z</time>
      </trkpt>
      <trkpt lat="48.70582" lon="1.66827">
        <ele>186</ele>
        <time>2011-05-22T13:42:47.000Z</time>
      </trkpt>
      <trkpt lat="48.70584" lon="1.66834">
        <ele>185.80000305176</ele>
        <time>2011-05-22T13:42:51.000Z</time>
      </trkpt>
      <trkpt lat="48.70584" lon="1.66847">
        <ele>186</ele>
        <time>2011-05-22T13:42:57.000Z</time>
      </trkpt>
      <trkpt lat="48.70585" lon="1.66858">
        <ele>186</ele>
        <time>2011-05-22T13:43:02.000Z</time>
      </trkpt>
      <trkpt lat="48.70585" lon="1.66884">
        <ele>186.39999389648</ele>
        <time>2011-05-22T13:43:12.000Z</time>
      </trkpt>
      <trkpt lat="48.70587" lon="1.66899">
        <ele>186.39999389648</ele>
        <time>2011-05-22T13:43:18.000Z</time>
      </trkpt>
      <trkpt lat="48.70586" lon="1.66917">
        <ele>186.60000610352</ele>
        <time>2011-05-22T13:43:26.000Z</time>
      </trkpt>
      <trkpt lat="48.70584" lon="1.66934">
        <ele>186.80000305176</ele>
        <time>2011-05-22T13:43:33.000Z</time>
      </trkpt>
      <trkpt lat="48.70588" lon="1.66947">
        <ele>186.39999389648</ele>
        <time>2011-05-22T13:43:39.000Z</time>
      </trkpt>
      <trkpt lat="48.70594" lon="1.66964">
        <ele>185.80000305176</ele>
        <time>2011-05-22T13:43:46.000Z</time>
      </trkpt>
      <trkpt lat="48.70595" lon="1.66976">
        <ele>185.80000305176</ele>
        <time>2011-05-22T13:43:52.000Z</time>
      </trkpt>
      <trkpt lat="48.70596" lon="1.66992">
        <ele>185.60000610352</ele>
        <time>2011-05-22T13:43:59.000Z</time>
      </trkpt>
      <trkpt lat="48.70597" lon="1.67007">
        <ele>185.60000610352</ele>
        <time>2011-05-22T13:44:06.000Z</time>
      </trkpt>
      <trkpt lat="48.70597" lon="1.67009">
        <ele>185.60000610352</ele>
        <time>2011-05-22T13:44:07.000Z</time>
      </trkpt>
      <trkpt lat="48.70596" lon="1.67022">
        <ele>186</ele>
        <time>2011-05-22T13:44:13.000Z</time>
      </trkpt>
      <trkpt lat="48.70597" lon="1.67042">
        <ele>186.19999694824</ele>
        <time>2011-05-22T13:44:21.000Z</time>
      </trkpt>
      <trkpt lat="48.706" lon="1.67057">
        <ele>186</ele>
        <time>2011-05-22T13:44:28.000Z</time>
      </trkpt>
      <trkpt lat="48.70602" lon="1.67074">
        <ele>186</ele>
        <time>2011-05-22T13:44:35.000Z</time>
      </trkpt>
      <trkpt lat="48.70605" lon="1.6709">
        <ele>186</ele>
        <time>2011-05-22T13:44:42.000Z</time>
      </trkpt>
      <trkpt lat="48.70606" lon="1.67109">
        <ele>186.19999694824</ele>
        <time>2011-05-22T13:44:50.000Z</time>
      </trkpt>
      <trkpt lat="48.70607" lon="1.67127">
        <ele>186.60000610352</ele>
        <time>2011-05-22T13:44:58.000Z</time>
      </trkpt>
      <trkpt lat="48.70607" lon="1.67145">
        <ele>186.80000305176</ele>
        <time>2011-05-22T13:45:06.000Z</time>
      </trkpt>
      <trkpt lat="48.70608" lon="1.6716">
        <ele>187</ele>
        <time>2011-05-22T13:45:13.000Z</time>
      </trkpt>
      <trkpt lat="48.70609" lon="1.67168">
        <ele>187.19999694824</ele>
        <time>2011-05-22T13:45:17.000Z</time>
      </trkpt>
      <trkpt lat="48.7061" lon="1.67175">
        <ele>187.19999694824</ele>
        <time>2011-05-22T13:45:21.000Z</time>
      </trkpt>
      <trkpt lat="48.70614" lon="1.67185">
        <ele>187</ele>
        <time>2011-05-22T13:45:26.000Z</time>
      </trkpt>
      <trkpt lat="48.7062" lon="1.67201">
        <ele>186.60000610352</ele>
        <time>2011-05-22T13:45:33.000Z</time>
      </trkpt>
      <trkpt lat="48.7062" lon="1.67218">
        <ele>186.80000305176</ele>
        <time>2011-05-22T13:45:41.000Z</time>
      </trkpt>
      <trkpt lat="48.70621" lon="1.67232">
        <ele>187</ele>
        <time>2011-05-22T13:45:48.000Z</time>
      </trkpt>
      <trkpt lat="48.70624" lon="1.67248">
        <ele>187</ele>
        <time>2011-05-22T13:45:55.000Z</time>
      </trkpt>
      <trkpt lat="48.70625" lon="1.67252">
        <ele>186.80000305176</ele>
        <time>2011-05-22T13:45:57.000Z</time>
      </trkpt>
      <trkpt lat="48.70627" lon="1.6727">
        <ele>186.60000610352</ele>
        <time>2011-05-22T13:46:05.000Z</time>
      </trkpt>
      <trkpt lat="48.70628" lon="1.67277">
        <ele>186.39999389648</ele>
        <time>2011-05-22T13:46:08.000Z</time>
      </trkpt>
      <trkpt lat="48.7063" lon="1.67294">
        <ele>186</ele>
        <time>2011-05-22T13:46:16.000Z</time>
      </trkpt>
      <trkpt lat="48.70633" lon="1.67314">
        <ele>185.60000610352</ele>
        <time>2011-05-22T13:46:24.000Z</time>
      </trkpt>
      <trkpt lat="48.70636" lon="1.67322">
        <ele>185.19999694824</ele>
        <time>2011-05-22T13:46:28.000Z</time>
      </trkpt>
      <trkpt lat="48.7064" lon="1.67337">
        <ele>184.80000305176</ele>
        <time>2011-05-22T13:46:35.000Z</time>
      </trkpt>
      <trkpt lat="48.70641" lon="1.67352">
        <ele>185</ele>
        <time>2011-05-22T13:46:41.000Z</time>
      </trkpt>
      <trkpt lat="48.70642" lon="1.67357">
        <ele>185</ele>
        <time>2011-05-22T13:46:43.000Z</time>
      </trkpt>
      <trkpt lat="48.70639" lon="1.67369">
        <ele>185.60000610352</ele>
        <time>2011-05-22T13:46:49.000Z</time>
      </trkpt>
      <trkpt lat="48.70633" lon="1.67383">
        <ele>186.39999389648</ele>
        <time>2011-05-22T13:46:57.000Z</time>
      </trkpt>
      <trkpt lat="48.70628" lon="1.67397">
        <ele>187</ele>
        <time>2011-05-22T13:47:04.000Z</time>
      </trkpt>
      <trkpt lat="48.70633" lon="1.67406">
        <ele>186.80000305176</ele>
        <time>2011-05-22T13:47:09.000Z</time>
      </trkpt>
      <trkpt lat="48.70634" lon="1.67406">
        <ele>186.60000610352</ele>
        <time>2011-05-22T13:47:10.000Z</time>
      </trkpt>
      <trkpt lat="48.70642" lon="1.67414">
        <ele>186.39999389648</ele>
        <time>2011-05-22T13:47:16.000Z</time>
      </trkpt>
      <trkpt lat="48.70649" lon="1.67416">
        <ele>186</ele>
        <time>2011-05-22T13:47:19.000Z</time>
      </trkpt>
      <trkpt lat="48.70657" lon="1.67422">
        <ele>185.60000610352</ele>
        <time>2011-05-22T13:47:26.000Z</time>
      </trkpt>
      <trkpt lat="48.70666" lon="1.67435">
        <ele>185.39999389648</ele>
        <time>2011-05-22T13:47:33.000Z</time>
      </trkpt>
      <trkpt lat="48.7067" lon="1.67446">
        <ele>185.60000610352</ele>
        <time>2011-05-22T13:47:38.000Z</time>
      </trkpt>
      <trkpt lat="48.7067" lon="1.67449">
        <ele>185.60000610352</ele>
        <time>2011-05-22T13:47:39.000Z</time>
      </trkpt>
      <trkpt lat="48.70673" lon="1.6747">
        <ele>186.19999694824</ele>
        <time>2011-05-22T13:47:45.000Z</time>
      </trkpt>
      <trkpt lat="48.70672" lon="1.67484">
        <ele>186.60000610352</ele>
        <time>2011-05-22T13:47:48.000Z</time>
      </trkpt>
      <trkpt lat="48.70671" lon="1.67508">
        <ele>187</ele>
        <time>2011-05-22T13:47:53.000Z</time>
      </trkpt>
      <trkpt lat="48.70671" lon="1.67536">
        <ele>187.39999389648</ele>
        <time>2011-05-22T13:47:58.000Z</time>
      </trkpt>
      <trkpt lat="48.7067" lon="1.67565">
        <ele>187.60000610352</ele>
        <time>2011-05-22T13:48:03.000Z</time>
      </trkpt>
      <trkpt lat="48.70671" lon="1.67582">
        <ele>187.80000305176</ele>
        <time>2011-05-22T13:48:06.000Z</time>
      </trkpt>
      <trkpt lat="48.70672" lon="1.67619">
        <ele>188.19999694824</ele>
        <time>2011-05-22T13:48:12.000Z</time>
      </trkpt>
      <trkpt lat="48.70671" lon="1.67657">
        <ele>188.80000305176</ele>
        <time>2011-05-22T13:48:19.000Z</time>
      </trkpt>
      <trkpt lat="48.70671" lon="1.67678">
        <ele>188.80000305176</ele>
        <time>2011-05-22T13:48:23.000Z</time>
      </trkpt>
      <trkpt lat="48.70673" lon="1.67702">
        <ele>188.80000305176</ele>
        <time>2011-05-22T13:48:27.000Z</time>
      </trkpt>
      <trkpt lat="48.70674" lon="1.67724">
        <ele>188.80000305176</ele>
        <time>2011-05-22T13:48:31.000Z</time>
      </trkpt>
      <trkpt lat="48.70673" lon="1.67752">
        <ele>188.80000305176</ele>
        <time>2011-05-22T13:48:36.000Z</time>
      </trkpt>
      <trkpt lat="48.70673" lon="1.67773">
        <ele>188</ele>
        <time>2011-05-22T13:48:40.000Z</time>
      </trkpt>
      <trkpt lat="48.70671" lon="1.678">
        <ele>187.19999694824</ele>
        <time>2011-05-22T13:48:45.000Z</time>
      </trkpt>
      <trkpt lat="48.70671" lon="1.67826">
        <ele>186.39999389648</ele>
        <time>2011-05-22T13:48:50.000Z</time>
      </trkpt>
      <trkpt lat="48.70674" lon="1.67847">
        <ele>185.80000305176</ele>
        <time>2011-05-22T13:48:54.000Z</time>
      </trkpt>
      <trkpt lat="48.70675" lon="1.67876">
        <ele>185.39999389648</ele>
        <time>2011-05-22T13:49:00.000Z</time>
      </trkpt>
      <trkpt lat="48.70676" lon="1.67901">
        <ele>184.80000305176</ele>
        <time>2011-05-22T13:49:05.000Z</time>
      </trkpt>
      <trkpt lat="48.70677" lon="1.67929">
        <ele>184.60000610352</ele>
        <time>2011-05-22T13:49:10.000Z</time>
      </trkpt>
      <trkpt lat="48.70679" lon="1.67958">
        <ele>184.80000305176</ele>
        <time>2011-05-22T13:49:15.000Z</time>
      </trkpt>
      <trkpt lat="48.70682" lon="1.67987">
        <ele>185.19999694824</ele>
        <time>2011-05-22T13:49:20.000Z</time>
      </trkpt>
      <trkpt lat="48.70684" lon="1.68016">
        <ele>185.39999389648</ele>
        <time>2011-05-22T13:49:25.000Z</time>
      </trkpt>
      <trkpt lat="48.70686" lon="1.68027">
        <ele>185.60000610352</ele>
        <time>2011-05-22T13:49:27.000Z</time>
      </trkpt>
      <trkpt lat="48.70685" lon="1.68051">
        <ele>185.80000305176</ele>
        <time>2011-05-22T13:49:31.000Z</time>
      </trkpt>
      <trkpt lat="48.70687" lon="1.68077">
        <ele>186</ele>
        <time>2011-05-22T13:49:36.000Z</time>
      </trkpt>
      <trkpt lat="48.70693" lon="1.68108">
        <ele>186</ele>
        <time>2011-05-22T13:49:42.000Z</time>
      </trkpt>
      <trkpt lat="48.70697" lon="1.6813">
        <ele>185.80000305176</ele>
        <time>2011-05-22T13:49:46.000Z</time>
      </trkpt>
      <trkpt lat="48.70703" lon="1.68161">
        <ele>185.60000610352</ele>
        <time>2011-05-22T13:49:51.000Z</time>
      </trkpt>
      <trkpt lat="48.70708" lon="1.68187">
        <ele>185.19999694824</ele>
        <time>2011-05-22T13:49:56.000Z</time>
      </trkpt>
      <trkpt lat="48.70715" lon="1.68217">
        <ele>184.80000305176</ele>
        <time>2011-05-22T13:50:02.000Z</time>
      </trkpt>
      <trkpt lat="48.7072" lon="1.68241">
        <ele>184.39999389648</ele>
        <time>2011-05-22T13:50:07.000Z</time>
      </trkpt>
      <trkpt lat="48.70724" lon="1.68257">
        <ele>184.19999694824</ele>
        <time>2011-05-22T13:50:10.000Z</time>
      </trkpt>
      <trkpt lat="48.70727" lon="1.68267">
        <ele>184.39999389648</ele>
        <time>2011-05-22T13:50:12.000Z</time>
      </trkpt>
      <trkpt lat="48.70732" lon="1.68296">
        <ele>184.39999389648</ele>
        <time>2011-05-22T13:50:18.000Z</time>
      </trkpt>
      <trkpt lat="48.7074" lon="1.68322">
        <ele>184.60000610352</ele>
        <time>2011-05-22T13:50:23.000Z</time>
      </trkpt>
      <trkpt lat="48.70747" lon="1.68344">
        <ele>184.80000305176</ele>
        <time>2011-05-22T13:50:27.000Z</time>
      </trkpt>
      <trkpt lat="48.70752" lon="1.68361">
        <ele>185.39999389648</ele>
        <time>2011-05-22T13:50:30.000Z</time>
      </trkpt>
      <trkpt lat="48.70763" lon="1.68403">
        <ele>186</ele>
        <time>2011-05-22T13:50:38.000Z</time>
      </trkpt>
      <trkpt lat="48.70768" lon="1.68427">
        <ele>186.19999694824</ele>
        <time>2011-05-22T13:50:43.000Z</time>
      </trkpt>
      <trkpt lat="48.70775" lon="1.68452">
        <ele>186.60000610352</ele>
        <time>2011-05-22T13:50:48.000Z</time>
      </trkpt>
      <trkpt lat="48.70776" lon="1.68462">
        <ele>186.80000305176</ele>
        <time>2011-05-22T13:50:52.000Z</time>
      </trkpt>
      <trkpt lat="48.70776" lon="1.68469">
        <ele>186.80000305176</ele>
        <time>2011-05-22T13:50:58.000Z</time>
      </trkpt>
      <trkpt lat="48.70776" lon="1.6847">
        <ele>186.80000305176</ele>
        <time>2011-05-22T13:51:00.000Z</time>
      </trkpt>
      <trkpt lat="48.7077" lon="1.68477">
        <ele>187</ele>
        <time>2011-05-22T13:51:27.000Z</time>
      </trkpt>
      <trkpt lat="48.70776" lon="1.68486">
        <ele>187</ele>
        <time>2011-05-22T13:51:31.000Z</time>
      </trkpt>
      <trkpt lat="48.70785" lon="1.68504">
        <ele>187</ele>
        <time>2011-05-22T13:51:38.000Z</time>
      </trkpt>
      <trkpt lat="48.70787" lon="1.68518">
        <ele>186.60000610352</ele>
        <time>2011-05-22T13:51:44.000Z</time>
      </trkpt>
      <trkpt lat="48.70786" lon="1.68521">
        <ele>186.60000610352</ele>
        <time>2011-05-22T13:51:45.000Z</time>
      </trkpt>
      <trkpt lat="48.70791" lon="1.68541">
        <ele>186.19999694824</ele>
        <time>2011-05-22T13:51:50.000Z</time>
      </trkpt>
      <trkpt lat="48.70799" lon="1.68572">
        <ele>185.60000610352</ele>
        <time>2011-05-22T13:51:55.000Z</time>
      </trkpt>
      <trkpt lat="48.70805" lon="1.68607">
        <ele>185.19999694824</ele>
        <time>2011-05-22T13:52:00.000Z</time>
      </trkpt>
      <trkpt lat="48.70807" lon="1.68638">
        <ele>185</ele>
        <time>2011-05-22T13:52:04.000Z</time>
      </trkpt>
      <trkpt lat="48.70804" lon="1.68699">
        <ele>184.80000305176</ele>
        <time>2011-05-22T13:52:11.000Z</time>
      </trkpt>
      <trkpt lat="48.70804" lon="1.68744">
        <ele>185.19999694824</ele>
        <time>2011-05-22T13:52:16.000Z</time>
      </trkpt>
      <trkpt lat="48.70804" lon="1.68754">
        <ele>185.19999694824</ele>
        <time>2011-05-22T13:52:17.000Z</time>
      </trkpt>
      <trkpt lat="48.70804" lon="1.68803">
        <ele>185.39999389648</ele>
        <time>2011-05-22T13:52:22.000Z</time>
      </trkpt>
      <trkpt lat="48.70804" lon="1.68812">
        <ele>185.39999389648</ele>
        <time>2011-05-22T13:52:23.000Z</time>
      </trkpt>
      <trkpt lat="48.70803" lon="1.68859">
        <ele>185.80000305176</ele>
        <time>2011-05-22T13:52:29.000Z</time>
      </trkpt>
      <trkpt lat="48.70802" lon="1.68883">
        <ele>185.80000305176</ele>
        <time>2011-05-22T13:52:32.000Z</time>
      </trkpt>
      <trkpt lat="48.70802" lon="1.68935">
        <ele>186.39999389648</ele>
        <time>2011-05-22T13:52:39.000Z</time>
      </trkpt>
      <trkpt lat="48.70801" lon="1.68943">
        <ele>186.39999389648</ele>
        <time>2011-05-22T13:52:40.000Z</time>
      </trkpt>
      <trkpt lat="48.70795" lon="1.68985">
        <ele>186.80000305176</ele>
        <time>2011-05-22T13:52:46.000Z</time>
      </trkpt>
      <trkpt lat="48.70793" lon="1.69014">
        <ele>187.19999694824</ele>
        <time>2011-05-22T13:52:50.000Z</time>
      </trkpt>
      <trkpt lat="48.70792" lon="1.69064">
        <ele>188</ele>
        <time>2011-05-22T13:52:57.000Z</time>
      </trkpt>
      <trkpt lat="48.70792" lon="1.69077">
        <ele>188.19999694824</ele>
        <time>2011-05-22T13:52:59.000Z</time>
      </trkpt>
      <trkpt lat="48.70793" lon="1.69116">
        <ele>187.80000305176</ele>
        <time>2011-05-22T13:53:05.000Z</time>
      </trkpt>
      <trkpt lat="48.70792" lon="1.69156">
        <ele>187</ele>
        <time>2011-05-22T13:53:11.000Z</time>
      </trkpt>
      <trkpt lat="48.7079" lon="1.69212">
        <ele>185.60000610352</ele>
        <time>2011-05-22T13:53:19.000Z</time>
      </trkpt>
      <trkpt lat="48.70789" lon="1.69257">
        <ele>184.39999389648</ele>
        <time>2011-05-22T13:53:26.000Z</time>
      </trkpt>
      <trkpt lat="48.70788" lon="1.69311">
        <ele>183.39999389648</ele>
        <time>2011-05-22T13:53:35.000Z</time>
      </trkpt>
      <trkpt lat="48.70787" lon="1.69353">
        <ele>182.60000610352</ele>
        <time>2011-05-22T13:53:42.000Z</time>
      </trkpt>
      <trkpt lat="48.70787" lon="1.69401">
        <ele>181.60000610352</ele>
        <time>2011-05-22T13:53:50.000Z</time>
      </trkpt>
      <trkpt lat="48.70785" lon="1.69424">
        <ele>181.19999694824</ele>
        <time>2011-05-22T13:53:54.000Z</time>
      </trkpt>
      <trkpt lat="48.70787" lon="1.6946">
        <ele>180.80000305176</ele>
        <time>2011-05-22T13:54:00.000Z</time>
      </trkpt>
      <trkpt lat="48.70791" lon="1.69499">
        <ele>180.39999389648</ele>
        <time>2011-05-22T13:54:06.000Z</time>
      </trkpt>
      <trkpt lat="48.70796" lon="1.69544">
        <ele>180.19999694824</ele>
        <time>2011-05-22T13:54:13.000Z</time>
      </trkpt>
      <trkpt lat="48.70798" lon="1.6957">
        <ele>180.19999694824</ele>
        <time>2011-05-22T13:54:18.000Z</time>
      </trkpt>
      <trkpt lat="48.70794" lon="1.6959">
        <ele>180</ele>
        <time>2011-05-22T13:54:23.000Z</time>
      </trkpt>
      <trkpt lat="48.70779" lon="1.69614">
        <ele>179.60000610352</ele>
        <time>2011-05-22T13:54:29.000Z</time>
      </trkpt>
      <trkpt lat="48.70772" lon="1.69632">
        <ele>179.80000305176</ele>
        <time>2011-05-22T13:54:33.000Z</time>
      </trkpt>
      <trkpt lat="48.70766" lon="1.69666">
        <ele>180.19999694824</ele>
        <time>2011-05-22T13:54:39.000Z</time>
      </trkpt>
      <trkpt lat="48.70755" lon="1.6969">
        <ele>180.39999389648</ele>
        <time>2011-05-22T13:54:44.000Z</time>
      </trkpt>
      <trkpt lat="48.70745" lon="1.69713">
        <ele>180.39999389648</ele>
        <time>2011-05-22T13:54:49.000Z</time>
      </trkpt>
      <trkpt lat="48.70743" lon="1.69748">
        <ele>180.19999694824</ele>
        <time>2011-05-22T13:54:55.000Z</time>
      </trkpt>
      <trkpt lat="48.70741" lon="1.69786">
        <ele>180.60000610352</ele>
        <time>2011-05-22T13:55:02.000Z</time>
      </trkpt>
      <trkpt lat="48.70738" lon="1.69825">
        <ele>180.80000305176</ele>
        <time>2011-05-22T13:55:09.000Z</time>
      </trkpt>
      <trkpt lat="48.70734" lon="1.69852">
        <ele>181.60000610352</ele>
        <time>2011-05-22T13:55:14.000Z</time>
      </trkpt>
      <trkpt lat="48.70729" lon="1.69883">
        <ele>182.60000610352</ele>
        <time>2011-05-22T13:55:20.000Z</time>
      </trkpt>
      <trkpt lat="48.70727" lon="1.69922">
        <ele>183.80000305176</ele>
        <time>2011-05-22T13:55:27.000Z</time>
      </trkpt>
      <trkpt lat="48.70727" lon="1.6995">
        <ele>185.19999694824</ele>
        <time>2011-05-22T13:55:32.000Z</time>
      </trkpt>
      <trkpt lat="48.70729" lon="1.69984">
        <ele>186.80000305176</ele>
        <time>2011-05-22T13:55:38.000Z</time>
      </trkpt>
      <trkpt lat="48.70738" lon="1.70008">
        <ele>187.80000305176</ele>
        <time>2011-05-22T13:55:43.000Z</time>
      </trkpt>
      <trkpt lat="48.70744" lon="1.70023">
        <ele>187.80000305176</ele>
        <time>2011-05-22T13:55:47.000Z</time>
      </trkpt>
      <trkpt lat="48.70744" lon="1.7005">
        <ele>187.80000305176</ele>
        <time>2011-05-22T13:55:52.000Z</time>
      </trkpt>
      <trkpt lat="48.70742" lon="1.70085">
        <ele>187.80000305176</ele>
        <time>2011-05-22T13:55:58.000Z</time>
      </trkpt>
      <trkpt lat="48.70737" lon="1.70128">
        <ele>186.39999389648</ele>
        <time>2011-05-22T13:56:05.000Z</time>
      </trkpt>
      <trkpt lat="48.70735" lon="1.70164">
        <ele>185.39999389648</ele>
        <time>2011-05-22T13:56:11.000Z</time>
      </trkpt>
      <trkpt lat="48.70734" lon="1.70202">
        <ele>184.39999389648</ele>
        <time>2011-05-22T13:56:17.000Z</time>
      </trkpt>
      <trkpt lat="48.70733" lon="1.70214">
        <ele>184</ele>
        <time>2011-05-22T13:56:19.000Z</time>
      </trkpt>
      <trkpt lat="48.70728" lon="1.70232">
        <ele>183.39999389648</ele>
        <time>2011-05-22T13:56:22.000Z</time>
      </trkpt>
      <trkpt lat="48.7072" lon="1.70281">
        <ele>180.39999389648</ele>
        <time>2011-05-22T13:56:30.000Z</time>
      </trkpt>
      <trkpt lat="48.70709" lon="1.70341">
        <ele>177.80000305176</ele>
        <time>2011-05-22T13:56:40.000Z</time>
      </trkpt>
      <trkpt lat="48.70699" lon="1.70378">
        <ele>179.19999694824</ele>
        <time>2011-05-22T13:56:47.000Z</time>
      </trkpt>
      <trkpt lat="48.70691" lon="1.70403">
        <ele>181</ele>
        <time>2011-05-22T13:56:52.000Z</time>
      </trkpt>
      <trkpt lat="48.70686" lon="1.70431">
        <ele>182.80000305176</ele>
        <time>2011-05-22T13:56:57.000Z</time>
      </trkpt>
      <trkpt lat="48.70677" lon="1.70471">
        <ele>184.80000305176</ele>
        <time>2011-05-22T13:57:04.000Z</time>
      </trkpt>
      <trkpt lat="48.70667" lon="1.705">
        <ele>187</ele>
        <time>2011-05-22T13:57:10.000Z</time>
      </trkpt>
      <trkpt lat="48.70657" lon="1.70541">
        <ele>186.19999694824</ele>
        <time>2011-05-22T13:57:17.000Z</time>
      </trkpt>
      <trkpt lat="48.70656" lon="1.70547">
        <ele>186</ele>
        <time>2011-05-22T13:57:18.000Z</time>
      </trkpt>
      <trkpt lat="48.7065" lon="1.70568">
        <ele>185.80000305176</ele>
        <time>2011-05-22T13:57:22.000Z</time>
      </trkpt>
      <trkpt lat="48.70641" lon="1.70601">
        <ele>185.39999389648</ele>
        <time>2011-05-22T13:57:28.000Z</time>
      </trkpt>
      <trkpt lat="48.70632" lon="1.70636">
        <ele>185.39999389648</ele>
        <time>2011-05-22T13:57:34.000Z</time>
      </trkpt>
      <trkpt lat="48.70628" lon="1.70654">
        <ele>185.39999389648</ele>
        <time>2011-05-22T13:57:37.000Z</time>
      </trkpt>
      <trkpt lat="48.70622" lon="1.7068">
        <ele>185.39999389648</ele>
        <time>2011-05-22T13:57:42.000Z</time>
      </trkpt>
      <trkpt lat="48.70618" lon="1.70695">
        <ele>185.39999389648</ele>
        <time>2011-05-22T13:57:46.000Z</time>
      </trkpt>
      <trkpt lat="48.70613" lon="1.70714">
        <ele>185.60000610352</ele>
        <time>2011-05-22T13:57:53.000Z</time>
      </trkpt>
      <trkpt lat="48.70607" lon="1.70734">
        <ele>185.60000610352</ele>
        <time>2011-05-22T13:58:01.000Z</time>
      </trkpt>
      <trkpt lat="48.70603" lon="1.7075">
        <ele>185.60000610352</ele>
        <time>2011-05-22T13:58:07.000Z</time>
      </trkpt>
      <trkpt lat="48.706" lon="1.70764">
        <ele>185.39999389648</ele>
        <time>2011-05-22T13:58:13.000Z</time>
      </trkpt>
      <trkpt lat="48.70599" lon="1.70771">
        <ele>185.19999694824</ele>
        <time>2011-05-22T13:58:16.000Z</time>
      </trkpt>
      <trkpt lat="48.70595" lon="1.70783">
        <ele>185</ele>
        <time>2011-05-22T13:58:21.000Z</time>
      </trkpt>
      <trkpt lat="48.7059" lon="1.70801">
        <ele>184.60000610352</ele>
        <time>2011-05-22T13:58:28.000Z</time>
      </trkpt>
      <trkpt lat="48.70586" lon="1.70814">
        <ele>184.39999389648</ele>
        <time>2011-05-22T13:58:34.000Z</time>
      </trkpt>
      <trkpt lat="48.70582" lon="1.70831">
        <ele>184</ele>
        <time>2011-05-22T13:58:40.000Z</time>
      </trkpt>
      <trkpt lat="48.70576" lon="1.70848">
        <ele>183.80000305176</ele>
        <time>2011-05-22T13:58:46.000Z</time>
      </trkpt>
      <trkpt lat="48.7057" lon="1.70865">
        <ele>183.60000610352</ele>
        <time>2011-05-22T13:58:52.000Z</time>
      </trkpt>
      <trkpt lat="48.70567" lon="1.70884">
        <ele>183.60000610352</ele>
        <time>2011-05-22T13:58:58.000Z</time>
      </trkpt>
      <trkpt lat="48.70563" lon="1.70899">
        <ele>183.39999389648</ele>
        <time>2011-05-22T13:59:04.000Z</time>
      </trkpt>
      <trkpt lat="48.7056" lon="1.7092">
        <ele>183.39999389648</ele>
        <time>2011-05-22T13:59:11.000Z</time>
      </trkpt>
      <trkpt lat="48.70556" lon="1.70939">
        <ele>183.19999694824</ele>
        <time>2011-05-22T13:59:18.000Z</time>
      </trkpt>
      <trkpt lat="48.70551" lon="1.70953">
        <ele>183.19999694824</ele>
        <time>2011-05-22T13:59:25.000Z</time>
      </trkpt>
      <trkpt lat="48.70548" lon="1.70969">
        <ele>183.19999694824</ele>
        <time>2011-05-22T13:59:32.000Z</time>
      </trkpt>
      <trkpt lat="48.70543" lon="1.70985">
        <ele>183</ele>
        <time>2011-05-22T13:59:39.000Z</time>
      </trkpt>
      <trkpt lat="48.70539" lon="1.71008">
        <ele>183</ele>
        <time>2011-05-22T13:59:46.000Z</time>
      </trkpt>
      <trkpt lat="48.70533" lon="1.71026">
        <ele>183.39999389648</ele>
        <time>2011-05-22T13:59:52.000Z</time>
      </trkpt>
      <trkpt lat="48.7053" lon="1.71044">
        <ele>183.80000305176</ele>
        <time>2011-05-22T13:59:59.000Z</time>
      </trkpt>
      <trkpt lat="48.70528" lon="1.71055">
        <ele>183.80000305176</ele>
        <time>2011-05-22T14:00:04.000Z</time>
      </trkpt>
      <trkpt lat="48.70522" lon="1.71071">
        <ele>184.19999694824</ele>
        <time>2011-05-22T14:00:12.000Z</time>
      </trkpt>
      <trkpt lat="48.70516" lon="1.71091">
        <ele>184.60000610352</ele>
        <time>2011-05-22T14:00:21.000Z</time>
      </trkpt>
      <trkpt lat="48.70512" lon="1.71106">
        <ele>184.60000610352</ele>
        <time>2011-05-22T14:00:27.000Z</time>
      </trkpt>
      <trkpt lat="48.70509" lon="1.71117">
        <ele>184.60000610352</ele>
        <time>2011-05-22T14:00:32.000Z</time>
      </trkpt>
      <trkpt lat="48.70505" lon="1.7113">
        <ele>184.80000305176</ele>
        <time>2011-05-22T14:00:38.000Z</time>
      </trkpt>
      <trkpt lat="48.70504" lon="1.71151">
        <ele>184.80000305176</ele>
        <time>2011-05-22T14:00:46.000Z</time>
      </trkpt>
      <trkpt lat="48.70504" lon="1.71157">
        <ele>184.80000305176</ele>
        <time>2011-05-22T14:00:48.000Z</time>
      </trkpt>
      <trkpt lat="48.70506" lon="1.71174">
        <ele>184.80000305176</ele>
        <time>2011-05-22T14:00:55.000Z</time>
      </trkpt>
      <trkpt lat="48.70504" lon="1.71179">
        <ele>185</ele>
        <time>2011-05-22T14:00:57.000Z</time>
      </trkpt>
      <trkpt lat="48.70495" lon="1.71196">
        <ele>185.39999389648</ele>
        <time>2011-05-22T14:01:05.000Z</time>
      </trkpt>
      <trkpt lat="48.70491" lon="1.71207">
        <ele>185.39999389648</ele>
        <time>2011-05-22T14:01:11.000Z</time>
      </trkpt>
      <trkpt lat="48.7049" lon="1.71209">
        <ele>185.60000610352</ele>
        <time>2011-05-22T14:01:12.000Z</time>
      </trkpt>
      <trkpt lat="48.70484" lon="1.71231">
        <ele>185.80000305176</ele>
        <time>2011-05-22T14:01:22.000Z</time>
      </trkpt>
      <trkpt lat="48.70481" lon="1.71243">
        <ele>186</ele>
        <time>2011-05-22T14:01:27.000Z</time>
      </trkpt>
      <trkpt lat="48.70481" lon="1.71245">
        <ele>186</ele>
        <time>2011-05-22T14:01:28.000Z</time>
      </trkpt>
      <trkpt lat="48.70477" lon="1.7126">
        <ele>186.39999389648</ele>
        <time>2011-05-22T14:01:33.000Z</time>
      </trkpt>
      <trkpt lat="48.70473" lon="1.71287">
        <ele>186.60000610352</ele>
        <time>2011-05-22T14:01:40.000Z</time>
      </trkpt>
      <trkpt lat="48.70467" lon="1.71314">
        <ele>187</ele>
        <time>2011-05-22T14:01:45.000Z</time>
      </trkpt>
      <trkpt lat="48.70463" lon="1.71335">
        <ele>187</ele>
        <time>2011-05-22T14:01:49.000Z</time>
      </trkpt>
      <trkpt lat="48.70458" lon="1.71369">
        <ele>186.80000305176</ele>
        <time>2011-05-22T14:01:55.000Z</time>
      </trkpt>
      <trkpt lat="48.70453" lon="1.71397">
        <ele>186.60000610352</ele>
        <time>2011-05-22T14:02:00.000Z</time>
      </trkpt>
      <trkpt lat="48.70448" lon="1.71423">
        <ele>186.39999389648</ele>
        <time>2011-05-22T14:02:05.000Z</time>
      </trkpt>
      <trkpt lat="48.7044" lon="1.71454">
        <ele>186</ele>
        <time>2011-05-22T14:02:11.000Z</time>
      </trkpt>
      <trkpt lat="48.70433" lon="1.71486">
        <ele>186</ele>
        <time>2011-05-22T14:02:17.000Z</time>
      </trkpt>
      <trkpt lat="48.70427" lon="1.71508">
        <ele>186</ele>
        <time>2011-05-22T14:02:21.000Z</time>
      </trkpt>
      <trkpt lat="48.70421" lon="1.71537">
        <ele>185.60000610352</ele>
        <time>2011-05-22T14:02:26.000Z</time>
      </trkpt>
      <trkpt lat="48.70417" lon="1.71559">
        <ele>185.19999694824</ele>
        <time>2011-05-22T14:02:30.000Z</time>
      </trkpt>
      <trkpt lat="48.70412" lon="1.71576">
        <ele>184.80000305176</ele>
        <time>2011-05-22T14:02:34.000Z</time>
      </trkpt>
      <trkpt lat="48.70403" lon="1.71606">
        <ele>184.80000305176</ele>
        <time>2011-05-22T14:02:40.000Z</time>
      </trkpt>
      <trkpt lat="48.70396" lon="1.71643">
        <ele>185.19999694824</ele>
        <time>2011-05-22T14:02:47.000Z</time>
      </trkpt>
      <trkpt lat="48.7039" lon="1.71677">
        <ele>185.39999389648</ele>
        <time>2011-05-22T14:02:53.000Z</time>
      </trkpt>
      <trkpt lat="48.70384" lon="1.71707">
        <ele>185.80000305176</ele>
        <time>2011-05-22T14:02:58.000Z</time>
      </trkpt>
      <trkpt lat="48.7038" lon="1.71724">
        <ele>186</ele>
        <time>2011-05-22T14:03:01.000Z</time>
      </trkpt>
      <trkpt lat="48.70373" lon="1.71761">
        <ele>186.19999694824</ele>
        <time>2011-05-22T14:03:07.000Z</time>
      </trkpt>
      <trkpt lat="48.70368" lon="1.7179">
        <ele>185.60000610352</ele>
        <time>2011-05-22T14:03:12.000Z</time>
      </trkpt>
      <trkpt lat="48.7036" lon="1.71839">
        <ele>184.39999389648</ele>
        <time>2011-05-22T14:03:20.000Z</time>
      </trkpt>
      <trkpt lat="48.70351" lon="1.71878">
        <ele>183.80000305176</ele>
        <time>2011-05-22T14:03:26.000Z</time>
      </trkpt>
      <trkpt lat="48.70344" lon="1.71909">
        <ele>183.19999694824</ele>
        <time>2011-05-22T14:03:31.000Z</time>
      </trkpt>
      <trkpt lat="48.70335" lon="1.71945">
        <ele>183</ele>
        <time>2011-05-22T14:03:36.000Z</time>
      </trkpt>
      <trkpt lat="48.70323" lon="1.72">
        <ele>182.19999694824</ele>
        <time>2011-05-22T14:03:43.000Z</time>
      </trkpt>
      <trkpt lat="48.70322" lon="1.72015">
        <ele>182.60000610352</ele>
        <time>2011-05-22T14:03:45.000Z</time>
      </trkpt>
      <trkpt lat="48.70315" lon="1.72041">
        <ele>182.80000305176</ele>
        <time>2011-05-22T14:03:49.000Z</time>
      </trkpt>
      <trkpt lat="48.70309" lon="1.72062">
        <ele>183.19999694824</ele>
        <time>2011-05-22T14:03:52.000Z</time>
      </trkpt>
      <trkpt lat="48.70304" lon="1.7209">
        <ele>183.60000610352</ele>
        <time>2011-05-22T14:03:56.000Z</time>
      </trkpt>
      <trkpt lat="48.703" lon="1.72111">
        <ele>184</ele>
        <time>2011-05-22T14:03:59.000Z</time>
      </trkpt>
      <trkpt lat="48.70294" lon="1.72147">
        <ele>184.39999389648</ele>
        <time>2011-05-22T14:04:04.000Z</time>
      </trkpt>
      <trkpt lat="48.70293" lon="1.72155">
        <ele>184.60000610352</ele>
        <time>2011-05-22T14:04:05.000Z</time>
      </trkpt>
      <trkpt lat="48.70284" lon="1.72193">
        <ele>185</ele>
        <time>2011-05-22T14:04:10.000Z</time>
      </trkpt>
      <trkpt lat="48.7028" lon="1.72219">
        <ele>185</ele>
        <time>2011-05-22T14:04:14.000Z</time>
      </trkpt>
      <trkpt lat="48.70275" lon="1.72244">
        <ele>185.19999694824</ele>
        <time>2011-05-22T14:04:18.000Z</time>
      </trkpt>
      <trkpt lat="48.70273" lon="1.72254">
        <ele>185.19999694824</ele>
        <time>2011-05-22T14:04:20.000Z</time>
      </trkpt>
      <trkpt lat="48.70269" lon="1.7227">
        <ele>185</ele>
        <time>2011-05-22T14:04:23.000Z</time>
      </trkpt>
      <trkpt lat="48.7026" lon="1.72306">
        <ele>184.80000305176</ele>
        <time>2011-05-22T14:04:29.000Z</time>
      </trkpt>
      <trkpt lat="48.70258" lon="1.72312">
        <ele>184.80000305176</ele>
        <time>2011-05-22T14:04:30.000Z</time>
      </trkpt>
      <trkpt lat="48.70255" lon="1.72331">
        <ele>184.80000305176</ele>
        <time>2011-05-22T14:04:33.000Z</time>
      </trkpt>
      <trkpt lat="48.7025" lon="1.72358">
        <ele>184</ele>
        <time>2011-05-22T14:04:37.000Z</time>
      </trkpt>
      <trkpt lat="48.70245" lon="1.72382">
        <ele>183.19999694824</ele>
        <time>2011-05-22T14:04:41.000Z</time>
      </trkpt>
      <trkpt lat="48.70236" lon="1.72412">
        <ele>182.60000610352</ele>
        <time>2011-05-22T14:04:47.000Z</time>
      </trkpt>
      <trkpt lat="48.70229" lon="1.72433">
        <ele>182.60000610352</ele>
        <time>2011-05-22T14:04:51.000Z</time>
      </trkpt>
      <trkpt lat="48.70223" lon="1.72466">
        <ele>182.19999694824</ele>
        <time>2011-05-22T14:04:56.000Z</time>
      </trkpt>
      <trkpt lat="48.70222" lon="1.72472">
        <ele>182.19999694824</ele>
        <time>2011-05-22T14:04:57.000Z</time>
      </trkpt>
      <trkpt lat="48.70216" lon="1.72505">
        <ele>181.80000305176</ele>
        <time>2011-05-22T14:05:02.000Z</time>
      </trkpt>
      <trkpt lat="48.70212" lon="1.72529">
        <ele>181.39999389648</ele>
        <time>2011-05-22T14:05:05.000Z</time>
      </trkpt>
      <trkpt lat="48.70208" lon="1.7255">
        <ele>181.19999694824</ele>
        <time>2011-05-22T14:05:08.000Z</time>
      </trkpt>
      <trkpt lat="48.70201" lon="1.72588">
        <ele>181</ele>
        <time>2011-05-22T14:05:13.000Z</time>
      </trkpt>
      <trkpt lat="48.70197" lon="1.72605">
        <ele>180.60000610352</ele>
        <time>2011-05-22T14:05:15.000Z</time>
      </trkpt>
      <trkpt lat="48.70189" lon="1.72632">
        <ele>180.19999694824</ele>
        <time>2011-05-22T14:05:19.000Z</time>
      </trkpt>
      <trkpt lat="48.70181" lon="1.72667">
        <ele>179.19999694824</ele>
        <time>2011-05-22T14:05:25.000Z</time>
      </trkpt>
      <trkpt lat="48.7018" lon="1.72678">
        <ele>178.80000305176</ele>
        <time>2011-05-22T14:05:27.000Z</time>
      </trkpt>
      <trkpt lat="48.70167" lon="1.7272">
        <ele>177.39999389648</ele>
        <time>2011-05-22T14:05:35.000Z</time>
      </trkpt>
      <trkpt lat="48.70157" lon="1.72751">
        <ele>176.39999389648</ele>
        <time>2011-05-22T14:05:41.000Z</time>
      </trkpt>
      <trkpt lat="48.70147" lon="1.72782">
        <ele>176.39999389648</ele>
        <time>2011-05-22T14:05:47.000Z</time>
      </trkpt>
      <trkpt lat="48.70137" lon="1.72816">
        <ele>176.60000610352</ele>
        <time>2011-05-22T14:05:53.000Z</time>
      </trkpt>
      <trkpt lat="48.70128" lon="1.72836">
        <ele>177.19999694824</ele>
        <time>2011-05-22T14:05:57.000Z</time>
      </trkpt>
      <trkpt lat="48.70119" lon="1.72864">
        <ele>177.39999389648</ele>
        <time>2011-05-22T14:06:02.000Z</time>
      </trkpt>
      <trkpt lat="48.70108" lon="1.72898">
        <ele>177.39999389648</ele>
        <time>2011-05-22T14:06:08.000Z</time>
      </trkpt>
      <trkpt lat="48.701" lon="1.72927">
        <ele>177.80000305176</ele>
        <time>2011-05-22T14:06:13.000Z</time>
      </trkpt>
      <trkpt lat="48.70089" lon="1.72956">
        <ele>179</ele>
        <time>2011-05-22T14:06:18.000Z</time>
      </trkpt>
      <trkpt lat="48.70078" lon="1.72991">
        <ele>180.19999694824</ele>
        <time>2011-05-22T14:06:25.000Z</time>
      </trkpt>
      <trkpt lat="48.70071" lon="1.73017">
        <ele>181.39999389648</ele>
        <time>2011-05-22T14:06:30.000Z</time>
      </trkpt>
      <trkpt lat="48.70061" lon="1.7305">
        <ele>182.60000610352</ele>
        <time>2011-05-22T14:06:36.000Z</time>
      </trkpt>
      <trkpt lat="48.70057" lon="1.73063">
        <ele>183</ele>
        <time>2011-05-22T14:06:38.000Z</time>
      </trkpt>
      <trkpt lat="48.70044" lon="1.73095">
        <ele>183.39999389648</ele>
        <time>2011-05-22T14:06:44.000Z</time>
      </trkpt>
      <trkpt lat="48.70037" lon="1.73118">
        <ele>183</ele>
        <time>2011-05-22T14:06:48.000Z</time>
      </trkpt>
      <trkpt lat="48.70032" lon="1.7313">
        <ele>182.80000305176</ele>
        <time>2011-05-22T14:06:50.000Z</time>
      </trkpt>
      <trkpt lat="48.70022" lon="1.73166">
        <ele>181.60000610352</ele>
        <time>2011-05-22T14:06:56.000Z</time>
      </trkpt>
      <trkpt lat="48.7002" lon="1.7317">
        <ele>181.60000610352</ele>
        <time>2011-05-22T14:06:57.000Z</time>
      </trkpt>
      <trkpt lat="48.70009" lon="1.73197">
        <ele>180.60000610352</ele>
        <time>2011-05-22T14:07:02.000Z</time>
      </trkpt>
      <trkpt lat="48.70007" lon="1.73202">
        <ele>180.19999694824</ele>
        <time>2011-05-22T14:07:03.000Z</time>
      </trkpt>
      <trkpt lat="48.69991" lon="1.73231">
        <ele>178.39999389648</ele>
        <time>2011-05-22T14:07:09.000Z</time>
      </trkpt>
      <trkpt lat="48.69979" lon="1.73253">
        <ele>177.19999694824</ele>
        <time>2011-05-22T14:07:14.000Z</time>
      </trkpt>
      <trkpt lat="48.69973" lon="1.73269">
        <ele>177.19999694824</ele>
        <time>2011-05-22T14:07:17.000Z</time>
      </trkpt>
      <trkpt lat="48.69955" lon="1.73304">
        <ele>177.19999694824</ele>
        <time>2011-05-22T14:07:24.000Z</time>
      </trkpt>
      <trkpt lat="48.69941" lon="1.7333">
        <ele>177.39999389648</ele>
        <time>2011-05-22T14:07:29.000Z</time>
      </trkpt>
      <trkpt lat="48.69932" lon="1.73344">
        <ele>177.39999389648</ele>
        <time>2011-05-22T14:07:32.000Z</time>
      </trkpt>
      <trkpt lat="48.69922" lon="1.73365">
        <ele>177.80000305176</ele>
        <time>2011-05-22T14:07:36.000Z</time>
      </trkpt>
      <trkpt lat="48.69915" lon="1.73381">
        <ele>178</ele>
        <time>2011-05-22T14:07:39.000Z</time>
      </trkpt>
      <trkpt lat="48.6991" lon="1.7339">
        <ele>178.19999694824</ele>
        <time>2011-05-22T14:07:41.000Z</time>
      </trkpt>
      <trkpt lat="48.69896" lon="1.73423">
        <ele>178.80000305176</ele>
        <time>2011-05-22T14:07:47.000Z</time>
      </trkpt>
      <trkpt lat="48.69894" lon="1.73428">
        <ele>178.60000610352</ele>
        <time>2011-05-22T14:07:48.000Z</time>
      </trkpt>
      <trkpt lat="48.69889" lon="1.73437">
        <ele>178.39999389648</ele>
        <time>2011-05-22T14:07:50.000Z</time>
      </trkpt>
      <trkpt lat="48.69883" lon="1.73446">
        <ele>178.19999694824</ele>
        <time>2011-05-22T14:07:52.000Z</time>
      </trkpt>
      <trkpt lat="48.6988" lon="1.73471">
        <ele>177.80000305176</ele>
        <time>2011-05-22T14:07:57.000Z</time>
      </trkpt>
      <trkpt lat="48.69881" lon="1.73481">
        <ele>177.60000610352</ele>
        <time>2011-05-22T14:07:59.000Z</time>
      </trkpt>
      <trkpt lat="48.6989" lon="1.73506">
        <ele>176.80000305176</ele>
        <time>2011-05-22T14:08:05.000Z</time>
      </trkpt>
      <trkpt lat="48.69904" lon="1.73522">
        <ele>176.39999389648</ele>
        <time>2011-05-22T14:08:10.000Z</time>
      </trkpt>
      <trkpt lat="48.69924" lon="1.73543">
        <ele>176</ele>
        <time>2011-05-22T14:08:16.000Z</time>
      </trkpt>
      <trkpt lat="48.6993" lon="1.73551">
        <ele>176</ele>
        <time>2011-05-22T14:08:18.000Z</time>
      </trkpt>
      <trkpt lat="48.69949" lon="1.73567">
        <ele>176.19999694824</ele>
        <time>2011-05-22T14:08:23.000Z</time>
      </trkpt>
      <trkpt lat="48.69961" lon="1.73583">
        <ele>176.39999389648</ele>
        <time>2011-05-22T14:08:27.000Z</time>
      </trkpt>
      <trkpt lat="48.69966" lon="1.73591">
        <ele>176.60000610352</ele>
        <time>2011-05-22T14:08:29.000Z</time>
      </trkpt>
      <trkpt lat="48.69984" lon="1.73618">
        <ele>177.39999389648</ele>
        <time>2011-05-22T14:08:36.000Z</time>
      </trkpt>
      <trkpt lat="48.69994" lon="1.73634">
        <ele>178</ele>
        <time>2011-05-22T14:08:40.000Z</time>
      </trkpt>
      <trkpt lat="48.70005" lon="1.73657">
        <ele>178.60000610352</ele>
        <time>2011-05-22T14:08:45.000Z</time>
      </trkpt>
      <trkpt lat="48.70018" lon="1.73681">
        <ele>178.39999389648</ele>
        <time>2011-05-22T14:08:51.000Z</time>
      </trkpt>
      <trkpt lat="48.70028" lon="1.73702">
        <ele>178</ele>
        <time>2011-05-22T14:08:56.000Z</time>
      </trkpt>
      <trkpt lat="48.70043" lon="1.73715">
        <ele>177.60000610352</ele>
        <time>2011-05-22T14:09:01.000Z</time>
      </trkpt>
      <trkpt lat="48.70064" lon="1.73722">
        <ele>177.19999694824</ele>
        <time>2011-05-22T14:09:06.000Z</time>
      </trkpt>
      <trkpt lat="48.7008" lon="1.73729">
        <ele>177</ele>
        <time>2011-05-22T14:09:11.000Z</time>
      </trkpt>
      <trkpt lat="48.70096" lon="1.73736">
        <ele>177</ele>
        <time>2011-05-22T14:09:16.000Z</time>
      </trkpt>
      <trkpt lat="48.70106" lon="1.73746">
        <ele>177.19999694824</ele>
        <time>2011-05-22T14:09:20.000Z</time>
      </trkpt>
      <trkpt lat="48.70118" lon="1.73766">
        <ele>177.39999389648</ele>
        <time>2011-05-22T14:09:25.000Z</time>
      </trkpt>
      <trkpt lat="48.70126" lon="1.73779">
        <ele>177.60000610352</ele>
        <time>2011-05-22T14:09:29.000Z</time>
      </trkpt>
      <trkpt lat="48.7014" lon="1.73792">
        <ele>177.80000305176</ele>
        <time>2011-05-22T14:09:34.000Z</time>
      </trkpt>
      <trkpt lat="48.70154" lon="1.73804">
        <ele>177.80000305176</ele>
        <time>2011-05-22T14:09:39.000Z</time>
      </trkpt>
      <trkpt lat="48.70169" lon="1.73827">
        <ele>178</ele>
        <time>2011-05-22T14:09:45.000Z</time>
      </trkpt>
      <trkpt lat="48.70179" lon="1.73841">
        <ele>178</ele>
        <time>2011-05-22T14:09:49.000Z</time>
      </trkpt>
      <trkpt lat="48.70193" lon="1.73858">
        <ele>178</ele>
        <time>2011-05-22T14:09:55.000Z</time>
      </trkpt>
      <trkpt lat="48.70208" lon="1.7387">
        <ele>178</ele>
        <time>2011-05-22T14:10:00.000Z</time>
      </trkpt>
      <trkpt lat="48.70223" lon="1.73885">
        <ele>178</ele>
        <time>2011-05-22T14:10:05.000Z</time>
      </trkpt>
      <trkpt lat="48.70235" lon="1.73895">
        <ele>178</ele>
        <time>2011-05-22T14:10:09.000Z</time>
      </trkpt>
      <trkpt lat="48.70244" lon="1.73905">
        <ele>178</ele>
        <time>2011-05-22T14:10:13.000Z</time>
      </trkpt>
      <trkpt lat="48.70241" lon="1.73915">
        <ele>178</ele>
        <time>2011-05-22T14:10:18.000Z</time>
      </trkpt>
      <trkpt lat="48.70239" lon="1.7392">
        <ele>178</ele>
        <time>2011-05-22T14:10:21.000Z</time>
      </trkpt>
      <trkpt lat="48.70233" lon="1.7393">
        <ele>178.39999389648</ele>
        <time>2011-05-22T14:10:28.000Z</time>
      </trkpt>
      <trkpt lat="48.70226" lon="1.73937">
        <ele>178.39999389648</ele>
        <time>2011-05-22T14:10:35.000Z</time>
      </trkpt>
      <trkpt lat="48.70219" lon="1.73947">
        <ele>178.80000305176</ele>
        <time>2011-05-22T14:10:42.000Z</time>
      </trkpt>
      <trkpt lat="48.70212" lon="1.73958">
        <ele>179</ele>
        <time>2011-05-22T14:10:49.000Z</time>
      </trkpt>
      <trkpt lat="48.70204" lon="1.73971">
        <ele>179.19999694824</ele>
        <time>2011-05-22T14:10:56.000Z</time>
      </trkpt>
      <trkpt lat="48.70201" lon="1.73973">
        <ele>179.19999694824</ele>
        <time>2011-05-22T14:10:58.000Z</time>
      </trkpt>
      <trkpt lat="48.70194" lon="1.73982">
        <ele>179.19999694824</ele>
        <time>2011-05-22T14:11:04.000Z</time>
      </trkpt>
      <trkpt lat="48.70188" lon="1.73995">
        <ele>179.39999389648</ele>
        <time>2011-05-22T14:11:10.000Z</time>
      </trkpt>
      <trkpt lat="48.70187" lon="1.73996">
        <ele>179.39999389648</ele>
        <time>2011-05-22T14:11:11.000Z</time>
      </trkpt>
      <trkpt lat="48.70181" lon="1.7401">
        <ele>179.19999694824</ele>
        <time>2011-05-22T14:11:18.000Z</time>
      </trkpt>
      <trkpt lat="48.70179" lon="1.74026">
        <ele>179.19999694824</ele>
        <time>2011-05-22T14:11:25.000Z</time>
      </trkpt>
      <trkpt lat="48.70178" lon="1.74032">
        <ele>179.19999694824</ele>
        <time>2011-05-22T14:11:28.000Z</time>
      </trkpt>
      <trkpt lat="48.70174" lon="1.74045">
        <ele>179.19999694824</ele>
        <time>2011-05-22T14:11:34.000Z</time>
      </trkpt>
      <trkpt lat="48.70174" lon="1.74048">
        <ele>179.19999694824</ele>
        <time>2011-05-22T14:11:35.000Z</time>
      </trkpt>
      <trkpt lat="48.70176" lon="1.74059">
        <ele>179.19999694824</ele>
        <time>2011-05-22T14:11:40.000Z</time>
      </trkpt>
      <trkpt lat="48.7018" lon="1.74079">
        <ele>179.39999389648</ele>
        <time>2011-05-22T14:11:48.000Z</time>
      </trkpt>
      <trkpt lat="48.70183" lon="1.74093">
        <ele>179.39999389648</ele>
        <time>2011-05-22T14:11:55.000Z</time>
      </trkpt>
      <trkpt lat="48.70186" lon="1.74107">
        <ele>179.60000610352</ele>
        <time>2011-05-22T14:12:01.000Z</time>
      </trkpt>
      <trkpt lat="48.70189" lon="1.74125">
        <ele>179.60000610352</ele>
        <time>2011-05-22T14:12:09.000Z</time>
      </trkpt>
      <trkpt lat="48.70193" lon="1.74143">
        <ele>179.60000610352</ele>
        <time>2011-05-22T14:12:17.000Z</time>
      </trkpt>
      <trkpt lat="48.70197" lon="1.74162">
        <ele>179.60000610352</ele>
        <time>2011-05-22T14:12:25.000Z</time>
      </trkpt>
      <trkpt lat="48.70201" lon="1.74177">
        <ele>179.60000610352</ele>
        <time>2011-05-22T14:12:31.000Z</time>
      </trkpt>
      <trkpt lat="48.70203" lon="1.74184">
        <ele>179.39999389648</ele>
        <time>2011-05-22T14:12:35.000Z</time>
      </trkpt>
      <trkpt lat="48.70208" lon="1.74201">
        <ele>179.19999694824</ele>
        <time>2011-05-22T14:12:43.000Z</time>
      </trkpt>
      <trkpt lat="48.70218" lon="1.74217">
        <ele>179.39999389648</ele>
        <time>2011-05-22T14:12:51.000Z</time>
      </trkpt>
      <trkpt lat="48.70225" lon="1.74224">
        <ele>179.39999389648</ele>
        <time>2011-05-22T14:12:56.000Z</time>
      </trkpt>
      <trkpt lat="48.70232" lon="1.74229">
        <ele>179.60000610352</ele>
        <time>2011-05-22T14:13:01.000Z</time>
      </trkpt>
      <trkpt lat="48.70241" lon="1.74243">
        <ele>179.60000610352</ele>
        <time>2011-05-22T14:13:08.000Z</time>
      </trkpt>
      <trkpt lat="48.70249" lon="1.74256">
        <ele>179.80000305176</ele>
        <time>2011-05-22T14:13:14.000Z</time>
      </trkpt>
      <trkpt lat="48.70253" lon="1.74273">
        <ele>179.60000610352</ele>
        <time>2011-05-22T14:13:20.000Z</time>
      </trkpt>
      <trkpt lat="48.70255" lon="1.7428">
        <ele>179.60000610352</ele>
        <time>2011-05-22T14:13:23.000Z</time>
      </trkpt>
      <trkpt lat="48.70257" lon="1.74295">
        <ele>179.39999389648</ele>
        <time>2011-05-22T14:13:29.000Z</time>
      </trkpt>
      <trkpt lat="48.70261" lon="1.7432">
        <ele>179</ele>
        <time>2011-05-22T14:13:38.000Z</time>
      </trkpt>
      <trkpt lat="48.70264" lon="1.74339">
        <ele>178.60000610352</ele>
        <time>2011-05-22T14:13:44.000Z</time>
      </trkpt>
      <trkpt lat="48.70267" lon="1.74355">
        <ele>177.80000305176</ele>
        <time>2011-05-22T14:13:51.000Z</time>
      </trkpt>
      <trkpt lat="48.70271" lon="1.7437">
        <ele>177.19999694824</ele>
        <time>2011-05-22T14:13:56.000Z</time>
      </trkpt>
      <trkpt lat="48.70274" lon="1.74387">
        <ele>176.39999389648</ele>
        <time>2011-05-22T14:14:03.000Z</time>
      </trkpt>
      <trkpt lat="48.70276" lon="1.74404">
        <ele>175.39999389648</ele>
        <time>2011-05-22T14:14:10.000Z</time>
      </trkpt>
      <trkpt lat="48.70279" lon="1.74422">
        <ele>174.80000305176</ele>
        <time>2011-05-22T14:14:16.000Z</time>
      </trkpt>
      <trkpt lat="48.70279" lon="1.74441">
        <ele>174.39999389648</ele>
        <time>2011-05-22T14:14:23.000Z</time>
      </trkpt>
      <trkpt lat="48.70277" lon="1.74454">
        <ele>174</ele>
        <time>2011-05-22T14:14:28.000Z</time>
      </trkpt>
      <trkpt lat="48.70276" lon="1.74459">
        <ele>173.80000305176</ele>
        <time>2011-05-22T14:14:30.000Z</time>
      </trkpt>
      <trkpt lat="48.70273" lon="1.74475">
        <ele>173.60000610352</ele>
        <time>2011-05-22T14:14:36.000Z</time>
      </trkpt>
      <trkpt lat="48.70274" lon="1.7448">
        <ele>173.39999389648</ele>
        <time>2011-05-22T14:14:38.000Z</time>
      </trkpt>
      <trkpt lat="48.70274" lon="1.74494">
        <ele>173</ele>
        <time>2011-05-22T14:14:44.000Z</time>
      </trkpt>
      <trkpt lat="48.7028" lon="1.74519">
        <ele>172.39999389648</ele>
        <time>2011-05-22T14:14:53.000Z</time>
      </trkpt>
      <trkpt lat="48.70285" lon="1.74536">
        <ele>171.80000305176</ele>
        <time>2011-05-22T14:15:00.000Z</time>
      </trkpt>
      <trkpt lat="48.70293" lon="1.74555">
        <ele>171.60000610352</ele>
        <time>2011-05-22T14:15:07.000Z</time>
      </trkpt>
      <trkpt lat="48.70298" lon="1.74571">
        <ele>171.39999389648</ele>
        <time>2011-05-22T14:15:13.000Z</time>
      </trkpt>
      <trkpt lat="48.70299" lon="1.74573">
        <ele>171.39999389648</ele>
        <time>2011-05-22T14:15:14.000Z</time>
      </trkpt>
      <trkpt lat="48.70301" lon="1.7459">
        <ele>171.19999694824</ele>
        <time>2011-05-22T14:15:20.000Z</time>
      </trkpt>
      <trkpt lat="48.70301" lon="1.74604">
        <ele>170.60000610352</ele>
        <time>2011-05-22T14:15:26.000Z</time>
      </trkpt>
      <trkpt lat="48.70304" lon="1.74621">
        <ele>170.19999694824</ele>
        <time>2011-05-22T14:15:33.000Z</time>
      </trkpt>
      <trkpt lat="48.70308" lon="1.74637">
        <ele>169.60000610352</ele>
        <time>2011-05-22T14:15:40.000Z</time>
      </trkpt>
      <trkpt lat="48.70309" lon="1.74642">
        <ele>169.60000610352</ele>
        <time>2011-05-22T14:15:42.000Z</time>
      </trkpt>
      <trkpt lat="48.70305" lon="1.74648">
        <ele>169.19999694824</ele>
        <time>2011-05-22T14:15:46.000Z</time>
      </trkpt>
      <trkpt lat="48.70289" lon="1.74661">
        <ele>168.60000610352</ele>
        <time>2011-05-22T14:15:56.000Z</time>
      </trkpt>
      <trkpt lat="48.70286" lon="1.74676">
        <ele>168.39999389648</ele>
        <time>2011-05-22T14:16:02.000Z</time>
      </trkpt>
      <trkpt lat="48.70282" lon="1.74691">
        <ele>168.80000305176</ele>
        <time>2011-05-22T14:16:08.000Z</time>
      </trkpt>
      <trkpt lat="48.70281" lon="1.74693">
        <ele>168.80000305176</ele>
        <time>2011-05-22T14:16:09.000Z</time>
      </trkpt>
      <trkpt lat="48.70278" lon="1.74702">
        <ele>169</ele>
        <time>2011-05-22T14:16:13.000Z</time>
      </trkpt>
      <trkpt lat="48.70275" lon="1.7473">
        <ele>169.60000610352</ele>
        <time>2011-05-22T14:16:23.000Z</time>
      </trkpt>
      <trkpt lat="48.70273" lon="1.74745">
        <ele>170</ele>
        <time>2011-05-22T14:16:29.000Z</time>
      </trkpt>
      <trkpt lat="48.70271" lon="1.74763">
        <ele>170.39999389648</ele>
        <time>2011-05-22T14:16:35.000Z</time>
      </trkpt>
      <trkpt lat="48.70268" lon="1.74782">
        <ele>171</ele>
        <time>2011-05-22T14:16:42.000Z</time>
      </trkpt>
      <trkpt lat="48.70265" lon="1.74801">
        <ele>171.39999389648</ele>
        <time>2011-05-22T14:16:50.000Z</time>
      </trkpt>
      <trkpt lat="48.70262" lon="1.74823">
        <ele>172.19999694824</ele>
        <time>2011-05-22T14:16:59.000Z</time>
      </trkpt>
      <trkpt lat="48.70261" lon="1.74825">
        <ele>172.19999694824</ele>
        <time>2011-05-22T14:17:00.000Z</time>
      </trkpt>
      <trkpt lat="48.70261" lon="1.74836">
        <ele>172.39999389648</ele>
        <time>2011-05-22T14:17:04.000Z</time>
      </trkpt>
      <trkpt lat="48.70258" lon="1.74855">
        <ele>172.60000610352</ele>
        <time>2011-05-22T14:17:11.000Z</time>
      </trkpt>
      <trkpt lat="48.70255" lon="1.74878">
        <ele>172.80000305176</ele>
        <time>2011-05-22T14:17:20.000Z</time>
      </trkpt>
      <trkpt lat="48.70253" lon="1.74897">
        <ele>172.80000305176</ele>
        <time>2011-05-22T14:17:28.000Z</time>
      </trkpt>
      <trkpt lat="48.70249" lon="1.7492">
        <ele>173</ele>
        <time>2011-05-22T14:17:37.000Z</time>
      </trkpt>
      <trkpt lat="48.70247" lon="1.74934">
        <ele>173.80000305176</ele>
        <time>2011-05-22T14:17:43.000Z</time>
      </trkpt>
      <trkpt lat="48.70243" lon="1.7495">
        <ele>174.60000610352</ele>
        <time>2011-05-22T14:17:50.000Z</time>
      </trkpt>
      <trkpt lat="48.70241" lon="1.74973">
        <ele>175.80000305176</ele>
        <time>2011-05-22T14:17:59.000Z</time>
      </trkpt>
      <trkpt lat="48.7024" lon="1.74992">
        <ele>176.60000610352</ele>
        <time>2011-05-22T14:18:06.000Z</time>
      </trkpt>
      <trkpt lat="48.70236" lon="1.75007">
        <ele>177.19999694824</ele>
        <time>2011-05-22T14:18:12.000Z</time>
      </trkpt>
      <trkpt lat="48.70232" lon="1.75023">
        <ele>177.60000610352</ele>
        <time>2011-05-22T14:18:19.000Z</time>
      </trkpt>
      <trkpt lat="48.70229" lon="1.75035">
        <ele>177.80000305176</ele>
        <time>2011-05-22T14:18:25.000Z</time>
      </trkpt>
      <trkpt lat="48.70229" lon="1.75049">
        <ele>178</ele>
        <time>2011-05-22T14:18:31.000Z</time>
      </trkpt>
      <trkpt lat="48.70227" lon="1.75064">
        <ele>178.19999694824</ele>
        <time>2011-05-22T14:18:36.000Z</time>
      </trkpt>
      <trkpt lat="48.70224" lon="1.75076">
        <ele>178.39999389648</ele>
        <time>2011-05-22T14:18:41.000Z</time>
      </trkpt>
      <trkpt lat="48.70221" lon="1.75097">
        <ele>178.39999389648</ele>
        <time>2011-05-22T14:18:49.000Z</time>
      </trkpt>
      <trkpt lat="48.70218" lon="1.75113">
        <ele>178.19999694824</ele>
        <time>2011-05-22T14:18:55.000Z</time>
      </trkpt>
      <trkpt lat="48.70217" lon="1.75128">
        <ele>178</ele>
        <time>2011-05-22T14:19:00.000Z</time>
      </trkpt>
      <trkpt lat="48.70213" lon="1.75148">
        <ele>177.80000305176</ele>
        <time>2011-05-22T14:19:08.000Z</time>
      </trkpt>
      <trkpt lat="48.70209" lon="1.75162">
        <ele>177.39999389648</ele>
        <time>2011-05-22T14:19:15.000Z</time>
      </trkpt>
      <trkpt lat="48.70207" lon="1.75173">
        <ele>177.39999389648</ele>
        <time>2011-05-22T14:19:20.000Z</time>
      </trkpt>
      <trkpt lat="48.70204" lon="1.75192">
        <ele>177.39999389648</ele>
        <time>2011-05-22T14:19:27.000Z</time>
      </trkpt>
      <trkpt lat="48.70201" lon="1.75204">
        <ele>177.39999389648</ele>
        <time>2011-05-22T14:19:33.000Z</time>
      </trkpt>
      <trkpt lat="48.70198" lon="1.75219">
        <ele>177.19999694824</ele>
        <time>2011-05-22T14:19:40.000Z</time>
      </trkpt>
      <trkpt lat="48.70198" lon="1.75221">
        <ele>177.19999694824</ele>
        <time>2011-05-22T14:19:41.000Z</time>
      </trkpt>
      <trkpt lat="48.70203" lon="1.75236">
        <ele>177.60000610352</ele>
        <time>2011-05-22T14:19:49.000Z</time>
      </trkpt>
      <trkpt lat="48.70212" lon="1.75236">
        <ele>178</ele>
        <time>2011-05-22T14:19:56.000Z</time>
      </trkpt>
      <trkpt lat="48.70227" lon="1.75242">
        <ele>178.80000305176</ele>
        <time>2011-05-22T14:20:05.000Z</time>
      </trkpt>
      <trkpt lat="48.70239" lon="1.7525">
        <ele>179.39999389648</ele>
        <time>2011-05-22T14:20:13.000Z</time>
      </trkpt>
      <trkpt lat="48.70246" lon="1.75256">
        <ele>179.60000610352</ele>
        <time>2011-05-22T14:20:19.000Z</time>
      </trkpt>
      <trkpt lat="48.70255" lon="1.75264">
        <ele>179.80000305176</ele>
        <time>2011-05-22T14:20:26.000Z</time>
      </trkpt>
      <trkpt lat="48.70268" lon="1.75275">
        <ele>180</ele>
        <time>2011-05-22T14:20:36.000Z</time>
      </trkpt>
      <trkpt lat="48.70279" lon="1.75283">
        <ele>180.19999694824</ele>
        <time>2011-05-22T14:20:44.000Z</time>
      </trkpt>
      <trkpt lat="48.70289" lon="1.75289">
        <ele>180.39999389648</ele>
        <time>2011-05-22T14:20:50.000Z</time>
      </trkpt>
      <trkpt lat="48.70295" lon="1.75297">
        <ele>180.39999389648</ele>
        <time>2011-05-22T14:20:55.000Z</time>
      </trkpt>
      <trkpt lat="48.70297" lon="1.75301">
        <ele>180.39999389648</ele>
        <time>2011-05-22T14:20:57.000Z</time>
      </trkpt>
      <trkpt lat="48.703" lon="1.75311">
        <ele>180.39999389648</ele>
        <time>2011-05-22T14:21:02.000Z</time>
      </trkpt>
      <trkpt lat="48.70307" lon="1.75326">
        <ele>180.39999389648</ele>
        <time>2011-05-22T14:21:09.000Z</time>
      </trkpt>
      <trkpt lat="48.70317" lon="1.75341">
        <ele>180.39999389648</ele>
        <time>2011-05-22T14:21:17.000Z</time>
      </trkpt>
      <trkpt lat="48.70326" lon="1.7535">
        <ele>180.80000305176</ele>
        <time>2011-05-22T14:21:25.000Z</time>
      </trkpt>
      <trkpt lat="48.70334" lon="1.75356">
        <ele>180.80000305176</ele>
        <time>2011-05-22T14:21:31.000Z</time>
      </trkpt>
      <trkpt lat="48.70346" lon="1.75366">
        <ele>180.60000610352</ele>
        <time>2011-05-22T14:21:39.000Z</time>
      </trkpt>
      <trkpt lat="48.70352" lon="1.75373">
        <ele>180.60000610352</ele>
        <time>2011-05-22T14:21:45.000Z</time>
      </trkpt>
      <trkpt lat="48.70361" lon="1.75383">
        <ele>180.60000610352</ele>
        <time>2011-05-22T14:21:52.000Z</time>
      </trkpt>
      <trkpt lat="48.70372" lon="1.75393">
        <ele>180.80000305176</ele>
        <time>2011-05-22T14:22:00.000Z</time>
      </trkpt>
      <trkpt lat="48.70379" lon="1.75401">
        <ele>181</ele>
        <time>2011-05-22T14:22:06.000Z</time>
      </trkpt>
      <trkpt lat="48.70384" lon="1.75404">
        <ele>181.19999694824</ele>
        <time>2011-05-22T14:22:12.000Z</time>
      </trkpt>
      <trkpt lat="48.70389" lon="1.75407">
        <ele>181.19999694824</ele>
        <time>2011-05-22T14:22:17.000Z</time>
      </trkpt>
      <trkpt lat="48.70392" lon="1.75407">
        <ele>181.19999694824</ele>
        <time>2011-05-22T14:22:19.000Z</time>
      </trkpt>
      <trkpt lat="48.70393" lon="1.75406">
        <ele>181.19999694824</ele>
        <time>2011-05-22T14:22:22.000Z</time>
      </trkpt>
      <trkpt lat="48.70396" lon="1.75409">
        <ele>181.39999389648</ele>
        <time>2011-05-22T14:23:16.000Z</time>
      </trkpt>
      <trkpt lat="48.70395" lon="1.75408">
        <ele>181.39999389648</ele>
        <time>2011-05-22T14:23:18.000Z</time>
      </trkpt>
      <trkpt lat="48.70396" lon="1.75412">
        <ele>181.39999389648</ele>
        <time>2011-05-22T14:23:26.000Z</time>
      </trkpt>
      <trkpt lat="48.70396" lon="1.75411">
        <ele>181.39999389648</ele>
        <time>2011-05-22T14:23:28.000Z</time>
      </trkpt>
      <trkpt lat="48.704" lon="1.75409">
        <ele>181.39999389648</ele>
        <time>2011-05-22T14:24:15.000Z</time>
      </trkpt>
      <trkpt lat="48.70405" lon="1.75413">
        <ele>181.60000610352</ele>
        <time>2011-05-22T14:24:19.000Z</time>
      </trkpt>
      <trkpt lat="48.7041" lon="1.75417">
        <ele>181.80000305176</ele>
        <time>2011-05-22T14:24:23.000Z</time>
      </trkpt>
      <trkpt lat="48.70418" lon="1.75422">
        <ele>181.80000305176</ele>
        <time>2011-05-22T14:24:29.000Z</time>
      </trkpt>
      <trkpt lat="48.70427" lon="1.75428">
        <ele>181.39999389648</ele>
        <time>2011-05-22T14:24:34.000Z</time>
      </trkpt>
      <trkpt lat="48.70436" lon="1.75437">
        <ele>181.19999694824</ele>
        <time>2011-05-22T14:24:41.000Z</time>
      </trkpt>
      <trkpt lat="48.70438" lon="1.75439">
        <ele>181</ele>
        <time>2011-05-22T14:24:43.000Z</time>
      </trkpt>
      <trkpt lat="48.7045" lon="1.75449">
        <ele>180.80000305176</ele>
        <time>2011-05-22T14:24:52.000Z</time>
      </trkpt>
      <trkpt lat="48.70454" lon="1.75451">
        <ele>180.60000610352</ele>
        <time>2011-05-22T14:24:55.000Z</time>
      </trkpt>
      <trkpt lat="48.70461" lon="1.7546">
        <ele>180.60000610352</ele>
        <time>2011-05-22T14:25:03.000Z</time>
      </trkpt>
      <trkpt lat="48.7047" lon="1.75469">
        <ele>180.60000610352</ele>
        <time>2011-05-22T14:25:11.000Z</time>
      </trkpt>
      <trkpt lat="48.70481" lon="1.75479">
        <ele>180.39999389648</ele>
        <time>2011-05-22T14:25:19.000Z</time>
      </trkpt>
      <trkpt lat="48.70488" lon="1.75486">
        <ele>180.60000610352</ele>
        <time>2011-05-22T14:25:25.000Z</time>
      </trkpt>
      <trkpt lat="48.70492" lon="1.75492">
        <ele>180.80000305176</ele>
        <time>2011-05-22T14:25:30.000Z</time>
      </trkpt>
      <trkpt lat="48.705" lon="1.75499">
        <ele>180.80000305176</ele>
        <time>2011-05-22T14:25:36.000Z</time>
      </trkpt>
      <trkpt lat="48.70506" lon="1.75506">
        <ele>180.60000610352</ele>
        <time>2011-05-22T14:25:42.000Z</time>
      </trkpt>
      <trkpt lat="48.70514" lon="1.75513">
        <ele>180.60000610352</ele>
        <time>2011-05-22T14:25:49.000Z</time>
      </trkpt>
      <trkpt lat="48.7052" lon="1.75519">
        <ele>180.39999389648</ele>
        <time>2011-05-22T14:25:53.000Z</time>
      </trkpt>
      <trkpt lat="48.7053" lon="1.75528">
        <ele>180.39999389648</ele>
        <time>2011-05-22T14:26:01.000Z</time>
      </trkpt>
      <trkpt lat="48.70534" lon="1.75536">
        <ele>180.60000610352</ele>
        <time>2011-05-22T14:26:06.000Z</time>
      </trkpt>
      <trkpt lat="48.70543" lon="1.75546">
        <ele>181</ele>
        <time>2011-05-22T14:26:13.000Z</time>
      </trkpt>
      <trkpt lat="48.70549" lon="1.75553">
        <ele>181.19999694824</ele>
        <time>2011-05-22T14:26:18.000Z</time>
      </trkpt>
      <trkpt lat="48.70561" lon="1.75566">
        <ele>181.80000305176</ele>
        <time>2011-05-22T14:26:26.000Z</time>
      </trkpt>
      <trkpt lat="48.7057" lon="1.75574">
        <ele>182.19999694824</ele>
        <time>2011-05-22T14:26:32.000Z</time>
      </trkpt>
      <trkpt lat="48.70579" lon="1.7558">
        <ele>182.60000610352</ele>
        <time>2011-05-22T14:26:40.000Z</time>
      </trkpt>
      <trkpt lat="48.70579" lon="1.7558">
        <ele>182.80000305176</ele>
        <time>2011-05-22T14:26:44.000Z</time>
      </trkpt>
      <trkpt lat="48.70585" lon="1.75588">
        <ele>182.80000305176</ele>
        <time>2011-05-22T14:26:53.000Z</time>
      </trkpt>
      <trkpt lat="48.70592" lon="1.75597">
        <ele>182.39999389648</ele>
        <time>2011-05-22T14:26:59.000Z</time>
      </trkpt>
      <trkpt lat="48.70598" lon="1.75602">
        <ele>181.80000305176</ele>
        <time>2011-05-22T14:27:06.000Z</time>
      </trkpt>
      <trkpt lat="48.70604" lon="1.75609">
        <ele>181.39999389648</ele>
        <time>2011-05-22T14:27:11.000Z</time>
      </trkpt>
      <trkpt lat="48.70611" lon="1.75618">
        <ele>180.80000305176</ele>
        <time>2011-05-22T14:27:16.000Z</time>
      </trkpt>
      <trkpt lat="48.70619" lon="1.75632">
        <ele>180</ele>
        <time>2011-05-22T14:27:24.000Z</time>
      </trkpt>
      <trkpt lat="48.70628" lon="1.75646">
        <ele>179.19999694824</ele>
        <time>2011-05-22T14:27:32.000Z</time>
      </trkpt>
      <trkpt lat="48.7063" lon="1.75648">
        <ele>179</ele>
        <time>2011-05-22T14:27:34.000Z</time>
      </trkpt>
      <trkpt lat="48.70637" lon="1.75655">
        <ele>178.39999389648</ele>
        <time>2011-05-22T14:27:38.000Z</time>
      </trkpt>
      <trkpt lat="48.70646" lon="1.75666">
        <ele>177.39999389648</ele>
        <time>2011-05-22T14:27:46.000Z</time>
      </trkpt>
      <trkpt lat="48.70652" lon="1.75676">
        <ele>176.39999389648</ele>
        <time>2011-05-22T14:27:53.000Z</time>
      </trkpt>
      <trkpt lat="48.70661" lon="1.75681">
        <ele>175.39999389648</ele>
        <time>2011-05-22T14:27:59.000Z</time>
      </trkpt>
      <trkpt lat="48.70669" lon="1.7569">
        <ele>174.60000610352</ele>
        <time>2011-05-22T14:28:06.000Z</time>
      </trkpt>
      <trkpt lat="48.70671" lon="1.75693">
        <ele>174.60000610352</ele>
        <time>2011-05-22T14:28:08.000Z</time>
      </trkpt>
      <trkpt lat="48.70678" lon="1.75702">
        <ele>174.39999389648</ele>
        <time>2011-05-22T14:28:16.000Z</time>
      </trkpt>
      <trkpt lat="48.70679" lon="1.75702">
        <ele>174.39999389648</ele>
        <time>2011-05-22T14:28:19.000Z</time>
      </trkpt>
      <trkpt lat="48.70684" lon="1.75709">
        <ele>174.19999694824</ele>
        <time>2011-05-22T14:28:34.000Z</time>
      </trkpt>
      <trkpt lat="48.70694" lon="1.75722">
        <ele>174</ele>
        <time>2011-05-22T14:28:42.000Z</time>
      </trkpt>
      <trkpt lat="48.70695" lon="1.75723">
        <ele>174</ele>
        <time>2011-05-22T14:28:43.000Z</time>
      </trkpt>
      <trkpt lat="48.707" lon="1.7573">
        <ele>174</ele>
        <time>2011-05-22T14:28:49.000Z</time>
      </trkpt>
      <trkpt lat="48.70703" lon="1.75734">
        <ele>174</ele>
        <time>2011-05-22T14:28:52.000Z</time>
      </trkpt>
      <trkpt lat="48.70712" lon="1.75745">
        <ele>173.80000305176</ele>
        <time>2011-05-22T14:29:00.000Z</time>
      </trkpt>
      <trkpt lat="48.70719" lon="1.75757">
        <ele>173.80000305176</ele>
        <time>2011-05-22T14:29:08.000Z</time>
      </trkpt>
      <trkpt lat="48.70721" lon="1.7576">
        <ele>173.80000305176</ele>
        <time>2011-05-22T14:29:10.000Z</time>
      </trkpt>
      <trkpt lat="48.70724" lon="1.75766">
        <ele>173.60000610352</ele>
        <time>2011-05-22T14:29:16.000Z</time>
      </trkpt>
      <trkpt lat="48.70724" lon="1.75766">
        <ele>173.60000610352</ele>
        <time>2011-05-22T14:29:17.000Z</time>
      </trkpt>
      <trkpt lat="48.70744" lon="1.75793">
        <ele>173.39999389648</ele>
        <time>2011-05-22T14:30:07.000Z</time>
      </trkpt>
      <trkpt lat="48.7075" lon="1.75799">
        <ele>173.39999389648</ele>
        <time>2011-05-22T14:30:11.000Z</time>
      </trkpt>
      <trkpt lat="48.70751" lon="1.75801">
        <ele>173.19999694824</ele>
        <time>2011-05-22T14:30:12.000Z</time>
      </trkpt>
      <trkpt lat="48.70753" lon="1.75803">
        <ele>173.19999694824</ele>
        <time>2011-05-22T14:30:14.000Z</time>
      </trkpt>
      <trkpt lat="48.70758" lon="1.75808">
        <ele>173</ele>
        <time>2011-05-22T14:30:18.000Z</time>
      </trkpt>
      <trkpt lat="48.70759" lon="1.75809">
        <ele>173</ele>
        <time>2011-05-22T14:30:19.000Z</time>
      </trkpt>
      <trkpt lat="48.70769" lon="1.75818">
        <ele>172.80000305176</ele>
        <time>2011-05-22T14:30:26.000Z</time>
      </trkpt>
      <trkpt lat="48.7077" lon="1.75819">
        <ele>172.80000305176</ele>
        <time>2011-05-22T14:30:27.000Z</time>
      </trkpt>
      <trkpt lat="48.70775" lon="1.75828">
        <ele>172.60000610352</ele>
        <time>2011-05-22T14:30:33.000Z</time>
      </trkpt>
      <trkpt lat="48.70778" lon="1.75833">
        <ele>172.60000610352</ele>
        <time>2011-05-22T14:30:37.000Z</time>
      </trkpt>
      <trkpt lat="48.70779" lon="1.75835">
        <ele>172.60000610352</ele>
        <time>2011-05-22T14:30:39.000Z</time>
      </trkpt>
      <trkpt lat="48.70783" lon="1.75844">
        <ele>172.60000610352</ele>
        <time>2011-05-22T14:30:45.000Z</time>
      </trkpt>
      <trkpt lat="48.70785" lon="1.75847">
        <ele>172.60000610352</ele>
        <time>2011-05-22T14:30:47.000Z</time>
      </trkpt>
      <trkpt lat="48.70788" lon="1.75849">
        <ele>172.60000610352</ele>
        <time>2011-05-22T14:30:50.000Z</time>
      </trkpt>
      <trkpt lat="48.70794" lon="1.75856">
        <ele>172.60000610352</ele>
        <time>2011-05-22T14:30:57.000Z</time>
      </trkpt>
      <trkpt lat="48.70798" lon="1.7586">
        <ele>172.60000610352</ele>
        <time>2011-05-22T14:31:03.000Z</time>
      </trkpt>
      <trkpt lat="48.708" lon="1.75862">
        <ele>172.80000305176</ele>
        <time>2011-05-22T14:31:08.000Z</time>
      </trkpt>
    </trkseg>
  </trk>
</gpx>